<?xml version="1.0" encoding="UTF-8" standalone="no" ?>
<gpx xmlns="http://www.topografix.com/GPX/1/1" xmlns:xsi="http://www.w3.org/2001/XMLSchema-instance" xsi:schemaLocation="http://www.topografix.com/GPX/1/1 http://www.topografix.com/GPX/1/1/gpx.xsd" version="1.1" creator="VisuGPX - https://www.visugpx.com">
  <metadata>
    <name>Boucle au Gros Morond</name>
    <desc><![CDATA[Boucle au Gros Morond depuis Métabief]]></desc>
  </metadata>
  <trk>
    <name><![CDATA[Move]]></name>
    <trkseg>
      <trkpt lat="46.76874" lon="6.35797">
        <ele>1031.5651399633</ele>
        <time>2017-05-22T08:21:50.000Z</time>
      </trkpt>
      <trkpt lat="46.76871" lon="6.35797">
        <ele>1026</ele>
        <time>2017-05-22T08:21:52.000Z</time>
      </trkpt>
      <trkpt lat="46.76869" lon="6.35796">
        <ele>1026</ele>
        <time>2017-05-22T08:21:54.000Z</time>
      </trkpt>
      <trkpt lat="46.76866" lon="6.35796">
        <ele>1026.72</ele>
        <time>2017-05-22T08:21:56.000Z</time>
      </trkpt>
      <trkpt lat="46.76863" lon="6.35795">
        <ele>1027</ele>
        <time>2017-05-22T08:21:58.000Z</time>
      </trkpt>
      <trkpt lat="46.7686" lon="6.35796">
        <ele>1027</ele>
        <time>2017-05-22T08:22:00.000Z</time>
      </trkpt>
      <trkpt lat="46.76857" lon="6.35796">
        <ele>1027</ele>
        <time>2017-05-22T08:22:02.000Z</time>
      </trkpt>
      <trkpt lat="46.76854" lon="6.35796">
        <ele>1027</ele>
        <time>2017-05-22T08:22:04.000Z</time>
      </trkpt>
      <trkpt lat="46.76851" lon="6.35795">
        <ele>1027</ele>
        <time>2017-05-22T08:22:08.000Z</time>
      </trkpt>
      <trkpt lat="46.76848" lon="6.35796">
        <ele>1027</ele>
        <time>2017-05-22T08:22:10.000Z</time>
      </trkpt>
      <trkpt lat="46.76845" lon="6.35796">
        <ele>1027</ele>
        <time>2017-05-22T08:22:12.000Z</time>
      </trkpt>
      <trkpt lat="46.76842" lon="6.35796">
        <ele>1027</ele>
        <time>2017-05-22T08:22:14.000Z</time>
      </trkpt>
      <trkpt lat="46.76839" lon="6.35797">
        <ele>1028</ele>
        <time>2017-05-22T08:22:16.000Z</time>
      </trkpt>
      <trkpt lat="46.76837" lon="6.35798">
        <ele>1028</ele>
        <time>2017-05-22T08:22:18.000Z</time>
      </trkpt>
      <trkpt lat="46.76835" lon="6.35798">
        <ele>1028</ele>
        <time>2017-05-22T08:22:20.000Z</time>
      </trkpt>
      <trkpt lat="46.76833" lon="6.35799">
        <ele>1028</ele>
        <time>2017-05-22T08:22:22.000Z</time>
      </trkpt>
      <trkpt lat="46.7683" lon="6.358">
        <ele>1028</ele>
        <time>2017-05-22T08:22:24.000Z</time>
      </trkpt>
      <trkpt lat="46.76828" lon="6.35802">
        <ele>1028</ele>
        <time>2017-05-22T08:22:26.000Z</time>
      </trkpt>
      <trkpt lat="46.76825" lon="6.35803">
        <ele>1028.5454545454</ele>
        <time>2017-05-22T08:22:28.000Z</time>
      </trkpt>
      <trkpt lat="46.76823" lon="6.35805">
        <ele>1030</ele>
        <time>2017-05-22T08:22:30.000Z</time>
      </trkpt>
      <trkpt lat="46.7682" lon="6.35807">
        <ele>1030</ele>
        <time>2017-05-22T08:22:32.000Z</time>
      </trkpt>
      <trkpt lat="46.76818" lon="6.35809">
        <ele>1030</ele>
        <time>2017-05-22T08:22:34.000Z</time>
      </trkpt>
      <trkpt lat="46.76816" lon="6.35811">
        <ele>1030</ele>
        <time>2017-05-22T08:22:36.000Z</time>
      </trkpt>
      <trkpt lat="46.76814" lon="6.35813">
        <ele>1030</ele>
        <time>2017-05-22T08:22:38.000Z</time>
      </trkpt>
      <trkpt lat="46.76811" lon="6.35816">
        <ele>1030</ele>
        <time>2017-05-22T08:22:40.000Z</time>
      </trkpt>
      <trkpt lat="46.7681" lon="6.35819">
        <ele>1030</ele>
        <time>2017-05-22T08:22:42.000Z</time>
      </trkpt>
      <trkpt lat="46.76808" lon="6.35821">
        <ele>1030</ele>
        <time>2017-05-22T08:22:44.000Z</time>
      </trkpt>
      <trkpt lat="46.76806" lon="6.35825">
        <ele>1030</ele>
        <time>2017-05-22T08:22:46.000Z</time>
      </trkpt>
      <trkpt lat="46.76804" lon="6.35828">
        <ele>1031</ele>
        <time>2017-05-22T08:22:48.000Z</time>
      </trkpt>
      <trkpt lat="46.76802" lon="6.35831">
        <ele>1031</ele>
        <time>2017-05-22T08:22:50.000Z</time>
      </trkpt>
      <trkpt lat="46.768" lon="6.35833">
        <ele>1031</ele>
        <time>2017-05-22T08:22:52.000Z</time>
      </trkpt>
      <trkpt lat="46.76799" lon="6.35836">
        <ele>1030</ele>
        <time>2017-05-22T08:22:54.000Z</time>
      </trkpt>
      <trkpt lat="46.76797" lon="6.35839">
        <ele>1030</ele>
        <time>2017-05-22T08:22:56.000Z</time>
      </trkpt>
      <trkpt lat="46.76794" lon="6.35842">
        <ele>1030.7113392539</ele>
        <time>2017-05-22T08:22:58.000Z</time>
      </trkpt>
      <trkpt lat="46.76792" lon="6.35844">
        <ele>1031</ele>
        <time>2017-05-22T08:23:00.000Z</time>
      </trkpt>
      <trkpt lat="46.76791" lon="6.35846">
        <ele>1031.72</ele>
        <time>2017-05-22T08:23:02.000Z</time>
      </trkpt>
      <trkpt lat="46.76789" lon="6.35849">
        <ele>1032</ele>
        <time>2017-05-22T08:23:04.000Z</time>
      </trkpt>
      <trkpt lat="46.76786" lon="6.35851">
        <ele>1032</ele>
        <time>2017-05-22T08:23:06.000Z</time>
      </trkpt>
      <trkpt lat="46.76784" lon="6.35853">
        <ele>1032.72</ele>
        <time>2017-05-22T08:23:08.000Z</time>
      </trkpt>
      <trkpt lat="46.76782" lon="6.35855">
        <ele>1033</ele>
        <time>2017-05-22T08:23:10.000Z</time>
      </trkpt>
      <trkpt lat="46.76779" lon="6.35857">
        <ele>1033</ele>
        <time>2017-05-22T08:23:12.000Z</time>
      </trkpt>
      <trkpt lat="46.76776" lon="6.35858">
        <ele>1034</ele>
        <time>2017-05-22T08:23:14.000Z</time>
      </trkpt>
      <trkpt lat="46.76774" lon="6.3586">
        <ele>1034</ele>
        <time>2017-05-22T08:23:16.000Z</time>
      </trkpt>
      <trkpt lat="46.76772" lon="6.35862">
        <ele>1034</ele>
        <time>2017-05-22T08:23:18.000Z</time>
      </trkpt>
      <trkpt lat="46.76769" lon="6.35863">
        <ele>1035</ele>
        <time>2017-05-22T08:23:20.000Z</time>
      </trkpt>
      <trkpt lat="46.76767" lon="6.35865">
        <ele>1035</ele>
        <time>2017-05-22T08:23:22.000Z</time>
      </trkpt>
      <trkpt lat="46.76765" lon="6.35866">
        <ele>1035.72</ele>
        <time>2017-05-22T08:23:24.000Z</time>
      </trkpt>
      <trkpt lat="46.76763" lon="6.35868">
        <ele>1036</ele>
        <time>2017-05-22T08:23:26.000Z</time>
      </trkpt>
      <trkpt lat="46.76761" lon="6.3587">
        <ele>1036</ele>
        <time>2017-05-22T08:23:28.000Z</time>
      </trkpt>
      <trkpt lat="46.76759" lon="6.35871">
        <ele>1036</ele>
        <time>2017-05-22T08:23:30.000Z</time>
      </trkpt>
      <trkpt lat="46.76757" lon="6.35873">
        <ele>1037</ele>
        <time>2017-05-22T08:23:32.000Z</time>
      </trkpt>
      <trkpt lat="46.76755" lon="6.35875">
        <ele>1037</ele>
        <time>2017-05-22T08:23:34.000Z</time>
      </trkpt>
      <trkpt lat="46.76753" lon="6.35876">
        <ele>1037</ele>
        <time>2017-05-22T08:23:36.000Z</time>
      </trkpt>
      <trkpt lat="46.76751" lon="6.35878">
        <ele>1037.7058779239</ele>
        <time>2017-05-22T08:23:38.000Z</time>
      </trkpt>
      <trkpt lat="46.76749" lon="6.35881">
        <ele>1038</ele>
        <time>2017-05-22T08:23:40.000Z</time>
      </trkpt>
      <trkpt lat="46.76748" lon="6.35883">
        <ele>1038</ele>
        <time>2017-05-22T08:23:42.000Z</time>
      </trkpt>
      <trkpt lat="46.76746" lon="6.35885">
        <ele>1038</ele>
        <time>2017-05-22T08:23:44.000Z</time>
      </trkpt>
      <trkpt lat="46.76744" lon="6.35887">
        <ele>1039</ele>
        <time>2017-05-22T08:23:46.000Z</time>
      </trkpt>
      <trkpt lat="46.76742" lon="6.3589">
        <ele>1039</ele>
        <time>2017-05-22T08:23:48.000Z</time>
      </trkpt>
      <trkpt lat="46.76741" lon="6.35892">
        <ele>1039.72</ele>
        <time>2017-05-22T08:23:50.000Z</time>
      </trkpt>
      <trkpt lat="46.76738" lon="6.35895">
        <ele>1040</ele>
        <time>2017-05-22T08:23:52.000Z</time>
      </trkpt>
      <trkpt lat="46.76736" lon="6.35897">
        <ele>1040</ele>
        <time>2017-05-22T08:23:54.000Z</time>
      </trkpt>
      <trkpt lat="46.76734" lon="6.35899">
        <ele>1040</ele>
        <time>2017-05-22T08:23:56.000Z</time>
      </trkpt>
      <trkpt lat="46.76733" lon="6.35901">
        <ele>1040</ele>
        <time>2017-05-22T08:23:58.000Z</time>
      </trkpt>
      <trkpt lat="46.7673" lon="6.35904">
        <ele>1040</ele>
        <time>2017-05-22T08:24:00.000Z</time>
      </trkpt>
      <trkpt lat="46.76728" lon="6.35907">
        <ele>1040.72</ele>
        <time>2017-05-22T08:24:02.000Z</time>
      </trkpt>
      <trkpt lat="46.76726" lon="6.35909">
        <ele>1041</ele>
        <time>2017-05-22T08:24:04.000Z</time>
      </trkpt>
      <trkpt lat="46.76724" lon="6.35911">
        <ele>1041</ele>
        <time>2017-05-22T08:24:06.000Z</time>
      </trkpt>
      <trkpt lat="46.76722" lon="6.35913">
        <ele>1042</ele>
        <time>2017-05-22T08:24:08.000Z</time>
      </trkpt>
      <trkpt lat="46.76719" lon="6.35916">
        <ele>1042</ele>
        <time>2017-05-22T08:24:10.000Z</time>
      </trkpt>
      <trkpt lat="46.76717" lon="6.35918">
        <ele>1042</ele>
        <time>2017-05-22T08:24:12.000Z</time>
      </trkpt>
      <trkpt lat="46.76715" lon="6.3592">
        <ele>1042</ele>
        <time>2017-05-22T08:24:14.000Z</time>
      </trkpt>
      <trkpt lat="46.76713" lon="6.35922">
        <ele>1042</ele>
        <time>2017-05-22T08:24:16.000Z</time>
      </trkpt>
      <trkpt lat="46.7671" lon="6.35924">
        <ele>1042.72</ele>
        <time>2017-05-22T08:24:18.000Z</time>
      </trkpt>
      <trkpt lat="46.76708" lon="6.35927">
        <ele>1043</ele>
        <time>2017-05-22T08:24:20.000Z</time>
      </trkpt>
      <trkpt lat="46.76706" lon="6.35929">
        <ele>1043</ele>
        <time>2017-05-22T08:24:22.000Z</time>
      </trkpt>
      <trkpt lat="46.76704" lon="6.35931">
        <ele>1043</ele>
        <time>2017-05-22T08:24:24.000Z</time>
      </trkpt>
      <trkpt lat="46.76702" lon="6.35933">
        <ele>1043.5454545454</ele>
        <time>2017-05-22T08:24:26.000Z</time>
      </trkpt>
      <trkpt lat="46.767" lon="6.35936">
        <ele>1044</ele>
        <time>2017-05-22T08:24:28.000Z</time>
      </trkpt>
      <trkpt lat="46.76698" lon="6.35937">
        <ele>1044</ele>
        <time>2017-05-22T08:24:30.000Z</time>
      </trkpt>
      <trkpt lat="46.76696" lon="6.3594">
        <ele>1044</ele>
        <time>2017-05-22T08:24:32.000Z</time>
      </trkpt>
      <trkpt lat="46.76693" lon="6.35942">
        <ele>1044</ele>
        <time>2017-05-22T08:24:34.000Z</time>
      </trkpt>
      <trkpt lat="46.76691" lon="6.35944">
        <ele>1044</ele>
        <time>2017-05-22T08:24:36.000Z</time>
      </trkpt>
      <trkpt lat="46.76689" lon="6.35946">
        <ele>1044</ele>
        <time>2017-05-22T08:24:38.000Z</time>
      </trkpt>
      <trkpt lat="46.76688" lon="6.35948">
        <ele>1044</ele>
        <time>2017-05-22T08:24:40.000Z</time>
      </trkpt>
      <trkpt lat="46.76686" lon="6.35949">
        <ele>1045</ele>
        <time>2017-05-22T08:24:42.000Z</time>
      </trkpt>
      <trkpt lat="46.76684" lon="6.35951">
        <ele>1045</ele>
        <time>2017-05-22T08:24:44.000Z</time>
      </trkpt>
      <trkpt lat="46.76682" lon="6.35952">
        <ele>1046</ele>
        <time>2017-05-22T08:24:46.000Z</time>
      </trkpt>
      <trkpt lat="46.76681" lon="6.35954">
        <ele>1046</ele>
        <time>2017-05-22T08:24:48.000Z</time>
      </trkpt>
      <trkpt lat="46.76679" lon="6.35955">
        <ele>1046.72</ele>
        <time>2017-05-22T08:24:50.000Z</time>
      </trkpt>
      <trkpt lat="46.76677" lon="6.35957">
        <ele>1047.7142875802</ele>
        <time>2017-05-22T08:24:52.000Z</time>
      </trkpt>
      <trkpt lat="46.76675" lon="6.35959">
        <ele>1048</ele>
        <time>2017-05-22T08:24:54.000Z</time>
      </trkpt>
      <trkpt lat="46.76673" lon="6.35961">
        <ele>1048</ele>
        <time>2017-05-22T08:24:56.000Z</time>
      </trkpt>
      <trkpt lat="46.76671" lon="6.35963">
        <ele>1049</ele>
        <time>2017-05-22T08:24:58.000Z</time>
      </trkpt>
      <trkpt lat="46.76669" lon="6.35965">
        <ele>1049</ele>
        <time>2017-05-22T08:25:00.000Z</time>
      </trkpt>
      <trkpt lat="46.76667" lon="6.35967">
        <ele>1049.72</ele>
        <time>2017-05-22T08:25:02.000Z</time>
      </trkpt>
      <trkpt lat="46.76665" lon="6.35969">
        <ele>1050</ele>
        <time>2017-05-22T08:25:04.000Z</time>
      </trkpt>
      <trkpt lat="46.76663" lon="6.35971">
        <ele>1051</ele>
        <time>2017-05-22T08:25:06.000Z</time>
      </trkpt>
      <trkpt lat="46.76661" lon="6.35973">
        <ele>1051</ele>
        <time>2017-05-22T08:25:08.000Z</time>
      </trkpt>
      <trkpt lat="46.76659" lon="6.35974">
        <ele>1051</ele>
        <time>2017-05-22T08:25:10.000Z</time>
      </trkpt>
      <trkpt lat="46.76656" lon="6.35976">
        <ele>1051</ele>
        <time>2017-05-22T08:25:12.000Z</time>
      </trkpt>
      <trkpt lat="46.76654" lon="6.35977">
        <ele>1052</ele>
        <time>2017-05-22T08:25:14.000Z</time>
      </trkpt>
      <trkpt lat="46.76652" lon="6.35978">
        <ele>1052</ele>
        <time>2017-05-22T08:25:16.000Z</time>
      </trkpt>
      <trkpt lat="46.76649" lon="6.35979">
        <ele>1053</ele>
        <time>2017-05-22T08:25:18.000Z</time>
      </trkpt>
      <trkpt lat="46.76647" lon="6.3598">
        <ele>1053</ele>
        <time>2017-05-22T08:25:20.000Z</time>
      </trkpt>
      <trkpt lat="46.76645" lon="6.35982">
        <ele>1053</ele>
        <time>2017-05-22T08:25:22.000Z</time>
      </trkpt>
      <trkpt lat="46.76643" lon="6.35983">
        <ele>1053.72</ele>
        <time>2017-05-22T08:25:24.000Z</time>
      </trkpt>
      <trkpt lat="46.76641" lon="6.35984">
        <ele>1054</ele>
        <time>2017-05-22T08:25:26.000Z</time>
      </trkpt>
      <trkpt lat="46.76639" lon="6.35986">
        <ele>1054.72</ele>
        <time>2017-05-22T08:25:28.000Z</time>
      </trkpt>
      <trkpt lat="46.76637" lon="6.35987">
        <ele>1055</ele>
        <time>2017-05-22T08:25:30.000Z</time>
      </trkpt>
      <trkpt lat="46.76634" lon="6.35988">
        <ele>1055</ele>
        <time>2017-05-22T08:25:32.000Z</time>
      </trkpt>
      <trkpt lat="46.76632" lon="6.3599">
        <ele>1055.72</ele>
        <time>2017-05-22T08:25:34.000Z</time>
      </trkpt>
      <trkpt lat="46.7663" lon="6.35991">
        <ele>1056.72</ele>
        <time>2017-05-22T08:25:36.000Z</time>
      </trkpt>
      <trkpt lat="46.76628" lon="6.35993">
        <ele>1057</ele>
        <time>2017-05-22T08:25:38.000Z</time>
      </trkpt>
      <trkpt lat="46.76626" lon="6.35994">
        <ele>1057</ele>
        <time>2017-05-22T08:25:40.000Z</time>
      </trkpt>
      <trkpt lat="46.76624" lon="6.35996">
        <ele>1057.72</ele>
        <time>2017-05-22T08:25:42.000Z</time>
      </trkpt>
      <trkpt lat="46.76622" lon="6.35999">
        <ele>1058</ele>
        <time>2017-05-22T08:25:44.000Z</time>
      </trkpt>
      <trkpt lat="46.7662" lon="6.36002">
        <ele>1058</ele>
        <time>2017-05-22T08:25:46.000Z</time>
      </trkpt>
      <trkpt lat="46.76619" lon="6.36004">
        <ele>1058.7058779239</ele>
        <time>2017-05-22T08:25:48.000Z</time>
      </trkpt>
      <trkpt lat="46.76618" lon="6.36007">
        <ele>1059</ele>
        <time>2017-05-22T08:25:50.000Z</time>
      </trkpt>
      <trkpt lat="46.76616" lon="6.36011">
        <ele>1059</ele>
        <time>2017-05-22T08:25:52.000Z</time>
      </trkpt>
      <trkpt lat="46.76616" lon="6.36014">
        <ele>1059.72</ele>
        <time>2017-05-22T08:25:54.000Z</time>
      </trkpt>
      <trkpt lat="46.76616" lon="6.36017">
        <ele>1060</ele>
        <time>2017-05-22T08:25:56.000Z</time>
      </trkpt>
      <trkpt lat="46.76616" lon="6.36021">
        <ele>1060</ele>
        <time>2017-05-22T08:25:58.000Z</time>
      </trkpt>
      <trkpt lat="46.76616" lon="6.36024">
        <ele>1060</ele>
        <time>2017-05-22T08:26:00.000Z</time>
      </trkpt>
      <trkpt lat="46.76616" lon="6.36028">
        <ele>1060</ele>
        <time>2017-05-22T08:26:02.000Z</time>
      </trkpt>
      <trkpt lat="46.76617" lon="6.36032">
        <ele>1060</ele>
        <time>2017-05-22T08:26:04.000Z</time>
      </trkpt>
      <trkpt lat="46.76617" lon="6.36035">
        <ele>1060.7207195664</ele>
        <time>2017-05-22T08:26:06.000Z</time>
      </trkpt>
      <trkpt lat="46.76617" lon="6.36039">
        <ele>1061</ele>
        <time>2017-05-22T08:26:08.000Z</time>
      </trkpt>
      <trkpt lat="46.76618" lon="6.36043">
        <ele>1061</ele>
        <time>2017-05-22T08:26:10.000Z</time>
      </trkpt>
      <trkpt lat="46.76619" lon="6.36047">
        <ele>1061.7202792732</ele>
        <time>2017-05-22T08:26:12.000Z</time>
      </trkpt>
      <trkpt lat="46.76619" lon="6.3605">
        <ele>1062</ele>
        <time>2017-05-22T08:26:14.000Z</time>
      </trkpt>
      <trkpt lat="46.76619" lon="6.36054">
        <ele>1062</ele>
        <time>2017-05-22T08:26:16.000Z</time>
      </trkpt>
      <trkpt lat="46.76619" lon="6.36057">
        <ele>1062</ele>
        <time>2017-05-22T08:26:18.000Z</time>
      </trkpt>
      <trkpt lat="46.76619" lon="6.36061">
        <ele>1062.72</ele>
        <time>2017-05-22T08:26:20.000Z</time>
      </trkpt>
      <trkpt lat="46.76619" lon="6.36066">
        <ele>1063</ele>
        <time>2017-05-22T08:26:22.000Z</time>
      </trkpt>
      <trkpt lat="46.76618" lon="6.3607">
        <ele>1064</ele>
        <time>2017-05-22T08:26:24.000Z</time>
      </trkpt>
      <trkpt lat="46.76619" lon="6.36074">
        <ele>1064</ele>
        <time>2017-05-22T08:26:26.000Z</time>
      </trkpt>
      <trkpt lat="46.76618" lon="6.36077">
        <ele>1064</ele>
        <time>2017-05-22T08:26:28.000Z</time>
      </trkpt>
      <trkpt lat="46.76618" lon="6.36081">
        <ele>1064</ele>
        <time>2017-05-22T08:26:30.000Z</time>
      </trkpt>
      <trkpt lat="46.76618" lon="6.36085">
        <ele>1064.72</ele>
        <time>2017-05-22T08:26:32.000Z</time>
      </trkpt>
      <trkpt lat="46.76617" lon="6.36089">
        <ele>1065</ele>
        <time>2017-05-22T08:26:34.000Z</time>
      </trkpt>
      <trkpt lat="46.76616" lon="6.36093">
        <ele>1065</ele>
        <time>2017-05-22T08:26:36.000Z</time>
      </trkpt>
      <trkpt lat="46.76616" lon="6.36096">
        <ele>1065</ele>
        <time>2017-05-22T08:26:38.000Z</time>
      </trkpt>
      <trkpt lat="46.76615" lon="6.361">
        <ele>1065</ele>
        <time>2017-05-22T08:26:40.000Z</time>
      </trkpt>
      <trkpt lat="46.76614" lon="6.36103">
        <ele>1065</ele>
        <time>2017-05-22T08:26:42.000Z</time>
      </trkpt>
      <trkpt lat="46.76613" lon="6.36107">
        <ele>1066</ele>
        <time>2017-05-22T08:26:44.000Z</time>
      </trkpt>
      <trkpt lat="46.76613" lon="6.3611">
        <ele>1066</ele>
        <time>2017-05-22T08:26:46.000Z</time>
      </trkpt>
      <trkpt lat="46.76612" lon="6.36114">
        <ele>1066.72</ele>
        <time>2017-05-22T08:26:48.000Z</time>
      </trkpt>
      <trkpt lat="46.76611" lon="6.36117">
        <ele>1067</ele>
        <time>2017-05-22T08:26:50.000Z</time>
      </trkpt>
      <trkpt lat="46.7661" lon="6.36121">
        <ele>1067</ele>
        <time>2017-05-22T08:26:52.000Z</time>
      </trkpt>
      <trkpt lat="46.7661" lon="6.36124">
        <ele>1067</ele>
        <time>2017-05-22T08:26:54.000Z</time>
      </trkpt>
      <trkpt lat="46.76609" lon="6.36128">
        <ele>1067</ele>
        <time>2017-05-22T08:26:56.000Z</time>
      </trkpt>
      <trkpt lat="46.76607" lon="6.36131">
        <ele>1067.72</ele>
        <time>2017-05-22T08:26:58.000Z</time>
      </trkpt>
      <trkpt lat="46.76606" lon="6.36135">
        <ele>1068</ele>
        <time>2017-05-22T08:27:00.000Z</time>
      </trkpt>
      <trkpt lat="46.76605" lon="6.36138">
        <ele>1068</ele>
        <time>2017-05-22T08:27:02.000Z</time>
      </trkpt>
      <trkpt lat="46.76604" lon="6.36142">
        <ele>1068.7058779239</ele>
        <time>2017-05-22T08:27:04.000Z</time>
      </trkpt>
      <trkpt lat="46.76603" lon="6.36146">
        <ele>1069</ele>
        <time>2017-05-22T08:27:06.000Z</time>
      </trkpt>
      <trkpt lat="46.76602" lon="6.36149">
        <ele>1069</ele>
        <time>2017-05-22T08:27:08.000Z</time>
      </trkpt>
      <trkpt lat="46.76601" lon="6.36152">
        <ele>1069</ele>
        <time>2017-05-22T08:27:10.000Z</time>
      </trkpt>
      <trkpt lat="46.766" lon="6.36156">
        <ele>1070</ele>
        <time>2017-05-22T08:27:12.000Z</time>
      </trkpt>
      <trkpt lat="46.76599" lon="6.36159">
        <ele>1070</ele>
        <time>2017-05-22T08:27:14.000Z</time>
      </trkpt>
      <trkpt lat="46.76598" lon="6.36162">
        <ele>1070</ele>
        <time>2017-05-22T08:27:16.000Z</time>
      </trkpt>
      <trkpt lat="46.76597" lon="6.36165">
        <ele>1071</ele>
        <time>2017-05-22T08:27:18.000Z</time>
      </trkpt>
      <trkpt lat="46.76596" lon="6.36169">
        <ele>1071</ele>
        <time>2017-05-22T08:27:20.000Z</time>
      </trkpt>
      <trkpt lat="46.76595" lon="6.36172">
        <ele>1071</ele>
        <time>2017-05-22T08:27:22.000Z</time>
      </trkpt>
      <trkpt lat="46.76594" lon="6.36175">
        <ele>1071</ele>
        <time>2017-05-22T08:27:24.000Z</time>
      </trkpt>
      <trkpt lat="46.76593" lon="6.36178">
        <ele>1072</ele>
        <time>2017-05-22T08:27:26.000Z</time>
      </trkpt>
      <trkpt lat="46.76592" lon="6.36181">
        <ele>1072</ele>
        <time>2017-05-22T08:27:28.000Z</time>
      </trkpt>
      <trkpt lat="46.76591" lon="6.36184">
        <ele>1073</ele>
        <time>2017-05-22T08:27:30.000Z</time>
      </trkpt>
      <trkpt lat="46.7659" lon="6.36187">
        <ele>1073</ele>
        <time>2017-05-22T08:27:32.000Z</time>
      </trkpt>
      <trkpt lat="46.76589" lon="6.3619">
        <ele>1073.72</ele>
        <time>2017-05-22T08:27:34.000Z</time>
      </trkpt>
      <trkpt lat="46.76587" lon="6.36193">
        <ele>1074.72</ele>
        <time>2017-05-22T08:27:36.000Z</time>
      </trkpt>
      <trkpt lat="46.76586" lon="6.36196">
        <ele>1075</ele>
        <time>2017-05-22T08:27:38.000Z</time>
      </trkpt>
      <trkpt lat="46.76584" lon="6.36198">
        <ele>1075</ele>
        <time>2017-05-22T08:27:40.000Z</time>
      </trkpt>
      <trkpt lat="46.76582" lon="6.36201">
        <ele>1075</ele>
        <time>2017-05-22T08:27:42.000Z</time>
      </trkpt>
      <trkpt lat="46.76581" lon="6.36204">
        <ele>1075</ele>
        <time>2017-05-22T08:27:44.000Z</time>
      </trkpt>
      <trkpt lat="46.76579" lon="6.36207">
        <ele>1075</ele>
        <time>2017-05-22T08:27:46.000Z</time>
      </trkpt>
      <trkpt lat="46.76577" lon="6.36209">
        <ele>1075.549616978</ele>
        <time>2017-05-22T08:27:48.000Z</time>
      </trkpt>
      <trkpt lat="46.76576" lon="6.36211">
        <ele>1076</ele>
        <time>2017-05-22T08:27:50.000Z</time>
      </trkpt>
      <trkpt lat="46.76574" lon="6.36213">
        <ele>1076</ele>
        <time>2017-05-22T08:27:52.000Z</time>
      </trkpt>
      <trkpt lat="46.76572" lon="6.36216">
        <ele>1076</ele>
        <time>2017-05-22T08:27:54.000Z</time>
      </trkpt>
      <trkpt lat="46.7657" lon="6.36218">
        <ele>1077</ele>
        <time>2017-05-22T08:27:56.000Z</time>
      </trkpt>
      <trkpt lat="46.76568" lon="6.3622">
        <ele>1077</ele>
        <time>2017-05-22T08:27:58.000Z</time>
      </trkpt>
      <trkpt lat="46.76566" lon="6.36222">
        <ele>1077</ele>
        <time>2017-05-22T08:28:00.000Z</time>
      </trkpt>
      <trkpt lat="46.76565" lon="6.36225">
        <ele>1077.7142875802</ele>
        <time>2017-05-22T08:28:02.000Z</time>
      </trkpt>
      <trkpt lat="46.76563" lon="6.36228">
        <ele>1078</ele>
        <time>2017-05-22T08:28:04.000Z</time>
      </trkpt>
      <trkpt lat="46.76561" lon="6.3623">
        <ele>1078.72</ele>
        <time>2017-05-22T08:28:06.000Z</time>
      </trkpt>
      <trkpt lat="46.76559" lon="6.36232">
        <ele>1079.72</ele>
        <time>2017-05-22T08:28:08.000Z</time>
      </trkpt>
      <trkpt lat="46.76557" lon="6.36234">
        <ele>1080</ele>
        <time>2017-05-22T08:28:10.000Z</time>
      </trkpt>
      <trkpt lat="46.76555" lon="6.36236">
        <ele>1080</ele>
        <time>2017-05-22T08:28:12.000Z</time>
      </trkpt>
      <trkpt lat="46.76553" lon="6.36239">
        <ele>1080.72</ele>
        <time>2017-05-22T08:28:14.000Z</time>
      </trkpt>
      <trkpt lat="46.76551" lon="6.36241">
        <ele>1081</ele>
        <time>2017-05-22T08:28:16.000Z</time>
      </trkpt>
      <trkpt lat="46.76549" lon="6.36242">
        <ele>1081</ele>
        <time>2017-05-22T08:28:18.000Z</time>
      </trkpt>
      <trkpt lat="46.76547" lon="6.36244">
        <ele>1081</ele>
        <time>2017-05-22T08:28:20.000Z</time>
      </trkpt>
      <trkpt lat="46.76545" lon="6.36247">
        <ele>1081</ele>
        <time>2017-05-22T08:28:22.000Z</time>
      </trkpt>
      <trkpt lat="46.76543" lon="6.3625">
        <ele>1081.72</ele>
        <time>2017-05-22T08:28:24.000Z</time>
      </trkpt>
      <trkpt lat="46.76542" lon="6.36252">
        <ele>1082.72</ele>
        <time>2017-05-22T08:28:26.000Z</time>
      </trkpt>
      <trkpt lat="46.76539" lon="6.36254">
        <ele>1083</ele>
        <time>2017-05-22T08:28:28.000Z</time>
      </trkpt>
      <trkpt lat="46.76537" lon="6.36257">
        <ele>1083</ele>
        <time>2017-05-22T08:28:30.000Z</time>
      </trkpt>
      <trkpt lat="46.76535" lon="6.36259">
        <ele>1083.72</ele>
        <time>2017-05-22T08:28:32.000Z</time>
      </trkpt>
      <trkpt lat="46.76533" lon="6.36261">
        <ele>1084</ele>
        <time>2017-05-22T08:28:34.000Z</time>
      </trkpt>
      <trkpt lat="46.76532" lon="6.36264">
        <ele>1084.72</ele>
        <time>2017-05-22T08:28:36.000Z</time>
      </trkpt>
      <trkpt lat="46.7653" lon="6.36266">
        <ele>1085</ele>
        <time>2017-05-22T08:28:38.000Z</time>
      </trkpt>
      <trkpt lat="46.76528" lon="6.36269">
        <ele>1085</ele>
        <time>2017-05-22T08:28:40.000Z</time>
      </trkpt>
      <trkpt lat="46.76527" lon="6.36271">
        <ele>1085</ele>
        <time>2017-05-22T08:28:42.000Z</time>
      </trkpt>
      <trkpt lat="46.76525" lon="6.36273">
        <ele>1086</ele>
        <time>2017-05-22T08:28:44.000Z</time>
      </trkpt>
      <trkpt lat="46.76523" lon="6.36274">
        <ele>1086</ele>
        <time>2017-05-22T08:28:46.000Z</time>
      </trkpt>
      <trkpt lat="46.76521" lon="6.36276">
        <ele>1087</ele>
        <time>2017-05-22T08:28:48.000Z</time>
      </trkpt>
      <trkpt lat="46.76519" lon="6.36279">
        <ele>1087</ele>
        <time>2017-05-22T08:28:50.000Z</time>
      </trkpt>
      <trkpt lat="46.76518" lon="6.36281">
        <ele>1087</ele>
        <time>2017-05-22T08:28:52.000Z</time>
      </trkpt>
      <trkpt lat="46.76517" lon="6.36284">
        <ele>1087</ele>
        <time>2017-05-22T08:28:54.000Z</time>
      </trkpt>
      <trkpt lat="46.76515" lon="6.36287">
        <ele>1088</ele>
        <time>2017-05-22T08:28:56.000Z</time>
      </trkpt>
      <trkpt lat="46.76514" lon="6.3629">
        <ele>1088</ele>
        <time>2017-05-22T08:28:58.000Z</time>
      </trkpt>
      <trkpt lat="46.76512" lon="6.36292">
        <ele>1088.72</ele>
        <time>2017-05-22T08:29:00.000Z</time>
      </trkpt>
      <trkpt lat="46.7651" lon="6.36295">
        <ele>1089</ele>
        <time>2017-05-22T08:29:02.000Z</time>
      </trkpt>
      <trkpt lat="46.76509" lon="6.36298">
        <ele>1090</ele>
        <time>2017-05-22T08:29:04.000Z</time>
      </trkpt>
      <trkpt lat="46.76508" lon="6.36301">
        <ele>1090</ele>
        <time>2017-05-22T08:29:06.000Z</time>
      </trkpt>
      <trkpt lat="46.76506" lon="6.36303">
        <ele>1090.5942010166</ele>
        <time>2017-05-22T08:29:08.000Z</time>
      </trkpt>
      <trkpt lat="46.76504" lon="6.36305">
        <ele>1091</ele>
        <time>2017-05-22T08:29:10.000Z</time>
      </trkpt>
      <trkpt lat="46.76503" lon="6.36308">
        <ele>1091</ele>
        <time>2017-05-22T08:29:12.000Z</time>
      </trkpt>
      <trkpt lat="46.76501" lon="6.3631">
        <ele>1091.72</ele>
        <time>2017-05-22T08:29:14.000Z</time>
      </trkpt>
      <trkpt lat="46.76499" lon="6.36313">
        <ele>1091.28</ele>
        <time>2017-05-22T08:29:16.000Z</time>
      </trkpt>
      <trkpt lat="46.76497" lon="6.36315">
        <ele>1091</ele>
        <time>2017-05-22T08:29:18.000Z</time>
      </trkpt>
      <trkpt lat="46.76496" lon="6.36318">
        <ele>1092</ele>
        <time>2017-05-22T08:29:20.000Z</time>
      </trkpt>
      <trkpt lat="46.76495" lon="6.36321">
        <ele>1092</ele>
        <time>2017-05-22T08:29:22.000Z</time>
      </trkpt>
      <trkpt lat="46.76494" lon="6.36324">
        <ele>1093</ele>
        <time>2017-05-22T08:29:24.000Z</time>
      </trkpt>
      <trkpt lat="46.76493" lon="6.36328">
        <ele>1093</ele>
        <time>2017-05-22T08:29:26.000Z</time>
      </trkpt>
      <trkpt lat="46.76493" lon="6.36331">
        <ele>1094</ele>
        <time>2017-05-22T08:29:28.000Z</time>
      </trkpt>
      <trkpt lat="46.76492" lon="6.36334">
        <ele>1094</ele>
        <time>2017-05-22T08:29:30.000Z</time>
      </trkpt>
      <trkpt lat="46.7649" lon="6.36337">
        <ele>1095</ele>
        <time>2017-05-22T08:29:32.000Z</time>
      </trkpt>
      <trkpt lat="46.76488" lon="6.36339">
        <ele>1095</ele>
        <time>2017-05-22T08:29:34.000Z</time>
      </trkpt>
      <trkpt lat="46.76487" lon="6.36342">
        <ele>1095</ele>
        <time>2017-05-22T08:29:36.000Z</time>
      </trkpt>
      <trkpt lat="46.76485" lon="6.36345">
        <ele>1095.72</ele>
        <time>2017-05-22T08:29:38.000Z</time>
      </trkpt>
      <trkpt lat="46.76484" lon="6.36347">
        <ele>1096</ele>
        <time>2017-05-22T08:29:40.000Z</time>
      </trkpt>
      <trkpt lat="46.76482" lon="6.36349">
        <ele>1096</ele>
        <time>2017-05-22T08:29:42.000Z</time>
      </trkpt>
      <trkpt lat="46.7648" lon="6.36351">
        <ele>1096</ele>
        <time>2017-05-22T08:29:44.000Z</time>
      </trkpt>
      <trkpt lat="46.76479" lon="6.36354">
        <ele>1096</ele>
        <time>2017-05-22T08:29:46.000Z</time>
      </trkpt>
      <trkpt lat="46.76477" lon="6.36357">
        <ele>1097</ele>
        <time>2017-05-22T08:29:48.000Z</time>
      </trkpt>
      <trkpt lat="46.76476" lon="6.36359">
        <ele>1097</ele>
        <time>2017-05-22T08:29:50.000Z</time>
      </trkpt>
      <trkpt lat="46.76474" lon="6.36362">
        <ele>1098</ele>
        <time>2017-05-22T08:29:52.000Z</time>
      </trkpt>
      <trkpt lat="46.76473" lon="6.36364">
        <ele>1099</ele>
        <time>2017-05-22T08:29:54.000Z</time>
      </trkpt>
      <trkpt lat="46.76471" lon="6.36366">
        <ele>1099</ele>
        <time>2017-05-22T08:29:56.000Z</time>
      </trkpt>
      <trkpt lat="46.76469" lon="6.36368">
        <ele>1099</ele>
        <time>2017-05-22T08:29:58.000Z</time>
      </trkpt>
      <trkpt lat="46.76467" lon="6.36371">
        <ele>1099.7113392539</ele>
        <time>2017-05-22T08:30:00.000Z</time>
      </trkpt>
      <trkpt lat="46.76466" lon="6.36373">
        <ele>1100.72</ele>
        <time>2017-05-22T08:30:02.000Z</time>
      </trkpt>
      <trkpt lat="46.76464" lon="6.36376">
        <ele>1101</ele>
        <time>2017-05-22T08:30:04.000Z</time>
      </trkpt>
      <trkpt lat="46.76462" lon="6.36379">
        <ele>1101</ele>
        <time>2017-05-22T08:30:06.000Z</time>
      </trkpt>
      <trkpt lat="46.7646" lon="6.36381">
        <ele>1101</ele>
        <time>2017-05-22T08:30:08.000Z</time>
      </trkpt>
      <trkpt lat="46.76458" lon="6.36383">
        <ele>1102</ele>
        <time>2017-05-22T08:30:10.000Z</time>
      </trkpt>
      <trkpt lat="46.76457" lon="6.36386">
        <ele>1102</ele>
        <time>2017-05-22T08:30:12.000Z</time>
      </trkpt>
      <trkpt lat="46.76456" lon="6.36389">
        <ele>1102.6990269545</ele>
        <time>2017-05-22T08:30:14.000Z</time>
      </trkpt>
      <trkpt lat="46.76456" lon="6.36392">
        <ele>1103</ele>
        <time>2017-05-22T08:30:16.000Z</time>
      </trkpt>
      <trkpt lat="46.76455" lon="6.36395">
        <ele>1102</ele>
        <time>2017-05-22T08:30:18.000Z</time>
      </trkpt>
      <trkpt lat="46.76455" lon="6.36399">
        <ele>1102</ele>
        <time>2017-05-22T08:30:20.000Z</time>
      </trkpt>
      <trkpt lat="46.76456" lon="6.36403">
        <ele>1103</ele>
        <time>2017-05-22T08:30:22.000Z</time>
      </trkpt>
      <trkpt lat="46.76456" lon="6.36406">
        <ele>1103</ele>
        <time>2017-05-22T08:30:24.000Z</time>
      </trkpt>
      <trkpt lat="46.76457" lon="6.3641">
        <ele>1102.28</ele>
        <time>2017-05-22T08:30:26.000Z</time>
      </trkpt>
      <trkpt lat="46.76457" lon="6.36413">
        <ele>1102</ele>
        <time>2017-05-22T08:30:28.000Z</time>
      </trkpt>
      <trkpt lat="46.76457" lon="6.36417">
        <ele>1102</ele>
        <time>2017-05-22T08:30:30.000Z</time>
      </trkpt>
      <trkpt lat="46.76458" lon="6.36421">
        <ele>1102</ele>
        <time>2017-05-22T08:30:32.000Z</time>
      </trkpt>
      <trkpt lat="46.76458" lon="6.36424">
        <ele>1102</ele>
        <time>2017-05-22T08:30:34.000Z</time>
      </trkpt>
      <trkpt lat="46.76459" lon="6.36428">
        <ele>1102</ele>
        <time>2017-05-22T08:30:36.000Z</time>
      </trkpt>
      <trkpt lat="46.76459" lon="6.36432">
        <ele>1101</ele>
        <time>2017-05-22T08:30:38.000Z</time>
      </trkpt>
      <trkpt lat="46.7646" lon="6.36435">
        <ele>1101</ele>
        <time>2017-05-22T08:30:40.000Z</time>
      </trkpt>
      <trkpt lat="46.7646" lon="6.36438">
        <ele>1101</ele>
        <time>2017-05-22T08:30:42.000Z</time>
      </trkpt>
      <trkpt lat="46.7646" lon="6.36441">
        <ele>1101</ele>
        <time>2017-05-22T08:30:44.000Z</time>
      </trkpt>
      <trkpt lat="46.7646" lon="6.36444">
        <ele>1101</ele>
        <time>2017-05-22T08:30:46.000Z</time>
      </trkpt>
      <trkpt lat="46.7646" lon="6.36448">
        <ele>1101</ele>
        <time>2017-05-22T08:30:48.000Z</time>
      </trkpt>
      <trkpt lat="46.76459" lon="6.36452">
        <ele>1101</ele>
        <time>2017-05-22T08:30:50.000Z</time>
      </trkpt>
      <trkpt lat="46.76459" lon="6.36455">
        <ele>1101</ele>
        <time>2017-05-22T08:30:52.000Z</time>
      </trkpt>
      <trkpt lat="46.76458" lon="6.36459">
        <ele>1101</ele>
        <time>2017-05-22T08:30:54.000Z</time>
      </trkpt>
      <trkpt lat="46.76457" lon="6.36462">
        <ele>1100</ele>
        <time>2017-05-22T08:30:56.000Z</time>
      </trkpt>
      <trkpt lat="46.76455" lon="6.36466">
        <ele>1100</ele>
        <time>2017-05-22T08:30:58.000Z</time>
      </trkpt>
      <trkpt lat="46.76454" lon="6.3647">
        <ele>1100</ele>
        <time>2017-05-22T08:31:00.000Z</time>
      </trkpt>
      <trkpt lat="46.76453" lon="6.36473">
        <ele>1100</ele>
        <time>2017-05-22T08:31:02.000Z</time>
      </trkpt>
      <trkpt lat="46.76452" lon="6.36476">
        <ele>1100</ele>
        <time>2017-05-22T08:31:04.000Z</time>
      </trkpt>
      <trkpt lat="46.76452" lon="6.36481">
        <ele>1100</ele>
        <time>2017-05-22T08:31:06.000Z</time>
      </trkpt>
      <trkpt lat="46.76451" lon="6.36486">
        <ele>1100</ele>
        <time>2017-05-22T08:31:08.000Z</time>
      </trkpt>
      <trkpt lat="46.76449" lon="6.36489">
        <ele>1100</ele>
        <time>2017-05-22T08:31:10.000Z</time>
      </trkpt>
      <trkpt lat="46.76448" lon="6.36491">
        <ele>1100</ele>
        <time>2017-05-22T08:31:12.000Z</time>
      </trkpt>
      <trkpt lat="46.76447" lon="6.36495">
        <ele>1100</ele>
        <time>2017-05-22T08:31:14.000Z</time>
      </trkpt>
      <trkpt lat="46.76445" lon="6.36498">
        <ele>1100</ele>
        <time>2017-05-22T08:31:16.000Z</time>
      </trkpt>
      <trkpt lat="46.76444" lon="6.36502">
        <ele>1100</ele>
        <time>2017-05-22T08:31:18.000Z</time>
      </trkpt>
      <trkpt lat="46.76443" lon="6.36505">
        <ele>1101</ele>
        <time>2017-05-22T08:31:20.000Z</time>
      </trkpt>
      <trkpt lat="46.76442" lon="6.36509">
        <ele>1101</ele>
        <time>2017-05-22T08:31:22.000Z</time>
      </trkpt>
      <trkpt lat="46.76441" lon="6.36513">
        <ele>1101</ele>
        <time>2017-05-22T08:31:24.000Z</time>
      </trkpt>
      <trkpt lat="46.76441" lon="6.36518">
        <ele>1101</ele>
        <time>2017-05-22T08:31:26.000Z</time>
      </trkpt>
      <trkpt lat="46.76441" lon="6.36522">
        <ele>1101</ele>
        <time>2017-05-22T08:31:27.000Z</time>
      </trkpt>
      <trkpt lat="46.76441" lon="6.36526">
        <ele>1101</ele>
        <time>2017-05-22T08:31:29.000Z</time>
      </trkpt>
      <trkpt lat="46.7644" lon="6.36529">
        <ele>1101</ele>
        <time>2017-05-22T08:31:31.000Z</time>
      </trkpt>
      <trkpt lat="46.7644" lon="6.36533">
        <ele>1101</ele>
        <time>2017-05-22T08:31:33.000Z</time>
      </trkpt>
      <trkpt lat="46.76439" lon="6.36536">
        <ele>1101</ele>
        <time>2017-05-22T08:31:35.000Z</time>
      </trkpt>
      <trkpt lat="46.76439" lon="6.3654">
        <ele>1101</ele>
        <time>2017-05-22T08:31:37.000Z</time>
      </trkpt>
      <trkpt lat="46.76438" lon="6.36544">
        <ele>1101</ele>
        <time>2017-05-22T08:31:39.000Z</time>
      </trkpt>
      <trkpt lat="46.76437" lon="6.36548">
        <ele>1101</ele>
        <time>2017-05-22T08:31:41.000Z</time>
      </trkpt>
      <trkpt lat="46.76436" lon="6.36551">
        <ele>1101.72</ele>
        <time>2017-05-22T08:31:43.000Z</time>
      </trkpt>
      <trkpt lat="46.76434" lon="6.36554">
        <ele>1102</ele>
        <time>2017-05-22T08:31:45.000Z</time>
      </trkpt>
      <trkpt lat="46.76434" lon="6.36557">
        <ele>1102</ele>
        <time>2017-05-22T08:31:47.000Z</time>
      </trkpt>
      <trkpt lat="46.76433" lon="6.3656">
        <ele>1102</ele>
        <time>2017-05-22T08:31:49.000Z</time>
      </trkpt>
      <trkpt lat="46.76431" lon="6.36563">
        <ele>1102</ele>
        <time>2017-05-22T08:31:51.000Z</time>
      </trkpt>
      <trkpt lat="46.76429" lon="6.36567">
        <ele>1102.7171726314</ele>
        <time>2017-05-22T08:31:53.000Z</time>
      </trkpt>
      <trkpt lat="46.76428" lon="6.3657">
        <ele>1102.28</ele>
        <time>2017-05-22T08:31:55.000Z</time>
      </trkpt>
      <trkpt lat="46.76426" lon="6.36575">
        <ele>1103</ele>
        <time>2017-05-22T08:31:57.000Z</time>
      </trkpt>
      <trkpt lat="46.76426" lon="6.36577">
        <ele>1103</ele>
        <time>2017-05-22T08:31:58.000Z</time>
      </trkpt>
      <trkpt lat="46.76425" lon="6.3658">
        <ele>1103.72</ele>
        <time>2017-05-22T08:32:00.000Z</time>
      </trkpt>
      <trkpt lat="46.76424" lon="6.36583">
        <ele>1104</ele>
        <time>2017-05-22T08:32:02.000Z</time>
      </trkpt>
      <trkpt lat="46.76423" lon="6.36587">
        <ele>1104</ele>
        <time>2017-05-22T08:32:04.000Z</time>
      </trkpt>
      <trkpt lat="46.76422" lon="6.36591">
        <ele>1104.72</ele>
        <time>2017-05-22T08:32:06.000Z</time>
      </trkpt>
      <trkpt lat="46.76421" lon="6.36595">
        <ele>1105</ele>
        <time>2017-05-22T08:32:08.000Z</time>
      </trkpt>
      <trkpt lat="46.76419" lon="6.36598">
        <ele>1105</ele>
        <time>2017-05-22T08:32:10.000Z</time>
      </trkpt>
      <trkpt lat="46.76418" lon="6.366">
        <ele>1105</ele>
        <time>2017-05-22T08:32:12.000Z</time>
      </trkpt>
      <trkpt lat="46.76416" lon="6.36603">
        <ele>1105.72</ele>
        <time>2017-05-22T08:32:14.000Z</time>
      </trkpt>
      <trkpt lat="46.76415" lon="6.36606">
        <ele>1106</ele>
        <time>2017-05-22T08:32:16.000Z</time>
      </trkpt>
      <trkpt lat="46.76414" lon="6.36609">
        <ele>1106.5942010166</ele>
        <time>2017-05-22T08:32:18.000Z</time>
      </trkpt>
      <trkpt lat="46.76412" lon="6.36612">
        <ele>1107</ele>
        <time>2017-05-22T08:32:20.000Z</time>
      </trkpt>
      <trkpt lat="46.76411" lon="6.36615">
        <ele>1107</ele>
        <time>2017-05-22T08:32:22.000Z</time>
      </trkpt>
      <trkpt lat="46.76409" lon="6.36618">
        <ele>1107</ele>
        <time>2017-05-22T08:32:24.000Z</time>
      </trkpt>
      <trkpt lat="46.76409" lon="6.36621">
        <ele>1107</ele>
        <time>2017-05-22T08:32:26.000Z</time>
      </trkpt>
      <trkpt lat="46.76407" lon="6.36625">
        <ele>1107</ele>
        <time>2017-05-22T08:32:28.000Z</time>
      </trkpt>
      <trkpt lat="46.76406" lon="6.36628">
        <ele>1107</ele>
        <time>2017-05-22T08:32:30.000Z</time>
      </trkpt>
      <trkpt lat="46.76405" lon="6.36632">
        <ele>1108</ele>
        <time>2017-05-22T08:32:32.000Z</time>
      </trkpt>
      <trkpt lat="46.76404" lon="6.36635">
        <ele>1108</ele>
        <time>2017-05-22T08:32:34.000Z</time>
      </trkpt>
      <trkpt lat="46.76403" lon="6.36639">
        <ele>1108</ele>
        <time>2017-05-22T08:32:36.000Z</time>
      </trkpt>
      <trkpt lat="46.76402" lon="6.36642">
        <ele>1108</ele>
        <time>2017-05-22T08:32:38.000Z</time>
      </trkpt>
      <trkpt lat="46.76401" lon="6.36646">
        <ele>1108</ele>
        <time>2017-05-22T08:32:40.000Z</time>
      </trkpt>
      <trkpt lat="46.76401" lon="6.3665">
        <ele>1108</ele>
        <time>2017-05-22T08:32:42.000Z</time>
      </trkpt>
      <trkpt lat="46.76401" lon="6.36654">
        <ele>1108</ele>
        <time>2017-05-22T08:32:44.000Z</time>
      </trkpt>
      <trkpt lat="46.764" lon="6.36658">
        <ele>1108</ele>
        <time>2017-05-22T08:32:46.000Z</time>
      </trkpt>
      <trkpt lat="46.76399" lon="6.36662">
        <ele>1107</ele>
        <time>2017-05-22T08:32:48.000Z</time>
      </trkpt>
      <trkpt lat="46.76399" lon="6.36666">
        <ele>1107</ele>
        <time>2017-05-22T08:32:50.000Z</time>
      </trkpt>
      <trkpt lat="46.76398" lon="6.3667">
        <ele>1107</ele>
        <time>2017-05-22T08:32:52.000Z</time>
      </trkpt>
      <trkpt lat="46.76397" lon="6.36674">
        <ele>1107</ele>
        <time>2017-05-22T08:32:54.000Z</time>
      </trkpt>
      <trkpt lat="46.76397" lon="6.36678">
        <ele>1107</ele>
        <time>2017-05-22T08:32:56.000Z</time>
      </trkpt>
      <trkpt lat="46.76398" lon="6.36682">
        <ele>1107</ele>
        <time>2017-05-22T08:32:58.000Z</time>
      </trkpt>
      <trkpt lat="46.76399" lon="6.36685">
        <ele>1107</ele>
        <time>2017-05-22T08:33:00.000Z</time>
      </trkpt>
      <trkpt lat="46.764" lon="6.36688">
        <ele>1108</ele>
        <time>2017-05-22T08:33:02.000Z</time>
      </trkpt>
      <trkpt lat="46.76401" lon="6.36691">
        <ele>1108</ele>
        <time>2017-05-22T08:33:04.000Z</time>
      </trkpt>
      <trkpt lat="46.76401" lon="6.36696">
        <ele>1108</ele>
        <time>2017-05-22T08:33:06.000Z</time>
      </trkpt>
      <trkpt lat="46.76401" lon="6.36699">
        <ele>1108</ele>
        <time>2017-05-22T08:33:08.000Z</time>
      </trkpt>
      <trkpt lat="46.764" lon="6.36702">
        <ele>1108</ele>
        <time>2017-05-22T08:33:10.000Z</time>
      </trkpt>
      <trkpt lat="46.76399" lon="6.36705">
        <ele>1108</ele>
        <time>2017-05-22T08:33:12.000Z</time>
      </trkpt>
      <trkpt lat="46.76398" lon="6.36707">
        <ele>1108</ele>
        <time>2017-05-22T08:33:14.000Z</time>
      </trkpt>
      <trkpt lat="46.76397" lon="6.36709">
        <ele>1108</ele>
        <time>2017-05-22T08:33:16.000Z</time>
      </trkpt>
      <trkpt lat="46.76395" lon="6.36712">
        <ele>1107.28</ele>
        <time>2017-05-22T08:33:18.000Z</time>
      </trkpt>
      <trkpt lat="46.76394" lon="6.36715">
        <ele>1108</ele>
        <time>2017-05-22T08:33:20.000Z</time>
      </trkpt>
      <trkpt lat="46.76393" lon="6.36718">
        <ele>1108</ele>
        <time>2017-05-22T08:33:22.000Z</time>
      </trkpt>
      <trkpt lat="46.76393" lon="6.36721">
        <ele>1107</ele>
        <time>2017-05-22T08:33:24.000Z</time>
      </trkpt>
      <trkpt lat="46.76393" lon="6.36725">
        <ele>1107</ele>
        <time>2017-05-22T08:33:26.000Z</time>
      </trkpt>
      <trkpt lat="46.76393" lon="6.36729">
        <ele>1107</ele>
        <time>2017-05-22T08:33:28.000Z</time>
      </trkpt>
      <trkpt lat="46.76393" lon="6.36733">
        <ele>1107</ele>
        <time>2017-05-22T08:33:30.000Z</time>
      </trkpt>
      <trkpt lat="46.76393" lon="6.36737">
        <ele>1107</ele>
        <time>2017-05-22T08:33:32.000Z</time>
      </trkpt>
      <trkpt lat="46.76394" lon="6.3674">
        <ele>1106</ele>
        <time>2017-05-22T08:33:34.000Z</time>
      </trkpt>
      <trkpt lat="46.76394" lon="6.36744">
        <ele>1106</ele>
        <time>2017-05-22T08:33:36.000Z</time>
      </trkpt>
      <trkpt lat="46.76394" lon="6.36748">
        <ele>1106</ele>
        <time>2017-05-22T08:33:38.000Z</time>
      </trkpt>
      <trkpt lat="46.76395" lon="6.36752">
        <ele>1105</ele>
        <time>2017-05-22T08:33:40.000Z</time>
      </trkpt>
      <trkpt lat="46.76396" lon="6.36756">
        <ele>1105</ele>
        <time>2017-05-22T08:33:42.000Z</time>
      </trkpt>
      <trkpt lat="46.76396" lon="6.36761">
        <ele>1105</ele>
        <time>2017-05-22T08:33:44.000Z</time>
      </trkpt>
      <trkpt lat="46.76397" lon="6.36765">
        <ele>1104</ele>
        <time>2017-05-22T08:33:46.000Z</time>
      </trkpt>
      <trkpt lat="46.76398" lon="6.3677">
        <ele>1104</ele>
        <time>2017-05-22T08:33:48.000Z</time>
      </trkpt>
      <trkpt lat="46.76399" lon="6.36773">
        <ele>1104</ele>
        <time>2017-05-22T08:33:50.000Z</time>
      </trkpt>
      <trkpt lat="46.76399" lon="6.36778">
        <ele>1104</ele>
        <time>2017-05-22T08:33:52.000Z</time>
      </trkpt>
      <trkpt lat="46.76399" lon="6.36782">
        <ele>1104</ele>
        <time>2017-05-22T08:33:54.000Z</time>
      </trkpt>
      <trkpt lat="46.76399" lon="6.36786">
        <ele>1104</ele>
        <time>2017-05-22T08:33:56.000Z</time>
      </trkpt>
      <trkpt lat="46.76399" lon="6.36789">
        <ele>1104</ele>
        <time>2017-05-22T08:33:58.000Z</time>
      </trkpt>
      <trkpt lat="46.764" lon="6.36793">
        <ele>1104</ele>
        <time>2017-05-22T08:34:00.000Z</time>
      </trkpt>
      <trkpt lat="46.764" lon="6.36797">
        <ele>1104</ele>
        <time>2017-05-22T08:34:02.000Z</time>
      </trkpt>
      <trkpt lat="46.76401" lon="6.36801">
        <ele>1104</ele>
        <time>2017-05-22T08:34:04.000Z</time>
      </trkpt>
      <trkpt lat="46.76401" lon="6.36804">
        <ele>1104</ele>
        <time>2017-05-22T08:34:06.000Z</time>
      </trkpt>
      <trkpt lat="46.76402" lon="6.36809">
        <ele>1104</ele>
        <time>2017-05-22T08:34:08.000Z</time>
      </trkpt>
      <trkpt lat="46.76403" lon="6.36812">
        <ele>1104</ele>
        <time>2017-05-22T08:34:10.000Z</time>
      </trkpt>
      <trkpt lat="46.76403" lon="6.36816">
        <ele>1104</ele>
        <time>2017-05-22T08:34:12.000Z</time>
      </trkpt>
      <trkpt lat="46.76404" lon="6.3682">
        <ele>1104</ele>
        <time>2017-05-22T08:34:14.000Z</time>
      </trkpt>
      <trkpt lat="46.76406" lon="6.36824">
        <ele>1104</ele>
        <time>2017-05-22T08:34:16.000Z</time>
      </trkpt>
      <trkpt lat="46.76406" lon="6.36827">
        <ele>1104</ele>
        <time>2017-05-22T08:34:18.000Z</time>
      </trkpt>
      <trkpt lat="46.76407" lon="6.36831">
        <ele>1104</ele>
        <time>2017-05-22T08:34:20.000Z</time>
      </trkpt>
      <trkpt lat="46.76407" lon="6.36834">
        <ele>1105</ele>
        <time>2017-05-22T08:34:22.000Z</time>
      </trkpt>
      <trkpt lat="46.76408" lon="6.36837">
        <ele>1105</ele>
        <time>2017-05-22T08:34:24.000Z</time>
      </trkpt>
      <trkpt lat="46.76408" lon="6.3684">
        <ele>1105</ele>
        <time>2017-05-22T08:34:26.000Z</time>
      </trkpt>
      <trkpt lat="46.76409" lon="6.36843">
        <ele>1105</ele>
        <time>2017-05-22T08:34:29.000Z</time>
      </trkpt>
      <trkpt lat="46.76411" lon="6.36845">
        <ele>1105</ele>
        <time>2017-05-22T08:34:33.000Z</time>
      </trkpt>
      <trkpt lat="46.76411" lon="6.36849">
        <ele>1105</ele>
        <time>2017-05-22T08:34:35.000Z</time>
      </trkpt>
      <trkpt lat="46.76411" lon="6.36852">
        <ele>1106</ele>
        <time>2017-05-22T08:34:37.000Z</time>
      </trkpt>
      <trkpt lat="46.76412" lon="6.36855">
        <ele>1106</ele>
        <time>2017-05-22T08:34:39.000Z</time>
      </trkpt>
      <trkpt lat="46.76412" lon="6.36859">
        <ele>1106.7128735457</ele>
        <time>2017-05-22T08:34:41.000Z</time>
      </trkpt>
      <trkpt lat="46.76413" lon="6.36862">
        <ele>1107</ele>
        <time>2017-05-22T08:34:43.000Z</time>
      </trkpt>
      <trkpt lat="46.76413" lon="6.36865">
        <ele>1107</ele>
        <time>2017-05-22T08:34:45.000Z</time>
      </trkpt>
      <trkpt lat="46.76413" lon="6.36868">
        <ele>1107</ele>
        <time>2017-05-22T08:34:47.000Z</time>
      </trkpt>
      <trkpt lat="46.76414" lon="6.36871">
        <ele>1108</ele>
        <time>2017-05-22T08:34:49.000Z</time>
      </trkpt>
      <trkpt lat="46.76415" lon="6.36874">
        <ele>1108</ele>
        <time>2017-05-22T08:34:51.000Z</time>
      </trkpt>
      <trkpt lat="46.76415" lon="6.36877">
        <ele>1109</ele>
        <time>2017-05-22T08:34:53.000Z</time>
      </trkpt>
      <trkpt lat="46.76416" lon="6.36879">
        <ele>1109.72</ele>
        <time>2017-05-22T08:34:55.000Z</time>
      </trkpt>
      <trkpt lat="46.76417" lon="6.36883">
        <ele>1110</ele>
        <time>2017-05-22T08:34:57.000Z</time>
      </trkpt>
      <trkpt lat="46.76418" lon="6.36886">
        <ele>1110</ele>
        <time>2017-05-22T08:34:59.000Z</time>
      </trkpt>
      <trkpt lat="46.76419" lon="6.36888">
        <ele>1110</ele>
        <time>2017-05-22T08:35:01.000Z</time>
      </trkpt>
      <trkpt lat="46.7642" lon="6.36891">
        <ele>1110</ele>
        <time>2017-05-22T08:35:03.000Z</time>
      </trkpt>
      <trkpt lat="46.76422" lon="6.36894">
        <ele>1110</ele>
        <time>2017-05-22T08:35:05.000Z</time>
      </trkpt>
      <trkpt lat="46.76423" lon="6.36896">
        <ele>1111</ele>
        <time>2017-05-22T08:35:07.000Z</time>
      </trkpt>
      <trkpt lat="46.76424" lon="6.36899">
        <ele>1111</ele>
        <time>2017-05-22T08:35:09.000Z</time>
      </trkpt>
      <trkpt lat="46.76426" lon="6.36902">
        <ele>1111</ele>
        <time>2017-05-22T08:35:11.000Z</time>
      </trkpt>
      <trkpt lat="46.76427" lon="6.36904">
        <ele>1111</ele>
        <time>2017-05-22T08:35:13.000Z</time>
      </trkpt>
      <trkpt lat="46.76428" lon="6.36908">
        <ele>1111</ele>
        <time>2017-05-22T08:35:15.000Z</time>
      </trkpt>
      <trkpt lat="46.7643" lon="6.36911">
        <ele>1111</ele>
        <time>2017-05-22T08:35:17.000Z</time>
      </trkpt>
      <trkpt lat="46.76431" lon="6.36915">
        <ele>1111</ele>
        <time>2017-05-22T08:35:19.000Z</time>
      </trkpt>
      <trkpt lat="46.76432" lon="6.36918">
        <ele>1111</ele>
        <time>2017-05-22T08:35:21.000Z</time>
      </trkpt>
      <trkpt lat="46.76433" lon="6.3692">
        <ele>1111</ele>
        <time>2017-05-22T08:35:23.000Z</time>
      </trkpt>
      <trkpt lat="46.76433" lon="6.36923">
        <ele>1111</ele>
        <time>2017-05-22T08:35:28.000Z</time>
      </trkpt>
      <trkpt lat="46.76433" lon="6.36927">
        <ele>1111</ele>
        <time>2017-05-22T08:35:32.000Z</time>
      </trkpt>
      <trkpt lat="46.76434" lon="6.36929">
        <ele>1111</ele>
        <time>2017-05-22T08:35:34.000Z</time>
      </trkpt>
      <trkpt lat="46.76434" lon="6.36933">
        <ele>1111</ele>
        <time>2017-05-22T08:35:36.000Z</time>
      </trkpt>
      <trkpt lat="46.76435" lon="6.36937">
        <ele>1111</ele>
        <time>2017-05-22T08:35:38.000Z</time>
      </trkpt>
      <trkpt lat="46.76436" lon="6.36941">
        <ele>1110.28</ele>
        <time>2017-05-22T08:35:40.000Z</time>
      </trkpt>
      <trkpt lat="46.76437" lon="6.36944">
        <ele>1110</ele>
        <time>2017-05-22T08:35:42.000Z</time>
      </trkpt>
      <trkpt lat="46.76438" lon="6.36948">
        <ele>1110</ele>
        <time>2017-05-22T08:35:44.000Z</time>
      </trkpt>
      <trkpt lat="46.76439" lon="6.36951">
        <ele>1110</ele>
        <time>2017-05-22T08:35:46.000Z</time>
      </trkpt>
      <trkpt lat="46.7644" lon="6.36954">
        <ele>1110</ele>
        <time>2017-05-22T08:35:48.000Z</time>
      </trkpt>
      <trkpt lat="46.7644" lon="6.36957">
        <ele>1110</ele>
        <time>2017-05-22T08:35:50.000Z</time>
      </trkpt>
      <trkpt lat="46.76442" lon="6.3696">
        <ele>1109.28</ele>
        <time>2017-05-22T08:35:52.000Z</time>
      </trkpt>
      <trkpt lat="46.76443" lon="6.36963">
        <ele>1108</ele>
        <time>2017-05-22T08:35:54.000Z</time>
      </trkpt>
      <trkpt lat="46.76443" lon="6.36966">
        <ele>1108</ele>
        <time>2017-05-22T08:35:56.000Z</time>
      </trkpt>
      <trkpt lat="46.76445" lon="6.3697">
        <ele>1108</ele>
        <time>2017-05-22T08:35:58.000Z</time>
      </trkpt>
      <trkpt lat="46.76446" lon="6.36973">
        <ele>1107.28</ele>
        <time>2017-05-22T08:36:00.000Z</time>
      </trkpt>
      <trkpt lat="46.76447" lon="6.36976">
        <ele>1107</ele>
        <time>2017-05-22T08:36:02.000Z</time>
      </trkpt>
      <trkpt lat="46.76448" lon="6.36979">
        <ele>1107</ele>
        <time>2017-05-22T08:36:04.000Z</time>
      </trkpt>
      <trkpt lat="46.76449" lon="6.36982">
        <ele>1106</ele>
        <time>2017-05-22T08:36:06.000Z</time>
      </trkpt>
      <trkpt lat="46.7645" lon="6.36985">
        <ele>1106</ele>
        <time>2017-05-22T08:36:08.000Z</time>
      </trkpt>
      <trkpt lat="46.76452" lon="6.36988">
        <ele>1106</ele>
        <time>2017-05-22T08:36:10.000Z</time>
      </trkpt>
      <trkpt lat="46.76453" lon="6.36991">
        <ele>1106</ele>
        <time>2017-05-22T08:36:12.000Z</time>
      </trkpt>
      <trkpt lat="46.76454" lon="6.36996">
        <ele>1105</ele>
        <time>2017-05-22T08:36:14.000Z</time>
      </trkpt>
      <trkpt lat="46.76455" lon="6.37">
        <ele>1104.2886607461</ele>
        <time>2017-05-22T08:36:16.000Z</time>
      </trkpt>
      <trkpt lat="46.76456" lon="6.37004">
        <ele>1104</ele>
        <time>2017-05-22T08:36:18.000Z</time>
      </trkpt>
      <trkpt lat="46.76457" lon="6.37006">
        <ele>1104</ele>
        <time>2017-05-22T08:36:19.000Z</time>
      </trkpt>
      <trkpt lat="46.76459" lon="6.3701">
        <ele>1104</ele>
        <time>2017-05-22T08:36:21.000Z</time>
      </trkpt>
      <trkpt lat="46.76461" lon="6.37012">
        <ele>1104</ele>
        <time>2017-05-22T08:36:23.000Z</time>
      </trkpt>
      <trkpt lat="46.76462" lon="6.37015">
        <ele>1104</ele>
        <time>2017-05-22T08:36:25.000Z</time>
      </trkpt>
      <trkpt lat="46.76463" lon="6.37019">
        <ele>1103.28</ele>
        <time>2017-05-22T08:36:27.000Z</time>
      </trkpt>
      <trkpt lat="46.76464" lon="6.37022">
        <ele>1103</ele>
        <time>2017-05-22T08:36:29.000Z</time>
      </trkpt>
      <trkpt lat="46.76465" lon="6.37025">
        <ele>1102.28</ele>
        <time>2017-05-22T08:36:31.000Z</time>
      </trkpt>
      <trkpt lat="46.76466" lon="6.37029">
        <ele>1102</ele>
        <time>2017-05-22T08:36:33.000Z</time>
      </trkpt>
      <trkpt lat="46.76468" lon="6.37033">
        <ele>1101.28</ele>
        <time>2017-05-22T08:36:35.000Z</time>
      </trkpt>
      <trkpt lat="46.76469" lon="6.37037">
        <ele>1101</ele>
        <time>2017-05-22T08:36:37.000Z</time>
      </trkpt>
      <trkpt lat="46.7647" lon="6.3704">
        <ele>1101</ele>
        <time>2017-05-22T08:36:39.000Z</time>
      </trkpt>
      <trkpt lat="46.76471" lon="6.37043">
        <ele>1100.2886607461</ele>
        <time>2017-05-22T08:36:41.000Z</time>
      </trkpt>
      <trkpt lat="46.76472" lon="6.37047">
        <ele>1099.4545454546</ele>
        <time>2017-05-22T08:36:43.000Z</time>
      </trkpt>
      <trkpt lat="46.76473" lon="6.37051">
        <ele>1099</ele>
        <time>2017-05-22T08:36:45.000Z</time>
      </trkpt>
      <trkpt lat="46.76474" lon="6.37055">
        <ele>1099</ele>
        <time>2017-05-22T08:36:47.000Z</time>
      </trkpt>
      <trkpt lat="46.76475" lon="6.37057">
        <ele>1099</ele>
        <time>2017-05-22T08:36:48.000Z</time>
      </trkpt>
      <trkpt lat="46.76475" lon="6.37061">
        <ele>1099</ele>
        <time>2017-05-22T08:36:50.000Z</time>
      </trkpt>
      <trkpt lat="46.76475" lon="6.37065">
        <ele>1098</ele>
        <time>2017-05-22T08:36:52.000Z</time>
      </trkpt>
      <trkpt lat="46.76474" lon="6.37069">
        <ele>1098</ele>
        <time>2017-05-22T08:36:54.000Z</time>
      </trkpt>
      <trkpt lat="46.76474" lon="6.37073">
        <ele>1097</ele>
        <time>2017-05-22T08:36:56.000Z</time>
      </trkpt>
      <trkpt lat="46.76474" lon="6.37077">
        <ele>1097</ele>
        <time>2017-05-22T08:36:58.000Z</time>
      </trkpt>
      <trkpt lat="46.76473" lon="6.37081">
        <ele>1097</ele>
        <time>2017-05-22T08:37:00.000Z</time>
      </trkpt>
      <trkpt lat="46.76473" lon="6.37085">
        <ele>1097</ele>
        <time>2017-05-22T08:37:02.000Z</time>
      </trkpt>
      <trkpt lat="46.76473" lon="6.37089">
        <ele>1097</ele>
        <time>2017-05-22T08:37:04.000Z</time>
      </trkpt>
      <trkpt lat="46.76473" lon="6.37093">
        <ele>1096.28</ele>
        <time>2017-05-22T08:37:06.000Z</time>
      </trkpt>
      <trkpt lat="46.76473" lon="6.37098">
        <ele>1096</ele>
        <time>2017-05-22T08:37:08.000Z</time>
      </trkpt>
      <trkpt lat="46.76473" lon="6.37102">
        <ele>1095</ele>
        <time>2017-05-22T08:37:10.000Z</time>
      </trkpt>
      <trkpt lat="46.76472" lon="6.37106">
        <ele>1095</ele>
        <time>2017-05-22T08:37:12.000Z</time>
      </trkpt>
      <trkpt lat="46.76473" lon="6.3711">
        <ele>1094.28</ele>
        <time>2017-05-22T08:37:14.000Z</time>
      </trkpt>
      <trkpt lat="46.76472" lon="6.37115">
        <ele>1094</ele>
        <time>2017-05-22T08:37:16.000Z</time>
      </trkpt>
      <trkpt lat="46.76472" lon="6.37119">
        <ele>1093.28</ele>
        <time>2017-05-22T08:37:18.000Z</time>
      </trkpt>
      <trkpt lat="46.76472" lon="6.37122">
        <ele>1093</ele>
        <time>2017-05-22T08:37:20.000Z</time>
      </trkpt>
      <trkpt lat="46.76472" lon="6.37126">
        <ele>1093</ele>
        <time>2017-05-22T08:37:22.000Z</time>
      </trkpt>
      <trkpt lat="46.76473" lon="6.3713">
        <ele>1093</ele>
        <time>2017-05-22T08:37:24.000Z</time>
      </trkpt>
      <trkpt lat="46.76474" lon="6.37133">
        <ele>1092</ele>
        <time>2017-05-22T08:37:26.000Z</time>
      </trkpt>
      <trkpt lat="46.76475" lon="6.37136">
        <ele>1092</ele>
        <time>2017-05-22T08:37:28.000Z</time>
      </trkpt>
      <trkpt lat="46.76476" lon="6.37139">
        <ele>1091</ele>
        <time>2017-05-22T08:37:30.000Z</time>
      </trkpt>
      <trkpt lat="46.76476" lon="6.37143">
        <ele>1091</ele>
        <time>2017-05-22T08:37:32.000Z</time>
      </trkpt>
      <trkpt lat="46.76477" lon="6.37146">
        <ele>1091</ele>
        <time>2017-05-22T08:37:34.000Z</time>
      </trkpt>
      <trkpt lat="46.76478" lon="6.3715">
        <ele>1091</ele>
        <time>2017-05-22T08:37:36.000Z</time>
      </trkpt>
      <trkpt lat="46.76478" lon="6.37153">
        <ele>1090.28</ele>
        <time>2017-05-22T08:37:38.000Z</time>
      </trkpt>
      <trkpt lat="46.76479" lon="6.37157">
        <ele>1089.450383022</ele>
        <time>2017-05-22T08:37:40.000Z</time>
      </trkpt>
      <trkpt lat="46.7648" lon="6.3716">
        <ele>1088.28</ele>
        <time>2017-05-22T08:37:42.000Z</time>
      </trkpt>
      <trkpt lat="46.7648" lon="6.37163">
        <ele>1088</ele>
        <time>2017-05-22T08:37:44.000Z</time>
      </trkpt>
      <trkpt lat="46.76482" lon="6.37166">
        <ele>1088</ele>
        <time>2017-05-22T08:37:47.000Z</time>
      </trkpt>
      <trkpt lat="46.76482" lon="6.37168">
        <ele>1087.28</ele>
        <time>2017-05-22T08:37:49.000Z</time>
      </trkpt>
      <trkpt lat="46.76484" lon="6.37172">
        <ele>1087</ele>
        <time>2017-05-22T08:37:51.000Z</time>
      </trkpt>
      <trkpt lat="46.76484" lon="6.37176">
        <ele>1086.28</ele>
        <time>2017-05-22T08:37:53.000Z</time>
      </trkpt>
      <trkpt lat="46.76485" lon="6.37181">
        <ele>1086</ele>
        <time>2017-05-22T08:37:55.000Z</time>
      </trkpt>
      <trkpt lat="46.76485" lon="6.37185">
        <ele>1085</ele>
        <time>2017-05-22T08:37:57.000Z</time>
      </trkpt>
      <trkpt lat="46.76484" lon="6.37189">
        <ele>1085</ele>
        <time>2017-05-22T08:38:00.000Z</time>
      </trkpt>
      <trkpt lat="46.76483" lon="6.37194">
        <ele>1084.28</ele>
        <time>2017-05-22T08:38:02.000Z</time>
      </trkpt>
      <trkpt lat="46.76481" lon="6.37199">
        <ele>1083</ele>
        <time>2017-05-22T08:38:04.000Z</time>
      </trkpt>
      <trkpt lat="46.7648" lon="6.37201">
        <ele>1083</ele>
        <time>2017-05-22T08:38:05.000Z</time>
      </trkpt>
      <trkpt lat="46.76477" lon="6.37205">
        <ele>1083</ele>
        <time>2017-05-22T08:38:07.000Z</time>
      </trkpt>
      <trkpt lat="46.76476" lon="6.37207">
        <ele>1083</ele>
        <time>2017-05-22T08:38:08.000Z</time>
      </trkpt>
      <trkpt lat="46.76473" lon="6.3721">
        <ele>1083</ele>
        <time>2017-05-22T08:38:10.000Z</time>
      </trkpt>
      <trkpt lat="46.7647" lon="6.37212">
        <ele>1083</ele>
        <time>2017-05-22T08:38:12.000Z</time>
      </trkpt>
      <trkpt lat="46.76468" lon="6.37213">
        <ele>1083</ele>
        <time>2017-05-22T08:38:13.000Z</time>
      </trkpt>
      <trkpt lat="46.76465" lon="6.37215">
        <ele>1083</ele>
        <time>2017-05-22T08:38:15.000Z</time>
      </trkpt>
      <trkpt lat="46.76462" lon="6.37217">
        <ele>1083</ele>
        <time>2017-05-22T08:38:17.000Z</time>
      </trkpt>
      <trkpt lat="46.7646" lon="6.37218">
        <ele>1083</ele>
        <time>2017-05-22T08:38:18.000Z</time>
      </trkpt>
      <trkpt lat="46.76458" lon="6.37219">
        <ele>1083</ele>
        <time>2017-05-22T08:38:19.000Z</time>
      </trkpt>
      <trkpt lat="46.76455" lon="6.37219">
        <ele>1083</ele>
        <time>2017-05-22T08:38:21.000Z</time>
      </trkpt>
      <trkpt lat="46.76452" lon="6.3722">
        <ele>1083</ele>
        <time>2017-05-22T08:38:23.000Z</time>
      </trkpt>
      <trkpt lat="46.7645" lon="6.3722">
        <ele>1083</ele>
        <time>2017-05-22T08:38:25.000Z</time>
      </trkpt>
      <trkpt lat="46.76447" lon="6.37221">
        <ele>1083</ele>
        <time>2017-05-22T08:38:29.000Z</time>
      </trkpt>
      <trkpt lat="46.76445" lon="6.37223">
        <ele>1083</ele>
        <time>2017-05-22T08:38:32.000Z</time>
      </trkpt>
      <trkpt lat="46.76442" lon="6.37224">
        <ele>1083</ele>
        <time>2017-05-22T08:38:34.000Z</time>
      </trkpt>
      <trkpt lat="46.76439" lon="6.37225">
        <ele>1082.28</ele>
        <time>2017-05-22T08:38:36.000Z</time>
      </trkpt>
      <trkpt lat="46.76437" lon="6.37226">
        <ele>1082</ele>
        <time>2017-05-22T08:38:38.000Z</time>
      </trkpt>
      <trkpt lat="46.76435" lon="6.37227">
        <ele>1082</ele>
        <time>2017-05-22T08:38:40.000Z</time>
      </trkpt>
      <trkpt lat="46.76432" lon="6.37228">
        <ele>1082</ele>
        <time>2017-05-22T08:38:42.000Z</time>
      </trkpt>
      <trkpt lat="46.7643" lon="6.37228">
        <ele>1081</ele>
        <time>2017-05-22T08:38:44.000Z</time>
      </trkpt>
      <trkpt lat="46.76427" lon="6.37229">
        <ele>1081</ele>
        <time>2017-05-22T08:38:46.000Z</time>
      </trkpt>
      <trkpt lat="46.76424" lon="6.37229">
        <ele>1081</ele>
        <time>2017-05-22T08:38:48.000Z</time>
      </trkpt>
      <trkpt lat="46.76421" lon="6.37229">
        <ele>1081</ele>
        <time>2017-05-22T08:38:50.000Z</time>
      </trkpt>
      <trkpt lat="46.76418" lon="6.3723">
        <ele>1081</ele>
        <time>2017-05-22T08:38:52.000Z</time>
      </trkpt>
      <trkpt lat="46.76415" lon="6.37232">
        <ele>1081</ele>
        <time>2017-05-22T08:38:54.000Z</time>
      </trkpt>
      <trkpt lat="46.76413" lon="6.37233">
        <ele>1081</ele>
        <time>2017-05-22T08:38:56.000Z</time>
      </trkpt>
      <trkpt lat="46.7641" lon="6.37235">
        <ele>1081</ele>
        <time>2017-05-22T08:38:58.000Z</time>
      </trkpt>
      <trkpt lat="46.76407" lon="6.37236">
        <ele>1081</ele>
        <time>2017-05-22T08:39:00.000Z</time>
      </trkpt>
      <trkpt lat="46.76404" lon="6.37237">
        <ele>1081</ele>
        <time>2017-05-22T08:39:02.000Z</time>
      </trkpt>
      <trkpt lat="46.76401" lon="6.37238">
        <ele>1081</ele>
        <time>2017-05-22T08:39:04.000Z</time>
      </trkpt>
      <trkpt lat="46.76398" lon="6.37239">
        <ele>1081</ele>
        <time>2017-05-22T08:39:06.000Z</time>
      </trkpt>
      <trkpt lat="46.76395" lon="6.37241">
        <ele>1081</ele>
        <time>2017-05-22T08:39:08.000Z</time>
      </trkpt>
      <trkpt lat="46.76392" lon="6.37241">
        <ele>1081</ele>
        <time>2017-05-22T08:39:10.000Z</time>
      </trkpt>
      <trkpt lat="46.7639" lon="6.37242">
        <ele>1081</ele>
        <time>2017-05-22T08:39:12.000Z</time>
      </trkpt>
      <trkpt lat="46.76387" lon="6.37241">
        <ele>1081</ele>
        <time>2017-05-22T08:39:14.000Z</time>
      </trkpt>
      <trkpt lat="46.76384" lon="6.37242">
        <ele>1080</ele>
        <time>2017-05-22T08:39:16.000Z</time>
      </trkpt>
      <trkpt lat="46.76381" lon="6.37243">
        <ele>1080</ele>
        <time>2017-05-22T08:39:18.000Z</time>
      </trkpt>
      <trkpt lat="46.76378" lon="6.37244">
        <ele>1080</ele>
        <time>2017-05-22T08:39:20.000Z</time>
      </trkpt>
      <trkpt lat="46.76376" lon="6.37244">
        <ele>1080</ele>
        <time>2017-05-22T08:39:22.000Z</time>
      </trkpt>
      <trkpt lat="46.76374" lon="6.37245">
        <ele>1081</ele>
        <time>2017-05-22T08:39:25.000Z</time>
      </trkpt>
      <trkpt lat="46.76371" lon="6.37245">
        <ele>1081</ele>
        <time>2017-05-22T08:39:31.000Z</time>
      </trkpt>
      <trkpt lat="46.76369" lon="6.37246">
        <ele>1081</ele>
        <time>2017-05-22T08:39:33.000Z</time>
      </trkpt>
      <trkpt lat="46.76367" lon="6.37247">
        <ele>1081</ele>
        <time>2017-05-22T08:39:35.000Z</time>
      </trkpt>
      <trkpt lat="46.76365" lon="6.3725">
        <ele>1081</ele>
        <time>2017-05-22T08:39:37.000Z</time>
      </trkpt>
      <trkpt lat="46.76365" lon="6.37253">
        <ele>1081.549616978</ele>
        <time>2017-05-22T08:39:39.000Z</time>
      </trkpt>
      <trkpt lat="46.76364" lon="6.37257">
        <ele>1082</ele>
        <time>2017-05-22T08:39:41.000Z</time>
      </trkpt>
      <trkpt lat="46.76363" lon="6.37259">
        <ele>1082</ele>
        <time>2017-05-22T08:39:43.000Z</time>
      </trkpt>
      <trkpt lat="46.76362" lon="6.37262">
        <ele>1082</ele>
        <time>2017-05-22T08:39:45.000Z</time>
      </trkpt>
      <trkpt lat="46.76362" lon="6.37265">
        <ele>1082</ele>
        <time>2017-05-22T08:39:47.000Z</time>
      </trkpt>
      <trkpt lat="46.76361" lon="6.37268">
        <ele>1082</ele>
        <time>2017-05-22T08:39:49.000Z</time>
      </trkpt>
      <trkpt lat="46.7636" lon="6.37272">
        <ele>1082</ele>
        <time>2017-05-22T08:39:51.000Z</time>
      </trkpt>
      <trkpt lat="46.76359" lon="6.37276">
        <ele>1082</ele>
        <time>2017-05-22T08:39:53.000Z</time>
      </trkpt>
      <trkpt lat="46.76358" lon="6.37279">
        <ele>1082</ele>
        <time>2017-05-22T08:39:55.000Z</time>
      </trkpt>
      <trkpt lat="46.76356" lon="6.37283">
        <ele>1082</ele>
        <time>2017-05-22T08:39:57.000Z</time>
      </trkpt>
      <trkpt lat="46.76355" lon="6.37286">
        <ele>1083</ele>
        <time>2017-05-22T08:39:59.000Z</time>
      </trkpt>
      <trkpt lat="46.76354" lon="6.3729">
        <ele>1083</ele>
        <time>2017-05-22T08:40:01.000Z</time>
      </trkpt>
      <trkpt lat="46.76351" lon="6.37294">
        <ele>1083</ele>
        <time>2017-05-22T08:40:03.000Z</time>
      </trkpt>
      <trkpt lat="46.7635" lon="6.37297">
        <ele>1084</ele>
        <time>2017-05-22T08:40:05.000Z</time>
      </trkpt>
      <trkpt lat="46.76348" lon="6.37301">
        <ele>1084</ele>
        <time>2017-05-22T08:40:07.000Z</time>
      </trkpt>
      <trkpt lat="46.76346" lon="6.37304">
        <ele>1084</ele>
        <time>2017-05-22T08:40:09.000Z</time>
      </trkpt>
      <trkpt lat="46.76344" lon="6.37307">
        <ele>1083</ele>
        <time>2017-05-22T08:40:11.000Z</time>
      </trkpt>
      <trkpt lat="46.76342" lon="6.37311">
        <ele>1083</ele>
        <time>2017-05-22T08:40:13.000Z</time>
      </trkpt>
      <trkpt lat="46.76341" lon="6.37315">
        <ele>1083</ele>
        <time>2017-05-22T08:40:15.000Z</time>
      </trkpt>
      <trkpt lat="46.76339" lon="6.37318">
        <ele>1083</ele>
        <time>2017-05-22T08:40:17.000Z</time>
      </trkpt>
      <trkpt lat="46.76338" lon="6.37322">
        <ele>1083</ele>
        <time>2017-05-22T08:40:19.000Z</time>
      </trkpt>
      <trkpt lat="46.76337" lon="6.37325">
        <ele>1083</ele>
        <time>2017-05-22T08:40:21.000Z</time>
      </trkpt>
      <trkpt lat="46.76336" lon="6.37328">
        <ele>1083</ele>
        <time>2017-05-22T08:40:23.000Z</time>
      </trkpt>
      <trkpt lat="46.76335" lon="6.37332">
        <ele>1083</ele>
        <time>2017-05-22T08:40:25.000Z</time>
      </trkpt>
      <trkpt lat="46.76334" lon="6.37336">
        <ele>1083</ele>
        <time>2017-05-22T08:40:27.000Z</time>
      </trkpt>
      <trkpt lat="46.76331" lon="6.37339">
        <ele>1084</ele>
        <time>2017-05-22T08:40:29.000Z</time>
      </trkpt>
      <trkpt lat="46.76328" lon="6.3734">
        <ele>1084</ele>
        <time>2017-05-22T08:40:31.000Z</time>
      </trkpt>
      <trkpt lat="46.76326" lon="6.37341">
        <ele>1084</ele>
        <time>2017-05-22T08:40:33.000Z</time>
      </trkpt>
      <trkpt lat="46.76323" lon="6.37341">
        <ele>1083.28</ele>
        <time>2017-05-22T08:40:35.000Z</time>
      </trkpt>
      <trkpt lat="46.7632" lon="6.37342">
        <ele>1083</ele>
        <time>2017-05-22T08:40:37.000Z</time>
      </trkpt>
      <trkpt lat="46.76317" lon="6.37343">
        <ele>1083</ele>
        <time>2017-05-22T08:40:39.000Z</time>
      </trkpt>
      <trkpt lat="46.76315" lon="6.37344">
        <ele>1083</ele>
        <time>2017-05-22T08:40:41.000Z</time>
      </trkpt>
      <trkpt lat="46.76312" lon="6.37344">
        <ele>1083.72</ele>
        <time>2017-05-22T08:40:43.000Z</time>
      </trkpt>
      <trkpt lat="46.76309" lon="6.37345">
        <ele>1084</ele>
        <time>2017-05-22T08:40:45.000Z</time>
      </trkpt>
      <trkpt lat="46.76305" lon="6.37344">
        <ele>1083</ele>
        <time>2017-05-22T08:40:47.000Z</time>
      </trkpt>
      <trkpt lat="46.76303" lon="6.37344">
        <ele>1083</ele>
        <time>2017-05-22T08:40:48.000Z</time>
      </trkpt>
      <trkpt lat="46.763" lon="6.37341">
        <ele>1083</ele>
        <time>2017-05-22T08:40:50.000Z</time>
      </trkpt>
      <trkpt lat="46.76298" lon="6.37338">
        <ele>1083</ele>
        <time>2017-05-22T08:40:52.000Z</time>
      </trkpt>
      <trkpt lat="46.76294" lon="6.37337">
        <ele>1083.72</ele>
        <time>2017-05-22T08:40:54.000Z</time>
      </trkpt>
      <trkpt lat="46.76292" lon="6.37335">
        <ele>1084</ele>
        <time>2017-05-22T08:40:56.000Z</time>
      </trkpt>
      <trkpt lat="46.7629" lon="6.37334">
        <ele>1084</ele>
        <time>2017-05-22T08:40:57.000Z</time>
      </trkpt>
      <trkpt lat="46.76288" lon="6.37331">
        <ele>1083.28</ele>
        <time>2017-05-22T08:40:59.000Z</time>
      </trkpt>
      <trkpt lat="46.76285" lon="6.37328">
        <ele>1083</ele>
        <time>2017-05-22T08:41:01.000Z</time>
      </trkpt>
      <trkpt lat="46.76283" lon="6.37325">
        <ele>1083</ele>
        <time>2017-05-22T08:41:03.000Z</time>
      </trkpt>
      <trkpt lat="46.76281" lon="6.37322">
        <ele>1084.72</ele>
        <time>2017-05-22T08:41:05.000Z</time>
      </trkpt>
      <trkpt lat="46.76279" lon="6.37319">
        <ele>1084.28</ele>
        <time>2017-05-22T08:41:07.000Z</time>
      </trkpt>
      <trkpt lat="46.76278" lon="6.37316">
        <ele>1083.450383022</ele>
        <time>2017-05-22T08:41:09.000Z</time>
      </trkpt>
      <trkpt lat="46.76277" lon="6.37313">
        <ele>1083</ele>
        <time>2017-05-22T08:41:11.000Z</time>
      </trkpt>
      <trkpt lat="46.76275" lon="6.3731">
        <ele>1084</ele>
        <time>2017-05-22T08:41:13.000Z</time>
      </trkpt>
      <trkpt lat="46.76273" lon="6.37306">
        <ele>1084</ele>
        <time>2017-05-22T08:41:15.000Z</time>
      </trkpt>
      <trkpt lat="46.76271" lon="6.37303">
        <ele>1084</ele>
        <time>2017-05-22T08:41:17.000Z</time>
      </trkpt>
      <trkpt lat="46.76269" lon="6.373">
        <ele>1084</ele>
        <time>2017-05-22T08:41:19.000Z</time>
      </trkpt>
      <trkpt lat="46.76267" lon="6.37297">
        <ele>1083.28</ele>
        <time>2017-05-22T08:41:21.000Z</time>
      </trkpt>
      <trkpt lat="46.76266" lon="6.37293">
        <ele>1084</ele>
        <time>2017-05-22T08:41:23.000Z</time>
      </trkpt>
      <trkpt lat="46.76264" lon="6.3729">
        <ele>1084</ele>
        <time>2017-05-22T08:41:25.000Z</time>
      </trkpt>
      <trkpt lat="46.76262" lon="6.37287">
        <ele>1084</ele>
        <time>2017-05-22T08:41:27.000Z</time>
      </trkpt>
      <trkpt lat="46.7626" lon="6.37284">
        <ele>1084</ele>
        <time>2017-05-22T08:41:29.000Z</time>
      </trkpt>
      <trkpt lat="46.76258" lon="6.37282">
        <ele>1084</ele>
        <time>2017-05-22T08:41:31.000Z</time>
      </trkpt>
      <trkpt lat="46.76256" lon="6.3728">
        <ele>1083</ele>
        <time>2017-05-22T08:41:33.000Z</time>
      </trkpt>
      <trkpt lat="46.76254" lon="6.37279">
        <ele>1083</ele>
        <time>2017-05-22T08:41:35.000Z</time>
      </trkpt>
      <trkpt lat="46.76252" lon="6.37278">
        <ele>1083</ele>
        <time>2017-05-22T08:41:37.000Z</time>
      </trkpt>
      <trkpt lat="46.7625" lon="6.37277">
        <ele>1082</ele>
        <time>2017-05-22T08:41:39.000Z</time>
      </trkpt>
      <trkpt lat="46.76247" lon="6.37276">
        <ele>1082</ele>
        <time>2017-05-22T08:41:41.000Z</time>
      </trkpt>
      <trkpt lat="46.76245" lon="6.37273">
        <ele>1082</ele>
        <time>2017-05-22T08:41:43.000Z</time>
      </trkpt>
      <trkpt lat="46.76242" lon="6.3727">
        <ele>1082</ele>
        <time>2017-05-22T08:41:45.000Z</time>
      </trkpt>
      <trkpt lat="46.7624" lon="6.37268">
        <ele>1082</ele>
        <time>2017-05-22T08:41:47.000Z</time>
      </trkpt>
      <trkpt lat="46.76238" lon="6.37265">
        <ele>1081</ele>
        <time>2017-05-22T08:41:49.000Z</time>
      </trkpt>
      <trkpt lat="46.76236" lon="6.37263">
        <ele>1081</ele>
        <time>2017-05-22T08:41:51.000Z</time>
      </trkpt>
      <trkpt lat="46.76233" lon="6.37261">
        <ele>1081</ele>
        <time>2017-05-22T08:41:53.000Z</time>
      </trkpt>
      <trkpt lat="46.7623" lon="6.3726">
        <ele>1081</ele>
        <time>2017-05-22T08:41:55.000Z</time>
      </trkpt>
      <trkpt lat="46.76227" lon="6.37258">
        <ele>1080</ele>
        <time>2017-05-22T08:41:57.000Z</time>
      </trkpt>
      <trkpt lat="46.76224" lon="6.37257">
        <ele>1080</ele>
        <time>2017-05-22T08:41:59.000Z</time>
      </trkpt>
      <trkpt lat="46.76221" lon="6.37257">
        <ele>1080</ele>
        <time>2017-05-22T08:42:01.000Z</time>
      </trkpt>
      <trkpt lat="46.76218" lon="6.37256">
        <ele>1080.72</ele>
        <time>2017-05-22T08:42:03.000Z</time>
      </trkpt>
      <trkpt lat="46.76215" lon="6.37257">
        <ele>1081</ele>
        <time>2017-05-22T08:42:05.000Z</time>
      </trkpt>
      <trkpt lat="46.76212" lon="6.37257">
        <ele>1082</ele>
        <time>2017-05-22T08:42:07.000Z</time>
      </trkpt>
      <trkpt lat="46.7621" lon="6.37258">
        <ele>1082</ele>
        <time>2017-05-22T08:42:09.000Z</time>
      </trkpt>
      <trkpt lat="46.76207" lon="6.3726">
        <ele>1082</ele>
        <time>2017-05-22T08:42:11.000Z</time>
      </trkpt>
      <trkpt lat="46.76205" lon="6.37262">
        <ele>1082</ele>
        <time>2017-05-22T08:42:13.000Z</time>
      </trkpt>
      <trkpt lat="46.76203" lon="6.37264">
        <ele>1083</ele>
        <time>2017-05-22T08:42:15.000Z</time>
      </trkpt>
      <trkpt lat="46.762" lon="6.37265">
        <ele>1083.7142838484</ele>
        <time>2017-05-22T08:42:17.000Z</time>
      </trkpt>
      <trkpt lat="46.76198" lon="6.37268">
        <ele>1084</ele>
        <time>2017-05-22T08:42:19.000Z</time>
      </trkpt>
      <trkpt lat="46.76196" lon="6.37269">
        <ele>1085</ele>
        <time>2017-05-22T08:42:21.000Z</time>
      </trkpt>
      <trkpt lat="46.76193" lon="6.37271">
        <ele>1085</ele>
        <time>2017-05-22T08:42:23.000Z</time>
      </trkpt>
      <trkpt lat="46.7619" lon="6.37272">
        <ele>1085</ele>
        <time>2017-05-22T08:42:25.000Z</time>
      </trkpt>
      <trkpt lat="46.76188" lon="6.3727">
        <ele>1086</ele>
        <time>2017-05-22T08:42:27.000Z</time>
      </trkpt>
      <trkpt lat="46.76185" lon="6.37268">
        <ele>1086</ele>
        <time>2017-05-22T08:42:29.000Z</time>
      </trkpt>
      <trkpt lat="46.76183" lon="6.37266">
        <ele>1086</ele>
        <time>2017-05-22T08:42:31.000Z</time>
      </trkpt>
      <trkpt lat="46.76181" lon="6.37263">
        <ele>1085</ele>
        <time>2017-05-22T08:42:33.000Z</time>
      </trkpt>
      <trkpt lat="46.76179" lon="6.37262">
        <ele>1085</ele>
        <time>2017-05-22T08:42:35.000Z</time>
      </trkpt>
      <trkpt lat="46.76176" lon="6.37261">
        <ele>1085</ele>
        <time>2017-05-22T08:42:37.000Z</time>
      </trkpt>
      <trkpt lat="46.76173" lon="6.37259">
        <ele>1085</ele>
        <time>2017-05-22T08:42:39.000Z</time>
      </trkpt>
      <trkpt lat="46.76171" lon="6.37258">
        <ele>1085</ele>
        <time>2017-05-22T08:42:41.000Z</time>
      </trkpt>
      <trkpt lat="46.76168" lon="6.37256">
        <ele>1085</ele>
        <time>2017-05-22T08:42:43.000Z</time>
      </trkpt>
      <trkpt lat="46.76165" lon="6.37255">
        <ele>1085</ele>
        <time>2017-05-22T08:42:45.000Z</time>
      </trkpt>
      <trkpt lat="46.76163" lon="6.37254">
        <ele>1085</ele>
        <time>2017-05-22T08:42:47.000Z</time>
      </trkpt>
      <trkpt lat="46.7616" lon="6.37252">
        <ele>1085</ele>
        <time>2017-05-22T08:42:49.000Z</time>
      </trkpt>
      <trkpt lat="46.76158" lon="6.3725">
        <ele>1085</ele>
        <time>2017-05-22T08:42:51.000Z</time>
      </trkpt>
      <trkpt lat="46.76155" lon="6.37248">
        <ele>1085</ele>
        <time>2017-05-22T08:42:53.000Z</time>
      </trkpt>
      <trkpt lat="46.76152" lon="6.37246">
        <ele>1084</ele>
        <time>2017-05-22T08:42:55.000Z</time>
      </trkpt>
      <trkpt lat="46.76151" lon="6.37244">
        <ele>1085</ele>
        <time>2017-05-22T08:42:57.000Z</time>
      </trkpt>
      <trkpt lat="46.76148" lon="6.37243">
        <ele>1085</ele>
        <time>2017-05-22T08:42:59.000Z</time>
      </trkpt>
      <trkpt lat="46.76145" lon="6.3724">
        <ele>1085</ele>
        <time>2017-05-22T08:43:01.000Z</time>
      </trkpt>
      <trkpt lat="46.76143" lon="6.37238">
        <ele>1085</ele>
        <time>2017-05-22T08:43:03.000Z</time>
      </trkpt>
      <trkpt lat="46.76141" lon="6.37237">
        <ele>1085</ele>
        <time>2017-05-22T08:43:05.000Z</time>
      </trkpt>
      <trkpt lat="46.76138" lon="6.37237">
        <ele>1085</ele>
        <time>2017-05-22T08:43:07.000Z</time>
      </trkpt>
      <trkpt lat="46.76136" lon="6.37236">
        <ele>1085</ele>
        <time>2017-05-22T08:43:09.000Z</time>
      </trkpt>
      <trkpt lat="46.76134" lon="6.37235">
        <ele>1085</ele>
        <time>2017-05-22T08:43:11.000Z</time>
      </trkpt>
      <trkpt lat="46.76131" lon="6.37234">
        <ele>1086.541354686</ele>
        <time>2017-05-22T08:43:13.000Z</time>
      </trkpt>
      <trkpt lat="46.76129" lon="6.37232">
        <ele>1087</ele>
        <time>2017-05-22T08:43:15.000Z</time>
      </trkpt>
      <trkpt lat="46.76127" lon="6.3723">
        <ele>1087</ele>
        <time>2017-05-22T08:43:17.000Z</time>
      </trkpt>
      <trkpt lat="46.76124" lon="6.37229">
        <ele>1087</ele>
        <time>2017-05-22T08:43:19.000Z</time>
      </trkpt>
      <trkpt lat="46.76122" lon="6.37227">
        <ele>1087</ele>
        <time>2017-05-22T08:43:21.000Z</time>
      </trkpt>
      <trkpt lat="46.76119" lon="6.37226">
        <ele>1087</ele>
        <time>2017-05-22T08:43:23.000Z</time>
      </trkpt>
      <trkpt lat="46.76117" lon="6.37225">
        <ele>1087</ele>
        <time>2017-05-22T08:43:25.000Z</time>
      </trkpt>
      <trkpt lat="46.76114" lon="6.37224">
        <ele>1087</ele>
        <time>2017-05-22T08:43:27.000Z</time>
      </trkpt>
      <trkpt lat="46.76112" lon="6.37222">
        <ele>1087</ele>
        <time>2017-05-22T08:43:29.000Z</time>
      </trkpt>
      <trkpt lat="46.76109" lon="6.3722">
        <ele>1087</ele>
        <time>2017-05-22T08:43:31.000Z</time>
      </trkpt>
      <trkpt lat="46.76106" lon="6.37219">
        <ele>1087</ele>
        <time>2017-05-22T08:43:33.000Z</time>
      </trkpt>
      <trkpt lat="46.76104" lon="6.37218">
        <ele>1087</ele>
        <time>2017-05-22T08:43:35.000Z</time>
      </trkpt>
      <trkpt lat="46.76101" lon="6.37218">
        <ele>1087</ele>
        <time>2017-05-22T08:43:37.000Z</time>
      </trkpt>
      <trkpt lat="46.76098" lon="6.37217">
        <ele>1087</ele>
        <time>2017-05-22T08:43:39.000Z</time>
      </trkpt>
      <trkpt lat="46.76095" lon="6.37216">
        <ele>1087</ele>
        <time>2017-05-22T08:43:41.000Z</time>
      </trkpt>
      <trkpt lat="46.76092" lon="6.37216">
        <ele>1086.28</ele>
        <time>2017-05-22T08:43:43.000Z</time>
      </trkpt>
      <trkpt lat="46.7609" lon="6.37216">
        <ele>1086</ele>
        <time>2017-05-22T08:43:45.000Z</time>
      </trkpt>
      <trkpt lat="46.76087" lon="6.37216">
        <ele>1086</ele>
        <time>2017-05-22T08:43:47.000Z</time>
      </trkpt>
      <trkpt lat="46.76084" lon="6.37216">
        <ele>1086</ele>
        <time>2017-05-22T08:43:49.000Z</time>
      </trkpt>
      <trkpt lat="46.76081" lon="6.37215">
        <ele>1086</ele>
        <time>2017-05-22T08:43:51.000Z</time>
      </trkpt>
      <trkpt lat="46.76078" lon="6.37215">
        <ele>1086.72</ele>
        <time>2017-05-22T08:43:53.000Z</time>
      </trkpt>
      <trkpt lat="46.76076" lon="6.37215">
        <ele>1087</ele>
        <time>2017-05-22T08:43:55.000Z</time>
      </trkpt>
      <trkpt lat="46.76073" lon="6.37215">
        <ele>1087</ele>
        <time>2017-05-22T08:43:57.000Z</time>
      </trkpt>
      <trkpt lat="46.7607" lon="6.37213">
        <ele>1087</ele>
        <time>2017-05-22T08:43:59.000Z</time>
      </trkpt>
      <trkpt lat="46.76067" lon="6.37212">
        <ele>1087</ele>
        <time>2017-05-22T08:44:01.000Z</time>
      </trkpt>
      <trkpt lat="46.76065" lon="6.37211">
        <ele>1087</ele>
        <time>2017-05-22T08:44:03.000Z</time>
      </trkpt>
      <trkpt lat="46.76062" lon="6.3721">
        <ele>1087</ele>
        <time>2017-05-22T08:44:05.000Z</time>
      </trkpt>
      <trkpt lat="46.7606" lon="6.37209">
        <ele>1087</ele>
        <time>2017-05-22T08:44:07.000Z</time>
      </trkpt>
      <trkpt lat="46.76057" lon="6.37209">
        <ele>1087</ele>
        <time>2017-05-22T08:44:09.000Z</time>
      </trkpt>
      <trkpt lat="46.76054" lon="6.37207">
        <ele>1087</ele>
        <time>2017-05-22T08:44:11.000Z</time>
      </trkpt>
      <trkpt lat="46.76052" lon="6.37206">
        <ele>1087</ele>
        <time>2017-05-22T08:44:13.000Z</time>
      </trkpt>
      <trkpt lat="46.76049" lon="6.37205">
        <ele>1087</ele>
        <time>2017-05-22T08:44:15.000Z</time>
      </trkpt>
      <trkpt lat="46.76046" lon="6.37205">
        <ele>1087</ele>
        <time>2017-05-22T08:44:17.000Z</time>
      </trkpt>
      <trkpt lat="46.76043" lon="6.37206">
        <ele>1087</ele>
        <time>2017-05-22T08:44:19.000Z</time>
      </trkpt>
      <trkpt lat="46.76041" lon="6.37206">
        <ele>1087</ele>
        <time>2017-05-22T08:44:21.000Z</time>
      </trkpt>
      <trkpt lat="46.76038" lon="6.37207">
        <ele>1086</ele>
        <time>2017-05-22T08:44:23.000Z</time>
      </trkpt>
      <trkpt lat="46.76034" lon="6.37207">
        <ele>1086</ele>
        <time>2017-05-22T08:44:25.000Z</time>
      </trkpt>
      <trkpt lat="46.76031" lon="6.37208">
        <ele>1086</ele>
        <time>2017-05-22T08:44:27.000Z</time>
      </trkpt>
      <trkpt lat="46.76028" lon="6.37208">
        <ele>1086</ele>
        <time>2017-05-22T08:44:29.000Z</time>
      </trkpt>
      <trkpt lat="46.76026" lon="6.37208">
        <ele>1085.28</ele>
        <time>2017-05-22T08:44:31.000Z</time>
      </trkpt>
      <trkpt lat="46.76023" lon="6.37208">
        <ele>1085</ele>
        <time>2017-05-22T08:44:33.000Z</time>
      </trkpt>
      <trkpt lat="46.7602" lon="6.37209">
        <ele>1085</ele>
        <time>2017-05-22T08:44:35.000Z</time>
      </trkpt>
      <trkpt lat="46.76017" lon="6.37209">
        <ele>1085</ele>
        <time>2017-05-22T08:44:37.000Z</time>
      </trkpt>
      <trkpt lat="46.76014" lon="6.3721">
        <ele>1085</ele>
        <time>2017-05-22T08:44:39.000Z</time>
      </trkpt>
      <trkpt lat="46.76011" lon="6.3721">
        <ele>1085</ele>
        <time>2017-05-22T08:44:41.000Z</time>
      </trkpt>
      <trkpt lat="46.76009" lon="6.37211">
        <ele>1085</ele>
        <time>2017-05-22T08:44:43.000Z</time>
      </trkpt>
      <trkpt lat="46.76007" lon="6.37212">
        <ele>1085</ele>
        <time>2017-05-22T08:44:45.000Z</time>
      </trkpt>
      <trkpt lat="46.76007" lon="6.37209">
        <ele>1084</ele>
        <time>2017-05-22T08:45:20.000Z</time>
      </trkpt>
      <trkpt lat="46.76005" lon="6.37209">
        <ele>1083</ele>
        <time>2017-05-22T08:46:12.000Z</time>
      </trkpt>
      <trkpt lat="46.76002" lon="6.37211">
        <ele>1083</ele>
        <time>2017-05-22T08:46:14.000Z</time>
      </trkpt>
      <trkpt lat="46.76" lon="6.37211">
        <ele>1083</ele>
        <time>2017-05-22T08:46:16.000Z</time>
      </trkpt>
      <trkpt lat="46.75997" lon="6.37212">
        <ele>1083</ele>
        <time>2017-05-22T08:46:18.000Z</time>
      </trkpt>
      <trkpt lat="46.75994" lon="6.37213">
        <ele>1083</ele>
        <time>2017-05-22T08:46:20.000Z</time>
      </trkpt>
      <trkpt lat="46.75991" lon="6.37214">
        <ele>1083</ele>
        <time>2017-05-22T08:46:22.000Z</time>
      </trkpt>
      <trkpt lat="46.75988" lon="6.37216">
        <ele>1083</ele>
        <time>2017-05-22T08:46:24.000Z</time>
      </trkpt>
      <trkpt lat="46.75985" lon="6.37216">
        <ele>1083</ele>
        <time>2017-05-22T08:46:26.000Z</time>
      </trkpt>
      <trkpt lat="46.75982" lon="6.37217">
        <ele>1083</ele>
        <time>2017-05-22T08:46:28.000Z</time>
      </trkpt>
      <trkpt lat="46.7598" lon="6.37218">
        <ele>1083</ele>
        <time>2017-05-22T08:46:30.000Z</time>
      </trkpt>
      <trkpt lat="46.75977" lon="6.37219">
        <ele>1083</ele>
        <time>2017-05-22T08:46:32.000Z</time>
      </trkpt>
      <trkpt lat="46.75974" lon="6.3722">
        <ele>1083</ele>
        <time>2017-05-22T08:46:34.000Z</time>
      </trkpt>
      <trkpt lat="46.75971" lon="6.37221">
        <ele>1083</ele>
        <time>2017-05-22T08:46:36.000Z</time>
      </trkpt>
      <trkpt lat="46.75968" lon="6.37223">
        <ele>1083</ele>
        <time>2017-05-22T08:46:38.000Z</time>
      </trkpt>
      <trkpt lat="46.75966" lon="6.37226">
        <ele>1083</ele>
        <time>2017-05-22T08:46:40.000Z</time>
      </trkpt>
      <trkpt lat="46.75963" lon="6.37227">
        <ele>1083</ele>
        <time>2017-05-22T08:46:42.000Z</time>
      </trkpt>
      <trkpt lat="46.7596" lon="6.37227">
        <ele>1083</ele>
        <time>2017-05-22T08:46:44.000Z</time>
      </trkpt>
      <trkpt lat="46.75958" lon="6.37228">
        <ele>1083</ele>
        <time>2017-05-22T08:46:46.000Z</time>
      </trkpt>
      <trkpt lat="46.75955" lon="6.37229">
        <ele>1083</ele>
        <time>2017-05-22T08:46:48.000Z</time>
      </trkpt>
      <trkpt lat="46.75952" lon="6.37231">
        <ele>1083</ele>
        <time>2017-05-22T08:46:50.000Z</time>
      </trkpt>
      <trkpt lat="46.7595" lon="6.37232">
        <ele>1083</ele>
        <time>2017-05-22T08:46:52.000Z</time>
      </trkpt>
      <trkpt lat="46.75948" lon="6.37234">
        <ele>1083</ele>
        <time>2017-05-22T08:46:54.000Z</time>
      </trkpt>
      <trkpt lat="46.75945" lon="6.37235">
        <ele>1083</ele>
        <time>2017-05-22T08:46:56.000Z</time>
      </trkpt>
      <trkpt lat="46.75943" lon="6.37237">
        <ele>1083</ele>
        <time>2017-05-22T08:46:58.000Z</time>
      </trkpt>
      <trkpt lat="46.75941" lon="6.3724">
        <ele>1083.549616978</ele>
        <time>2017-05-22T08:47:00.000Z</time>
      </trkpt>
      <trkpt lat="46.75939" lon="6.37241">
        <ele>1084</ele>
        <time>2017-05-22T08:47:02.000Z</time>
      </trkpt>
      <trkpt lat="46.75941" lon="6.37241">
        <ele>1083.72</ele>
        <time>2017-05-22T08:47:18.000Z</time>
      </trkpt>
      <trkpt lat="46.75943" lon="6.37241">
        <ele>1084</ele>
        <time>2017-05-22T08:47:32.000Z</time>
      </trkpt>
      <trkpt lat="46.75941" lon="6.37241">
        <ele>1083</ele>
        <time>2017-05-22T08:47:54.000Z</time>
      </trkpt>
      <trkpt lat="46.75939" lon="6.3724">
        <ele>1083</ele>
        <time>2017-05-22T08:48:30.000Z</time>
      </trkpt>
      <trkpt lat="46.75936" lon="6.37239">
        <ele>1083</ele>
        <time>2017-05-22T08:48:32.000Z</time>
      </trkpt>
      <trkpt lat="46.75933" lon="6.3724">
        <ele>1082</ele>
        <time>2017-05-22T08:48:34.000Z</time>
      </trkpt>
      <trkpt lat="46.7593" lon="6.37242">
        <ele>1082</ele>
        <time>2017-05-22T08:48:36.000Z</time>
      </trkpt>
      <trkpt lat="46.75928" lon="6.37244">
        <ele>1082</ele>
        <time>2017-05-22T08:48:38.000Z</time>
      </trkpt>
      <trkpt lat="46.75926" lon="6.37244">
        <ele>1082</ele>
        <time>2017-05-22T08:48:40.000Z</time>
      </trkpt>
      <trkpt lat="46.75924" lon="6.37245">
        <ele>1082</ele>
        <time>2017-05-22T08:48:42.000Z</time>
      </trkpt>
      <trkpt lat="46.75922" lon="6.37244">
        <ele>1082</ele>
        <time>2017-05-22T08:48:44.000Z</time>
      </trkpt>
      <trkpt lat="46.7592" lon="6.37243">
        <ele>1082</ele>
        <time>2017-05-22T08:48:46.000Z</time>
      </trkpt>
      <trkpt lat="46.75919" lon="6.37242">
        <ele>1081</ele>
        <time>2017-05-22T08:48:50.000Z</time>
      </trkpt>
      <trkpt lat="46.75917" lon="6.3724">
        <ele>1081</ele>
        <time>2017-05-22T08:48:55.000Z</time>
      </trkpt>
      <trkpt lat="46.75914" lon="6.37241">
        <ele>1081.28</ele>
        <time>2017-05-22T08:48:59.000Z</time>
      </trkpt>
      <trkpt lat="46.75912" lon="6.37242">
        <ele>1081</ele>
        <time>2017-05-22T08:49:01.000Z</time>
      </trkpt>
      <trkpt lat="46.7591" lon="6.37244">
        <ele>1081</ele>
        <time>2017-05-22T08:49:03.000Z</time>
      </trkpt>
      <trkpt lat="46.75908" lon="6.37245">
        <ele>1081</ele>
        <time>2017-05-22T08:49:05.000Z</time>
      </trkpt>
      <trkpt lat="46.75906" lon="6.37246">
        <ele>1081</ele>
        <time>2017-05-22T08:49:07.000Z</time>
      </trkpt>
      <trkpt lat="46.75905" lon="6.37245">
        <ele>1081</ele>
        <time>2017-05-22T08:49:10.000Z</time>
      </trkpt>
      <trkpt lat="46.75905" lon="6.37242">
        <ele>1081</ele>
        <time>2017-05-22T08:49:13.000Z</time>
      </trkpt>
      <trkpt lat="46.75907" lon="6.37241">
        <ele>1080</ele>
        <time>2017-05-22T08:49:28.000Z</time>
      </trkpt>
      <trkpt lat="46.75907" lon="6.37238">
        <ele>1080</ele>
        <time>2017-05-22T08:49:38.000Z</time>
      </trkpt>
      <trkpt lat="46.75906" lon="6.37235">
        <ele>1081</ele>
        <time>2017-05-22T08:49:41.000Z</time>
      </trkpt>
      <trkpt lat="46.75906" lon="6.37232">
        <ele>1081</ele>
        <time>2017-05-22T08:49:44.000Z</time>
      </trkpt>
      <trkpt lat="46.75906" lon="6.37229">
        <ele>1079.28</ele>
        <time>2017-05-22T08:49:47.000Z</time>
      </trkpt>
      <trkpt lat="46.75904" lon="6.37227">
        <ele>1079</ele>
        <time>2017-05-22T08:49:50.000Z</time>
      </trkpt>
      <trkpt lat="46.75903" lon="6.37225">
        <ele>1078.3009730455</ele>
        <time>2017-05-22T08:49:52.000Z</time>
      </trkpt>
      <trkpt lat="46.75902" lon="6.37222">
        <ele>1076.28</ele>
        <time>2017-05-22T08:49:55.000Z</time>
      </trkpt>
      <trkpt lat="46.759" lon="6.37221">
        <ele>1076</ele>
        <time>2017-05-22T08:49:57.000Z</time>
      </trkpt>
      <trkpt lat="46.75898" lon="6.3722">
        <ele>1076</ele>
        <time>2017-05-22T08:49:59.000Z</time>
      </trkpt>
      <trkpt lat="46.75896" lon="6.37218">
        <ele>1075</ele>
        <time>2017-05-22T08:50:02.000Z</time>
      </trkpt>
      <trkpt lat="46.75895" lon="6.37217">
        <ele>1074.28</ele>
        <time>2017-05-22T08:50:04.000Z</time>
      </trkpt>
      <trkpt lat="46.75893" lon="6.37214">
        <ele>1072.28</ele>
        <time>2017-05-22T08:50:07.000Z</time>
      </trkpt>
      <trkpt lat="46.75891" lon="6.37212">
        <ele>1071</ele>
        <time>2017-05-22T08:50:10.000Z</time>
      </trkpt>
      <trkpt lat="46.75889" lon="6.3721">
        <ele>1071</ele>
        <time>2017-05-22T08:50:12.000Z</time>
      </trkpt>
      <trkpt lat="46.75887" lon="6.3721">
        <ele>1069</ele>
        <time>2017-05-22T08:50:16.000Z</time>
      </trkpt>
      <trkpt lat="46.75885" lon="6.37208">
        <ele>1068.28</ele>
        <time>2017-05-22T08:50:19.000Z</time>
      </trkpt>
      <trkpt lat="46.75884" lon="6.37208">
        <ele>1067.4057989834</ele>
        <time>2017-05-22T08:50:21.000Z</time>
      </trkpt>
      <trkpt lat="46.75881" lon="6.37207">
        <ele>1067</ele>
        <time>2017-05-22T08:50:24.000Z</time>
      </trkpt>
      <trkpt lat="46.75879" lon="6.37207">
        <ele>1066</ele>
        <time>2017-05-22T08:50:27.000Z</time>
      </trkpt>
      <trkpt lat="46.75877" lon="6.37205">
        <ele>1065</ele>
        <time>2017-05-22T08:50:29.000Z</time>
      </trkpt>
      <trkpt lat="46.75877" lon="6.37203">
        <ele>1065.7113392539</ele>
        <time>2017-05-22T08:50:31.000Z</time>
      </trkpt>
      <trkpt lat="46.75876" lon="6.372">
        <ele>1065.2871264543</ele>
        <time>2017-05-22T08:50:33.000Z</time>
      </trkpt>
      <trkpt lat="46.75874" lon="6.37198">
        <ele>1064</ele>
        <time>2017-05-22T08:50:35.000Z</time>
      </trkpt>
      <trkpt lat="46.75873" lon="6.37196">
        <ele>1063</ele>
        <time>2017-05-22T08:50:38.000Z</time>
      </trkpt>
      <trkpt lat="46.7587" lon="6.37195">
        <ele>1062</ele>
        <time>2017-05-22T08:50:42.000Z</time>
      </trkpt>
      <trkpt lat="46.75869" lon="6.37193">
        <ele>1062</ele>
        <time>2017-05-22T08:50:44.000Z</time>
      </trkpt>
      <trkpt lat="46.75869" lon="6.3719">
        <ele>1061.28</ele>
        <time>2017-05-22T08:50:46.000Z</time>
      </trkpt>
      <trkpt lat="46.75869" lon="6.37186">
        <ele>1060.28</ele>
        <time>2017-05-22T08:50:48.000Z</time>
      </trkpt>
      <trkpt lat="46.7587" lon="6.37183">
        <ele>1059.2857124198</ele>
        <time>2017-05-22T08:50:50.000Z</time>
      </trkpt>
      <trkpt lat="46.75871" lon="6.3718">
        <ele>1058.28</ele>
        <time>2017-05-22T08:50:52.000Z</time>
      </trkpt>
      <trkpt lat="46.7587" lon="6.37177">
        <ele>1057</ele>
        <time>2017-05-22T08:50:56.000Z</time>
      </trkpt>
      <trkpt lat="46.75868" lon="6.37176">
        <ele>1056</ele>
        <time>2017-05-22T08:51:03.000Z</time>
      </trkpt>
      <trkpt lat="46.75866" lon="6.37173">
        <ele>1055</ele>
        <time>2017-05-22T08:51:06.000Z</time>
      </trkpt>
      <trkpt lat="46.75863" lon="6.37171">
        <ele>1053.28</ele>
        <time>2017-05-22T08:51:08.000Z</time>
      </trkpt>
      <trkpt lat="46.75863" lon="6.37168">
        <ele>1052</ele>
        <time>2017-05-22T08:51:15.000Z</time>
      </trkpt>
      <trkpt lat="46.75861" lon="6.37167">
        <ele>1051.450383022</ele>
        <time>2017-05-22T08:51:17.000Z</time>
      </trkpt>
      <trkpt lat="46.75859" lon="6.37165">
        <ele>1051</ele>
        <time>2017-05-22T08:51:20.000Z</time>
      </trkpt>
      <trkpt lat="46.75857" lon="6.37163">
        <ele>1049.28</ele>
        <time>2017-05-22T08:51:23.000Z</time>
      </trkpt>
      <trkpt lat="46.75857" lon="6.3716">
        <ele>1048.28</ele>
        <time>2017-05-22T08:51:25.000Z</time>
      </trkpt>
      <trkpt lat="46.75859" lon="6.37157">
        <ele>1048</ele>
        <time>2017-05-22T08:51:27.000Z</time>
      </trkpt>
      <trkpt lat="46.75858" lon="6.37153">
        <ele>1048</ele>
        <time>2017-05-22T08:51:29.000Z</time>
      </trkpt>
      <trkpt lat="46.75858" lon="6.37149">
        <ele>1048</ele>
        <time>2017-05-22T08:51:31.000Z</time>
      </trkpt>
      <trkpt lat="46.75858" lon="6.37146">
        <ele>1047.2871264543</ele>
        <time>2017-05-22T08:51:33.000Z</time>
      </trkpt>
      <trkpt lat="46.75858" lon="6.37143">
        <ele>1047</ele>
        <time>2017-05-22T08:51:35.000Z</time>
      </trkpt>
      <trkpt lat="46.75857" lon="6.37141">
        <ele>1046.8235449138</ele>
        <time>2017-05-22T08:51:37.000Z</time>
      </trkpt>
      <trkpt lat="46.75855" lon="6.37139">
        <ele>1045</ele>
        <time>2017-05-22T08:51:41.000Z</time>
      </trkpt>
      <trkpt lat="46.75854" lon="6.37133">
        <ele>1043</ele>
        <time>2017-05-22T08:51:44.000Z</time>
      </trkpt>
      <trkpt lat="46.75853" lon="6.37128">
        <ele>1043</ele>
        <time>2017-05-22T08:51:46.000Z</time>
      </trkpt>
      <trkpt lat="46.75855" lon="6.37127">
        <ele>1043</ele>
        <time>2017-05-22T08:51:48.000Z</time>
      </trkpt>
      <trkpt lat="46.75855" lon="6.37123">
        <ele>1042.28</ele>
        <time>2017-05-22T08:51:51.000Z</time>
      </trkpt>
      <trkpt lat="46.75853" lon="6.37121">
        <ele>1042</ele>
        <time>2017-05-22T08:51:54.000Z</time>
      </trkpt>
      <trkpt lat="46.75853" lon="6.37117">
        <ele>1040.28</ele>
        <time>2017-05-22T08:51:58.000Z</time>
      </trkpt>
      <trkpt lat="46.75852" lon="6.37113">
        <ele>1040</ele>
        <time>2017-05-22T08:52:01.000Z</time>
      </trkpt>
      <trkpt lat="46.7585" lon="6.37111">
        <ele>1038</ele>
        <time>2017-05-22T08:52:05.000Z</time>
      </trkpt>
      <trkpt lat="46.75848" lon="6.37112">
        <ele>1037.28</ele>
        <time>2017-05-22T08:52:07.000Z</time>
      </trkpt>
      <trkpt lat="46.75846" lon="6.37113">
        <ele>1037</ele>
        <time>2017-05-22T08:52:09.000Z</time>
      </trkpt>
      <trkpt lat="46.75843" lon="6.37114">
        <ele>1037</ele>
        <time>2017-05-22T08:52:12.000Z</time>
      </trkpt>
      <trkpt lat="46.7584" lon="6.37117">
        <ele>1037</ele>
        <time>2017-05-22T08:52:14.000Z</time>
      </trkpt>
      <trkpt lat="46.75833" lon="6.37125">
        <ele>1036</ele>
        <time>2017-05-22T08:52:22.000Z</time>
      </trkpt>
      <trkpt lat="46.75829" lon="6.37128">
        <ele>1036</ele>
        <time>2017-05-22T08:52:25.000Z</time>
      </trkpt>
      <trkpt lat="46.75826" lon="6.3713">
        <ele>1036</ele>
        <time>2017-05-22T08:52:27.000Z</time>
      </trkpt>
      <trkpt lat="46.75825" lon="6.37131">
        <ele>1036</ele>
        <time>2017-05-22T08:52:29.000Z</time>
      </trkpt>
      <trkpt lat="46.75818" lon="6.37133">
        <ele>1036</ele>
        <time>2017-05-22T08:52:36.000Z</time>
      </trkpt>
      <trkpt lat="46.75816" lon="6.37133">
        <ele>1035.28</ele>
        <time>2017-05-22T08:52:38.000Z</time>
      </trkpt>
      <trkpt lat="46.75813" lon="6.37134">
        <ele>1035</ele>
        <time>2017-05-22T08:52:41.000Z</time>
      </trkpt>
      <trkpt lat="46.7581" lon="6.37135">
        <ele>1035</ele>
        <time>2017-05-22T08:52:43.000Z</time>
      </trkpt>
      <trkpt lat="46.75803" lon="6.37137">
        <ele>1034</ele>
        <time>2017-05-22T08:52:50.000Z</time>
      </trkpt>
      <trkpt lat="46.758" lon="6.37137">
        <ele>1034</ele>
        <time>2017-05-22T08:52:53.000Z</time>
      </trkpt>
      <trkpt lat="46.75798" lon="6.3714">
        <ele>1034</ele>
        <time>2017-05-22T08:52:55.000Z</time>
      </trkpt>
      <trkpt lat="46.75796" lon="6.37142">
        <ele>1032.28</ele>
        <time>2017-05-22T08:52:57.000Z</time>
      </trkpt>
      <trkpt lat="46.75794" lon="6.37144">
        <ele>1032</ele>
        <time>2017-05-22T08:52:58.000Z</time>
      </trkpt>
      <trkpt lat="46.75792" lon="6.37146">
        <ele>1032</ele>
        <time>2017-05-22T08:52:59.000Z</time>
      </trkpt>
      <trkpt lat="46.7579" lon="6.37147">
        <ele>1032</ele>
        <time>2017-05-22T08:53:00.000Z</time>
      </trkpt>
      <trkpt lat="46.75789" lon="6.37149">
        <ele>1032</ele>
        <time>2017-05-22T08:53:01.000Z</time>
      </trkpt>
      <trkpt lat="46.75788" lon="6.37151">
        <ele>1032</ele>
        <time>2017-05-22T08:53:02.000Z</time>
      </trkpt>
      <trkpt lat="46.75785" lon="6.37154">
        <ele>1031.28</ele>
        <time>2017-05-22T08:53:04.000Z</time>
      </trkpt>
      <trkpt lat="46.75782" lon="6.37156">
        <ele>1030.4057989834</ele>
        <time>2017-05-22T08:53:06.000Z</time>
      </trkpt>
      <trkpt lat="46.7578" lon="6.37159">
        <ele>1030</ele>
        <time>2017-05-22T08:53:08.000Z</time>
      </trkpt>
      <trkpt lat="46.75777" lon="6.37161">
        <ele>1030</ele>
        <time>2017-05-22T08:53:10.000Z</time>
      </trkpt>
      <trkpt lat="46.75774" lon="6.37163">
        <ele>1029</ele>
        <time>2017-05-22T08:53:12.000Z</time>
      </trkpt>
      <trkpt lat="46.75772" lon="6.37165">
        <ele>1029</ele>
        <time>2017-05-22T08:53:14.000Z</time>
      </trkpt>
      <trkpt lat="46.7577" lon="6.37166">
        <ele>1029</ele>
        <time>2017-05-22T08:53:16.000Z</time>
      </trkpt>
      <trkpt lat="46.75766" lon="6.37171">
        <ele>1028</ele>
        <time>2017-05-22T08:53:19.000Z</time>
      </trkpt>
      <trkpt lat="46.75764" lon="6.37173">
        <ele>1028</ele>
        <time>2017-05-22T08:53:21.000Z</time>
      </trkpt>
      <trkpt lat="46.75762" lon="6.37175">
        <ele>1028</ele>
        <time>2017-05-22T08:53:23.000Z</time>
      </trkpt>
      <trkpt lat="46.75759" lon="6.37175">
        <ele>1027</ele>
        <time>2017-05-22T08:53:25.000Z</time>
      </trkpt>
      <trkpt lat="46.75757" lon="6.37177">
        <ele>1027</ele>
        <time>2017-05-22T08:53:26.000Z</time>
      </trkpt>
      <trkpt lat="46.75754" lon="6.37179">
        <ele>1027</ele>
        <time>2017-05-22T08:53:28.000Z</time>
      </trkpt>
      <trkpt lat="46.75753" lon="6.3718">
        <ele>1027</ele>
        <time>2017-05-22T08:53:30.000Z</time>
      </trkpt>
      <trkpt lat="46.75751" lon="6.37182">
        <ele>1026</ele>
        <time>2017-05-22T08:53:33.000Z</time>
      </trkpt>
      <trkpt lat="46.75749" lon="6.37184">
        <ele>1026</ele>
        <time>2017-05-22T08:53:35.000Z</time>
      </trkpt>
      <trkpt lat="46.75746" lon="6.37184">
        <ele>1025.3009730455</ele>
        <time>2017-05-22T08:53:37.000Z</time>
      </trkpt>
      <trkpt lat="46.75743" lon="6.37184">
        <ele>1024</ele>
        <time>2017-05-22T08:53:39.000Z</time>
      </trkpt>
      <trkpt lat="46.75742" lon="6.37184">
        <ele>1024</ele>
        <time>2017-05-22T08:53:41.000Z</time>
      </trkpt>
      <trkpt lat="46.75739" lon="6.37184">
        <ele>1024</ele>
        <time>2017-05-22T08:53:43.000Z</time>
      </trkpt>
      <trkpt lat="46.75728" lon="6.37184">
        <ele>1023</ele>
        <time>2017-05-22T08:53:49.000Z</time>
      </trkpt>
      <trkpt lat="46.75719" lon="6.37181">
        <ele>1022</ele>
        <time>2017-05-22T08:53:54.000Z</time>
      </trkpt>
      <trkpt lat="46.75715" lon="6.37181">
        <ele>1022</ele>
        <time>2017-05-22T08:53:58.000Z</time>
      </trkpt>
      <trkpt lat="46.75706" lon="6.37182">
        <ele>1021</ele>
        <time>2017-05-22T08:54:04.000Z</time>
      </trkpt>
      <trkpt lat="46.75697" lon="6.37184">
        <ele>1021</ele>
        <time>2017-05-22T08:54:08.000Z</time>
      </trkpt>
      <trkpt lat="46.75694" lon="6.37185">
        <ele>1020</ele>
        <time>2017-05-22T08:54:11.000Z</time>
      </trkpt>
      <trkpt lat="46.75685" lon="6.37184">
        <ele>1019</ele>
        <time>2017-05-22T08:54:20.000Z</time>
      </trkpt>
      <trkpt lat="46.75675" lon="6.37184">
        <ele>1018</ele>
        <time>2017-05-22T08:54:25.000Z</time>
      </trkpt>
      <trkpt lat="46.7567" lon="6.37184">
        <ele>1017</ele>
        <time>2017-05-22T08:54:28.000Z</time>
      </trkpt>
      <trkpt lat="46.75668" lon="6.37185">
        <ele>1017</ele>
        <time>2017-05-22T08:54:30.000Z</time>
      </trkpt>
      <trkpt lat="46.75657" lon="6.37187">
        <ele>1016</ele>
        <time>2017-05-22T08:54:38.000Z</time>
      </trkpt>
      <trkpt lat="46.75648" lon="6.37188">
        <ele>1015</ele>
        <time>2017-05-22T08:54:43.000Z</time>
      </trkpt>
      <trkpt lat="46.75638" lon="6.37186">
        <ele>1014</ele>
        <time>2017-05-22T08:54:50.000Z</time>
      </trkpt>
      <trkpt lat="46.75628" lon="6.37185">
        <ele>1012.3009730455</ele>
        <time>2017-05-22T08:54:58.000Z</time>
      </trkpt>
      <trkpt lat="46.75618" lon="6.37185">
        <ele>1011.28</ele>
        <time>2017-05-22T08:55:04.000Z</time>
      </trkpt>
      <trkpt lat="46.75609" lon="6.37189">
        <ele>1010</ele>
        <time>2017-05-22T08:55:09.000Z</time>
      </trkpt>
      <trkpt lat="46.75599" lon="6.37195">
        <ele>1010</ele>
        <time>2017-05-22T08:55:17.000Z</time>
      </trkpt>
      <trkpt lat="46.75589" lon="6.37197">
        <ele>1009</ele>
        <time>2017-05-22T08:55:22.000Z</time>
      </trkpt>
      <trkpt lat="46.7558" lon="6.37201">
        <ele>1008</ele>
        <time>2017-05-22T08:55:30.000Z</time>
      </trkpt>
      <trkpt lat="46.75572" lon="6.37205">
        <ele>1008</ele>
        <time>2017-05-22T08:55:35.000Z</time>
      </trkpt>
      <trkpt lat="46.75562" lon="6.37206">
        <ele>1006</ele>
        <time>2017-05-22T08:55:43.000Z</time>
      </trkpt>
      <trkpt lat="46.75551" lon="6.3721">
        <ele>1006</ele>
        <time>2017-05-22T08:55:49.000Z</time>
      </trkpt>
      <trkpt lat="46.75543" lon="6.37219">
        <ele>1005</ele>
        <time>2017-05-22T08:55:56.000Z</time>
      </trkpt>
      <trkpt lat="46.75534" lon="6.37224">
        <ele>1004</ele>
        <time>2017-05-22T08:56:03.000Z</time>
      </trkpt>
      <trkpt lat="46.75529" lon="6.37226">
        <ele>1004</ele>
        <time>2017-05-22T08:56:08.000Z</time>
      </trkpt>
      <trkpt lat="46.75526" lon="6.37225">
        <ele>1003</ele>
        <time>2017-05-22T08:56:10.000Z</time>
      </trkpt>
      <trkpt lat="46.75516" lon="6.37227">
        <ele>1002</ele>
        <time>2017-05-22T08:56:17.000Z</time>
      </trkpt>
      <trkpt lat="46.75507" lon="6.37228">
        <ele>1001</ele>
        <time>2017-05-22T08:56:25.000Z</time>
      </trkpt>
      <trkpt lat="46.75497" lon="6.37228">
        <ele>1001</ele>
        <time>2017-05-22T08:56:32.000Z</time>
      </trkpt>
      <trkpt lat="46.75489" lon="6.37224">
        <ele>999</ele>
        <time>2017-05-22T08:56:39.000Z</time>
      </trkpt>
      <trkpt lat="46.75479" lon="6.37225">
        <ele>999</ele>
        <time>2017-05-22T08:56:44.000Z</time>
      </trkpt>
      <trkpt lat="46.75469" lon="6.37227">
        <ele>997</ele>
        <time>2017-05-22T08:56:52.000Z</time>
      </trkpt>
      <trkpt lat="46.7546" lon="6.37223">
        <ele>997</ele>
        <time>2017-05-22T08:56:57.000Z</time>
      </trkpt>
      <trkpt lat="46.75466" lon="6.3721">
        <ele>996</ele>
        <time>2017-05-22T08:57:02.000Z</time>
      </trkpt>
      <trkpt lat="46.75466" lon="6.37196">
        <ele>997</ele>
        <time>2017-05-22T08:57:55.000Z</time>
      </trkpt>
      <trkpt lat="46.75464" lon="6.37199">
        <ele>997</ele>
        <time>2017-05-22T08:57:59.000Z</time>
      </trkpt>
      <trkpt lat="46.75457" lon="6.37207">
        <ele>997</ele>
        <time>2017-05-22T08:58:05.000Z</time>
      </trkpt>
      <trkpt lat="46.75448" lon="6.37203">
        <ele>996</ele>
        <time>2017-05-22T08:58:10.000Z</time>
      </trkpt>
      <trkpt lat="46.75441" lon="6.37206">
        <ele>997.72</ele>
        <time>2017-05-22T08:58:27.000Z</time>
      </trkpt>
      <trkpt lat="46.75439" lon="6.37205">
        <ele>999</ele>
        <time>2017-05-22T08:58:29.000Z</time>
      </trkpt>
      <trkpt lat="46.75436" lon="6.37204">
        <ele>999</ele>
        <time>2017-05-22T08:58:32.000Z</time>
      </trkpt>
      <trkpt lat="46.75434" lon="6.37204">
        <ele>999</ele>
        <time>2017-05-22T08:58:34.000Z</time>
      </trkpt>
      <trkpt lat="46.75431" lon="6.37204">
        <ele>999</ele>
        <time>2017-05-22T08:58:36.000Z</time>
      </trkpt>
      <trkpt lat="46.75429" lon="6.37203">
        <ele>1000</ele>
        <time>2017-05-22T08:58:38.000Z</time>
      </trkpt>
      <trkpt lat="46.75427" lon="6.37203">
        <ele>1000</ele>
        <time>2017-05-22T08:58:40.000Z</time>
      </trkpt>
      <trkpt lat="46.75424" lon="6.37204">
        <ele>1000</ele>
        <time>2017-05-22T08:58:42.000Z</time>
      </trkpt>
      <trkpt lat="46.75422" lon="6.37203">
        <ele>1000</ele>
        <time>2017-05-22T08:58:44.000Z</time>
      </trkpt>
      <trkpt lat="46.7542" lon="6.37202">
        <ele>1001</ele>
        <time>2017-05-22T08:58:46.000Z</time>
      </trkpt>
      <trkpt lat="46.75417" lon="6.37202">
        <ele>1001</ele>
        <time>2017-05-22T08:58:48.000Z</time>
      </trkpt>
      <trkpt lat="46.75415" lon="6.37201">
        <ele>1001.72</ele>
        <time>2017-05-22T08:58:50.000Z</time>
      </trkpt>
      <trkpt lat="46.75413" lon="6.37201">
        <ele>1002</ele>
        <time>2017-05-22T08:58:52.000Z</time>
      </trkpt>
      <trkpt lat="46.7541" lon="6.372">
        <ele>1001.28</ele>
        <time>2017-05-22T08:58:55.000Z</time>
      </trkpt>
      <trkpt lat="46.75407" lon="6.37199">
        <ele>1001.72</ele>
        <time>2017-05-22T08:58:57.000Z</time>
      </trkpt>
      <trkpt lat="46.75405" lon="6.37197">
        <ele>1002</ele>
        <time>2017-05-22T08:58:59.000Z</time>
      </trkpt>
      <trkpt lat="46.75402" lon="6.37195">
        <ele>1002</ele>
        <time>2017-05-22T08:59:01.000Z</time>
      </trkpt>
      <trkpt lat="46.754" lon="6.37195">
        <ele>1002</ele>
        <time>2017-05-22T08:59:03.000Z</time>
      </trkpt>
      <trkpt lat="46.75397" lon="6.37193">
        <ele>1002</ele>
        <time>2017-05-22T08:59:05.000Z</time>
      </trkpt>
      <trkpt lat="46.75395" lon="6.37192">
        <ele>1002</ele>
        <time>2017-05-22T08:59:07.000Z</time>
      </trkpt>
      <trkpt lat="46.75393" lon="6.3719">
        <ele>1002.72</ele>
        <time>2017-05-22T08:59:09.000Z</time>
      </trkpt>
      <trkpt lat="46.75391" lon="6.37188">
        <ele>1003</ele>
        <time>2017-05-22T08:59:11.000Z</time>
      </trkpt>
      <trkpt lat="46.75388" lon="6.37187">
        <ele>1003.5942010166</ele>
        <time>2017-05-22T08:59:13.000Z</time>
      </trkpt>
      <trkpt lat="46.75385" lon="6.37184">
        <ele>1004</ele>
        <time>2017-05-22T08:59:15.000Z</time>
      </trkpt>
      <trkpt lat="46.75382" lon="6.37182">
        <ele>1004</ele>
        <time>2017-05-22T08:59:17.000Z</time>
      </trkpt>
      <trkpt lat="46.75381" lon="6.37181">
        <ele>1005</ele>
        <time>2017-05-22T08:59:19.000Z</time>
      </trkpt>
      <trkpt lat="46.75379" lon="6.37179">
        <ele>1005</ele>
        <time>2017-05-22T08:59:21.000Z</time>
      </trkpt>
      <trkpt lat="46.75377" lon="6.37178">
        <ele>1005</ele>
        <time>2017-05-22T08:59:23.000Z</time>
      </trkpt>
      <trkpt lat="46.75375" lon="6.37176">
        <ele>1005</ele>
        <time>2017-05-22T08:59:25.000Z</time>
      </trkpt>
      <trkpt lat="46.75373" lon="6.37175">
        <ele>1005</ele>
        <time>2017-05-22T08:59:27.000Z</time>
      </trkpt>
      <trkpt lat="46.75371" lon="6.37173">
        <ele>1005</ele>
        <time>2017-05-22T08:59:29.000Z</time>
      </trkpt>
      <trkpt lat="46.75369" lon="6.37171">
        <ele>1006</ele>
        <time>2017-05-22T08:59:31.000Z</time>
      </trkpt>
      <trkpt lat="46.75367" lon="6.37169">
        <ele>1006</ele>
        <time>2017-05-22T08:59:33.000Z</time>
      </trkpt>
      <trkpt lat="46.75364" lon="6.37168">
        <ele>1006.72</ele>
        <time>2017-05-22T08:59:36.000Z</time>
      </trkpt>
      <trkpt lat="46.75359" lon="6.37164">
        <ele>1008</ele>
        <time>2017-05-22T08:59:42.000Z</time>
      </trkpt>
      <trkpt lat="46.75357" lon="6.37162">
        <ele>1008</ele>
        <time>2017-05-22T08:59:44.000Z</time>
      </trkpt>
      <trkpt lat="46.75353" lon="6.3716">
        <ele>1008</ele>
        <time>2017-05-22T08:59:47.000Z</time>
      </trkpt>
      <trkpt lat="46.75352" lon="6.37159">
        <ele>1008</ele>
        <time>2017-05-22T08:59:49.000Z</time>
      </trkpt>
      <trkpt lat="46.75343" lon="6.37157">
        <ele>1009</ele>
        <time>2017-05-22T08:59:57.000Z</time>
      </trkpt>
      <trkpt lat="46.7534" lon="6.37156">
        <ele>1009</ele>
        <time>2017-05-22T09:00:00.000Z</time>
      </trkpt>
      <trkpt lat="46.75338" lon="6.37154">
        <ele>1010</ele>
        <time>2017-05-22T09:00:03.000Z</time>
      </trkpt>
      <trkpt lat="46.75336" lon="6.37152">
        <ele>1010</ele>
        <time>2017-05-22T09:00:05.000Z</time>
      </trkpt>
      <trkpt lat="46.75332" lon="6.37148">
        <ele>1012</ele>
        <time>2017-05-22T09:00:11.000Z</time>
      </trkpt>
      <trkpt lat="46.7533" lon="6.37146">
        <ele>1012</ele>
        <time>2017-05-22T09:00:13.000Z</time>
      </trkpt>
      <trkpt lat="46.75325" lon="6.37144">
        <ele>1013</ele>
        <time>2017-05-22T09:00:17.000Z</time>
      </trkpt>
      <trkpt lat="46.75323" lon="6.37142">
        <ele>1013</ele>
        <time>2017-05-22T09:00:18.000Z</time>
      </trkpt>
      <trkpt lat="46.7532" lon="6.3714">
        <ele>1014</ele>
        <time>2017-05-22T09:00:20.000Z</time>
      </trkpt>
      <trkpt lat="46.75319" lon="6.37136">
        <ele>1014</ele>
        <time>2017-05-22T09:00:23.000Z</time>
      </trkpt>
      <trkpt lat="46.75317" lon="6.37135">
        <ele>1014</ele>
        <time>2017-05-22T09:00:25.000Z</time>
      </trkpt>
      <trkpt lat="46.75311" lon="6.3713">
        <ele>1016</ele>
        <time>2017-05-22T09:00:32.000Z</time>
      </trkpt>
      <trkpt lat="46.75309" lon="6.37128">
        <ele>1016</ele>
        <time>2017-05-22T09:00:34.000Z</time>
      </trkpt>
      <trkpt lat="46.75307" lon="6.37126">
        <ele>1016</ele>
        <time>2017-05-22T09:00:36.000Z</time>
      </trkpt>
      <trkpt lat="46.75305" lon="6.37125">
        <ele>1016</ele>
        <time>2017-05-22T09:00:38.000Z</time>
      </trkpt>
      <trkpt lat="46.75304" lon="6.37123">
        <ele>1017</ele>
        <time>2017-05-22T09:00:42.000Z</time>
      </trkpt>
      <trkpt lat="46.75299" lon="6.37121">
        <ele>1017.549616978</ele>
        <time>2017-05-22T09:00:47.000Z</time>
      </trkpt>
      <trkpt lat="46.75295" lon="6.37119">
        <ele>1018</ele>
        <time>2017-05-22T09:00:51.000Z</time>
      </trkpt>
      <trkpt lat="46.75293" lon="6.37117">
        <ele>1018</ele>
        <time>2017-05-22T09:00:53.000Z</time>
      </trkpt>
      <trkpt lat="46.75291" lon="6.37116">
        <ele>1018.72</ele>
        <time>2017-05-22T09:00:55.000Z</time>
      </trkpt>
      <trkpt lat="46.75288" lon="6.37114">
        <ele>1019</ele>
        <time>2017-05-22T09:00:57.000Z</time>
      </trkpt>
      <trkpt lat="46.75286" lon="6.37113">
        <ele>1019</ele>
        <time>2017-05-22T09:00:59.000Z</time>
      </trkpt>
      <trkpt lat="46.75283" lon="6.37112">
        <ele>1020</ele>
        <time>2017-05-22T09:01:01.000Z</time>
      </trkpt>
      <trkpt lat="46.75281" lon="6.3711">
        <ele>1020.72</ele>
        <time>2017-05-22T09:01:03.000Z</time>
      </trkpt>
      <trkpt lat="46.7528" lon="6.37109">
        <ele>1021</ele>
        <time>2017-05-22T09:01:05.000Z</time>
      </trkpt>
      <trkpt lat="46.75278" lon="6.37107">
        <ele>1021</ele>
        <time>2017-05-22T09:01:07.000Z</time>
      </trkpt>
      <trkpt lat="46.75276" lon="6.37106">
        <ele>1021</ele>
        <time>2017-05-22T09:01:09.000Z</time>
      </trkpt>
      <trkpt lat="46.75275" lon="6.37105">
        <ele>1021</ele>
        <time>2017-05-22T09:01:11.000Z</time>
      </trkpt>
      <trkpt lat="46.75272" lon="6.37103">
        <ele>1021</ele>
        <time>2017-05-22T09:01:13.000Z</time>
      </trkpt>
      <trkpt lat="46.75271" lon="6.37101">
        <ele>1022</ele>
        <time>2017-05-22T09:01:15.000Z</time>
      </trkpt>
      <trkpt lat="46.75269" lon="6.37099">
        <ele>1022</ele>
        <time>2017-05-22T09:01:17.000Z</time>
      </trkpt>
      <trkpt lat="46.75267" lon="6.37099">
        <ele>1022</ele>
        <time>2017-05-22T09:01:19.000Z</time>
      </trkpt>
      <trkpt lat="46.75265" lon="6.37097">
        <ele>1022.72</ele>
        <time>2017-05-22T09:01:21.000Z</time>
      </trkpt>
      <trkpt lat="46.75263" lon="6.37096">
        <ele>1023</ele>
        <time>2017-05-22T09:01:23.000Z</time>
      </trkpt>
      <trkpt lat="46.7526" lon="6.37095">
        <ele>1023</ele>
        <time>2017-05-22T09:01:25.000Z</time>
      </trkpt>
      <trkpt lat="46.75258" lon="6.37093">
        <ele>1023</ele>
        <time>2017-05-22T09:01:27.000Z</time>
      </trkpt>
      <trkpt lat="46.75256" lon="6.37092">
        <ele>1024</ele>
        <time>2017-05-22T09:01:29.000Z</time>
      </trkpt>
      <trkpt lat="46.75254" lon="6.37091">
        <ele>1024</ele>
        <time>2017-05-22T09:01:31.000Z</time>
      </trkpt>
      <trkpt lat="46.75253" lon="6.37088">
        <ele>1024.72</ele>
        <time>2017-05-22T09:01:33.000Z</time>
      </trkpt>
      <trkpt lat="46.75252" lon="6.37086">
        <ele>1025</ele>
        <time>2017-05-22T09:01:35.000Z</time>
      </trkpt>
      <trkpt lat="46.7525" lon="6.37085">
        <ele>1025</ele>
        <time>2017-05-22T09:01:37.000Z</time>
      </trkpt>
      <trkpt lat="46.75249" lon="6.37083">
        <ele>1025</ele>
        <time>2017-05-22T09:01:39.000Z</time>
      </trkpt>
      <trkpt lat="46.75247" lon="6.3708">
        <ele>1025.72</ele>
        <time>2017-05-22T09:01:41.000Z</time>
      </trkpt>
      <trkpt lat="46.75245" lon="6.37078">
        <ele>1026</ele>
        <time>2017-05-22T09:01:43.000Z</time>
      </trkpt>
      <trkpt lat="46.75242" lon="6.37075">
        <ele>1026</ele>
        <time>2017-05-22T09:01:46.000Z</time>
      </trkpt>
      <trkpt lat="46.75241" lon="6.37072">
        <ele>1026</ele>
        <time>2017-05-22T09:01:48.000Z</time>
      </trkpt>
      <trkpt lat="46.75239" lon="6.37071">
        <ele>1026.72</ele>
        <time>2017-05-22T09:01:50.000Z</time>
      </trkpt>
      <trkpt lat="46.75238" lon="6.37069">
        <ele>1028</ele>
        <time>2017-05-22T09:01:52.000Z</time>
      </trkpt>
      <trkpt lat="46.75236" lon="6.37067">
        <ele>1028</ele>
        <time>2017-05-22T09:01:54.000Z</time>
      </trkpt>
      <trkpt lat="46.75234" lon="6.37065">
        <ele>1028</ele>
        <time>2017-05-22T09:01:56.000Z</time>
      </trkpt>
      <trkpt lat="46.75233" lon="6.37062">
        <ele>1028</ele>
        <time>2017-05-22T09:01:58.000Z</time>
      </trkpt>
      <trkpt lat="46.75231" lon="6.37061">
        <ele>1028.72</ele>
        <time>2017-05-22T09:02:00.000Z</time>
      </trkpt>
      <trkpt lat="46.75229" lon="6.37058">
        <ele>1029</ele>
        <time>2017-05-22T09:02:02.000Z</time>
      </trkpt>
      <trkpt lat="46.75227" lon="6.37056">
        <ele>1029</ele>
        <time>2017-05-22T09:02:04.000Z</time>
      </trkpt>
      <trkpt lat="46.75225" lon="6.37054">
        <ele>1029</ele>
        <time>2017-05-22T09:02:06.000Z</time>
      </trkpt>
      <trkpt lat="46.75224" lon="6.37052">
        <ele>1029</ele>
        <time>2017-05-22T09:02:08.000Z</time>
      </trkpt>
      <trkpt lat="46.75222" lon="6.37049">
        <ele>1030</ele>
        <time>2017-05-22T09:02:11.000Z</time>
      </trkpt>
      <trkpt lat="46.75222" lon="6.37045">
        <ele>1030</ele>
        <time>2017-05-22T09:02:14.000Z</time>
      </trkpt>
      <trkpt lat="46.75221" lon="6.37043">
        <ele>1030</ele>
        <time>2017-05-22T09:02:16.000Z</time>
      </trkpt>
      <trkpt lat="46.75219" lon="6.3704">
        <ele>1030.72</ele>
        <time>2017-05-22T09:02:18.000Z</time>
      </trkpt>
      <trkpt lat="46.75217" lon="6.37038">
        <ele>1031</ele>
        <time>2017-05-22T09:02:20.000Z</time>
      </trkpt>
      <trkpt lat="46.75215" lon="6.37035">
        <ele>1031</ele>
        <time>2017-05-22T09:02:23.000Z</time>
      </trkpt>
      <trkpt lat="46.75213" lon="6.37033">
        <ele>1031</ele>
        <time>2017-05-22T09:02:25.000Z</time>
      </trkpt>
      <trkpt lat="46.75212" lon="6.37031">
        <ele>1032</ele>
        <time>2017-05-22T09:02:27.000Z</time>
      </trkpt>
      <trkpt lat="46.7521" lon="6.37029">
        <ele>1032.72</ele>
        <time>2017-05-22T09:02:29.000Z</time>
      </trkpt>
      <trkpt lat="46.75208" lon="6.37027">
        <ele>1033</ele>
        <time>2017-05-22T09:02:31.000Z</time>
      </trkpt>
      <trkpt lat="46.75206" lon="6.37026">
        <ele>1033</ele>
        <time>2017-05-22T09:02:33.000Z</time>
      </trkpt>
      <trkpt lat="46.75203" lon="6.37025">
        <ele>1033</ele>
        <time>2017-05-22T09:02:35.000Z</time>
      </trkpt>
      <trkpt lat="46.75202" lon="6.37023">
        <ele>1033.72</ele>
        <time>2017-05-22T09:02:37.000Z</time>
      </trkpt>
      <trkpt lat="46.752" lon="6.37022">
        <ele>1034</ele>
        <time>2017-05-22T09:02:40.000Z</time>
      </trkpt>
      <trkpt lat="46.75197" lon="6.3702">
        <ele>1035</ele>
        <time>2017-05-22T09:02:43.000Z</time>
      </trkpt>
      <trkpt lat="46.75196" lon="6.37018">
        <ele>1036</ele>
        <time>2017-05-22T09:02:46.000Z</time>
      </trkpt>
      <trkpt lat="46.75191" lon="6.37015">
        <ele>1036</ele>
        <time>2017-05-22T09:02:53.000Z</time>
      </trkpt>
      <trkpt lat="46.75189" lon="6.37014">
        <ele>1036</ele>
        <time>2017-05-22T09:02:55.000Z</time>
      </trkpt>
      <trkpt lat="46.75187" lon="6.37013">
        <ele>1037</ele>
        <time>2017-05-22T09:02:57.000Z</time>
      </trkpt>
      <trkpt lat="46.75186" lon="6.3701">
        <ele>1037</ele>
        <time>2017-05-22T09:02:59.000Z</time>
      </trkpt>
      <trkpt lat="46.75185" lon="6.37007">
        <ele>1037.5942010166</ele>
        <time>2017-05-22T09:03:01.000Z</time>
      </trkpt>
      <trkpt lat="46.75183" lon="6.37006">
        <ele>1038</ele>
        <time>2017-05-22T09:03:04.000Z</time>
      </trkpt>
      <trkpt lat="46.75181" lon="6.37005">
        <ele>1038</ele>
        <time>2017-05-22T09:03:06.000Z</time>
      </trkpt>
      <trkpt lat="46.75178" lon="6.37005">
        <ele>1038</ele>
        <time>2017-05-22T09:03:08.000Z</time>
      </trkpt>
      <trkpt lat="46.75176" lon="6.37004">
        <ele>1038</ele>
        <time>2017-05-22T09:03:10.000Z</time>
      </trkpt>
      <trkpt lat="46.75173" lon="6.37004">
        <ele>1038.72</ele>
        <time>2017-05-22T09:03:14.000Z</time>
      </trkpt>
      <trkpt lat="46.75171" lon="6.37003">
        <ele>1039.72</ele>
        <time>2017-05-22T09:03:17.000Z</time>
      </trkpt>
      <trkpt lat="46.75169" lon="6.37002">
        <ele>1040</ele>
        <time>2017-05-22T09:03:19.000Z</time>
      </trkpt>
      <trkpt lat="46.75167" lon="6.37002">
        <ele>1040</ele>
        <time>2017-05-22T09:03:21.000Z</time>
      </trkpt>
      <trkpt lat="46.75163" lon="6.37001">
        <ele>1040</ele>
        <time>2017-05-22T09:03:25.000Z</time>
      </trkpt>
      <trkpt lat="46.7516" lon="6.37002">
        <ele>1040</ele>
        <time>2017-05-22T09:03:27.000Z</time>
      </trkpt>
      <trkpt lat="46.75158" lon="6.37002">
        <ele>1040</ele>
        <time>2017-05-22T09:03:29.000Z</time>
      </trkpt>
      <trkpt lat="46.75155" lon="6.37002">
        <ele>1040</ele>
        <time>2017-05-22T09:03:31.000Z</time>
      </trkpt>
      <trkpt lat="46.75152" lon="6.37002">
        <ele>1040</ele>
        <time>2017-05-22T09:03:33.000Z</time>
      </trkpt>
      <trkpt lat="46.7515" lon="6.37002">
        <ele>1040</ele>
        <time>2017-05-22T09:03:35.000Z</time>
      </trkpt>
      <trkpt lat="46.75147" lon="6.37001">
        <ele>1040.72</ele>
        <time>2017-05-22T09:03:37.000Z</time>
      </trkpt>
      <trkpt lat="46.75141" lon="6.36999">
        <ele>1041</ele>
        <time>2017-05-22T09:03:41.000Z</time>
      </trkpt>
      <trkpt lat="46.75137" lon="6.36999">
        <ele>1041</ele>
        <time>2017-05-22T09:03:43.000Z</time>
      </trkpt>
      <trkpt lat="46.75134" lon="6.36999">
        <ele>1042</ele>
        <time>2017-05-22T09:03:45.000Z</time>
      </trkpt>
      <trkpt lat="46.75132" lon="6.36998">
        <ele>1042</ele>
        <time>2017-05-22T09:03:47.000Z</time>
      </trkpt>
      <trkpt lat="46.75129" lon="6.36997">
        <ele>1042</ele>
        <time>2017-05-22T09:03:49.000Z</time>
      </trkpt>
      <trkpt lat="46.75127" lon="6.36997">
        <ele>1042</ele>
        <time>2017-05-22T09:03:51.000Z</time>
      </trkpt>
      <trkpt lat="46.75124" lon="6.36995">
        <ele>1042</ele>
        <time>2017-05-22T09:03:53.000Z</time>
      </trkpt>
      <trkpt lat="46.75122" lon="6.36993">
        <ele>1042</ele>
        <time>2017-05-22T09:03:55.000Z</time>
      </trkpt>
      <trkpt lat="46.75119" lon="6.36991">
        <ele>1042</ele>
        <time>2017-05-22T09:03:58.000Z</time>
      </trkpt>
      <trkpt lat="46.75117" lon="6.3699">
        <ele>1042</ele>
        <time>2017-05-22T09:04:00.000Z</time>
      </trkpt>
      <trkpt lat="46.75115" lon="6.3699">
        <ele>1043</ele>
        <time>2017-05-22T09:04:02.000Z</time>
      </trkpt>
      <trkpt lat="46.75113" lon="6.36989">
        <ele>1043.72</ele>
        <time>2017-05-22T09:04:04.000Z</time>
      </trkpt>
      <trkpt lat="46.75111" lon="6.36988">
        <ele>1044</ele>
        <time>2017-05-22T09:04:06.000Z</time>
      </trkpt>
      <trkpt lat="46.75109" lon="6.36987">
        <ele>1044</ele>
        <time>2017-05-22T09:04:08.000Z</time>
      </trkpt>
      <trkpt lat="46.75107" lon="6.36984">
        <ele>1044</ele>
        <time>2017-05-22T09:04:11.000Z</time>
      </trkpt>
      <trkpt lat="46.75106" lon="6.36983">
        <ele>1044</ele>
        <time>2017-05-22T09:04:13.000Z</time>
      </trkpt>
      <trkpt lat="46.75104" lon="6.36981">
        <ele>1044.72</ele>
        <time>2017-05-22T09:04:15.000Z</time>
      </trkpt>
      <trkpt lat="46.75102" lon="6.36979">
        <ele>1046</ele>
        <time>2017-05-22T09:04:18.000Z</time>
      </trkpt>
      <trkpt lat="46.75101" lon="6.36977">
        <ele>1046.72</ele>
        <time>2017-05-22T09:04:20.000Z</time>
      </trkpt>
      <trkpt lat="46.75099" lon="6.36975">
        <ele>1047</ele>
        <time>2017-05-22T09:04:22.000Z</time>
      </trkpt>
      <trkpt lat="46.75097" lon="6.36974">
        <ele>1047</ele>
        <time>2017-05-22T09:04:24.000Z</time>
      </trkpt>
      <trkpt lat="46.75095" lon="6.36973">
        <ele>1047</ele>
        <time>2017-05-22T09:04:26.000Z</time>
      </trkpt>
      <trkpt lat="46.75093" lon="6.36971">
        <ele>1047</ele>
        <time>2017-05-22T09:04:28.000Z</time>
      </trkpt>
      <trkpt lat="46.75091" lon="6.3697">
        <ele>1048</ele>
        <time>2017-05-22T09:04:30.000Z</time>
      </trkpt>
      <trkpt lat="46.7509" lon="6.36968">
        <ele>1048</ele>
        <time>2017-05-22T09:04:32.000Z</time>
      </trkpt>
      <trkpt lat="46.75088" lon="6.36966">
        <ele>1048</ele>
        <time>2017-05-22T09:04:34.000Z</time>
      </trkpt>
      <trkpt lat="46.75086" lon="6.36963">
        <ele>1048.28</ele>
        <time>2017-05-22T09:04:37.000Z</time>
      </trkpt>
      <trkpt lat="46.75085" lon="6.36961">
        <ele>1048</ele>
        <time>2017-05-22T09:04:39.000Z</time>
      </trkpt>
      <trkpt lat="46.75084" lon="6.36959">
        <ele>1048</ele>
        <time>2017-05-22T09:04:41.000Z</time>
      </trkpt>
      <trkpt lat="46.75082" lon="6.36958">
        <ele>1048</ele>
        <time>2017-05-22T09:04:43.000Z</time>
      </trkpt>
      <trkpt lat="46.7508" lon="6.36956">
        <ele>1049</ele>
        <time>2017-05-22T09:04:45.000Z</time>
      </trkpt>
      <trkpt lat="46.75078" lon="6.36954">
        <ele>1050</ele>
        <time>2017-05-22T09:04:47.000Z</time>
      </trkpt>
      <trkpt lat="46.75076" lon="6.36952">
        <ele>1050</ele>
        <time>2017-05-22T09:04:49.000Z</time>
      </trkpt>
      <trkpt lat="46.75074" lon="6.3695">
        <ele>1050</ele>
        <time>2017-05-22T09:04:51.000Z</time>
      </trkpt>
      <trkpt lat="46.75073" lon="6.36948">
        <ele>1051</ele>
        <time>2017-05-22T09:04:53.000Z</time>
      </trkpt>
      <trkpt lat="46.75072" lon="6.36946">
        <ele>1051</ele>
        <time>2017-05-22T09:04:55.000Z</time>
      </trkpt>
      <trkpt lat="46.7507" lon="6.36945">
        <ele>1051</ele>
        <time>2017-05-22T09:04:57.000Z</time>
      </trkpt>
      <trkpt lat="46.75068" lon="6.36944">
        <ele>1051</ele>
        <time>2017-05-22T09:04:59.000Z</time>
      </trkpt>
      <trkpt lat="46.75066" lon="6.36942">
        <ele>1051</ele>
        <time>2017-05-22T09:05:01.000Z</time>
      </trkpt>
      <trkpt lat="46.75064" lon="6.3694">
        <ele>1051</ele>
        <time>2017-05-22T09:05:03.000Z</time>
      </trkpt>
      <trkpt lat="46.75062" lon="6.36939">
        <ele>1052</ele>
        <time>2017-05-22T09:05:05.000Z</time>
      </trkpt>
      <trkpt lat="46.7506" lon="6.36936">
        <ele>1052</ele>
        <time>2017-05-22T09:05:07.000Z</time>
      </trkpt>
      <trkpt lat="46.75058" lon="6.36934">
        <ele>1052</ele>
        <time>2017-05-22T09:05:09.000Z</time>
      </trkpt>
      <trkpt lat="46.75057" lon="6.36931">
        <ele>1052</ele>
        <time>2017-05-22T09:05:11.000Z</time>
      </trkpt>
      <trkpt lat="46.75055" lon="6.36929">
        <ele>1053</ele>
        <time>2017-05-22T09:05:13.000Z</time>
      </trkpt>
      <trkpt lat="46.75055" lon="6.36926">
        <ele>1053</ele>
        <time>2017-05-22T09:05:15.000Z</time>
      </trkpt>
      <trkpt lat="46.75055" lon="6.36923">
        <ele>1054</ele>
        <time>2017-05-22T09:05:17.000Z</time>
      </trkpt>
      <trkpt lat="46.75054" lon="6.36921">
        <ele>1054</ele>
        <time>2017-05-22T09:05:19.000Z</time>
      </trkpt>
      <trkpt lat="46.75052" lon="6.36919">
        <ele>1054</ele>
        <time>2017-05-22T09:05:22.000Z</time>
      </trkpt>
      <trkpt lat="46.75051" lon="6.36917">
        <ele>1054</ele>
        <time>2017-05-22T09:05:24.000Z</time>
      </trkpt>
      <trkpt lat="46.75049" lon="6.36916">
        <ele>1055</ele>
        <time>2017-05-22T09:05:26.000Z</time>
      </trkpt>
      <trkpt lat="46.75047" lon="6.36915">
        <ele>1055</ele>
        <time>2017-05-22T09:05:28.000Z</time>
      </trkpt>
      <trkpt lat="46.75045" lon="6.36914">
        <ele>1055</ele>
        <time>2017-05-22T09:05:30.000Z</time>
      </trkpt>
      <trkpt lat="46.75043" lon="6.36913">
        <ele>1055.4337332675</ele>
        <time>2017-05-22T09:05:32.000Z</time>
      </trkpt>
      <trkpt lat="46.75041" lon="6.36911">
        <ele>1056</ele>
        <time>2017-05-22T09:05:34.000Z</time>
      </trkpt>
      <trkpt lat="46.7504" lon="6.36908">
        <ele>1056</ele>
        <time>2017-05-22T09:05:37.000Z</time>
      </trkpt>
      <trkpt lat="46.75038" lon="6.36905">
        <ele>1056</ele>
        <time>2017-05-22T09:05:40.000Z</time>
      </trkpt>
      <trkpt lat="46.75036" lon="6.36904">
        <ele>1057</ele>
        <time>2017-05-22T09:05:42.000Z</time>
      </trkpt>
      <trkpt lat="46.75034" lon="6.36902">
        <ele>1057.72</ele>
        <time>2017-05-22T09:05:44.000Z</time>
      </trkpt>
      <trkpt lat="46.75033" lon="6.36901">
        <ele>1058</ele>
        <time>2017-05-22T09:05:46.000Z</time>
      </trkpt>
      <trkpt lat="46.7503" lon="6.369">
        <ele>1058</ele>
        <time>2017-05-22T09:05:48.000Z</time>
      </trkpt>
      <trkpt lat="46.75029" lon="6.36897">
        <ele>1058.5454545454</ele>
        <time>2017-05-22T09:05:51.000Z</time>
      </trkpt>
      <trkpt lat="46.75027" lon="6.36895">
        <ele>1059</ele>
        <time>2017-05-22T09:05:53.000Z</time>
      </trkpt>
      <trkpt lat="46.75025" lon="6.36894">
        <ele>1060</ele>
        <time>2017-05-22T09:05:56.000Z</time>
      </trkpt>
      <trkpt lat="46.75023" lon="6.36893">
        <ele>1060.72</ele>
        <time>2017-05-22T09:05:59.000Z</time>
      </trkpt>
      <trkpt lat="46.7502" lon="6.36892">
        <ele>1061</ele>
        <time>2017-05-22T09:06:03.000Z</time>
      </trkpt>
      <trkpt lat="46.75019" lon="6.36891">
        <ele>1061</ele>
        <time>2017-05-22T09:06:05.000Z</time>
      </trkpt>
      <trkpt lat="46.75017" lon="6.36889">
        <ele>1061</ele>
        <time>2017-05-22T09:06:07.000Z</time>
      </trkpt>
      <trkpt lat="46.75015" lon="6.36887">
        <ele>1061.72</ele>
        <time>2017-05-22T09:06:09.000Z</time>
      </trkpt>
      <trkpt lat="46.75013" lon="6.36885">
        <ele>1062</ele>
        <time>2017-05-22T09:06:12.000Z</time>
      </trkpt>
      <trkpt lat="46.75011" lon="6.36883">
        <ele>1062.72</ele>
        <time>2017-05-22T09:06:15.000Z</time>
      </trkpt>
      <trkpt lat="46.7501" lon="6.36882">
        <ele>1063.72</ele>
        <time>2017-05-22T09:06:17.000Z</time>
      </trkpt>
      <trkpt lat="46.75008" lon="6.3688">
        <ele>1064</ele>
        <time>2017-05-22T09:06:19.000Z</time>
      </trkpt>
      <trkpt lat="46.75006" lon="6.36878">
        <ele>1064</ele>
        <time>2017-05-22T09:06:21.000Z</time>
      </trkpt>
      <trkpt lat="46.75004" lon="6.36876">
        <ele>1064</ele>
        <time>2017-05-22T09:06:23.000Z</time>
      </trkpt>
      <trkpt lat="46.75002" lon="6.36874">
        <ele>1064</ele>
        <time>2017-05-22T09:06:25.000Z</time>
      </trkpt>
      <trkpt lat="46.75" lon="6.36872">
        <ele>1064</ele>
        <time>2017-05-22T09:06:27.000Z</time>
      </trkpt>
      <trkpt lat="46.74998" lon="6.3687">
        <ele>1064</ele>
        <time>2017-05-22T09:06:29.000Z</time>
      </trkpt>
      <trkpt lat="46.74997" lon="6.36869">
        <ele>1064</ele>
        <time>2017-05-22T09:06:31.000Z</time>
      </trkpt>
      <trkpt lat="46.74995" lon="6.36867">
        <ele>1064.72</ele>
        <time>2017-05-22T09:06:33.000Z</time>
      </trkpt>
      <trkpt lat="46.74993" lon="6.36866">
        <ele>1065</ele>
        <time>2017-05-22T09:06:35.000Z</time>
      </trkpt>
      <trkpt lat="46.7499" lon="6.36864">
        <ele>1065</ele>
        <time>2017-05-22T09:06:37.000Z</time>
      </trkpt>
      <trkpt lat="46.74988" lon="6.36861">
        <ele>1066</ele>
        <time>2017-05-22T09:06:39.000Z</time>
      </trkpt>
      <trkpt lat="46.74986" lon="6.36859">
        <ele>1066</ele>
        <time>2017-05-22T09:06:41.000Z</time>
      </trkpt>
      <trkpt lat="46.74984" lon="6.36856">
        <ele>1066.72</ele>
        <time>2017-05-22T09:06:44.000Z</time>
      </trkpt>
      <trkpt lat="46.74983" lon="6.36853">
        <ele>1067</ele>
        <time>2017-05-22T09:06:47.000Z</time>
      </trkpt>
      <trkpt lat="46.74981" lon="6.36851">
        <ele>1067</ele>
        <time>2017-05-22T09:06:49.000Z</time>
      </trkpt>
      <trkpt lat="46.7498" lon="6.36849">
        <ele>1067.72</ele>
        <time>2017-05-22T09:06:51.000Z</time>
      </trkpt>
      <trkpt lat="46.74979" lon="6.36847">
        <ele>1068</ele>
        <time>2017-05-22T09:06:53.000Z</time>
      </trkpt>
      <trkpt lat="46.74978" lon="6.36845">
        <ele>1068</ele>
        <time>2017-05-22T09:06:55.000Z</time>
      </trkpt>
      <trkpt lat="46.74976" lon="6.36843">
        <ele>1068</ele>
        <time>2017-05-22T09:06:57.000Z</time>
      </trkpt>
      <trkpt lat="46.74975" lon="6.36841">
        <ele>1068.7113392539</ele>
        <time>2017-05-22T09:06:59.000Z</time>
      </trkpt>
      <trkpt lat="46.74973" lon="6.36839">
        <ele>1069</ele>
        <time>2017-05-22T09:07:01.000Z</time>
      </trkpt>
      <trkpt lat="46.74972" lon="6.36837">
        <ele>1069</ele>
        <time>2017-05-22T09:07:03.000Z</time>
      </trkpt>
      <trkpt lat="46.7497" lon="6.36835">
        <ele>1069.72</ele>
        <time>2017-05-22T09:07:05.000Z</time>
      </trkpt>
      <trkpt lat="46.74969" lon="6.36832">
        <ele>1070</ele>
        <time>2017-05-22T09:07:07.000Z</time>
      </trkpt>
      <trkpt lat="46.74968" lon="6.3683">
        <ele>1070</ele>
        <time>2017-05-22T09:07:09.000Z</time>
      </trkpt>
      <trkpt lat="46.74967" lon="6.36828">
        <ele>1071</ele>
        <time>2017-05-22T09:07:11.000Z</time>
      </trkpt>
      <trkpt lat="46.74965" lon="6.36825">
        <ele>1072</ele>
        <time>2017-05-22T09:07:13.000Z</time>
      </trkpt>
      <trkpt lat="46.74964" lon="6.36823">
        <ele>1072</ele>
        <time>2017-05-22T09:07:15.000Z</time>
      </trkpt>
      <trkpt lat="46.74964" lon="6.3682">
        <ele>1072</ele>
        <time>2017-05-22T09:07:17.000Z</time>
      </trkpt>
      <trkpt lat="46.74964" lon="6.36817">
        <ele>1072.72</ele>
        <time>2017-05-22T09:07:19.000Z</time>
      </trkpt>
      <trkpt lat="46.74965" lon="6.36814">
        <ele>1073</ele>
        <time>2017-05-22T09:07:21.000Z</time>
      </trkpt>
      <trkpt lat="46.74966" lon="6.36812">
        <ele>1073</ele>
        <time>2017-05-22T09:07:23.000Z</time>
      </trkpt>
      <trkpt lat="46.74967" lon="6.36809">
        <ele>1074</ele>
        <time>2017-05-22T09:07:26.000Z</time>
      </trkpt>
      <trkpt lat="46.74969" lon="6.36807">
        <ele>1075</ele>
        <time>2017-05-22T09:07:28.000Z</time>
      </trkpt>
      <trkpt lat="46.7497" lon="6.36805">
        <ele>1075</ele>
        <time>2017-05-22T09:07:30.000Z</time>
      </trkpt>
      <trkpt lat="46.74972" lon="6.36803">
        <ele>1075</ele>
        <time>2017-05-22T09:07:32.000Z</time>
      </trkpt>
      <trkpt lat="46.74973" lon="6.368">
        <ele>1075</ele>
        <time>2017-05-22T09:07:34.000Z</time>
      </trkpt>
      <trkpt lat="46.74979" lon="6.36794">
        <ele>1076</ele>
        <time>2017-05-22T09:07:40.000Z</time>
      </trkpt>
      <trkpt lat="46.74982" lon="6.36792">
        <ele>1076</ele>
        <time>2017-05-22T09:07:43.000Z</time>
      </trkpt>
      <trkpt lat="46.74984" lon="6.36792">
        <ele>1077</ele>
        <time>2017-05-22T09:07:45.000Z</time>
      </trkpt>
      <trkpt lat="46.74992" lon="6.36788">
        <ele>1078.7142875802</ele>
        <time>2017-05-22T09:07:54.000Z</time>
      </trkpt>
      <trkpt lat="46.74994" lon="6.36788">
        <ele>1079</ele>
        <time>2017-05-22T09:07:56.000Z</time>
      </trkpt>
      <trkpt lat="46.74996" lon="6.36788">
        <ele>1079</ele>
        <time>2017-05-22T09:07:59.000Z</time>
      </trkpt>
      <trkpt lat="46.74999" lon="6.36788">
        <ele>1079.72</ele>
        <time>2017-05-22T09:08:01.000Z</time>
      </trkpt>
      <trkpt lat="46.75005" lon="6.3679">
        <ele>1080</ele>
        <time>2017-05-22T09:08:06.000Z</time>
      </trkpt>
      <trkpt lat="46.75007" lon="6.36791">
        <ele>1080</ele>
        <time>2017-05-22T09:08:08.000Z</time>
      </trkpt>
      <trkpt lat="46.75009" lon="6.36792">
        <ele>1080.72</ele>
        <time>2017-05-22T09:08:10.000Z</time>
      </trkpt>
      <trkpt lat="46.75011" lon="6.36792">
        <ele>1081</ele>
        <time>2017-05-22T09:08:12.000Z</time>
      </trkpt>
      <trkpt lat="46.75013" lon="6.36793">
        <ele>1081</ele>
        <time>2017-05-22T09:08:14.000Z</time>
      </trkpt>
      <trkpt lat="46.75016" lon="6.36795">
        <ele>1081</ele>
        <time>2017-05-22T09:08:16.000Z</time>
      </trkpt>
      <trkpt lat="46.75018" lon="6.36795">
        <ele>1082</ele>
        <time>2017-05-22T09:08:18.000Z</time>
      </trkpt>
      <trkpt lat="46.75017" lon="6.36798">
        <ele>1082.72</ele>
        <time>2017-05-22T09:08:25.000Z</time>
      </trkpt>
      <trkpt lat="46.75015" lon="6.36797">
        <ele>1083</ele>
        <time>2017-05-22T09:08:28.000Z</time>
      </trkpt>
      <trkpt lat="46.75013" lon="6.36797">
        <ele>1083</ele>
        <time>2017-05-22T09:08:30.000Z</time>
      </trkpt>
      <trkpt lat="46.75011" lon="6.36795">
        <ele>1084</ele>
        <time>2017-05-22T09:08:33.000Z</time>
      </trkpt>
      <trkpt lat="46.75008" lon="6.36795">
        <ele>1084.72</ele>
        <time>2017-05-22T09:08:36.000Z</time>
      </trkpt>
      <trkpt lat="46.75007" lon="6.36793">
        <ele>1085</ele>
        <time>2017-05-22T09:08:39.000Z</time>
      </trkpt>
      <trkpt lat="46.75005" lon="6.36792">
        <ele>1085</ele>
        <time>2017-05-22T09:08:42.000Z</time>
      </trkpt>
      <trkpt lat="46.75003" lon="6.36792">
        <ele>1086</ele>
        <time>2017-05-22T09:08:45.000Z</time>
      </trkpt>
      <trkpt lat="46.75001" lon="6.36791">
        <ele>1086.72</ele>
        <time>2017-05-22T09:08:47.000Z</time>
      </trkpt>
      <trkpt lat="46.74999" lon="6.36789">
        <ele>1088</ele>
        <time>2017-05-22T09:08:50.000Z</time>
      </trkpt>
      <trkpt lat="46.74997" lon="6.36788">
        <ele>1088</ele>
        <time>2017-05-22T09:08:53.000Z</time>
      </trkpt>
      <trkpt lat="46.74997" lon="6.36785">
        <ele>1088</ele>
        <time>2017-05-22T09:08:55.000Z</time>
      </trkpt>
      <trkpt lat="46.74996" lon="6.36782">
        <ele>1088.72</ele>
        <time>2017-05-22T09:08:58.000Z</time>
      </trkpt>
      <trkpt lat="46.74993" lon="6.36781">
        <ele>1089</ele>
        <time>2017-05-22T09:09:02.000Z</time>
      </trkpt>
      <trkpt lat="46.74991" lon="6.3678">
        <ele>1090</ele>
        <time>2017-05-22T09:09:05.000Z</time>
      </trkpt>
      <trkpt lat="46.7499" lon="6.36778">
        <ele>1090.72</ele>
        <time>2017-05-22T09:09:07.000Z</time>
      </trkpt>
      <trkpt lat="46.74989" lon="6.36774">
        <ele>1091</ele>
        <time>2017-05-22T09:09:10.000Z</time>
      </trkpt>
      <trkpt lat="46.74988" lon="6.36771">
        <ele>1091.72</ele>
        <time>2017-05-22T09:09:13.000Z</time>
      </trkpt>
      <trkpt lat="46.74987" lon="6.36768">
        <ele>1093</ele>
        <time>2017-05-22T09:09:16.000Z</time>
      </trkpt>
      <trkpt lat="46.74986" lon="6.36765">
        <ele>1093</ele>
        <time>2017-05-22T09:09:19.000Z</time>
      </trkpt>
      <trkpt lat="46.74985" lon="6.36762">
        <ele>1093.72</ele>
        <time>2017-05-22T09:09:22.000Z</time>
      </trkpt>
      <trkpt lat="46.74985" lon="6.36758">
        <ele>1094</ele>
        <time>2017-05-22T09:09:25.000Z</time>
      </trkpt>
      <trkpt lat="46.74983" lon="6.36756">
        <ele>1094</ele>
        <time>2017-05-22T09:09:27.000Z</time>
      </trkpt>
      <trkpt lat="46.74982" lon="6.36753">
        <ele>1095</ele>
        <time>2017-05-22T09:09:30.000Z</time>
      </trkpt>
      <trkpt lat="46.74981" lon="6.36749">
        <ele>1096</ele>
        <time>2017-05-22T09:09:33.000Z</time>
      </trkpt>
      <trkpt lat="46.7498" lon="6.36747">
        <ele>1096</ele>
        <time>2017-05-22T09:09:35.000Z</time>
      </trkpt>
      <trkpt lat="46.74978" lon="6.36745">
        <ele>1096</ele>
        <time>2017-05-22T09:09:37.000Z</time>
      </trkpt>
      <trkpt lat="46.74976" lon="6.36742">
        <ele>1097</ele>
        <time>2017-05-22T09:09:40.000Z</time>
      </trkpt>
      <trkpt lat="46.74975" lon="6.3674">
        <ele>1097</ele>
        <time>2017-05-22T09:09:42.000Z</time>
      </trkpt>
      <trkpt lat="46.74974" lon="6.36737">
        <ele>1097</ele>
        <time>2017-05-22T09:09:45.000Z</time>
      </trkpt>
      <trkpt lat="46.74972" lon="6.36734">
        <ele>1098</ele>
        <time>2017-05-22T09:09:48.000Z</time>
      </trkpt>
      <trkpt lat="46.74971" lon="6.36732">
        <ele>1098</ele>
        <time>2017-05-22T09:09:50.000Z</time>
      </trkpt>
      <trkpt lat="46.74969" lon="6.3673">
        <ele>1098</ele>
        <time>2017-05-22T09:09:52.000Z</time>
      </trkpt>
      <trkpt lat="46.74967" lon="6.36729">
        <ele>1098</ele>
        <time>2017-05-22T09:09:54.000Z</time>
      </trkpt>
      <trkpt lat="46.74966" lon="6.36727">
        <ele>1098</ele>
        <time>2017-05-22T09:09:56.000Z</time>
      </trkpt>
      <trkpt lat="46.74964" lon="6.36725">
        <ele>1098</ele>
        <time>2017-05-22T09:09:58.000Z</time>
      </trkpt>
      <trkpt lat="46.74962" lon="6.36723">
        <ele>1098</ele>
        <time>2017-05-22T09:10:00.000Z</time>
      </trkpt>
      <trkpt lat="46.7496" lon="6.36722">
        <ele>1098</ele>
        <time>2017-05-22T09:10:02.000Z</time>
      </trkpt>
      <trkpt lat="46.74957" lon="6.36722">
        <ele>1098</ele>
        <time>2017-05-22T09:10:05.000Z</time>
      </trkpt>
      <trkpt lat="46.74955" lon="6.3672">
        <ele>1098</ele>
        <time>2017-05-22T09:10:08.000Z</time>
      </trkpt>
      <trkpt lat="46.74953" lon="6.36719">
        <ele>1097.28</ele>
        <time>2017-05-22T09:10:10.000Z</time>
      </trkpt>
      <trkpt lat="46.74951" lon="6.36717">
        <ele>1097</ele>
        <time>2017-05-22T09:10:12.000Z</time>
      </trkpt>
      <trkpt lat="46.74949" lon="6.36716">
        <ele>1097</ele>
        <time>2017-05-22T09:10:14.000Z</time>
      </trkpt>
      <trkpt lat="46.74947" lon="6.36716">
        <ele>1098</ele>
        <time>2017-05-22T09:10:16.000Z</time>
      </trkpt>
      <trkpt lat="46.74945" lon="6.36716">
        <ele>1098</ele>
        <time>2017-05-22T09:10:18.000Z</time>
      </trkpt>
      <trkpt lat="46.74943" lon="6.36716">
        <ele>1098</ele>
        <time>2017-05-22T09:10:20.000Z</time>
      </trkpt>
      <trkpt lat="46.74939" lon="6.36714">
        <ele>1098</ele>
        <time>2017-05-22T09:10:23.000Z</time>
      </trkpt>
      <trkpt lat="46.74936" lon="6.36712">
        <ele>1099</ele>
        <time>2017-05-22T09:10:26.000Z</time>
      </trkpt>
      <trkpt lat="46.74934" lon="6.36712">
        <ele>1100</ele>
        <time>2017-05-22T09:10:28.000Z</time>
      </trkpt>
      <trkpt lat="46.74932" lon="6.36712">
        <ele>1100</ele>
        <time>2017-05-22T09:10:30.000Z</time>
      </trkpt>
      <trkpt lat="46.7493" lon="6.3671">
        <ele>1100</ele>
        <time>2017-05-22T09:10:32.000Z</time>
      </trkpt>
      <trkpt lat="46.74928" lon="6.3671">
        <ele>1100</ele>
        <time>2017-05-22T09:10:34.000Z</time>
      </trkpt>
      <trkpt lat="46.74926" lon="6.36709">
        <ele>1100.549616978</ele>
        <time>2017-05-22T09:10:36.000Z</time>
      </trkpt>
      <trkpt lat="46.74925" lon="6.36706">
        <ele>1101</ele>
        <time>2017-05-22T09:10:38.000Z</time>
      </trkpt>
      <trkpt lat="46.74924" lon="6.36703">
        <ele>1101</ele>
        <time>2017-05-22T09:10:40.000Z</time>
      </trkpt>
      <trkpt lat="46.74922" lon="6.36701">
        <ele>1101</ele>
        <time>2017-05-22T09:10:42.000Z</time>
      </trkpt>
      <trkpt lat="46.7492" lon="6.367">
        <ele>1101</ele>
        <time>2017-05-22T09:10:44.000Z</time>
      </trkpt>
      <trkpt lat="46.74919" lon="6.36698">
        <ele>1101.7058779239</ele>
        <time>2017-05-22T09:10:46.000Z</time>
      </trkpt>
      <trkpt lat="46.74917" lon="6.36696">
        <ele>1102</ele>
        <time>2017-05-22T09:10:49.000Z</time>
      </trkpt>
      <trkpt lat="46.74915" lon="6.36694">
        <ele>1102</ele>
        <time>2017-05-22T09:10:51.000Z</time>
      </trkpt>
      <trkpt lat="46.74913" lon="6.36693">
        <ele>1102</ele>
        <time>2017-05-22T09:10:53.000Z</time>
      </trkpt>
      <trkpt lat="46.74911" lon="6.36691">
        <ele>1102</ele>
        <time>2017-05-22T09:10:56.000Z</time>
      </trkpt>
      <trkpt lat="46.74909" lon="6.36689">
        <ele>1102</ele>
        <time>2017-05-22T09:10:58.000Z</time>
      </trkpt>
      <trkpt lat="46.74908" lon="6.36687">
        <ele>1102</ele>
        <time>2017-05-22T09:11:01.000Z</time>
      </trkpt>
      <trkpt lat="46.74906" lon="6.36685">
        <ele>1102</ele>
        <time>2017-05-22T09:11:04.000Z</time>
      </trkpt>
      <trkpt lat="46.74904" lon="6.36683">
        <ele>1102</ele>
        <time>2017-05-22T09:11:06.000Z</time>
      </trkpt>
      <trkpt lat="46.74901" lon="6.36682">
        <ele>1102</ele>
        <time>2017-05-22T09:11:09.000Z</time>
      </trkpt>
      <trkpt lat="46.74899" lon="6.36681">
        <ele>1102</ele>
        <time>2017-05-22T09:11:11.000Z</time>
      </trkpt>
      <trkpt lat="46.74897" lon="6.36681">
        <ele>1102</ele>
        <time>2017-05-22T09:11:13.000Z</time>
      </trkpt>
      <trkpt lat="46.74896" lon="6.36679">
        <ele>1102</ele>
        <time>2017-05-22T09:11:15.000Z</time>
      </trkpt>
      <trkpt lat="46.74894" lon="6.36678">
        <ele>1102.72</ele>
        <time>2017-05-22T09:11:17.000Z</time>
      </trkpt>
      <trkpt lat="46.74891" lon="6.36677">
        <ele>1103.72</ele>
        <time>2017-05-22T09:11:19.000Z</time>
      </trkpt>
      <trkpt lat="46.7489" lon="6.36676">
        <ele>1104</ele>
        <time>2017-05-22T09:11:21.000Z</time>
      </trkpt>
      <trkpt lat="46.74887" lon="6.36675">
        <ele>1104</ele>
        <time>2017-05-22T09:11:23.000Z</time>
      </trkpt>
      <trkpt lat="46.74886" lon="6.36674">
        <ele>1104</ele>
        <time>2017-05-22T09:11:25.000Z</time>
      </trkpt>
      <trkpt lat="46.74884" lon="6.36673">
        <ele>1104</ele>
        <time>2017-05-22T09:11:27.000Z</time>
      </trkpt>
      <trkpt lat="46.74882" lon="6.36671">
        <ele>1104</ele>
        <time>2017-05-22T09:11:29.000Z</time>
      </trkpt>
      <trkpt lat="46.7488" lon="6.3667">
        <ele>1104.72</ele>
        <time>2017-05-22T09:11:31.000Z</time>
      </trkpt>
      <trkpt lat="46.74878" lon="6.36669">
        <ele>1105</ele>
        <time>2017-05-22T09:11:33.000Z</time>
      </trkpt>
      <trkpt lat="46.74876" lon="6.36667">
        <ele>1105</ele>
        <time>2017-05-22T09:11:35.000Z</time>
      </trkpt>
      <trkpt lat="46.74873" lon="6.36666">
        <ele>1105.433736612</ele>
        <time>2017-05-22T09:11:37.000Z</time>
      </trkpt>
      <trkpt lat="46.7487" lon="6.36663">
        <ele>1106</ele>
        <time>2017-05-22T09:11:39.000Z</time>
      </trkpt>
      <trkpt lat="46.74868" lon="6.36661">
        <ele>1106</ele>
        <time>2017-05-22T09:11:41.000Z</time>
      </trkpt>
      <trkpt lat="46.74866" lon="6.3666">
        <ele>1106</ele>
        <time>2017-05-22T09:11:43.000Z</time>
      </trkpt>
      <trkpt lat="46.74864" lon="6.36658">
        <ele>1106</ele>
        <time>2017-05-22T09:11:45.000Z</time>
      </trkpt>
      <trkpt lat="46.74862" lon="6.36656">
        <ele>1105</ele>
        <time>2017-05-22T09:11:47.000Z</time>
      </trkpt>
      <trkpt lat="46.7486" lon="6.36654">
        <ele>1105</ele>
        <time>2017-05-22T09:11:49.000Z</time>
      </trkpt>
      <trkpt lat="46.74858" lon="6.36652">
        <ele>1105</ele>
        <time>2017-05-22T09:11:51.000Z</time>
      </trkpt>
      <trkpt lat="46.74857" lon="6.36651">
        <ele>1105</ele>
        <time>2017-05-22T09:11:53.000Z</time>
      </trkpt>
      <trkpt lat="46.74855" lon="6.36649">
        <ele>1105</ele>
        <time>2017-05-22T09:11:55.000Z</time>
      </trkpt>
      <trkpt lat="46.74853" lon="6.36647">
        <ele>1105</ele>
        <time>2017-05-22T09:11:57.000Z</time>
      </trkpt>
      <trkpt lat="46.74852" lon="6.36645">
        <ele>1105</ele>
        <time>2017-05-22T09:11:59.000Z</time>
      </trkpt>
      <trkpt lat="46.7485" lon="6.36643">
        <ele>1105</ele>
        <time>2017-05-22T09:12:01.000Z</time>
      </trkpt>
      <trkpt lat="46.74847" lon="6.36642">
        <ele>1105</ele>
        <time>2017-05-22T09:12:03.000Z</time>
      </trkpt>
      <trkpt lat="46.74846" lon="6.36641">
        <ele>1105</ele>
        <time>2017-05-22T09:12:05.000Z</time>
      </trkpt>
      <trkpt lat="46.74843" lon="6.3664">
        <ele>1105</ele>
        <time>2017-05-22T09:12:07.000Z</time>
      </trkpt>
      <trkpt lat="46.74841" lon="6.36637">
        <ele>1105</ele>
        <time>2017-05-22T09:12:10.000Z</time>
      </trkpt>
      <trkpt lat="46.7484" lon="6.36635">
        <ele>1105</ele>
        <time>2017-05-22T09:12:12.000Z</time>
      </trkpt>
      <trkpt lat="46.74837" lon="6.36634">
        <ele>1104.2828273686</ele>
        <time>2017-05-22T09:12:14.000Z</time>
      </trkpt>
      <trkpt lat="46.74835" lon="6.36632">
        <ele>1104</ele>
        <time>2017-05-22T09:12:16.000Z</time>
      </trkpt>
      <trkpt lat="46.74833" lon="6.36631">
        <ele>1104</ele>
        <time>2017-05-22T09:12:18.000Z</time>
      </trkpt>
      <trkpt lat="46.74831" lon="6.36629">
        <ele>1104</ele>
        <time>2017-05-22T09:12:20.000Z</time>
      </trkpt>
      <trkpt lat="46.74829" lon="6.36627">
        <ele>1104</ele>
        <time>2017-05-22T09:12:22.000Z</time>
      </trkpt>
      <trkpt lat="46.74827" lon="6.36626">
        <ele>1104</ele>
        <time>2017-05-22T09:12:24.000Z</time>
      </trkpt>
      <trkpt lat="46.74825" lon="6.36623">
        <ele>1104.72</ele>
        <time>2017-05-22T09:12:26.000Z</time>
      </trkpt>
      <trkpt lat="46.74823" lon="6.36619">
        <ele>1105</ele>
        <time>2017-05-22T09:12:28.000Z</time>
      </trkpt>
      <trkpt lat="46.74822" lon="6.36617">
        <ele>1105</ele>
        <time>2017-05-22T09:12:30.000Z</time>
      </trkpt>
      <trkpt lat="46.7482" lon="6.36615">
        <ele>1105</ele>
        <time>2017-05-22T09:12:32.000Z</time>
      </trkpt>
      <trkpt lat="46.74819" lon="6.36613">
        <ele>1105.72</ele>
        <time>2017-05-22T09:12:34.000Z</time>
      </trkpt>
      <trkpt lat="46.74817" lon="6.36611">
        <ele>1106</ele>
        <time>2017-05-22T09:12:37.000Z</time>
      </trkpt>
      <trkpt lat="46.74815" lon="6.36609">
        <ele>1106</ele>
        <time>2017-05-22T09:12:39.000Z</time>
      </trkpt>
      <trkpt lat="46.74814" lon="6.36607">
        <ele>1106</ele>
        <time>2017-05-22T09:12:41.000Z</time>
      </trkpt>
      <trkpt lat="46.74811" lon="6.36604">
        <ele>1107</ele>
        <time>2017-05-22T09:12:43.000Z</time>
      </trkpt>
      <trkpt lat="46.7481" lon="6.36601">
        <ele>1107</ele>
        <time>2017-05-22T09:12:45.000Z</time>
      </trkpt>
      <trkpt lat="46.74809" lon="6.36598">
        <ele>1108</ele>
        <time>2017-05-22T09:12:48.000Z</time>
      </trkpt>
      <trkpt lat="46.74809" lon="6.36595">
        <ele>1108.5942010166</ele>
        <time>2017-05-22T09:12:50.000Z</time>
      </trkpt>
      <trkpt lat="46.74808" lon="6.36593">
        <ele>1109</ele>
        <time>2017-05-22T09:12:52.000Z</time>
      </trkpt>
      <trkpt lat="46.74806" lon="6.3659">
        <ele>1109</ele>
        <time>2017-05-22T09:12:54.000Z</time>
      </trkpt>
      <trkpt lat="46.74804" lon="6.36588">
        <ele>1110</ele>
        <time>2017-05-22T09:12:57.000Z</time>
      </trkpt>
      <trkpt lat="46.74803" lon="6.36585">
        <ele>1111</ele>
        <time>2017-05-22T09:13:00.000Z</time>
      </trkpt>
      <trkpt lat="46.74802" lon="6.36581">
        <ele>1111</ele>
        <time>2017-05-22T09:13:03.000Z</time>
      </trkpt>
      <trkpt lat="46.74801" lon="6.3658">
        <ele>1112</ele>
        <time>2017-05-22T09:13:06.000Z</time>
      </trkpt>
      <trkpt lat="46.74799" lon="6.36578">
        <ele>1113</ele>
        <time>2017-05-22T09:13:09.000Z</time>
      </trkpt>
      <trkpt lat="46.74797" lon="6.36576">
        <ele>1113</ele>
        <time>2017-05-22T09:13:12.000Z</time>
      </trkpt>
      <trkpt lat="46.74795" lon="6.36574">
        <ele>1113</ele>
        <time>2017-05-22T09:13:15.000Z</time>
      </trkpt>
      <trkpt lat="46.74792" lon="6.36573">
        <ele>1113</ele>
        <time>2017-05-22T09:13:17.000Z</time>
      </trkpt>
      <trkpt lat="46.7479" lon="6.36571">
        <ele>1114</ele>
        <time>2017-05-22T09:13:20.000Z</time>
      </trkpt>
      <trkpt lat="46.74788" lon="6.3657">
        <ele>1114</ele>
        <time>2017-05-22T09:13:22.000Z</time>
      </trkpt>
      <trkpt lat="46.74786" lon="6.36569">
        <ele>1114</ele>
        <time>2017-05-22T09:13:24.000Z</time>
      </trkpt>
      <trkpt lat="46.74784" lon="6.36566">
        <ele>1114</ele>
        <time>2017-05-22T09:13:27.000Z</time>
      </trkpt>
      <trkpt lat="46.74782" lon="6.36564">
        <ele>1115</ele>
        <time>2017-05-22T09:13:30.000Z</time>
      </trkpt>
      <trkpt lat="46.74781" lon="6.36561">
        <ele>1115</ele>
        <time>2017-05-22T09:13:33.000Z</time>
      </trkpt>
      <trkpt lat="46.74779" lon="6.36559">
        <ele>1115</ele>
        <time>2017-05-22T09:13:35.000Z</time>
      </trkpt>
      <trkpt lat="46.74778" lon="6.36556">
        <ele>1115</ele>
        <time>2017-05-22T09:13:37.000Z</time>
      </trkpt>
      <trkpt lat="46.74776" lon="6.36554">
        <ele>1115</ele>
        <time>2017-05-22T09:13:39.000Z</time>
      </trkpt>
      <trkpt lat="46.74775" lon="6.36553">
        <ele>1115.7142838484</ele>
        <time>2017-05-22T09:13:41.000Z</time>
      </trkpt>
      <trkpt lat="46.74772" lon="6.36551">
        <ele>1116</ele>
        <time>2017-05-22T09:13:43.000Z</time>
      </trkpt>
      <trkpt lat="46.74771" lon="6.3655">
        <ele>1116</ele>
        <time>2017-05-22T09:13:45.000Z</time>
      </trkpt>
      <trkpt lat="46.74768" lon="6.36548">
        <ele>1116</ele>
        <time>2017-05-22T09:13:47.000Z</time>
      </trkpt>
      <trkpt lat="46.74765" lon="6.36547">
        <ele>1116</ele>
        <time>2017-05-22T09:13:49.000Z</time>
      </trkpt>
      <trkpt lat="46.74763" lon="6.36545">
        <ele>1116</ele>
        <time>2017-05-22T09:13:52.000Z</time>
      </trkpt>
      <trkpt lat="46.74759" lon="6.36544">
        <ele>1117</ele>
        <time>2017-05-22T09:13:56.000Z</time>
      </trkpt>
      <trkpt lat="46.74757" lon="6.36543">
        <ele>1117</ele>
        <time>2017-05-22T09:13:58.000Z</time>
      </trkpt>
      <trkpt lat="46.74756" lon="6.3654">
        <ele>1117</ele>
        <time>2017-05-22T09:14:02.000Z</time>
      </trkpt>
      <trkpt lat="46.74754" lon="6.36538">
        <ele>1117.72</ele>
        <time>2017-05-22T09:14:04.000Z</time>
      </trkpt>
      <trkpt lat="46.74752" lon="6.36537">
        <ele>1118</ele>
        <time>2017-05-22T09:14:06.000Z</time>
      </trkpt>
      <trkpt lat="46.74751" lon="6.36535">
        <ele>1118</ele>
        <time>2017-05-22T09:14:08.000Z</time>
      </trkpt>
      <trkpt lat="46.74749" lon="6.36534">
        <ele>1118</ele>
        <time>2017-05-22T09:14:11.000Z</time>
      </trkpt>
      <trkpt lat="46.74747" lon="6.36533">
        <ele>1118</ele>
        <time>2017-05-22T09:14:13.000Z</time>
      </trkpt>
      <trkpt lat="46.74745" lon="6.36531">
        <ele>1118</ele>
        <time>2017-05-22T09:14:15.000Z</time>
      </trkpt>
      <trkpt lat="46.74743" lon="6.36531">
        <ele>1118</ele>
        <time>2017-05-22T09:14:17.000Z</time>
      </trkpt>
      <trkpt lat="46.7474" lon="6.3653">
        <ele>1118</ele>
        <time>2017-05-22T09:14:20.000Z</time>
      </trkpt>
      <trkpt lat="46.74738" lon="6.36529">
        <ele>1118</ele>
        <time>2017-05-22T09:14:22.000Z</time>
      </trkpt>
      <trkpt lat="46.74736" lon="6.36528">
        <ele>1118</ele>
        <time>2017-05-22T09:14:24.000Z</time>
      </trkpt>
      <trkpt lat="46.74735" lon="6.36526">
        <ele>1118</ele>
        <time>2017-05-22T09:14:26.000Z</time>
      </trkpt>
      <trkpt lat="46.74733" lon="6.36525">
        <ele>1118</ele>
        <time>2017-05-22T09:14:28.000Z</time>
      </trkpt>
      <trkpt lat="46.74731" lon="6.36524">
        <ele>1118</ele>
        <time>2017-05-22T09:14:30.000Z</time>
      </trkpt>
      <trkpt lat="46.74729" lon="6.36522">
        <ele>1118</ele>
        <time>2017-05-22T09:14:32.000Z</time>
      </trkpt>
      <trkpt lat="46.74726" lon="6.36522">
        <ele>1118</ele>
        <time>2017-05-22T09:14:35.000Z</time>
      </trkpt>
      <trkpt lat="46.74724" lon="6.36521">
        <ele>1118</ele>
        <time>2017-05-22T09:14:38.000Z</time>
      </trkpt>
      <trkpt lat="46.74723" lon="6.36518">
        <ele>1118</ele>
        <time>2017-05-22T09:14:41.000Z</time>
      </trkpt>
      <trkpt lat="46.74721" lon="6.36516">
        <ele>1118</ele>
        <time>2017-05-22T09:14:44.000Z</time>
      </trkpt>
      <trkpt lat="46.74718" lon="6.36515">
        <ele>1118</ele>
        <time>2017-05-22T09:14:47.000Z</time>
      </trkpt>
      <trkpt lat="46.74715" lon="6.36515">
        <ele>1118</ele>
        <time>2017-05-22T09:14:49.000Z</time>
      </trkpt>
      <trkpt lat="46.74713" lon="6.36514">
        <ele>1118</ele>
        <time>2017-05-22T09:14:52.000Z</time>
      </trkpt>
      <trkpt lat="46.7471" lon="6.36514">
        <ele>1118</ele>
        <time>2017-05-22T09:14:54.000Z</time>
      </trkpt>
      <trkpt lat="46.74708" lon="6.36512">
        <ele>1118</ele>
        <time>2017-05-22T09:14:56.000Z</time>
      </trkpt>
      <trkpt lat="46.74706" lon="6.36512">
        <ele>1118</ele>
        <time>2017-05-22T09:14:58.000Z</time>
      </trkpt>
      <trkpt lat="46.74704" lon="6.36511">
        <ele>1118</ele>
        <time>2017-05-22T09:15:00.000Z</time>
      </trkpt>
      <trkpt lat="46.74701" lon="6.3651">
        <ele>1118</ele>
        <time>2017-05-22T09:15:02.000Z</time>
      </trkpt>
      <trkpt lat="46.747" lon="6.36509">
        <ele>1118</ele>
        <time>2017-05-22T09:15:04.000Z</time>
      </trkpt>
      <trkpt lat="46.74698" lon="6.36508">
        <ele>1118</ele>
        <time>2017-05-22T09:15:06.000Z</time>
      </trkpt>
      <trkpt lat="46.74696" lon="6.36506">
        <ele>1118.72</ele>
        <time>2017-05-22T09:15:08.000Z</time>
      </trkpt>
      <trkpt lat="46.74694" lon="6.36504">
        <ele>1119</ele>
        <time>2017-05-22T09:15:10.000Z</time>
      </trkpt>
      <trkpt lat="46.74693" lon="6.36502">
        <ele>1119.72</ele>
        <time>2017-05-22T09:15:12.000Z</time>
      </trkpt>
      <trkpt lat="46.74692" lon="6.36499">
        <ele>1120</ele>
        <time>2017-05-22T09:15:28.000Z</time>
      </trkpt>
      <trkpt lat="46.7469" lon="6.36496">
        <ele>1120</ele>
        <time>2017-05-22T09:15:31.000Z</time>
      </trkpt>
      <trkpt lat="46.74688" lon="6.36494">
        <ele>1120</ele>
        <time>2017-05-22T09:15:34.000Z</time>
      </trkpt>
      <trkpt lat="46.74686" lon="6.36492">
        <ele>1121</ele>
        <time>2017-05-22T09:15:36.000Z</time>
      </trkpt>
      <trkpt lat="46.74685" lon="6.3649">
        <ele>1121</ele>
        <time>2017-05-22T09:15:38.000Z</time>
      </trkpt>
      <trkpt lat="46.74684" lon="6.36488">
        <ele>1121</ele>
        <time>2017-05-22T09:15:40.000Z</time>
      </trkpt>
      <trkpt lat="46.74682" lon="6.36486">
        <ele>1121</ele>
        <time>2017-05-22T09:15:42.000Z</time>
      </trkpt>
      <trkpt lat="46.7468" lon="6.36483">
        <ele>1121</ele>
        <time>2017-05-22T09:15:45.000Z</time>
      </trkpt>
      <trkpt lat="46.74678" lon="6.36481">
        <ele>1121.72</ele>
        <time>2017-05-22T09:15:47.000Z</time>
      </trkpt>
      <trkpt lat="46.74677" lon="6.36479">
        <ele>1122</ele>
        <time>2017-05-22T09:15:49.000Z</time>
      </trkpt>
      <trkpt lat="46.74675" lon="6.36476">
        <ele>1123</ele>
        <time>2017-05-22T09:15:51.000Z</time>
      </trkpt>
      <trkpt lat="46.74674" lon="6.36473">
        <ele>1123</ele>
        <time>2017-05-22T09:15:53.000Z</time>
      </trkpt>
      <trkpt lat="46.74673" lon="6.36471">
        <ele>1123</ele>
        <time>2017-05-22T09:15:55.000Z</time>
      </trkpt>
      <trkpt lat="46.74671" lon="6.36468">
        <ele>1124</ele>
        <time>2017-05-22T09:15:58.000Z</time>
      </trkpt>
      <trkpt lat="46.7467" lon="6.36466">
        <ele>1124</ele>
        <time>2017-05-22T09:16:00.000Z</time>
      </trkpt>
      <trkpt lat="46.74668" lon="6.36464">
        <ele>1124</ele>
        <time>2017-05-22T09:16:02.000Z</time>
      </trkpt>
      <trkpt lat="46.74667" lon="6.36461">
        <ele>1125</ele>
        <time>2017-05-22T09:16:05.000Z</time>
      </trkpt>
      <trkpt lat="46.74665" lon="6.3646">
        <ele>1125</ele>
        <time>2017-05-22T09:16:08.000Z</time>
      </trkpt>
      <trkpt lat="46.74663" lon="6.36458">
        <ele>1125.72</ele>
        <time>2017-05-22T09:16:10.000Z</time>
      </trkpt>
      <trkpt lat="46.74661" lon="6.36457">
        <ele>1126</ele>
        <time>2017-05-22T09:16:12.000Z</time>
      </trkpt>
      <trkpt lat="46.74659" lon="6.36455">
        <ele>1126</ele>
        <time>2017-05-22T09:16:14.000Z</time>
      </trkpt>
      <trkpt lat="46.74657" lon="6.36454">
        <ele>1126</ele>
        <time>2017-05-22T09:16:16.000Z</time>
      </trkpt>
      <trkpt lat="46.74656" lon="6.36453">
        <ele>1126.5942010166</ele>
        <time>2017-05-22T09:16:19.000Z</time>
      </trkpt>
      <trkpt lat="46.74654" lon="6.3645">
        <ele>1127</ele>
        <time>2017-05-22T09:16:22.000Z</time>
      </trkpt>
      <trkpt lat="46.74652" lon="6.36448">
        <ele>1128.72</ele>
        <time>2017-05-22T09:16:25.000Z</time>
      </trkpt>
      <trkpt lat="46.74651" lon="6.36446">
        <ele>1129</ele>
        <time>2017-05-22T09:16:27.000Z</time>
      </trkpt>
      <trkpt lat="46.7465" lon="6.36443">
        <ele>1129</ele>
        <time>2017-05-22T09:16:30.000Z</time>
      </trkpt>
      <trkpt lat="46.74649" lon="6.36441">
        <ele>1129.7171726314</ele>
        <time>2017-05-22T09:16:32.000Z</time>
      </trkpt>
      <trkpt lat="46.74648" lon="6.36438">
        <ele>1130</ele>
        <time>2017-05-22T09:16:35.000Z</time>
      </trkpt>
      <trkpt lat="46.74647" lon="6.36435">
        <ele>1130</ele>
        <time>2017-05-22T09:16:38.000Z</time>
      </trkpt>
      <trkpt lat="46.74645" lon="6.36433">
        <ele>1130</ele>
        <time>2017-05-22T09:16:40.000Z</time>
      </trkpt>
      <trkpt lat="46.74643" lon="6.36431">
        <ele>1130.72</ele>
        <time>2017-05-22T09:16:42.000Z</time>
      </trkpt>
      <trkpt lat="46.74641" lon="6.3643">
        <ele>1131</ele>
        <time>2017-05-22T09:16:44.000Z</time>
      </trkpt>
      <trkpt lat="46.74639" lon="6.36427">
        <ele>1131.72</ele>
        <time>2017-05-22T09:16:46.000Z</time>
      </trkpt>
      <trkpt lat="46.74638" lon="6.36424">
        <ele>1132</ele>
        <time>2017-05-22T09:16:49.000Z</time>
      </trkpt>
      <trkpt lat="46.74636" lon="6.36422">
        <ele>1132.72</ele>
        <time>2017-05-22T09:16:52.000Z</time>
      </trkpt>
      <trkpt lat="46.74634" lon="6.36418">
        <ele>1133</ele>
        <time>2017-05-22T09:16:55.000Z</time>
      </trkpt>
      <trkpt lat="46.74632" lon="6.36416">
        <ele>1133</ele>
        <time>2017-05-22T09:16:57.000Z</time>
      </trkpt>
      <trkpt lat="46.7463" lon="6.36414">
        <ele>1133.7171726314</ele>
        <time>2017-05-22T09:16:59.000Z</time>
      </trkpt>
      <trkpt lat="46.74628" lon="6.36411">
        <ele>1133.28</ele>
        <time>2017-05-22T09:17:01.000Z</time>
      </trkpt>
      <trkpt lat="46.74626" lon="6.36408">
        <ele>1134</ele>
        <time>2017-05-22T09:17:04.000Z</time>
      </trkpt>
      <trkpt lat="46.74625" lon="6.36406">
        <ele>1134</ele>
        <time>2017-05-22T09:17:07.000Z</time>
      </trkpt>
      <trkpt lat="46.74623" lon="6.36405">
        <ele>1134</ele>
        <time>2017-05-22T09:17:09.000Z</time>
      </trkpt>
      <trkpt lat="46.74621" lon="6.36403">
        <ele>1134</ele>
        <time>2017-05-22T09:17:12.000Z</time>
      </trkpt>
      <trkpt lat="46.74619" lon="6.36402">
        <ele>1134</ele>
        <time>2017-05-22T09:17:15.000Z</time>
      </trkpt>
      <trkpt lat="46.74617" lon="6.36399">
        <ele>1134.72</ele>
        <time>2017-05-22T09:17:18.000Z</time>
      </trkpt>
      <trkpt lat="46.74614" lon="6.36398">
        <ele>1135</ele>
        <time>2017-05-22T09:17:21.000Z</time>
      </trkpt>
      <trkpt lat="46.74612" lon="6.36397">
        <ele>1135</ele>
        <time>2017-05-22T09:17:23.000Z</time>
      </trkpt>
      <trkpt lat="46.74611" lon="6.36395">
        <ele>1135.72</ele>
        <time>2017-05-22T09:17:25.000Z</time>
      </trkpt>
      <trkpt lat="46.74609" lon="6.36394">
        <ele>1136</ele>
        <time>2017-05-22T09:17:27.000Z</time>
      </trkpt>
      <trkpt lat="46.74607" lon="6.36393">
        <ele>1136</ele>
        <time>2017-05-22T09:17:29.000Z</time>
      </trkpt>
      <trkpt lat="46.74605" lon="6.36392">
        <ele>1136</ele>
        <time>2017-05-22T09:17:31.000Z</time>
      </trkpt>
      <trkpt lat="46.74603" lon="6.3639">
        <ele>1137</ele>
        <time>2017-05-22T09:17:34.000Z</time>
      </trkpt>
      <trkpt lat="46.74601" lon="6.3639">
        <ele>1137</ele>
        <time>2017-05-22T09:17:36.000Z</time>
      </trkpt>
      <trkpt lat="46.74598" lon="6.36389">
        <ele>1137</ele>
        <time>2017-05-22T09:17:39.000Z</time>
      </trkpt>
      <trkpt lat="46.74596" lon="6.36387">
        <ele>1137</ele>
        <time>2017-05-22T09:17:42.000Z</time>
      </trkpt>
      <trkpt lat="46.74594" lon="6.36386">
        <ele>1137</ele>
        <time>2017-05-22T09:17:44.000Z</time>
      </trkpt>
      <trkpt lat="46.74592" lon="6.36385">
        <ele>1137</ele>
        <time>2017-05-22T09:17:46.000Z</time>
      </trkpt>
      <trkpt lat="46.7459" lon="6.36385">
        <ele>1137</ele>
        <time>2017-05-22T09:17:48.000Z</time>
      </trkpt>
      <trkpt lat="46.74587" lon="6.36385">
        <ele>1137</ele>
        <time>2017-05-22T09:17:50.000Z</time>
      </trkpt>
      <trkpt lat="46.74584" lon="6.36385">
        <ele>1137</ele>
        <time>2017-05-22T09:17:52.000Z</time>
      </trkpt>
      <trkpt lat="46.74582" lon="6.36386">
        <ele>1137</ele>
        <time>2017-05-22T09:17:53.000Z</time>
      </trkpt>
      <trkpt lat="46.7458" lon="6.36385">
        <ele>1137</ele>
        <time>2017-05-22T09:17:55.000Z</time>
      </trkpt>
      <trkpt lat="46.74579" lon="6.36384">
        <ele>1137</ele>
        <time>2017-05-22T09:17:57.000Z</time>
      </trkpt>
      <trkpt lat="46.74577" lon="6.36383">
        <ele>1137</ele>
        <time>2017-05-22T09:17:59.000Z</time>
      </trkpt>
      <trkpt lat="46.74575" lon="6.36381">
        <ele>1137</ele>
        <time>2017-05-22T09:18:01.000Z</time>
      </trkpt>
      <trkpt lat="46.74572" lon="6.3638">
        <ele>1137.72</ele>
        <time>2017-05-22T09:18:03.000Z</time>
      </trkpt>
      <trkpt lat="46.7457" lon="6.36377">
        <ele>1138</ele>
        <time>2017-05-22T09:18:06.000Z</time>
      </trkpt>
      <trkpt lat="46.74568" lon="6.36376">
        <ele>1138</ele>
        <time>2017-05-22T09:18:08.000Z</time>
      </trkpt>
      <trkpt lat="46.74566" lon="6.36373">
        <ele>1138</ele>
        <time>2017-05-22T09:18:10.000Z</time>
      </trkpt>
      <trkpt lat="46.74564" lon="6.36371">
        <ele>1139</ele>
        <time>2017-05-22T09:18:12.000Z</time>
      </trkpt>
      <trkpt lat="46.74562" lon="6.3637">
        <ele>1139</ele>
        <time>2017-05-22T09:18:14.000Z</time>
      </trkpt>
      <trkpt lat="46.7456" lon="6.36369">
        <ele>1138</ele>
        <time>2017-05-22T09:18:16.000Z</time>
      </trkpt>
      <trkpt lat="46.74559" lon="6.36366">
        <ele>1139</ele>
        <time>2017-05-22T09:18:19.000Z</time>
      </trkpt>
      <trkpt lat="46.74558" lon="6.36364">
        <ele>1139</ele>
        <time>2017-05-22T09:18:21.000Z</time>
      </trkpt>
      <trkpt lat="46.74556" lon="6.36362">
        <ele>1140</ele>
        <time>2017-05-22T09:18:23.000Z</time>
      </trkpt>
      <trkpt lat="46.74554" lon="6.3636">
        <ele>1140</ele>
        <time>2017-05-22T09:18:25.000Z</time>
      </trkpt>
      <trkpt lat="46.74553" lon="6.36357">
        <ele>1140.72</ele>
        <time>2017-05-22T09:18:27.000Z</time>
      </trkpt>
      <trkpt lat="46.74552" lon="6.36355">
        <ele>1141</ele>
        <time>2017-05-22T09:18:29.000Z</time>
      </trkpt>
      <trkpt lat="46.74549" lon="6.36354">
        <ele>1141</ele>
        <time>2017-05-22T09:18:31.000Z</time>
      </trkpt>
      <trkpt lat="46.74547" lon="6.36353">
        <ele>1141</ele>
        <time>2017-05-22T09:18:33.000Z</time>
      </trkpt>
      <trkpt lat="46.74545" lon="6.3635">
        <ele>1141</ele>
        <time>2017-05-22T09:18:36.000Z</time>
      </trkpt>
      <trkpt lat="46.74543" lon="6.36349">
        <ele>1142</ele>
        <time>2017-05-22T09:18:39.000Z</time>
      </trkpt>
      <trkpt lat="46.74541" lon="6.36347">
        <ele>1143</ele>
        <time>2017-05-22T09:18:42.000Z</time>
      </trkpt>
      <trkpt lat="46.74539" lon="6.36346">
        <ele>1143</ele>
        <time>2017-05-22T09:18:45.000Z</time>
      </trkpt>
      <trkpt lat="46.74537" lon="6.36345">
        <ele>1143</ele>
        <time>2017-05-22T09:18:48.000Z</time>
      </trkpt>
      <trkpt lat="46.74535" lon="6.36343">
        <ele>1144</ele>
        <time>2017-05-22T09:18:51.000Z</time>
      </trkpt>
      <trkpt lat="46.74535" lon="6.3634">
        <ele>1144</ele>
        <time>2017-05-22T09:18:53.000Z</time>
      </trkpt>
      <trkpt lat="46.74534" lon="6.36337">
        <ele>1144</ele>
        <time>2017-05-22T09:18:55.000Z</time>
      </trkpt>
      <trkpt lat="46.74532" lon="6.36335">
        <ele>1144</ele>
        <time>2017-05-22T09:18:58.000Z</time>
      </trkpt>
      <trkpt lat="46.74531" lon="6.36333">
        <ele>1145</ele>
        <time>2017-05-22T09:19:01.000Z</time>
      </trkpt>
      <trkpt lat="46.74529" lon="6.36332">
        <ele>1146</ele>
        <time>2017-05-22T09:19:04.000Z</time>
      </trkpt>
      <trkpt lat="46.74527" lon="6.3633">
        <ele>1146</ele>
        <time>2017-05-22T09:19:06.000Z</time>
      </trkpt>
      <trkpt lat="46.74525" lon="6.36329">
        <ele>1146</ele>
        <time>2017-05-22T09:19:09.000Z</time>
      </trkpt>
      <trkpt lat="46.74525" lon="6.36326">
        <ele>1147</ele>
        <time>2017-05-22T09:19:12.000Z</time>
      </trkpt>
      <trkpt lat="46.74523" lon="6.36324">
        <ele>1147</ele>
        <time>2017-05-22T09:19:15.000Z</time>
      </trkpt>
      <trkpt lat="46.74522" lon="6.36321">
        <ele>1148</ele>
        <time>2017-05-22T09:19:18.000Z</time>
      </trkpt>
      <trkpt lat="46.7452" lon="6.36318">
        <ele>1148</ele>
        <time>2017-05-22T09:19:22.000Z</time>
      </trkpt>
      <trkpt lat="46.74512" lon="6.36311">
        <ele>1150</ele>
        <time>2017-05-22T09:19:36.000Z</time>
      </trkpt>
      <trkpt lat="46.74506" lon="6.36301">
        <ele>1153</ele>
        <time>2017-05-22T09:19:52.000Z</time>
      </trkpt>
      <trkpt lat="46.74503" lon="6.36291">
        <ele>1155</ele>
        <time>2017-05-22T09:20:01.000Z</time>
      </trkpt>
      <trkpt lat="46.74502" lon="6.36289">
        <ele>1155</ele>
        <time>2017-05-22T09:20:05.000Z</time>
      </trkpt>
      <trkpt lat="46.74501" lon="6.36286">
        <ele>1155</ele>
        <time>2017-05-22T09:20:08.000Z</time>
      </trkpt>
      <trkpt lat="46.74501" lon="6.36283">
        <ele>1157</ele>
        <time>2017-05-22T09:20:12.000Z</time>
      </trkpt>
      <trkpt lat="46.745" lon="6.36281">
        <ele>1157</ele>
        <time>2017-05-22T09:20:14.000Z</time>
      </trkpt>
      <trkpt lat="46.74499" lon="6.36278">
        <ele>1157</ele>
        <time>2017-05-22T09:20:17.000Z</time>
      </trkpt>
      <trkpt lat="46.74497" lon="6.36275">
        <ele>1158</ele>
        <time>2017-05-22T09:20:20.000Z</time>
      </trkpt>
      <trkpt lat="46.74496" lon="6.36273">
        <ele>1159</ele>
        <time>2017-05-22T09:20:23.000Z</time>
      </trkpt>
      <trkpt lat="46.74495" lon="6.36271">
        <ele>1159.5942010166</ele>
        <time>2017-05-22T09:20:26.000Z</time>
      </trkpt>
      <trkpt lat="46.74493" lon="6.36268">
        <ele>1160</ele>
        <time>2017-05-22T09:20:29.000Z</time>
      </trkpt>
      <trkpt lat="46.74492" lon="6.36266">
        <ele>1161</ele>
        <time>2017-05-22T09:20:32.000Z</time>
      </trkpt>
      <trkpt lat="46.7449" lon="6.36264">
        <ele>1162</ele>
        <time>2017-05-22T09:20:36.000Z</time>
      </trkpt>
      <trkpt lat="46.74489" lon="6.36262">
        <ele>1162.72</ele>
        <time>2017-05-22T09:20:40.000Z</time>
      </trkpt>
      <trkpt lat="46.74487" lon="6.3626">
        <ele>1163</ele>
        <time>2017-05-22T09:20:44.000Z</time>
      </trkpt>
      <trkpt lat="46.74485" lon="6.36259">
        <ele>1163</ele>
        <time>2017-05-22T09:20:48.000Z</time>
      </trkpt>
      <trkpt lat="46.74483" lon="6.36257">
        <ele>1162</ele>
        <time>2017-05-22T09:20:51.000Z</time>
      </trkpt>
      <trkpt lat="46.74482" lon="6.36255">
        <ele>1162</ele>
        <time>2017-05-22T09:20:54.000Z</time>
      </trkpt>
      <trkpt lat="46.74482" lon="6.36252">
        <ele>1162</ele>
        <time>2017-05-22T09:20:56.000Z</time>
      </trkpt>
      <trkpt lat="46.74484" lon="6.3625">
        <ele>1161.72</ele>
        <time>2017-05-22T09:20:59.000Z</time>
      </trkpt>
      <trkpt lat="46.74486" lon="6.36247">
        <ele>1161.7058779239</ele>
        <time>2017-05-22T09:21:02.000Z</time>
      </trkpt>
      <trkpt lat="46.74489" lon="6.36247">
        <ele>1163</ele>
        <time>2017-05-22T09:21:06.000Z</time>
      </trkpt>
      <trkpt lat="46.74499" lon="6.36246">
        <ele>1166.72</ele>
        <time>2017-05-22T09:21:17.000Z</time>
      </trkpt>
      <trkpt lat="46.74507" lon="6.36251">
        <ele>1171</ele>
        <time>2017-05-22T09:21:26.000Z</time>
      </trkpt>
      <trkpt lat="46.74512" lon="6.36251">
        <ele>1173.6990269545</ele>
        <time>2017-05-22T09:21:32.000Z</time>
      </trkpt>
      <trkpt lat="46.74522" lon="6.36255">
        <ele>1175</ele>
        <time>2017-05-22T09:21:41.000Z</time>
      </trkpt>
      <trkpt lat="46.74531" lon="6.36257">
        <ele>1175</ele>
        <time>2017-05-22T09:21:50.000Z</time>
      </trkpt>
      <trkpt lat="46.74536" lon="6.36261">
        <ele>1175</ele>
        <time>2017-05-22T09:21:55.000Z</time>
      </trkpt>
      <trkpt lat="46.74539" lon="6.36261">
        <ele>1175</ele>
        <time>2017-05-22T09:21:58.000Z</time>
      </trkpt>
      <trkpt lat="46.74548" lon="6.36266">
        <ele>1173</ele>
        <time>2017-05-22T09:22:06.000Z</time>
      </trkpt>
      <trkpt lat="46.74556" lon="6.36273">
        <ele>1172</ele>
        <time>2017-05-22T09:22:16.000Z</time>
      </trkpt>
      <trkpt lat="46.74559" lon="6.36273">
        <ele>1172</ele>
        <time>2017-05-22T09:22:20.000Z</time>
      </trkpt>
      <trkpt lat="46.74563" lon="6.36274">
        <ele>1171</ele>
        <time>2017-05-22T09:22:24.000Z</time>
      </trkpt>
      <trkpt lat="46.74566" lon="6.36275">
        <ele>1171</ele>
        <time>2017-05-22T09:22:27.000Z</time>
      </trkpt>
      <trkpt lat="46.74568" lon="6.36275">
        <ele>1171</ele>
        <time>2017-05-22T09:22:29.000Z</time>
      </trkpt>
      <trkpt lat="46.74571" lon="6.36276">
        <ele>1170.28</ele>
        <time>2017-05-22T09:22:31.000Z</time>
      </trkpt>
      <trkpt lat="46.74574" lon="6.36276">
        <ele>1170</ele>
        <time>2017-05-22T09:22:34.000Z</time>
      </trkpt>
      <trkpt lat="46.74583" lon="6.36277">
        <ele>1168</ele>
        <time>2017-05-22T09:22:44.000Z</time>
      </trkpt>
      <trkpt lat="46.74593" lon="6.36278">
        <ele>1167</ele>
        <time>2017-05-22T09:22:51.000Z</time>
      </trkpt>
      <trkpt lat="46.74602" lon="6.36282">
        <ele>1164</ele>
        <time>2017-05-22T09:23:00.000Z</time>
      </trkpt>
      <trkpt lat="46.74611" lon="6.36285">
        <ele>1160</ele>
        <time>2017-05-22T09:23:08.000Z</time>
      </trkpt>
      <trkpt lat="46.74621" lon="6.36287">
        <ele>1156</ele>
        <time>2017-05-22T09:23:18.000Z</time>
      </trkpt>
      <trkpt lat="46.74631" lon="6.36291">
        <ele>1152</ele>
        <time>2017-05-22T09:23:27.000Z</time>
      </trkpt>
      <trkpt lat="46.74641" lon="6.3629">
        <ele>1146.28</ele>
        <time>2017-05-22T09:23:38.000Z</time>
      </trkpt>
      <trkpt lat="46.74645" lon="6.36297">
        <ele>1159.4</ele>
        <time>2017-05-22T09:23:47.000Z</time>
      </trkpt>
      <trkpt lat="46.74647" lon="6.363">
        <ele>1183</ele>
        <time>2017-05-22T09:23:53.000Z</time>
      </trkpt>
      <trkpt lat="46.74638" lon="6.36287">
        <ele>1184.72</ele>
        <time>2017-05-22T09:24:02.000Z</time>
      </trkpt>
      <trkpt lat="46.7464" lon="6.36284">
        <ele>1185</ele>
        <time>2017-05-22T09:24:10.000Z</time>
      </trkpt>
      <trkpt lat="46.74649" lon="6.36283">
        <ele>1183</ele>
        <time>2017-05-22T09:24:45.000Z</time>
      </trkpt>
      <trkpt lat="46.7464" lon="6.36289">
        <ele>1183</ele>
        <time>2017-05-22T09:25:14.000Z</time>
      </trkpt>
      <trkpt lat="46.74643" lon="6.36289">
        <ele>1184.72</ele>
        <time>2017-05-22T09:25:42.000Z</time>
      </trkpt>
      <trkpt lat="46.7464" lon="6.363">
        <ele>1183</ele>
        <time>2017-05-22T09:25:55.000Z</time>
      </trkpt>
      <trkpt lat="46.74643" lon="6.363">
        <ele>1184</ele>
        <time>2017-05-22T09:26:03.000Z</time>
      </trkpt>
      <trkpt lat="46.74637" lon="6.36289">
        <ele>1183</ele>
        <time>2017-05-22T09:26:41.000Z</time>
      </trkpt>
      <trkpt lat="46.74644" lon="6.36279">
        <ele>1184</ele>
        <time>2017-05-22T09:27:06.000Z</time>
      </trkpt>
      <trkpt lat="46.74635" lon="6.36286">
        <ele>1184</ele>
        <time>2017-05-22T09:28:23.000Z</time>
      </trkpt>
      <trkpt lat="46.74638" lon="6.36297">
        <ele>1185</ele>
        <time>2017-05-22T09:29:14.000Z</time>
      </trkpt>
      <trkpt lat="46.74647" lon="6.36299">
        <ele>1185</ele>
        <time>2017-05-22T09:29:26.000Z</time>
      </trkpt>
      <trkpt lat="46.74655" lon="6.36306">
        <ele>1186.72</ele>
        <time>2017-05-22T09:29:31.000Z</time>
      </trkpt>
      <trkpt lat="46.74664" lon="6.36314">
        <ele>1186</ele>
        <time>2017-05-22T09:29:42.000Z</time>
      </trkpt>
      <trkpt lat="46.74672" lon="6.36321">
        <ele>1187</ele>
        <time>2017-05-22T09:29:51.000Z</time>
      </trkpt>
      <trkpt lat="46.74677" lon="6.36324">
        <ele>1187</ele>
        <time>2017-05-22T09:29:56.000Z</time>
      </trkpt>
      <trkpt lat="46.74686" lon="6.36328">
        <ele>1187</ele>
        <time>2017-05-22T09:30:04.000Z</time>
      </trkpt>
      <trkpt lat="46.74695" lon="6.36333">
        <ele>1187</ele>
        <time>2017-05-22T09:30:12.000Z</time>
      </trkpt>
      <trkpt lat="46.74703" lon="6.36339">
        <ele>1187</ele>
        <time>2017-05-22T09:30:20.000Z</time>
      </trkpt>
      <trkpt lat="46.74708" lon="6.36343">
        <ele>1187</ele>
        <time>2017-05-22T09:30:25.000Z</time>
      </trkpt>
      <trkpt lat="46.74711" lon="6.36344">
        <ele>1187.7178966169</ele>
        <time>2017-05-22T09:30:28.000Z</time>
      </trkpt>
      <trkpt lat="46.7472" lon="6.36345">
        <ele>1188</ele>
        <time>2017-05-22T09:30:39.000Z</time>
      </trkpt>
      <trkpt lat="46.74722" lon="6.36346">
        <ele>1188</ele>
        <time>2017-05-22T09:30:42.000Z</time>
      </trkpt>
      <trkpt lat="46.74731" lon="6.36349">
        <ele>1189</ele>
        <time>2017-05-22T09:30:52.000Z</time>
      </trkpt>
      <trkpt lat="46.74739" lon="6.36355">
        <ele>1189</ele>
        <time>2017-05-22T09:30:59.000Z</time>
      </trkpt>
      <trkpt lat="46.74748" lon="6.36361">
        <ele>1189</ele>
        <time>2017-05-22T09:31:07.000Z</time>
      </trkpt>
      <trkpt lat="46.74756" lon="6.36367">
        <ele>1189</ele>
        <time>2017-05-22T09:31:15.000Z</time>
      </trkpt>
      <trkpt lat="46.74762" lon="6.3637">
        <ele>1190</ele>
        <time>2017-05-22T09:31:22.000Z</time>
      </trkpt>
      <trkpt lat="46.74764" lon="6.36372">
        <ele>1190</ele>
        <time>2017-05-22T09:31:24.000Z</time>
      </trkpt>
      <trkpt lat="46.74765" lon="6.36373">
        <ele>1190</ele>
        <time>2017-05-22T09:31:26.000Z</time>
      </trkpt>
      <trkpt lat="46.74767" lon="6.36375">
        <ele>1190</ele>
        <time>2017-05-22T09:31:29.000Z</time>
      </trkpt>
      <trkpt lat="46.74769" lon="6.36377">
        <ele>1190</ele>
        <time>2017-05-22T09:31:31.000Z</time>
      </trkpt>
      <trkpt lat="46.74771" lon="6.36378">
        <ele>1190</ele>
        <time>2017-05-22T09:31:33.000Z</time>
      </trkpt>
      <trkpt lat="46.74775" lon="6.3638">
        <ele>1189.2790016</ele>
        <time>2017-05-22T09:31:36.000Z</time>
      </trkpt>
      <trkpt lat="46.74784" lon="6.36385">
        <ele>1189</ele>
        <time>2017-05-22T09:31:44.000Z</time>
      </trkpt>
      <trkpt lat="46.74788" lon="6.36388">
        <ele>1190.72</ele>
        <time>2017-05-22T09:31:48.000Z</time>
      </trkpt>
      <trkpt lat="46.74797" lon="6.36395">
        <ele>1193.72</ele>
        <time>2017-05-22T09:31:57.000Z</time>
      </trkpt>
      <trkpt lat="46.748" lon="6.36397">
        <ele>1195.72</ele>
        <time>2017-05-22T09:32:00.000Z</time>
      </trkpt>
      <trkpt lat="46.74802" lon="6.36398">
        <ele>1196.72</ele>
        <time>2017-05-22T09:32:02.000Z</time>
      </trkpt>
      <trkpt lat="46.74808" lon="6.36402">
        <ele>1200.4099968</ele>
        <time>2017-05-22T09:32:09.000Z</time>
      </trkpt>
      <trkpt lat="46.74811" lon="6.36403">
        <ele>1202.72</ele>
        <time>2017-05-22T09:32:12.000Z</time>
      </trkpt>
      <trkpt lat="46.74813" lon="6.36404">
        <ele>1204.72</ele>
        <time>2017-05-22T09:32:14.000Z</time>
      </trkpt>
      <trkpt lat="46.74815" lon="6.36405">
        <ele>1206.72</ele>
        <time>2017-05-22T09:32:16.000Z</time>
      </trkpt>
      <trkpt lat="46.74816" lon="6.36405">
        <ele>1208</ele>
        <time>2017-05-22T09:32:18.000Z</time>
      </trkpt>
      <trkpt lat="46.74818" lon="6.36407">
        <ele>1209</ele>
        <time>2017-05-22T09:32:20.000Z</time>
      </trkpt>
      <trkpt lat="46.74828" lon="6.36407">
        <ele>1210</ele>
        <time>2017-05-22T09:32:30.000Z</time>
      </trkpt>
      <trkpt lat="46.7483" lon="6.36408">
        <ele>1210</ele>
        <time>2017-05-22T09:32:32.000Z</time>
      </trkpt>
      <trkpt lat="46.74832" lon="6.36408">
        <ele>1209.28</ele>
        <time>2017-05-22T09:32:34.000Z</time>
      </trkpt>
      <trkpt lat="46.74834" lon="6.36409">
        <ele>1209</ele>
        <time>2017-05-22T09:32:36.000Z</time>
      </trkpt>
      <trkpt lat="46.74836" lon="6.36411">
        <ele>1209</ele>
        <time>2017-05-22T09:32:38.000Z</time>
      </trkpt>
      <trkpt lat="46.74838" lon="6.36411">
        <ele>1208.28</ele>
        <time>2017-05-22T09:32:40.000Z</time>
      </trkpt>
      <trkpt lat="46.7484" lon="6.36411">
        <ele>1208</ele>
        <time>2017-05-22T09:32:42.000Z</time>
      </trkpt>
      <trkpt lat="46.7485" lon="6.36411">
        <ele>1207</ele>
        <time>2017-05-22T09:32:50.000Z</time>
      </trkpt>
      <trkpt lat="46.74859" lon="6.3641">
        <ele>1205</ele>
        <time>2017-05-22T09:32:59.000Z</time>
      </trkpt>
      <trkpt lat="46.74868" lon="6.36413">
        <ele>1203</ele>
        <time>2017-05-22T09:33:07.000Z</time>
      </trkpt>
      <trkpt lat="46.74873" lon="6.36414">
        <ele>1202</ele>
        <time>2017-05-22T09:33:12.000Z</time>
      </trkpt>
      <trkpt lat="46.74876" lon="6.36415">
        <ele>1201</ele>
        <time>2017-05-22T09:33:16.000Z</time>
      </trkpt>
      <trkpt lat="46.74878" lon="6.36413">
        <ele>1201</ele>
        <time>2017-05-22T09:33:19.000Z</time>
      </trkpt>
      <trkpt lat="46.7488" lon="6.36413">
        <ele>1201</ele>
        <time>2017-05-22T09:33:22.000Z</time>
      </trkpt>
      <trkpt lat="46.74883" lon="6.36412">
        <ele>1201</ele>
        <time>2017-05-22T09:33:25.000Z</time>
      </trkpt>
      <trkpt lat="46.74885" lon="6.36411">
        <ele>1200.28</ele>
        <time>2017-05-22T09:33:28.000Z</time>
      </trkpt>
      <trkpt lat="46.74887" lon="6.3641">
        <ele>1199</ele>
        <time>2017-05-22T09:33:30.000Z</time>
      </trkpt>
      <trkpt lat="46.7489" lon="6.36408">
        <ele>1198.28</ele>
        <time>2017-05-22T09:33:33.000Z</time>
      </trkpt>
      <trkpt lat="46.74895" lon="6.36401">
        <ele>1197</ele>
        <time>2017-05-22T09:33:39.000Z</time>
      </trkpt>
      <trkpt lat="46.74897" lon="6.36399">
        <ele>1196</ele>
        <time>2017-05-22T09:33:43.000Z</time>
      </trkpt>
      <trkpt lat="46.74899" lon="6.36396">
        <ele>1194.28</ele>
        <time>2017-05-22T09:33:46.000Z</time>
      </trkpt>
      <trkpt lat="46.749" lon="6.36394">
        <ele>1193</ele>
        <time>2017-05-22T09:33:48.000Z</time>
      </trkpt>
      <trkpt lat="46.74902" lon="6.36391">
        <ele>1192</ele>
        <time>2017-05-22T09:33:51.000Z</time>
      </trkpt>
      <trkpt lat="46.74905" lon="6.36389">
        <ele>1190.28</ele>
        <time>2017-05-22T09:33:54.000Z</time>
      </trkpt>
      <trkpt lat="46.74913" lon="6.36381">
        <ele>1186.28</ele>
        <time>2017-05-22T09:34:01.000Z</time>
      </trkpt>
      <trkpt lat="46.74916" lon="6.36374">
        <ele>1185</ele>
        <time>2017-05-22T09:34:06.000Z</time>
      </trkpt>
      <trkpt lat="46.74917" lon="6.36371">
        <ele>1183.4057989834</ele>
        <time>2017-05-22T09:34:08.000Z</time>
      </trkpt>
      <trkpt lat="46.74919" lon="6.36369">
        <ele>1182.28</ele>
        <time>2017-05-22T09:34:11.000Z</time>
      </trkpt>
      <trkpt lat="46.7492" lon="6.36366">
        <ele>1181.28</ele>
        <time>2017-05-22T09:34:13.000Z</time>
      </trkpt>
      <trkpt lat="46.74923" lon="6.3636">
        <ele>1180</ele>
        <time>2017-05-22T09:34:17.000Z</time>
      </trkpt>
      <trkpt lat="46.74924" lon="6.36358">
        <ele>1179</ele>
        <time>2017-05-22T09:34:19.000Z</time>
      </trkpt>
      <trkpt lat="46.74925" lon="6.36355">
        <ele>1178</ele>
        <time>2017-05-22T09:34:21.000Z</time>
      </trkpt>
      <trkpt lat="46.74927" lon="6.36353">
        <ele>1177</ele>
        <time>2017-05-22T09:34:24.000Z</time>
      </trkpt>
      <trkpt lat="46.74929" lon="6.36351">
        <ele>1175.28</ele>
        <time>2017-05-22T09:34:26.000Z</time>
      </trkpt>
      <trkpt lat="46.7493" lon="6.36349">
        <ele>1175</ele>
        <time>2017-05-22T09:34:28.000Z</time>
      </trkpt>
      <trkpt lat="46.74931" lon="6.36346">
        <ele>1174</ele>
        <time>2017-05-22T09:34:30.000Z</time>
      </trkpt>
      <trkpt lat="46.74932" lon="6.36344">
        <ele>1174</ele>
        <time>2017-05-22T09:34:32.000Z</time>
      </trkpt>
      <trkpt lat="46.74934" lon="6.36342">
        <ele>1173</ele>
        <time>2017-05-22T09:34:34.000Z</time>
      </trkpt>
      <trkpt lat="46.74935" lon="6.36339">
        <ele>1171.450383022</ele>
        <time>2017-05-22T09:34:36.000Z</time>
      </trkpt>
      <trkpt lat="46.74936" lon="6.36337">
        <ele>1171</ele>
        <time>2017-05-22T09:34:38.000Z</time>
      </trkpt>
      <trkpt lat="46.74937" lon="6.36334">
        <ele>1203.2442546705</ele>
        <time>2017-05-22T09:34:40.000Z</time>
      </trkpt>
      <trkpt lat="46.74938" lon="6.36332">
        <ele>1214</ele>
        <time>2017-05-22T09:34:42.000Z</time>
      </trkpt>
      <trkpt lat="46.7494" lon="6.36331">
        <ele>1217</ele>
        <time>2017-05-22T09:34:45.000Z</time>
      </trkpt>
      <trkpt lat="46.74942" lon="6.3633">
        <ele>1217</ele>
        <time>2017-05-22T09:34:47.000Z</time>
      </trkpt>
      <trkpt lat="46.74944" lon="6.36328">
        <ele>1217</ele>
        <time>2017-05-22T09:34:49.000Z</time>
      </trkpt>
      <trkpt lat="46.74946" lon="6.36327">
        <ele>1218</ele>
        <time>2017-05-22T09:34:51.000Z</time>
      </trkpt>
      <trkpt lat="46.74948" lon="6.36327">
        <ele>1218.6990269545</ele>
        <time>2017-05-22T09:34:53.000Z</time>
      </trkpt>
      <trkpt lat="46.7495" lon="6.36326">
        <ele>1219</ele>
        <time>2017-05-22T09:34:55.000Z</time>
      </trkpt>
      <trkpt lat="46.74952" lon="6.36325">
        <ele>1219</ele>
        <time>2017-05-22T09:34:57.000Z</time>
      </trkpt>
      <trkpt lat="46.74962" lon="6.36323">
        <ele>1220</ele>
        <time>2017-05-22T09:35:06.000Z</time>
      </trkpt>
      <trkpt lat="46.74965" lon="6.36323">
        <ele>1221</ele>
        <time>2017-05-22T09:35:09.000Z</time>
      </trkpt>
      <trkpt lat="46.74973" lon="6.36317">
        <ele>1221</ele>
        <time>2017-05-22T09:35:17.000Z</time>
      </trkpt>
      <trkpt lat="46.74977" lon="6.36313">
        <ele>1222</ele>
        <time>2017-05-22T09:35:22.000Z</time>
      </trkpt>
      <trkpt lat="46.74981" lon="6.36309">
        <ele>1222.5942010166</ele>
        <time>2017-05-22T09:35:28.000Z</time>
      </trkpt>
      <trkpt lat="46.74983" lon="6.36307">
        <ele>1223</ele>
        <time>2017-05-22T09:35:30.000Z</time>
      </trkpt>
      <trkpt lat="46.74987" lon="6.36294">
        <ele>1224</ele>
        <time>2017-05-22T09:35:42.000Z</time>
      </trkpt>
      <trkpt lat="46.74992" lon="6.36283">
        <ele>1224</ele>
        <time>2017-05-22T09:35:49.000Z</time>
      </trkpt>
      <trkpt lat="46.74994" lon="6.36281">
        <ele>1225</ele>
        <time>2017-05-22T09:35:51.000Z</time>
      </trkpt>
      <trkpt lat="46.74995" lon="6.36279">
        <ele>1225</ele>
        <time>2017-05-22T09:35:53.000Z</time>
      </trkpt>
      <trkpt lat="46.74999" lon="6.36267">
        <ele>1226</ele>
        <time>2017-05-22T09:36:03.000Z</time>
      </trkpt>
      <trkpt lat="46.75004" lon="6.36256">
        <ele>1227</ele>
        <time>2017-05-22T09:36:11.000Z</time>
      </trkpt>
      <trkpt lat="46.75005" lon="6.36251">
        <ele>1228</ele>
        <time>2017-05-22T09:36:16.000Z</time>
      </trkpt>
      <trkpt lat="46.75007" lon="6.3624">
        <ele>1229</ele>
        <time>2017-05-22T09:36:24.000Z</time>
      </trkpt>
      <trkpt lat="46.75007" lon="6.36238">
        <ele>1229</ele>
        <time>2017-05-22T09:36:26.000Z</time>
      </trkpt>
      <trkpt lat="46.75009" lon="6.36235">
        <ele>1229</ele>
        <time>2017-05-22T09:36:28.000Z</time>
      </trkpt>
      <trkpt lat="46.75009" lon="6.36232">
        <ele>1229</ele>
        <time>2017-05-22T09:36:31.000Z</time>
      </trkpt>
      <trkpt lat="46.75011" lon="6.36228">
        <ele>1229.541354686</ele>
        <time>2017-05-22T09:36:34.000Z</time>
      </trkpt>
      <trkpt lat="46.75011" lon="6.36225">
        <ele>1230</ele>
        <time>2017-05-22T09:36:36.000Z</time>
      </trkpt>
      <trkpt lat="46.75012" lon="6.36221">
        <ele>1230</ele>
        <time>2017-05-22T09:36:39.000Z</time>
      </trkpt>
      <trkpt lat="46.75012" lon="6.36219">
        <ele>1231</ele>
        <time>2017-05-22T09:36:41.000Z</time>
      </trkpt>
      <trkpt lat="46.75011" lon="6.36216">
        <ele>1231</ele>
        <time>2017-05-22T09:36:43.000Z</time>
      </trkpt>
      <trkpt lat="46.75009" lon="6.36213">
        <ele>1231</ele>
        <time>2017-05-22T09:36:46.000Z</time>
      </trkpt>
      <trkpt lat="46.75008" lon="6.36211">
        <ele>1231</ele>
        <time>2017-05-22T09:36:48.000Z</time>
      </trkpt>
      <trkpt lat="46.75006" lon="6.36207">
        <ele>1231</ele>
        <time>2017-05-22T09:36:51.000Z</time>
      </trkpt>
      <trkpt lat="46.75006" lon="6.36204">
        <ele>1231</ele>
        <time>2017-05-22T09:36:53.000Z</time>
      </trkpt>
      <trkpt lat="46.75005" lon="6.36202">
        <ele>1231.72</ele>
        <time>2017-05-22T09:36:55.000Z</time>
      </trkpt>
      <trkpt lat="46.75004" lon="6.36198">
        <ele>1231.28</ele>
        <time>2017-05-22T09:36:57.000Z</time>
      </trkpt>
      <trkpt lat="46.75003" lon="6.36196">
        <ele>1231.72</ele>
        <time>2017-05-22T09:36:59.000Z</time>
      </trkpt>
      <trkpt lat="46.75002" lon="6.36194">
        <ele>1232</ele>
        <time>2017-05-22T09:37:01.000Z</time>
      </trkpt>
      <trkpt lat="46.75" lon="6.36193">
        <ele>1232</ele>
        <time>2017-05-22T09:37:03.000Z</time>
      </trkpt>
      <trkpt lat="46.74999" lon="6.36188">
        <ele>1232</ele>
        <time>2017-05-22T09:37:08.000Z</time>
      </trkpt>
      <trkpt lat="46.74997" lon="6.36186">
        <ele>1232</ele>
        <time>2017-05-22T09:37:10.000Z</time>
      </trkpt>
      <trkpt lat="46.74992" lon="6.36182">
        <ele>1232</ele>
        <time>2017-05-22T09:37:14.000Z</time>
      </trkpt>
      <trkpt lat="46.7499" lon="6.3618">
        <ele>1233</ele>
        <time>2017-05-22T09:37:19.000Z</time>
      </trkpt>
      <trkpt lat="46.74986" lon="6.36179">
        <ele>1233</ele>
        <time>2017-05-22T09:37:39.000Z</time>
      </trkpt>
      <trkpt lat="46.74984" lon="6.36175">
        <ele>1233</ele>
        <time>2017-05-22T09:37:43.000Z</time>
      </trkpt>
      <trkpt lat="46.74983" lon="6.36173">
        <ele>1233</ele>
        <time>2017-05-22T09:37:45.000Z</time>
      </trkpt>
      <trkpt lat="46.7498" lon="6.36169">
        <ele>1234</ele>
        <time>2017-05-22T09:37:49.000Z</time>
      </trkpt>
      <trkpt lat="46.74979" lon="6.36167">
        <ele>1235</ele>
        <time>2017-05-22T09:37:51.000Z</time>
      </trkpt>
      <trkpt lat="46.74977" lon="6.36165">
        <ele>1235</ele>
        <time>2017-05-22T09:37:54.000Z</time>
      </trkpt>
      <trkpt lat="46.7497" lon="6.36156">
        <ele>1235</ele>
        <time>2017-05-22T09:38:03.000Z</time>
      </trkpt>
      <trkpt lat="46.74968" lon="6.36156">
        <ele>1236</ele>
        <time>2017-05-22T09:38:05.000Z</time>
      </trkpt>
      <trkpt lat="46.74959" lon="6.3615">
        <ele>1237</ele>
        <time>2017-05-22T09:38:14.000Z</time>
      </trkpt>
      <trkpt lat="46.74957" lon="6.36148">
        <ele>1238</ele>
        <time>2017-05-22T09:38:17.000Z</time>
      </trkpt>
      <trkpt lat="46.74954" lon="6.36147">
        <ele>1238</ele>
        <time>2017-05-22T09:38:22.000Z</time>
      </trkpt>
      <trkpt lat="46.74948" lon="6.36142">
        <ele>1240.72</ele>
        <time>2017-05-22T09:38:34.000Z</time>
      </trkpt>
      <trkpt lat="46.74947" lon="6.3614">
        <ele>1241</ele>
        <time>2017-05-22T09:38:38.000Z</time>
      </trkpt>
      <trkpt lat="46.74945" lon="6.36139">
        <ele>1241.72</ele>
        <time>2017-05-22T09:38:42.000Z</time>
      </trkpt>
      <trkpt lat="46.74943" lon="6.36139">
        <ele>1243</ele>
        <time>2017-05-22T09:38:46.000Z</time>
      </trkpt>
      <trkpt lat="46.74939" lon="6.36137">
        <ele>1244</ele>
        <time>2017-05-22T09:38:55.000Z</time>
      </trkpt>
      <trkpt lat="46.74937" lon="6.36136">
        <ele>1245</ele>
        <time>2017-05-22T09:38:59.000Z</time>
      </trkpt>
      <trkpt lat="46.74935" lon="6.36135">
        <ele>1245</ele>
        <time>2017-05-22T09:39:04.000Z</time>
      </trkpt>
      <trkpt lat="46.74933" lon="6.36134">
        <ele>1246</ele>
        <time>2017-05-22T09:39:08.000Z</time>
      </trkpt>
      <trkpt lat="46.74932" lon="6.36132">
        <ele>1247</ele>
        <time>2017-05-22T09:39:14.000Z</time>
      </trkpt>
      <trkpt lat="46.7493" lon="6.3613">
        <ele>1247.72</ele>
        <time>2017-05-22T09:39:19.000Z</time>
      </trkpt>
      <trkpt lat="46.74928" lon="6.3613">
        <ele>1248.72</ele>
        <time>2017-05-22T09:39:24.000Z</time>
      </trkpt>
      <trkpt lat="46.74926" lon="6.36129">
        <ele>1249</ele>
        <time>2017-05-22T09:39:27.000Z</time>
      </trkpt>
      <trkpt lat="46.74924" lon="6.36127">
        <ele>1250</ele>
        <time>2017-05-22T09:39:33.000Z</time>
      </trkpt>
      <trkpt lat="46.74923" lon="6.36124">
        <ele>1252</ele>
        <time>2017-05-22T09:39:41.000Z</time>
      </trkpt>
      <trkpt lat="46.74921" lon="6.36123">
        <ele>1252.72</ele>
        <time>2017-05-22T09:39:43.000Z</time>
      </trkpt>
      <trkpt lat="46.74919" lon="6.36123">
        <ele>1253</ele>
        <time>2017-05-22T09:39:47.000Z</time>
      </trkpt>
      <trkpt lat="46.74915" lon="6.36123">
        <ele>1254</ele>
        <time>2017-05-22T09:39:54.000Z</time>
      </trkpt>
      <trkpt lat="46.74912" lon="6.36121">
        <ele>1255</ele>
        <time>2017-05-22T09:39:58.000Z</time>
      </trkpt>
      <trkpt lat="46.7491" lon="6.36121">
        <ele>1255.72</ele>
        <time>2017-05-22T09:40:01.000Z</time>
      </trkpt>
      <trkpt lat="46.74908" lon="6.3612">
        <ele>1256.5942010166</ele>
        <time>2017-05-22T09:40:04.000Z</time>
      </trkpt>
      <trkpt lat="46.74906" lon="6.36121">
        <ele>1258.72</ele>
        <time>2017-05-22T09:40:08.000Z</time>
      </trkpt>
      <trkpt lat="46.74905" lon="6.36119">
        <ele>1269.4226785078</ele>
        <time>2017-05-22T09:40:14.000Z</time>
      </trkpt>
      <trkpt lat="46.74903" lon="6.36118">
        <ele>1278.72</ele>
        <time>2017-05-22T09:40:18.000Z</time>
      </trkpt>
      <trkpt lat="46.749" lon="6.36118">
        <ele>1283</ele>
        <time>2017-05-22T09:40:23.000Z</time>
      </trkpt>
      <trkpt lat="46.74898" lon="6.36116">
        <ele>1283</ele>
        <time>2017-05-22T09:40:26.000Z</time>
      </trkpt>
      <trkpt lat="46.74897" lon="6.36115">
        <ele>1283</ele>
        <time>2017-05-22T09:40:30.000Z</time>
      </trkpt>
      <trkpt lat="46.74894" lon="6.36116">
        <ele>1282.28</ele>
        <time>2017-05-22T09:40:35.000Z</time>
      </trkpt>
      <trkpt lat="46.74892" lon="6.36117">
        <ele>1281.28</ele>
        <time>2017-05-22T09:40:39.000Z</time>
      </trkpt>
      <trkpt lat="46.7489" lon="6.36117">
        <ele>1279.28</ele>
        <time>2017-05-22T09:40:43.000Z</time>
      </trkpt>
      <trkpt lat="46.74888" lon="6.36117">
        <ele>1277.2916666667</ele>
        <time>2017-05-22T09:40:49.000Z</time>
      </trkpt>
      <trkpt lat="46.74887" lon="6.36116">
        <ele>1276</ele>
        <time>2017-05-22T09:40:54.000Z</time>
      </trkpt>
      <trkpt lat="46.74885" lon="6.36116">
        <ele>1275</ele>
        <time>2017-05-22T09:41:01.000Z</time>
      </trkpt>
      <trkpt lat="46.74882" lon="6.36116">
        <ele>1275</ele>
        <time>2017-05-22T09:41:04.000Z</time>
      </trkpt>
      <trkpt lat="46.7488" lon="6.36116">
        <ele>1273</ele>
        <time>2017-05-22T09:41:09.000Z</time>
      </trkpt>
      <trkpt lat="46.74878" lon="6.36114">
        <ele>1271</ele>
        <time>2017-05-22T09:41:13.000Z</time>
      </trkpt>
      <trkpt lat="46.74876" lon="6.36114">
        <ele>1269</ele>
        <time>2017-05-22T09:41:19.000Z</time>
      </trkpt>
      <trkpt lat="46.74874" lon="6.36115">
        <ele>1268</ele>
        <time>2017-05-22T09:41:23.000Z</time>
      </trkpt>
      <trkpt lat="46.74871" lon="6.36116">
        <ele>1267</ele>
        <time>2017-05-22T09:41:30.000Z</time>
      </trkpt>
      <trkpt lat="46.74869" lon="6.36116">
        <ele>1267</ele>
        <time>2017-05-22T09:41:34.000Z</time>
      </trkpt>
      <trkpt lat="46.74867" lon="6.36115">
        <ele>1268</ele>
        <time>2017-05-22T09:41:39.000Z</time>
      </trkpt>
      <trkpt lat="46.74865" lon="6.36116">
        <ele>1268</ele>
        <time>2017-05-22T09:41:42.000Z</time>
      </trkpt>
      <trkpt lat="46.74864" lon="6.36117">
        <ele>1269</ele>
        <time>2017-05-22T09:41:46.000Z</time>
      </trkpt>
      <trkpt lat="46.74862" lon="6.36119">
        <ele>1269.72</ele>
        <time>2017-05-22T09:41:49.000Z</time>
      </trkpt>
      <trkpt lat="46.7486" lon="6.3612">
        <ele>1270</ele>
        <time>2017-05-22T09:41:52.000Z</time>
      </trkpt>
      <trkpt lat="46.74858" lon="6.3612">
        <ele>1270.72</ele>
        <time>2017-05-22T09:41:55.000Z</time>
      </trkpt>
      <trkpt lat="46.74856" lon="6.36119">
        <ele>1272.5942010166</ele>
        <time>2017-05-22T09:41:58.000Z</time>
      </trkpt>
      <trkpt lat="46.74854" lon="6.36119">
        <ele>1273</ele>
        <time>2017-05-22T09:42:03.000Z</time>
      </trkpt>
      <trkpt lat="46.74852" lon="6.36118">
        <ele>1274</ele>
        <time>2017-05-22T09:42:07.000Z</time>
      </trkpt>
      <trkpt lat="46.7485" lon="6.36118">
        <ele>1276.72</ele>
        <time>2017-05-22T09:42:15.000Z</time>
      </trkpt>
      <trkpt lat="46.74848" lon="6.36116">
        <ele>1278</ele>
        <time>2017-05-22T09:42:20.000Z</time>
      </trkpt>
      <trkpt lat="46.74846" lon="6.36117">
        <ele>1279</ele>
        <time>2017-05-22T09:42:24.000Z</time>
      </trkpt>
      <trkpt lat="46.74844" lon="6.36116">
        <ele>1281</ele>
        <time>2017-05-22T09:42:29.000Z</time>
      </trkpt>
      <trkpt lat="46.74841" lon="6.36117">
        <ele>1282</ele>
        <time>2017-05-22T09:42:35.000Z</time>
      </trkpt>
      <trkpt lat="46.74839" lon="6.36117">
        <ele>1282</ele>
        <time>2017-05-22T09:42:38.000Z</time>
      </trkpt>
      <trkpt lat="46.74837" lon="6.36117">
        <ele>1282</ele>
        <time>2017-05-22T09:42:43.000Z</time>
      </trkpt>
      <trkpt lat="46.74835" lon="6.36116">
        <ele>1283</ele>
        <time>2017-05-22T09:42:49.000Z</time>
      </trkpt>
      <trkpt lat="46.74832" lon="6.36116">
        <ele>1285</ele>
        <time>2017-05-22T09:42:54.000Z</time>
      </trkpt>
      <trkpt lat="46.74831" lon="6.36117">
        <ele>1286.72</ele>
        <time>2017-05-22T09:42:58.000Z</time>
      </trkpt>
      <trkpt lat="46.74829" lon="6.36118">
        <ele>1289.72</ele>
        <time>2017-05-22T09:43:01.000Z</time>
      </trkpt>
      <trkpt lat="46.74827" lon="6.36119">
        <ele>1292.72</ele>
        <time>2017-05-22T09:43:05.000Z</time>
      </trkpt>
      <trkpt lat="46.74825" lon="6.3612">
        <ele>1293</ele>
        <time>2017-05-22T09:43:07.000Z</time>
      </trkpt>
      <trkpt lat="46.74823" lon="6.36122">
        <ele>1293.72</ele>
        <time>2017-05-22T09:43:09.000Z</time>
      </trkpt>
      <trkpt lat="46.74821" lon="6.36122">
        <ele>1298.549616978</ele>
        <time>2017-05-22T09:43:13.000Z</time>
      </trkpt>
      <trkpt lat="46.74819" lon="6.36122">
        <ele>1303.72</ele>
        <time>2017-05-22T09:43:18.000Z</time>
      </trkpt>
      <trkpt lat="46.74817" lon="6.36123">
        <ele>1307</ele>
        <time>2017-05-22T09:43:23.000Z</time>
      </trkpt>
      <trkpt lat="46.74815" lon="6.36123">
        <ele>1308</ele>
        <time>2017-05-22T09:43:26.000Z</time>
      </trkpt>
      <trkpt lat="46.74813" lon="6.36123">
        <ele>1310</ele>
        <time>2017-05-22T09:43:31.000Z</time>
      </trkpt>
      <trkpt lat="46.74811" lon="6.36125">
        <ele>1310</ele>
        <time>2017-05-22T09:43:34.000Z</time>
      </trkpt>
      <trkpt lat="46.74809" lon="6.36125">
        <ele>1310</ele>
        <time>2017-05-22T09:43:36.000Z</time>
      </trkpt>
      <trkpt lat="46.74807" lon="6.36123">
        <ele>1311</ele>
        <time>2017-05-22T09:43:41.000Z</time>
      </trkpt>
      <trkpt lat="46.74806" lon="6.36121">
        <ele>1309.28</ele>
        <time>2017-05-22T09:43:44.000Z</time>
      </trkpt>
      <trkpt lat="46.74804" lon="6.3612">
        <ele>1307.28</ele>
        <time>2017-05-22T09:43:47.000Z</time>
      </trkpt>
      <trkpt lat="46.74802" lon="6.36119">
        <ele>1306.28</ele>
        <time>2017-05-22T09:43:50.000Z</time>
      </trkpt>
      <trkpt lat="46.748" lon="6.36116">
        <ele>1306</ele>
        <time>2017-05-22T09:43:54.000Z</time>
      </trkpt>
      <trkpt lat="46.74799" lon="6.36114">
        <ele>1305</ele>
        <time>2017-05-22T09:43:58.000Z</time>
      </trkpt>
      <trkpt lat="46.74798" lon="6.36111">
        <ele>1304</ele>
        <time>2017-05-22T09:44:01.000Z</time>
      </trkpt>
      <trkpt lat="46.74797" lon="6.36109">
        <ele>1303</ele>
        <time>2017-05-22T09:44:04.000Z</time>
      </trkpt>
      <trkpt lat="46.74796" lon="6.36106">
        <ele>1302</ele>
        <time>2017-05-22T09:44:07.000Z</time>
      </trkpt>
      <trkpt lat="46.74795" lon="6.36104">
        <ele>1301</ele>
        <time>2017-05-22T09:44:10.000Z</time>
      </trkpt>
      <trkpt lat="46.74794" lon="6.36102">
        <ele>1299.28</ele>
        <time>2017-05-22T09:44:14.000Z</time>
      </trkpt>
      <trkpt lat="46.74793" lon="6.36099">
        <ele>1298</ele>
        <time>2017-05-22T09:44:17.000Z</time>
      </trkpt>
      <trkpt lat="46.74792" lon="6.36095">
        <ele>1298</ele>
        <time>2017-05-22T09:44:20.000Z</time>
      </trkpt>
      <trkpt lat="46.74792" lon="6.36091">
        <ele>1297</ele>
        <time>2017-05-22T09:44:23.000Z</time>
      </trkpt>
      <trkpt lat="46.74792" lon="6.36088">
        <ele>1296</ele>
        <time>2017-05-22T09:44:26.000Z</time>
      </trkpt>
      <trkpt lat="46.74793" lon="6.36084">
        <ele>1295.28</ele>
        <time>2017-05-22T09:44:28.000Z</time>
      </trkpt>
      <trkpt lat="46.74793" lon="6.36082">
        <ele>1295</ele>
        <time>2017-05-22T09:44:30.000Z</time>
      </trkpt>
      <trkpt lat="46.74794" lon="6.36078">
        <ele>1295</ele>
        <time>2017-05-22T09:44:33.000Z</time>
      </trkpt>
      <trkpt lat="46.74795" lon="6.36076">
        <ele>1294</ele>
        <time>2017-05-22T09:44:36.000Z</time>
      </trkpt>
      <trkpt lat="46.74795" lon="6.36073">
        <ele>1294</ele>
        <time>2017-05-22T09:44:38.000Z</time>
      </trkpt>
      <trkpt lat="46.74796" lon="6.3607">
        <ele>1293</ele>
        <time>2017-05-22T09:44:42.000Z</time>
      </trkpt>
      <trkpt lat="46.74797" lon="6.36067">
        <ele>1293</ele>
        <time>2017-05-22T09:44:44.000Z</time>
      </trkpt>
      <trkpt lat="46.74798" lon="6.36064">
        <ele>1293</ele>
        <time>2017-05-22T09:44:46.000Z</time>
      </trkpt>
      <trkpt lat="46.74799" lon="6.36061">
        <ele>1292</ele>
        <time>2017-05-22T09:44:48.000Z</time>
      </trkpt>
      <trkpt lat="46.74801" lon="6.36058">
        <ele>1292</ele>
        <time>2017-05-22T09:44:51.000Z</time>
      </trkpt>
      <trkpt lat="46.74802" lon="6.36055">
        <ele>1291.28</ele>
        <time>2017-05-22T09:44:53.000Z</time>
      </trkpt>
      <trkpt lat="46.74804" lon="6.36052">
        <ele>1291</ele>
        <time>2017-05-22T09:44:56.000Z</time>
      </trkpt>
      <trkpt lat="46.74805" lon="6.3605">
        <ele>1290</ele>
        <time>2017-05-22T09:44:58.000Z</time>
      </trkpt>
      <trkpt lat="46.74806" lon="6.36049">
        <ele>1289</ele>
        <time>2017-05-22T09:45:01.000Z</time>
      </trkpt>
      <trkpt lat="46.74808" lon="6.36048">
        <ele>1288.28</ele>
        <time>2017-05-22T09:45:03.000Z</time>
      </trkpt>
      <trkpt lat="46.7481" lon="6.36046">
        <ele>1288</ele>
        <time>2017-05-22T09:45:05.000Z</time>
      </trkpt>
      <trkpt lat="46.74813" lon="6.36043">
        <ele>1287</ele>
        <time>2017-05-22T09:45:07.000Z</time>
      </trkpt>
      <trkpt lat="46.74815" lon="6.36041">
        <ele>1287</ele>
        <time>2017-05-22T09:45:09.000Z</time>
      </trkpt>
      <trkpt lat="46.74816" lon="6.36039">
        <ele>1287</ele>
        <time>2017-05-22T09:45:11.000Z</time>
      </trkpt>
      <trkpt lat="46.74818" lon="6.36038">
        <ele>1287</ele>
        <time>2017-05-22T09:45:13.000Z</time>
      </trkpt>
      <trkpt lat="46.74827" lon="6.36031">
        <ele>1290.7113392539</ele>
        <time>2017-05-22T09:45:21.000Z</time>
      </trkpt>
      <trkpt lat="46.74829" lon="6.36029">
        <ele>1292.5454545454</ele>
        <time>2017-05-22T09:45:23.000Z</time>
      </trkpt>
      <trkpt lat="46.7483" lon="6.36027">
        <ele>1296</ele>
        <time>2017-05-22T09:45:28.000Z</time>
      </trkpt>
      <trkpt lat="46.74832" lon="6.36025">
        <ele>1298.72</ele>
        <time>2017-05-22T09:45:30.000Z</time>
      </trkpt>
      <trkpt lat="46.74833" lon="6.36022">
        <ele>1300.72</ele>
        <time>2017-05-22T09:45:33.000Z</time>
      </trkpt>
      <trkpt lat="46.74841" lon="6.36016">
        <ele>1307</ele>
        <time>2017-05-22T09:45:42.000Z</time>
      </trkpt>
      <trkpt lat="46.74841" lon="6.36013">
        <ele>1308</ele>
        <time>2017-05-22T09:45:44.000Z</time>
      </trkpt>
      <trkpt lat="46.74843" lon="6.3601">
        <ele>1308.72</ele>
        <time>2017-05-22T09:45:47.000Z</time>
      </trkpt>
      <trkpt lat="46.74844" lon="6.36007">
        <ele>1309</ele>
        <time>2017-05-22T09:45:50.000Z</time>
      </trkpt>
      <trkpt lat="46.74846" lon="6.36004">
        <ele>1309</ele>
        <time>2017-05-22T09:45:52.000Z</time>
      </trkpt>
      <trkpt lat="46.74847" lon="6.36002">
        <ele>1308.28</ele>
        <time>2017-05-22T09:45:55.000Z</time>
      </trkpt>
      <trkpt lat="46.74847" lon="6.35999">
        <ele>1308</ele>
        <time>2017-05-22T09:45:58.000Z</time>
      </trkpt>
      <trkpt lat="46.74849" lon="6.35997">
        <ele>1307</ele>
        <time>2017-05-22T09:46:02.000Z</time>
      </trkpt>
      <trkpt lat="46.7485" lon="6.35994">
        <ele>1305.28</ele>
        <time>2017-05-22T09:46:06.000Z</time>
      </trkpt>
      <trkpt lat="46.74851" lon="6.35992">
        <ele>1305</ele>
        <time>2017-05-22T09:46:09.000Z</time>
      </trkpt>
      <trkpt lat="46.74853" lon="6.3599">
        <ele>1304</ele>
        <time>2017-05-22T09:46:12.000Z</time>
      </trkpt>
      <trkpt lat="46.74855" lon="6.35988">
        <ele>1304.72</ele>
        <time>2017-05-22T09:46:16.000Z</time>
      </trkpt>
      <trkpt lat="46.74857" lon="6.35986">
        <ele>1308</ele>
        <time>2017-05-22T09:46:22.000Z</time>
      </trkpt>
      <trkpt lat="46.7486" lon="6.35984">
        <ele>1309.5942010166</ele>
        <time>2017-05-22T09:46:24.000Z</time>
      </trkpt>
      <trkpt lat="46.74862" lon="6.35983">
        <ele>1311.44</ele>
        <time>2017-05-22T09:46:26.000Z</time>
      </trkpt>
      <trkpt lat="46.74864" lon="6.35982">
        <ele>1314.44</ele>
        <time>2017-05-22T09:46:28.000Z</time>
      </trkpt>
      <trkpt lat="46.74866" lon="6.35981">
        <ele>1317</ele>
        <time>2017-05-22T09:46:31.000Z</time>
      </trkpt>
      <trkpt lat="46.74867" lon="6.35979">
        <ele>1318</ele>
        <time>2017-05-22T09:46:33.000Z</time>
      </trkpt>
      <trkpt lat="46.74869" lon="6.35975">
        <ele>1319</ele>
        <time>2017-05-22T09:46:36.000Z</time>
      </trkpt>
      <trkpt lat="46.74871" lon="6.35973">
        <ele>1319.72</ele>
        <time>2017-05-22T09:46:38.000Z</time>
      </trkpt>
      <trkpt lat="46.74872" lon="6.3597">
        <ele>1321</ele>
        <time>2017-05-22T09:46:43.000Z</time>
      </trkpt>
      <trkpt lat="46.74873" lon="6.35967">
        <ele>1321</ele>
        <time>2017-05-22T09:46:45.000Z</time>
      </trkpt>
      <trkpt lat="46.74875" lon="6.35965">
        <ele>1321</ele>
        <time>2017-05-22T09:46:47.000Z</time>
      </trkpt>
      <trkpt lat="46.74876" lon="6.35962">
        <ele>1322</ele>
        <time>2017-05-22T09:46:49.000Z</time>
      </trkpt>
      <trkpt lat="46.74878" lon="6.3596">
        <ele>1322.72</ele>
        <time>2017-05-22T09:46:51.000Z</time>
      </trkpt>
      <trkpt lat="46.7488" lon="6.35958">
        <ele>1324.72</ele>
        <time>2017-05-22T09:46:54.000Z</time>
      </trkpt>
      <trkpt lat="46.74881" lon="6.35956">
        <ele>1325.7142875802</ele>
        <time>2017-05-22T09:46:56.000Z</time>
      </trkpt>
      <trkpt lat="46.74883" lon="6.35952">
        <ele>1326</ele>
        <time>2017-05-22T09:46:59.000Z</time>
      </trkpt>
      <trkpt lat="46.74884" lon="6.35949">
        <ele>1327</ele>
        <time>2017-05-22T09:47:01.000Z</time>
      </trkpt>
      <trkpt lat="46.74886" lon="6.35946">
        <ele>1327</ele>
        <time>2017-05-22T09:47:03.000Z</time>
      </trkpt>
      <trkpt lat="46.74887" lon="6.35945">
        <ele>1325.28</ele>
        <time>2017-05-22T09:47:06.000Z</time>
      </trkpt>
      <trkpt lat="46.74889" lon="6.35943">
        <ele>1325</ele>
        <time>2017-05-22T09:47:08.000Z</time>
      </trkpt>
      <trkpt lat="46.7489" lon="6.3594">
        <ele>1324</ele>
        <time>2017-05-22T09:47:11.000Z</time>
      </trkpt>
      <trkpt lat="46.74892" lon="6.35937">
        <ele>1323.28</ele>
        <time>2017-05-22T09:47:13.000Z</time>
      </trkpt>
      <trkpt lat="46.74894" lon="6.35934">
        <ele>1321.28</ele>
        <time>2017-05-22T09:47:15.000Z</time>
      </trkpt>
      <trkpt lat="46.74894" lon="6.35932">
        <ele>1320</ele>
        <time>2017-05-22T09:47:18.000Z</time>
      </trkpt>
      <trkpt lat="46.74893" lon="6.35929">
        <ele>1318</ele>
        <time>2017-05-22T09:47:23.000Z</time>
      </trkpt>
      <trkpt lat="46.74892" lon="6.35926">
        <ele>1315.450383022</ele>
        <time>2017-05-22T09:47:26.000Z</time>
      </trkpt>
      <trkpt lat="46.74892" lon="6.35923">
        <ele>1313</ele>
        <time>2017-05-22T09:47:29.000Z</time>
      </trkpt>
      <trkpt lat="46.74892" lon="6.3592">
        <ele>1311.28</ele>
        <time>2017-05-22T09:47:32.000Z</time>
      </trkpt>
      <trkpt lat="46.74891" lon="6.35917">
        <ele>1309</ele>
        <time>2017-05-22T09:47:35.000Z</time>
      </trkpt>
      <trkpt lat="46.7489" lon="6.35914">
        <ele>1308</ele>
        <time>2017-05-22T09:47:38.000Z</time>
      </trkpt>
      <trkpt lat="46.74889" lon="6.35912">
        <ele>1308</ele>
        <time>2017-05-22T09:47:41.000Z</time>
      </trkpt>
      <trkpt lat="46.74888" lon="6.35909">
        <ele>1307</ele>
        <time>2017-05-22T09:47:44.000Z</time>
      </trkpt>
      <trkpt lat="46.74887" lon="6.35906">
        <ele>1306</ele>
        <time>2017-05-22T09:47:46.000Z</time>
      </trkpt>
      <trkpt lat="46.74886" lon="6.35904">
        <ele>1306</ele>
        <time>2017-05-22T09:47:48.000Z</time>
      </trkpt>
      <trkpt lat="46.74884" lon="6.35901">
        <ele>1305</ele>
        <time>2017-05-22T09:47:51.000Z</time>
      </trkpt>
      <trkpt lat="46.74883" lon="6.35899">
        <ele>1304</ele>
        <time>2017-05-22T09:47:53.000Z</time>
      </trkpt>
      <trkpt lat="46.74881" lon="6.35896">
        <ele>1302.28</ele>
        <time>2017-05-22T09:47:56.000Z</time>
      </trkpt>
      <trkpt lat="46.74881" lon="6.35892">
        <ele>1301.4057989834</ele>
        <time>2017-05-22T09:47:59.000Z</time>
      </trkpt>
      <trkpt lat="46.7488" lon="6.35889">
        <ele>1299</ele>
        <time>2017-05-22T09:48:03.000Z</time>
      </trkpt>
      <trkpt lat="46.7488" lon="6.35886">
        <ele>1297.28</ele>
        <time>2017-05-22T09:48:07.000Z</time>
      </trkpt>
      <trkpt lat="46.74879" lon="6.35882">
        <ele>1295.28</ele>
        <time>2017-05-22T09:48:11.000Z</time>
      </trkpt>
      <trkpt lat="46.74878" lon="6.35879">
        <ele>1294.2828273686</ele>
        <time>2017-05-22T09:48:14.000Z</time>
      </trkpt>
      <trkpt lat="46.74877" lon="6.35876">
        <ele>1293.450383022</ele>
        <time>2017-05-22T09:48:17.000Z</time>
      </trkpt>
      <trkpt lat="46.74877" lon="6.35874">
        <ele>1293</ele>
        <time>2017-05-22T09:48:20.000Z</time>
      </trkpt>
      <trkpt lat="46.74875" lon="6.3587">
        <ele>1293.72</ele>
        <time>2017-05-22T09:48:23.000Z</time>
      </trkpt>
      <trkpt lat="46.74874" lon="6.35867">
        <ele>1294</ele>
        <time>2017-05-22T09:48:27.000Z</time>
      </trkpt>
      <trkpt lat="46.74874" lon="6.35864">
        <ele>1294</ele>
        <time>2017-05-22T09:48:30.000Z</time>
      </trkpt>
      <trkpt lat="46.74874" lon="6.35861">
        <ele>1294</ele>
        <time>2017-05-22T09:48:33.000Z</time>
      </trkpt>
      <trkpt lat="46.74874" lon="6.35858">
        <ele>1295</ele>
        <time>2017-05-22T09:48:36.000Z</time>
      </trkpt>
      <trkpt lat="46.74874" lon="6.35854">
        <ele>1295</ele>
        <time>2017-05-22T09:48:39.000Z</time>
      </trkpt>
      <trkpt lat="46.74874" lon="6.35851">
        <ele>1295</ele>
        <time>2017-05-22T09:48:42.000Z</time>
      </trkpt>
      <trkpt lat="46.74873" lon="6.35848">
        <ele>1295</ele>
        <time>2017-05-22T09:48:45.000Z</time>
      </trkpt>
      <trkpt lat="46.74872" lon="6.35845">
        <ele>1295</ele>
        <time>2017-05-22T09:48:48.000Z</time>
      </trkpt>
      <trkpt lat="46.74871" lon="6.35843">
        <ele>1294</ele>
        <time>2017-05-22T09:48:51.000Z</time>
      </trkpt>
      <trkpt lat="46.7487" lon="6.35841">
        <ele>1294</ele>
        <time>2017-05-22T09:48:54.000Z</time>
      </trkpt>
      <trkpt lat="46.74871" lon="6.35838">
        <ele>1293</ele>
        <time>2017-05-22T09:48:57.000Z</time>
      </trkpt>
      <trkpt lat="46.7487" lon="6.35835">
        <ele>1293</ele>
        <time>2017-05-22T09:49:01.000Z</time>
      </trkpt>
      <trkpt lat="46.7487" lon="6.35831">
        <ele>1293</ele>
        <time>2017-05-22T09:49:05.000Z</time>
      </trkpt>
      <trkpt lat="46.74871" lon="6.35827">
        <ele>1292</ele>
        <time>2017-05-22T09:49:08.000Z</time>
      </trkpt>
      <trkpt lat="46.74872" lon="6.35824">
        <ele>1291</ele>
        <time>2017-05-22T09:49:11.000Z</time>
      </trkpt>
      <trkpt lat="46.74871" lon="6.3582">
        <ele>1290.450383022</ele>
        <time>2017-05-22T09:49:14.000Z</time>
      </trkpt>
      <trkpt lat="46.74872" lon="6.35817">
        <ele>1290</ele>
        <time>2017-05-22T09:49:17.000Z</time>
      </trkpt>
      <trkpt lat="46.74872" lon="6.35814">
        <ele>1290</ele>
        <time>2017-05-22T09:49:19.000Z</time>
      </trkpt>
      <trkpt lat="46.74872" lon="6.3581">
        <ele>1289.28</ele>
        <time>2017-05-22T09:49:21.000Z</time>
      </trkpt>
      <trkpt lat="46.74873" lon="6.35806">
        <ele>1289</ele>
        <time>2017-05-22T09:49:23.000Z</time>
      </trkpt>
      <trkpt lat="46.74874" lon="6.35803">
        <ele>1288.28</ele>
        <time>2017-05-22T09:49:25.000Z</time>
      </trkpt>
      <trkpt lat="46.74876" lon="6.35801">
        <ele>1287</ele>
        <time>2017-05-22T09:49:27.000Z</time>
      </trkpt>
      <trkpt lat="46.74877" lon="6.358">
        <ele>1286.28</ele>
        <time>2017-05-22T09:49:29.000Z</time>
      </trkpt>
      <trkpt lat="46.7488" lon="6.35799">
        <ele>1286</ele>
        <time>2017-05-22T09:49:32.000Z</time>
      </trkpt>
      <trkpt lat="46.74882" lon="6.35798">
        <ele>1285</ele>
        <time>2017-05-22T09:49:34.000Z</time>
      </trkpt>
      <trkpt lat="46.74883" lon="6.35797">
        <ele>1284</ele>
        <time>2017-05-22T09:49:37.000Z</time>
      </trkpt>
      <trkpt lat="46.74886" lon="6.35797">
        <ele>1283</ele>
        <time>2017-05-22T09:49:40.000Z</time>
      </trkpt>
      <trkpt lat="46.74889" lon="6.35798">
        <ele>1282</ele>
        <time>2017-05-22T09:49:42.000Z</time>
      </trkpt>
      <trkpt lat="46.74892" lon="6.358">
        <ele>1281</ele>
        <time>2017-05-22T09:49:44.000Z</time>
      </trkpt>
      <trkpt lat="46.74894" lon="6.358">
        <ele>1281</ele>
        <time>2017-05-22T09:49:46.000Z</time>
      </trkpt>
      <trkpt lat="46.74896" lon="6.358">
        <ele>1280.2941220761</ele>
        <time>2017-05-22T09:49:48.000Z</time>
      </trkpt>
      <trkpt lat="46.74898" lon="6.358">
        <ele>1280</ele>
        <time>2017-05-22T09:49:50.000Z</time>
      </trkpt>
      <trkpt lat="46.749" lon="6.358">
        <ele>1280</ele>
        <time>2017-05-22T09:49:52.000Z</time>
      </trkpt>
      <trkpt lat="46.74903" lon="6.35799">
        <ele>1313.4</ele>
        <time>2017-05-22T09:49:55.000Z</time>
      </trkpt>
      <trkpt lat="46.74905" lon="6.35798">
        <ele>1330.16</ele>
        <time>2017-05-22T09:49:57.000Z</time>
      </trkpt>
      <trkpt lat="46.74908" lon="6.35798">
        <ele>1333.72</ele>
        <time>2017-05-22T09:50:00.000Z</time>
      </trkpt>
      <trkpt lat="46.7491" lon="6.35799">
        <ele>1334</ele>
        <time>2017-05-22T09:50:02.000Z</time>
      </trkpt>
      <trkpt lat="46.74912" lon="6.35801">
        <ele>1335</ele>
        <time>2017-05-22T09:50:05.000Z</time>
      </trkpt>
      <trkpt lat="46.74915" lon="6.35801">
        <ele>1334</ele>
        <time>2017-05-22T09:50:07.000Z</time>
      </trkpt>
      <trkpt lat="46.74917" lon="6.35801">
        <ele>1334</ele>
        <time>2017-05-22T09:50:09.000Z</time>
      </trkpt>
      <trkpt lat="46.74919" lon="6.35801">
        <ele>1334.549616978</ele>
        <time>2017-05-22T09:50:11.000Z</time>
      </trkpt>
      <trkpt lat="46.74921" lon="6.358">
        <ele>1335</ele>
        <time>2017-05-22T09:50:13.000Z</time>
      </trkpt>
      <trkpt lat="46.74923" lon="6.358">
        <ele>1335</ele>
        <time>2017-05-22T09:50:15.000Z</time>
      </trkpt>
      <trkpt lat="46.74925" lon="6.358">
        <ele>1335</ele>
        <time>2017-05-22T09:50:17.000Z</time>
      </trkpt>
      <trkpt lat="46.74927" lon="6.35801">
        <ele>1335</ele>
        <time>2017-05-22T09:50:19.000Z</time>
      </trkpt>
      <trkpt lat="46.74929" lon="6.35801">
        <ele>1335.72</ele>
        <time>2017-05-22T09:50:21.000Z</time>
      </trkpt>
      <trkpt lat="46.74931" lon="6.35801">
        <ele>1336.549616978</ele>
        <time>2017-05-22T09:50:24.000Z</time>
      </trkpt>
      <trkpt lat="46.74934" lon="6.358">
        <ele>1337</ele>
        <time>2017-05-22T09:50:27.000Z</time>
      </trkpt>
      <trkpt lat="46.74936" lon="6.35801">
        <ele>1337.72</ele>
        <time>2017-05-22T09:50:29.000Z</time>
      </trkpt>
      <trkpt lat="46.74938" lon="6.358">
        <ele>1338</ele>
        <time>2017-05-22T09:50:32.000Z</time>
      </trkpt>
      <trkpt lat="46.74938" lon="6.35798">
        <ele>1338</ele>
        <time>2017-05-22T09:50:35.000Z</time>
      </trkpt>
      <trkpt lat="46.74939" lon="6.35795">
        <ele>1338</ele>
        <time>2017-05-22T09:50:37.000Z</time>
      </trkpt>
      <trkpt lat="46.7494" lon="6.35792">
        <ele>1338.72</ele>
        <time>2017-05-22T09:50:39.000Z</time>
      </trkpt>
      <trkpt lat="46.74941" lon="6.35789">
        <ele>1339.705886782</ele>
        <time>2017-05-22T09:50:43.000Z</time>
      </trkpt>
      <trkpt lat="46.7494" lon="6.35786">
        <ele>1341</ele>
        <time>2017-05-22T09:50:49.000Z</time>
      </trkpt>
      <trkpt lat="46.74939" lon="6.35784">
        <ele>1340</ele>
        <time>2017-05-22T09:50:51.000Z</time>
      </trkpt>
      <trkpt lat="46.74938" lon="6.35781">
        <ele>1341</ele>
        <time>2017-05-22T09:50:53.000Z</time>
      </trkpt>
      <trkpt lat="46.74937" lon="6.35778">
        <ele>1341.72</ele>
        <time>2017-05-22T09:50:56.000Z</time>
      </trkpt>
      <trkpt lat="46.74935" lon="6.35776">
        <ele>1342</ele>
        <time>2017-05-22T09:50:59.000Z</time>
      </trkpt>
      <trkpt lat="46.74934" lon="6.35774">
        <ele>1342</ele>
        <time>2017-05-22T09:51:02.000Z</time>
      </trkpt>
      <trkpt lat="46.74932" lon="6.35771">
        <ele>1342</ele>
        <time>2017-05-22T09:51:05.000Z</time>
      </trkpt>
      <trkpt lat="46.74931" lon="6.35769">
        <ele>1342</ele>
        <time>2017-05-22T09:51:08.000Z</time>
      </trkpt>
      <trkpt lat="46.7493" lon="6.35767">
        <ele>1342</ele>
        <time>2017-05-22T09:51:11.000Z</time>
      </trkpt>
      <trkpt lat="46.74927" lon="6.35766">
        <ele>1343</ele>
        <time>2017-05-22T09:51:14.000Z</time>
      </trkpt>
      <trkpt lat="46.74925" lon="6.35765">
        <ele>1343</ele>
        <time>2017-05-22T09:51:17.000Z</time>
      </trkpt>
      <trkpt lat="46.74923" lon="6.35764">
        <ele>1343</ele>
        <time>2017-05-22T09:51:19.000Z</time>
      </trkpt>
      <trkpt lat="46.74921" lon="6.35762">
        <ele>1343</ele>
        <time>2017-05-22T09:51:22.000Z</time>
      </trkpt>
      <trkpt lat="46.74919" lon="6.35761">
        <ele>1344</ele>
        <time>2017-05-22T09:51:24.000Z</time>
      </trkpt>
      <trkpt lat="46.74917" lon="6.3576">
        <ele>1344</ele>
        <time>2017-05-22T09:51:27.000Z</time>
      </trkpt>
      <trkpt lat="46.74914" lon="6.35759">
        <ele>1344</ele>
        <time>2017-05-22T09:51:30.000Z</time>
      </trkpt>
      <trkpt lat="46.74913" lon="6.35758">
        <ele>1345</ele>
        <time>2017-05-22T09:51:32.000Z</time>
      </trkpt>
      <trkpt lat="46.7491" lon="6.35756">
        <ele>1344</ele>
        <time>2017-05-22T09:51:35.000Z</time>
      </trkpt>
      <trkpt lat="46.74908" lon="6.35755">
        <ele>1343</ele>
        <time>2017-05-22T09:51:38.000Z</time>
      </trkpt>
      <trkpt lat="46.74906" lon="6.35755">
        <ele>1343</ele>
        <time>2017-05-22T09:51:41.000Z</time>
      </trkpt>
      <trkpt lat="46.74904" lon="6.35753">
        <ele>1343</ele>
        <time>2017-05-22T09:51:43.000Z</time>
      </trkpt>
      <trkpt lat="46.74902" lon="6.35752">
        <ele>1343</ele>
        <time>2017-05-22T09:51:45.000Z</time>
      </trkpt>
      <trkpt lat="46.749" lon="6.35751">
        <ele>1343</ele>
        <time>2017-05-22T09:51:47.000Z</time>
      </trkpt>
      <trkpt lat="46.74899" lon="6.3575">
        <ele>1343</ele>
        <time>2017-05-22T09:51:49.000Z</time>
      </trkpt>
      <trkpt lat="46.74896" lon="6.35749">
        <ele>1343</ele>
        <time>2017-05-22T09:51:52.000Z</time>
      </trkpt>
      <trkpt lat="46.74894" lon="6.35748">
        <ele>1343</ele>
        <time>2017-05-22T09:51:54.000Z</time>
      </trkpt>
      <trkpt lat="46.74893" lon="6.35747">
        <ele>1344</ele>
        <time>2017-05-22T09:51:57.000Z</time>
      </trkpt>
      <trkpt lat="46.7489" lon="6.35745">
        <ele>1344.72</ele>
        <time>2017-05-22T09:52:00.000Z</time>
      </trkpt>
      <trkpt lat="46.74888" lon="6.35743">
        <ele>1345</ele>
        <time>2017-05-22T09:52:03.000Z</time>
      </trkpt>
      <trkpt lat="46.74887" lon="6.3574">
        <ele>1345</ele>
        <time>2017-05-22T09:52:06.000Z</time>
      </trkpt>
      <trkpt lat="46.74885" lon="6.35738">
        <ele>1345.72</ele>
        <time>2017-05-22T09:52:08.000Z</time>
      </trkpt>
      <trkpt lat="46.74883" lon="6.35736">
        <ele>1347</ele>
        <time>2017-05-22T09:52:10.000Z</time>
      </trkpt>
      <trkpt lat="46.74882" lon="6.35734">
        <ele>1347.72</ele>
        <time>2017-05-22T09:52:12.000Z</time>
      </trkpt>
      <trkpt lat="46.7488" lon="6.35731">
        <ele>1350.72</ele>
        <time>2017-05-22T09:52:14.000Z</time>
      </trkpt>
      <trkpt lat="46.74879" lon="6.35729">
        <ele>1351</ele>
        <time>2017-05-22T09:52:16.000Z</time>
      </trkpt>
      <trkpt lat="46.74877" lon="6.35728">
        <ele>1352.7058779239</ele>
        <time>2017-05-22T09:52:18.000Z</time>
      </trkpt>
      <trkpt lat="46.74876" lon="6.35726">
        <ele>1354</ele>
        <time>2017-05-22T09:52:20.000Z</time>
      </trkpt>
      <trkpt lat="46.74874" lon="6.35724">
        <ele>1354.72</ele>
        <time>2017-05-22T09:52:22.000Z</time>
      </trkpt>
      <trkpt lat="46.74873" lon="6.35722">
        <ele>1355.4311368984</ele>
        <time>2017-05-22T09:52:24.000Z</time>
      </trkpt>
      <trkpt lat="46.74871" lon="6.35721">
        <ele>1357</ele>
        <time>2017-05-22T09:52:26.000Z</time>
      </trkpt>
      <trkpt lat="46.74869" lon="6.35719">
        <ele>1357.72</ele>
        <time>2017-05-22T09:52:28.000Z</time>
      </trkpt>
      <trkpt lat="46.74868" lon="6.35717">
        <ele>1358.72</ele>
        <time>2017-05-22T09:52:31.000Z</time>
      </trkpt>
      <trkpt lat="46.74866" lon="6.35715">
        <ele>1360</ele>
        <time>2017-05-22T09:52:34.000Z</time>
      </trkpt>
      <trkpt lat="46.74864" lon="6.35714">
        <ele>1360</ele>
        <time>2017-05-22T09:52:37.000Z</time>
      </trkpt>
      <trkpt lat="46.74862" lon="6.35712">
        <ele>1360</ele>
        <time>2017-05-22T09:52:40.000Z</time>
      </trkpt>
      <trkpt lat="46.7486" lon="6.35711">
        <ele>1360</ele>
        <time>2017-05-22T09:52:43.000Z</time>
      </trkpt>
      <trkpt lat="46.74858" lon="6.35709">
        <ele>1360</ele>
        <time>2017-05-22T09:52:46.000Z</time>
      </trkpt>
      <trkpt lat="46.74857" lon="6.35708">
        <ele>1360</ele>
        <time>2017-05-22T09:52:49.000Z</time>
      </trkpt>
      <trkpt lat="46.74855" lon="6.35706">
        <ele>1359</ele>
        <time>2017-05-22T09:52:52.000Z</time>
      </trkpt>
      <trkpt lat="46.74853" lon="6.35705">
        <ele>1358</ele>
        <time>2017-05-22T09:52:55.000Z</time>
      </trkpt>
      <trkpt lat="46.74852" lon="6.35704">
        <ele>1358</ele>
        <time>2017-05-22T09:52:58.000Z</time>
      </trkpt>
      <trkpt lat="46.7485" lon="6.35703">
        <ele>1357.28</ele>
        <time>2017-05-22T09:53:01.000Z</time>
      </trkpt>
      <trkpt lat="46.74848" lon="6.35702">
        <ele>1357</ele>
        <time>2017-05-22T09:53:05.000Z</time>
      </trkpt>
      <trkpt lat="46.74846" lon="6.35701">
        <ele>1356</ele>
        <time>2017-05-22T09:53:09.000Z</time>
      </trkpt>
      <trkpt lat="46.74844" lon="6.35702">
        <ele>1356</ele>
        <time>2017-05-22T09:53:12.000Z</time>
      </trkpt>
      <trkpt lat="46.74842" lon="6.35703">
        <ele>1355</ele>
        <time>2017-05-22T09:53:15.000Z</time>
      </trkpt>
      <trkpt lat="46.7484" lon="6.35704">
        <ele>1355</ele>
        <time>2017-05-22T09:53:17.000Z</time>
      </trkpt>
      <trkpt lat="46.74838" lon="6.35705">
        <ele>1355</ele>
        <time>2017-05-22T09:53:20.000Z</time>
      </trkpt>
      <trkpt lat="46.74836" lon="6.35707">
        <ele>1355</ele>
        <time>2017-05-22T09:53:23.000Z</time>
      </trkpt>
      <trkpt lat="46.74834" lon="6.35708">
        <ele>1355</ele>
        <time>2017-05-22T09:53:26.000Z</time>
      </trkpt>
      <trkpt lat="46.74832" lon="6.35709">
        <ele>1354.28</ele>
        <time>2017-05-22T09:53:28.000Z</time>
      </trkpt>
      <trkpt lat="46.7483" lon="6.35711">
        <ele>1357</ele>
        <time>2017-05-22T09:53:34.000Z</time>
      </trkpt>
      <trkpt lat="46.74828" lon="6.35713">
        <ele>1358.5454545454</ele>
        <time>2017-05-22T09:53:37.000Z</time>
      </trkpt>
      <trkpt lat="46.74826" lon="6.35715">
        <ele>1360</ele>
        <time>2017-05-22T09:53:39.000Z</time>
      </trkpt>
      <trkpt lat="46.74824" lon="6.35716">
        <ele>1360.5882352941</ele>
        <time>2017-05-22T09:53:41.000Z</time>
      </trkpt>
      <trkpt lat="46.74822" lon="6.35717">
        <ele>1361</ele>
        <time>2017-05-22T09:53:43.000Z</time>
      </trkpt>
      <trkpt lat="46.7482" lon="6.35719">
        <ele>1361</ele>
        <time>2017-05-22T09:53:45.000Z</time>
      </trkpt>
      <trkpt lat="46.74818" lon="6.3572">
        <ele>1361.72</ele>
        <time>2017-05-22T09:53:47.000Z</time>
      </trkpt>
      <trkpt lat="46.74816" lon="6.35722">
        <ele>1362</ele>
        <time>2017-05-22T09:53:49.000Z</time>
      </trkpt>
      <trkpt lat="46.74815" lon="6.35723">
        <ele>1362</ele>
        <time>2017-05-22T09:53:51.000Z</time>
      </trkpt>
      <trkpt lat="46.74813" lon="6.35726">
        <ele>1362</ele>
        <time>2017-05-22T09:53:53.000Z</time>
      </trkpt>
      <trkpt lat="46.74811" lon="6.35727">
        <ele>1363</ele>
        <time>2017-05-22T09:53:55.000Z</time>
      </trkpt>
      <trkpt lat="46.74809" lon="6.35729">
        <ele>1364</ele>
        <time>2017-05-22T09:53:57.000Z</time>
      </trkpt>
      <trkpt lat="46.74808" lon="6.35732">
        <ele>1365</ele>
        <time>2017-05-22T09:53:59.000Z</time>
      </trkpt>
      <trkpt lat="46.74806" lon="6.35734">
        <ele>1365</ele>
        <time>2017-05-22T09:54:01.000Z</time>
      </trkpt>
      <trkpt lat="46.74805" lon="6.35736">
        <ele>1366.72</ele>
        <time>2017-05-22T09:54:03.000Z</time>
      </trkpt>
      <trkpt lat="46.74803" lon="6.35738">
        <ele>1367</ele>
        <time>2017-05-22T09:54:05.000Z</time>
      </trkpt>
      <trkpt lat="46.74801" lon="6.3574">
        <ele>1368.72</ele>
        <time>2017-05-22T09:54:07.000Z</time>
      </trkpt>
      <trkpt lat="46.748" lon="6.35742">
        <ele>1369</ele>
        <time>2017-05-22T09:54:09.000Z</time>
      </trkpt>
      <trkpt lat="46.74798" lon="6.35744">
        <ele>1369</ele>
        <time>2017-05-22T09:54:11.000Z</time>
      </trkpt>
      <trkpt lat="46.74796" lon="6.35746">
        <ele>1369</ele>
        <time>2017-05-22T09:54:13.000Z</time>
      </trkpt>
      <trkpt lat="46.74794" lon="6.35748">
        <ele>1369</ele>
        <time>2017-05-22T09:54:15.000Z</time>
      </trkpt>
      <trkpt lat="46.74792" lon="6.3575">
        <ele>1370</ele>
        <time>2017-05-22T09:54:17.000Z</time>
      </trkpt>
      <trkpt lat="46.7479" lon="6.35751">
        <ele>1371.5942010166</ele>
        <time>2017-05-22T09:54:19.000Z</time>
      </trkpt>
      <trkpt lat="46.74788" lon="6.35753">
        <ele>1374.5454545454</ele>
        <time>2017-05-22T09:54:21.000Z</time>
      </trkpt>
      <trkpt lat="46.74786" lon="6.35754">
        <ele>1377.72</ele>
        <time>2017-05-22T09:54:23.000Z</time>
      </trkpt>
      <trkpt lat="46.74784" lon="6.35756">
        <ele>1378.72</ele>
        <time>2017-05-22T09:54:25.000Z</time>
      </trkpt>
      <trkpt lat="46.74782" lon="6.35757">
        <ele>1380</ele>
        <time>2017-05-22T09:54:27.000Z</time>
      </trkpt>
      <trkpt lat="46.7478" lon="6.35758">
        <ele>1381.6990269545</ele>
        <time>2017-05-22T09:54:29.000Z</time>
      </trkpt>
      <trkpt lat="46.74778" lon="6.35758">
        <ele>1383</ele>
        <time>2017-05-22T09:54:31.000Z</time>
      </trkpt>
      <trkpt lat="46.74776" lon="6.35758">
        <ele>1383</ele>
        <time>2017-05-22T09:54:33.000Z</time>
      </trkpt>
      <trkpt lat="46.74773" lon="6.35758">
        <ele>1384</ele>
        <time>2017-05-22T09:54:35.000Z</time>
      </trkpt>
      <trkpt lat="46.74771" lon="6.35759">
        <ele>1384</ele>
        <time>2017-05-22T09:54:37.000Z</time>
      </trkpt>
      <trkpt lat="46.74769" lon="6.35758">
        <ele>1384</ele>
        <time>2017-05-22T09:54:39.000Z</time>
      </trkpt>
      <trkpt lat="46.74767" lon="6.35759">
        <ele>1384</ele>
        <time>2017-05-22T09:54:41.000Z</time>
      </trkpt>
      <trkpt lat="46.74765" lon="6.35758">
        <ele>1384</ele>
        <time>2017-05-22T09:54:43.000Z</time>
      </trkpt>
      <trkpt lat="46.74763" lon="6.35758">
        <ele>1384</ele>
        <time>2017-05-22T09:54:45.000Z</time>
      </trkpt>
      <trkpt lat="46.74761" lon="6.35759">
        <ele>1384</ele>
        <time>2017-05-22T09:54:47.000Z</time>
      </trkpt>
      <trkpt lat="46.74759" lon="6.35759">
        <ele>1384</ele>
        <time>2017-05-22T09:54:49.000Z</time>
      </trkpt>
      <trkpt lat="46.74756" lon="6.35759">
        <ele>1385</ele>
        <time>2017-05-22T09:54:51.000Z</time>
      </trkpt>
      <trkpt lat="46.74754" lon="6.35759">
        <ele>1385</ele>
        <time>2017-05-22T09:54:53.000Z</time>
      </trkpt>
      <trkpt lat="46.74752" lon="6.35758">
        <ele>1385</ele>
        <time>2017-05-22T09:54:55.000Z</time>
      </trkpt>
      <trkpt lat="46.7475" lon="6.35758">
        <ele>1385</ele>
        <time>2017-05-22T09:54:57.000Z</time>
      </trkpt>
      <trkpt lat="46.74748" lon="6.35757">
        <ele>1385</ele>
        <time>2017-05-22T09:54:59.000Z</time>
      </trkpt>
      <trkpt lat="46.74746" lon="6.35757">
        <ele>1384.28</ele>
        <time>2017-05-22T09:55:01.000Z</time>
      </trkpt>
      <trkpt lat="46.74744" lon="6.35757">
        <ele>1383.28</ele>
        <time>2017-05-22T09:55:03.000Z</time>
      </trkpt>
      <trkpt lat="46.74741" lon="6.35756">
        <ele>1383</ele>
        <time>2017-05-22T09:55:05.000Z</time>
      </trkpt>
      <trkpt lat="46.74739" lon="6.35756">
        <ele>1382.450383022</ele>
        <time>2017-05-22T09:55:07.000Z</time>
      </trkpt>
      <trkpt lat="46.74737" lon="6.35755">
        <ele>1382</ele>
        <time>2017-05-22T09:55:09.000Z</time>
      </trkpt>
      <trkpt lat="46.74735" lon="6.35754">
        <ele>1382</ele>
        <time>2017-05-22T09:55:11.000Z</time>
      </trkpt>
      <trkpt lat="46.74733" lon="6.35754">
        <ele>1381.28</ele>
        <time>2017-05-22T09:55:13.000Z</time>
      </trkpt>
      <trkpt lat="46.74731" lon="6.35753">
        <ele>1380</ele>
        <time>2017-05-22T09:55:15.000Z</time>
      </trkpt>
      <trkpt lat="46.74729" lon="6.35751">
        <ele>1380</ele>
        <time>2017-05-22T09:55:17.000Z</time>
      </trkpt>
      <trkpt lat="46.74727" lon="6.35751">
        <ele>1379.28</ele>
        <time>2017-05-22T09:55:19.000Z</time>
      </trkpt>
      <trkpt lat="46.74726" lon="6.3575">
        <ele>1379</ele>
        <time>2017-05-22T09:55:21.000Z</time>
      </trkpt>
      <trkpt lat="46.74724" lon="6.35747">
        <ele>1381</ele>
        <time>2017-05-22T09:55:36.000Z</time>
      </trkpt>
      <trkpt lat="46.74722" lon="6.35747">
        <ele>1381</ele>
        <time>2017-05-22T09:55:38.000Z</time>
      </trkpt>
      <trkpt lat="46.74721" lon="6.35745">
        <ele>1380.28</ele>
        <time>2017-05-22T09:55:40.000Z</time>
      </trkpt>
      <trkpt lat="46.74719" lon="6.35745">
        <ele>1379.28</ele>
        <time>2017-05-22T09:55:42.000Z</time>
      </trkpt>
      <trkpt lat="46.74717" lon="6.35744">
        <ele>1378.3009730455</ele>
        <time>2017-05-22T09:55:44.000Z</time>
      </trkpt>
      <trkpt lat="46.74715" lon="6.35742">
        <ele>1376.56</ele>
        <time>2017-05-22T09:55:46.000Z</time>
      </trkpt>
      <trkpt lat="46.74712" lon="6.35741">
        <ele>1374.28</ele>
        <time>2017-05-22T09:55:48.000Z</time>
      </trkpt>
      <trkpt lat="46.74711" lon="6.35739">
        <ele>1372.28</ele>
        <time>2017-05-22T09:55:50.000Z</time>
      </trkpt>
      <trkpt lat="46.74709" lon="6.35736">
        <ele>1371</ele>
        <time>2017-05-22T09:55:52.000Z</time>
      </trkpt>
      <trkpt lat="46.74707" lon="6.35734">
        <ele>1369.4057989834</ele>
        <time>2017-05-22T09:55:54.000Z</time>
      </trkpt>
      <trkpt lat="46.74705" lon="6.35732">
        <ele>1368.28</ele>
        <time>2017-05-22T09:55:56.000Z</time>
      </trkpt>
      <trkpt lat="46.74703" lon="6.3573">
        <ele>1366.28</ele>
        <time>2017-05-22T09:55:58.000Z</time>
      </trkpt>
      <trkpt lat="46.74702" lon="6.35728">
        <ele>1365</ele>
        <time>2017-05-22T09:56:00.000Z</time>
      </trkpt>
      <trkpt lat="46.747" lon="6.35726">
        <ele>1363</ele>
        <time>2017-05-22T09:56:02.000Z</time>
      </trkpt>
      <trkpt lat="46.74699" lon="6.35723">
        <ele>1362</ele>
        <time>2017-05-22T09:56:04.000Z</time>
      </trkpt>
      <trkpt lat="46.74697" lon="6.35721">
        <ele>1361.4626891334</ele>
        <time>2017-05-22T09:56:06.000Z</time>
      </trkpt>
      <trkpt lat="46.74695" lon="6.35718">
        <ele>1360</ele>
        <time>2017-05-22T09:56:08.000Z</time>
      </trkpt>
      <trkpt lat="46.74694" lon="6.35715">
        <ele>1359</ele>
        <time>2017-05-22T09:56:10.000Z</time>
      </trkpt>
      <trkpt lat="46.74692" lon="6.35713">
        <ele>1359</ele>
        <time>2017-05-22T09:56:12.000Z</time>
      </trkpt>
      <trkpt lat="46.74691" lon="6.35709">
        <ele>1359</ele>
        <time>2017-05-22T09:56:14.000Z</time>
      </trkpt>
      <trkpt lat="46.7469" lon="6.35706">
        <ele>1358</ele>
        <time>2017-05-22T09:56:16.000Z</time>
      </trkpt>
      <trkpt lat="46.74689" lon="6.35702">
        <ele>1356.28</ele>
        <time>2017-05-22T09:56:18.000Z</time>
      </trkpt>
      <trkpt lat="46.74689" lon="6.35699">
        <ele>1355.28</ele>
        <time>2017-05-22T09:56:20.000Z</time>
      </trkpt>
      <trkpt lat="46.74688" lon="6.35695">
        <ele>1354</ele>
        <time>2017-05-22T09:56:22.000Z</time>
      </trkpt>
      <trkpt lat="46.74687" lon="6.35692">
        <ele>1353.28</ele>
        <time>2017-05-22T09:56:24.000Z</time>
      </trkpt>
      <trkpt lat="46.74687" lon="6.35688">
        <ele>1353</ele>
        <time>2017-05-22T09:56:26.000Z</time>
      </trkpt>
      <trkpt lat="46.74687" lon="6.35684">
        <ele>1352</ele>
        <time>2017-05-22T09:56:28.000Z</time>
      </trkpt>
      <trkpt lat="46.74686" lon="6.35681">
        <ele>1351</ele>
        <time>2017-05-22T09:56:30.000Z</time>
      </trkpt>
      <trkpt lat="46.74686" lon="6.35678">
        <ele>1351</ele>
        <time>2017-05-22T09:56:32.000Z</time>
      </trkpt>
      <trkpt lat="46.74686" lon="6.35674">
        <ele>1351</ele>
        <time>2017-05-22T09:56:34.000Z</time>
      </trkpt>
      <trkpt lat="46.74686" lon="6.35671">
        <ele>1351</ele>
        <time>2017-05-22T09:56:36.000Z</time>
      </trkpt>
      <trkpt lat="46.74686" lon="6.35668">
        <ele>1350.4057989834</ele>
        <time>2017-05-22T09:56:38.000Z</time>
      </trkpt>
      <trkpt lat="46.74686" lon="6.35665">
        <ele>1350</ele>
        <time>2017-05-22T09:56:40.000Z</time>
      </trkpt>
      <trkpt lat="46.74686" lon="6.35661">
        <ele>1350</ele>
        <time>2017-05-22T09:56:42.000Z</time>
      </trkpt>
      <trkpt lat="46.74686" lon="6.35658">
        <ele>1350</ele>
        <time>2017-05-22T09:56:44.000Z</time>
      </trkpt>
      <trkpt lat="46.74686" lon="6.35655">
        <ele>1350</ele>
        <time>2017-05-22T09:56:46.000Z</time>
      </trkpt>
      <trkpt lat="46.74686" lon="6.35652">
        <ele>1350</ele>
        <time>2017-05-22T09:56:48.000Z</time>
      </trkpt>
      <trkpt lat="46.74687" lon="6.35648">
        <ele>1350</ele>
        <time>2017-05-22T09:56:50.000Z</time>
      </trkpt>
      <trkpt lat="46.74688" lon="6.35645">
        <ele>1351</ele>
        <time>2017-05-22T09:56:52.000Z</time>
      </trkpt>
      <trkpt lat="46.74689" lon="6.35642">
        <ele>1351</ele>
        <time>2017-05-22T09:56:55.000Z</time>
      </trkpt>
      <trkpt lat="46.7469" lon="6.35639">
        <ele>1352</ele>
        <time>2017-05-22T09:56:57.000Z</time>
      </trkpt>
      <trkpt lat="46.74691" lon="6.35637">
        <ele>1352</ele>
        <time>2017-05-22T09:56:59.000Z</time>
      </trkpt>
      <trkpt lat="46.74692" lon="6.35634">
        <ele>1353</ele>
        <time>2017-05-22T09:57:02.000Z</time>
      </trkpt>
      <trkpt lat="46.74692" lon="6.35631">
        <ele>1354</ele>
        <time>2017-05-22T09:57:06.000Z</time>
      </trkpt>
      <trkpt lat="46.74693" lon="6.35634">
        <ele>1354</ele>
        <time>2017-05-22T09:57:26.000Z</time>
      </trkpt>
      <trkpt lat="46.74695" lon="6.35631">
        <ele>1353.4057989834</ele>
        <time>2017-05-22T09:57:29.000Z</time>
      </trkpt>
      <trkpt lat="46.74696" lon="6.3563">
        <ele>1353</ele>
        <time>2017-05-22T09:57:31.000Z</time>
      </trkpt>
      <trkpt lat="46.74698" lon="6.35628">
        <ele>1352.28</ele>
        <time>2017-05-22T09:57:33.000Z</time>
      </trkpt>
      <trkpt lat="46.74701" lon="6.35627">
        <ele>1352.72</ele>
        <time>2017-05-22T09:57:35.000Z</time>
      </trkpt>
      <trkpt lat="46.74702" lon="6.35625">
        <ele>1353</ele>
        <time>2017-05-22T09:57:37.000Z</time>
      </trkpt>
      <trkpt lat="46.74704" lon="6.35623">
        <ele>1353</ele>
        <time>2017-05-22T09:57:40.000Z</time>
      </trkpt>
      <trkpt lat="46.74706" lon="6.35623">
        <ele>1352</ele>
        <time>2017-05-22T09:57:42.000Z</time>
      </trkpt>
      <trkpt lat="46.74708" lon="6.35622">
        <ele>1352</ele>
        <time>2017-05-22T09:57:44.000Z</time>
      </trkpt>
      <trkpt lat="46.7471" lon="6.35621">
        <ele>1352</ele>
        <time>2017-05-22T09:57:47.000Z</time>
      </trkpt>
      <trkpt lat="46.74713" lon="6.3562">
        <ele>1352</ele>
        <time>2017-05-22T09:57:49.000Z</time>
      </trkpt>
      <trkpt lat="46.74715" lon="6.3562">
        <ele>1352.72</ele>
        <time>2017-05-22T09:57:51.000Z</time>
      </trkpt>
      <trkpt lat="46.74717" lon="6.35619">
        <ele>1354.72</ele>
        <time>2017-05-22T09:57:53.000Z</time>
      </trkpt>
      <trkpt lat="46.74719" lon="6.35619">
        <ele>1356</ele>
        <time>2017-05-22T09:57:55.000Z</time>
      </trkpt>
      <trkpt lat="46.74722" lon="6.35619">
        <ele>1357.72</ele>
        <time>2017-05-22T09:57:57.000Z</time>
      </trkpt>
      <trkpt lat="46.74724" lon="6.35619">
        <ele>1359</ele>
        <time>2017-05-22T09:57:59.000Z</time>
      </trkpt>
      <trkpt lat="46.74726" lon="6.35618">
        <ele>1359</ele>
        <time>2017-05-22T09:58:01.000Z</time>
      </trkpt>
      <trkpt lat="46.74728" lon="6.35617">
        <ele>1361</ele>
        <time>2017-05-22T09:58:03.000Z</time>
      </trkpt>
      <trkpt lat="46.74731" lon="6.35617">
        <ele>1361.72</ele>
        <time>2017-05-22T09:58:05.000Z</time>
      </trkpt>
      <trkpt lat="46.74733" lon="6.35617">
        <ele>1363</ele>
        <time>2017-05-22T09:58:07.000Z</time>
      </trkpt>
      <trkpt lat="46.74735" lon="6.35616">
        <ele>1363</ele>
        <time>2017-05-22T09:58:09.000Z</time>
      </trkpt>
      <trkpt lat="46.74738" lon="6.35615">
        <ele>1364</ele>
        <time>2017-05-22T09:58:11.000Z</time>
      </trkpt>
      <trkpt lat="46.7474" lon="6.35615">
        <ele>1364</ele>
        <time>2017-05-22T09:58:13.000Z</time>
      </trkpt>
      <trkpt lat="46.74742" lon="6.35614">
        <ele>1364</ele>
        <time>2017-05-22T09:58:15.000Z</time>
      </trkpt>
      <trkpt lat="46.74744" lon="6.35613">
        <ele>1364</ele>
        <time>2017-05-22T09:58:17.000Z</time>
      </trkpt>
      <trkpt lat="46.74747" lon="6.35612">
        <ele>1364.705886782</ele>
        <time>2017-05-22T09:58:19.000Z</time>
      </trkpt>
      <trkpt lat="46.74749" lon="6.35611">
        <ele>1366</ele>
        <time>2017-05-22T09:58:21.000Z</time>
      </trkpt>
      <trkpt lat="46.74751" lon="6.3561">
        <ele>1367.72</ele>
        <time>2017-05-22T09:58:23.000Z</time>
      </trkpt>
      <trkpt lat="46.74753" lon="6.35608">
        <ele>1369</ele>
        <time>2017-05-22T09:58:25.000Z</time>
      </trkpt>
      <trkpt lat="46.74755" lon="6.35607">
        <ele>1369</ele>
        <time>2017-05-22T09:58:27.000Z</time>
      </trkpt>
      <trkpt lat="46.74757" lon="6.35606">
        <ele>1373.44</ele>
        <time>2017-05-22T09:58:31.000Z</time>
      </trkpt>
      <trkpt lat="46.7476" lon="6.35604">
        <ele>1375</ele>
        <time>2017-05-22T09:58:33.000Z</time>
      </trkpt>
      <trkpt lat="46.74762" lon="6.35601">
        <ele>1377.6990269545</ele>
        <time>2017-05-22T09:58:35.000Z</time>
      </trkpt>
      <trkpt lat="46.74765" lon="6.35599">
        <ele>1379</ele>
        <time>2017-05-22T09:58:37.000Z</time>
      </trkpt>
      <trkpt lat="46.74767" lon="6.35597">
        <ele>1380.72</ele>
        <time>2017-05-22T09:58:39.000Z</time>
      </trkpt>
      <trkpt lat="46.74768" lon="6.35595">
        <ele>1381.72</ele>
        <time>2017-05-22T09:58:41.000Z</time>
      </trkpt>
      <trkpt lat="46.74771" lon="6.35593">
        <ele>1382</ele>
        <time>2017-05-22T09:58:43.000Z</time>
      </trkpt>
      <trkpt lat="46.74773" lon="6.3559">
        <ele>1383</ele>
        <time>2017-05-22T09:58:45.000Z</time>
      </trkpt>
      <trkpt lat="46.74774" lon="6.35588">
        <ele>1383.72</ele>
        <time>2017-05-22T09:58:47.000Z</time>
      </trkpt>
      <trkpt lat="46.74776" lon="6.35586">
        <ele>1384</ele>
        <time>2017-05-22T09:58:49.000Z</time>
      </trkpt>
      <trkpt lat="46.74778" lon="6.35584">
        <ele>1384</ele>
        <time>2017-05-22T09:58:51.000Z</time>
      </trkpt>
      <trkpt lat="46.74779" lon="6.35581">
        <ele>1384</ele>
        <time>2017-05-22T09:58:53.000Z</time>
      </trkpt>
      <trkpt lat="46.74781" lon="6.35578">
        <ele>1384</ele>
        <time>2017-05-22T09:58:55.000Z</time>
      </trkpt>
      <trkpt lat="46.74783" lon="6.35576">
        <ele>1383.294113218</ele>
        <time>2017-05-22T09:58:57.000Z</time>
      </trkpt>
      <trkpt lat="46.74784" lon="6.35573">
        <ele>1383</ele>
        <time>2017-05-22T09:58:59.000Z</time>
      </trkpt>
      <trkpt lat="46.74786" lon="6.35571">
        <ele>1383.72</ele>
        <time>2017-05-22T09:59:01.000Z</time>
      </trkpt>
      <trkpt lat="46.74787" lon="6.35568">
        <ele>1384</ele>
        <time>2017-05-22T09:59:03.000Z</time>
      </trkpt>
      <trkpt lat="46.74789" lon="6.35566">
        <ele>1385</ele>
        <time>2017-05-22T09:59:05.000Z</time>
      </trkpt>
      <trkpt lat="46.74791" lon="6.35564">
        <ele>1385</ele>
        <time>2017-05-22T09:59:07.000Z</time>
      </trkpt>
      <trkpt lat="46.74792" lon="6.35562">
        <ele>1386</ele>
        <time>2017-05-22T09:59:09.000Z</time>
      </trkpt>
      <trkpt lat="46.74794" lon="6.35559">
        <ele>1386.72</ele>
        <time>2017-05-22T09:59:11.000Z</time>
      </trkpt>
      <trkpt lat="46.74795" lon="6.35557">
        <ele>1388.72</ele>
        <time>2017-05-22T09:59:13.000Z</time>
      </trkpt>
      <trkpt lat="46.74796" lon="6.35555">
        <ele>1390</ele>
        <time>2017-05-22T09:59:15.000Z</time>
      </trkpt>
      <trkpt lat="46.74798" lon="6.35552">
        <ele>1391</ele>
        <time>2017-05-22T09:59:17.000Z</time>
      </trkpt>
      <trkpt lat="46.748" lon="6.3555">
        <ele>1392</ele>
        <time>2017-05-22T09:59:19.000Z</time>
      </trkpt>
      <trkpt lat="46.74801" lon="6.35547">
        <ele>1393</ele>
        <time>2017-05-22T09:59:21.000Z</time>
      </trkpt>
      <trkpt lat="46.74803" lon="6.35545">
        <ele>1394</ele>
        <time>2017-05-22T09:59:23.000Z</time>
      </trkpt>
      <trkpt lat="46.74805" lon="6.35542">
        <ele>1394</ele>
        <time>2017-05-22T09:59:25.000Z</time>
      </trkpt>
      <trkpt lat="46.74807" lon="6.35539">
        <ele>1394.72</ele>
        <time>2017-05-22T09:59:27.000Z</time>
      </trkpt>
      <trkpt lat="46.74808" lon="6.35537">
        <ele>1395</ele>
        <time>2017-05-22T09:59:29.000Z</time>
      </trkpt>
      <trkpt lat="46.7481" lon="6.35534">
        <ele>1395</ele>
        <time>2017-05-22T09:59:31.000Z</time>
      </trkpt>
      <trkpt lat="46.74812" lon="6.35532">
        <ele>1395</ele>
        <time>2017-05-22T09:59:33.000Z</time>
      </trkpt>
      <trkpt lat="46.74813" lon="6.3553">
        <ele>1396</ele>
        <time>2017-05-22T09:59:35.000Z</time>
      </trkpt>
      <trkpt lat="46.74815" lon="6.35528">
        <ele>1397</ele>
        <time>2017-05-22T09:59:37.000Z</time>
      </trkpt>
      <trkpt lat="46.74817" lon="6.35526">
        <ele>1398</ele>
        <time>2017-05-22T09:59:39.000Z</time>
      </trkpt>
      <trkpt lat="46.74819" lon="6.35525">
        <ele>1399</ele>
        <time>2017-05-22T09:59:41.000Z</time>
      </trkpt>
      <trkpt lat="46.74822" lon="6.35523">
        <ele>1399</ele>
        <time>2017-05-22T09:59:43.000Z</time>
      </trkpt>
      <trkpt lat="46.74824" lon="6.35523">
        <ele>1399</ele>
        <time>2017-05-22T09:59:45.000Z</time>
      </trkpt>
      <trkpt lat="46.74827" lon="6.35523">
        <ele>1400</ele>
        <time>2017-05-22T09:59:47.000Z</time>
      </trkpt>
      <trkpt lat="46.74829" lon="6.35524">
        <ele>1401.72</ele>
        <time>2017-05-22T09:59:49.000Z</time>
      </trkpt>
      <trkpt lat="46.74831" lon="6.35524">
        <ele>1403.72</ele>
        <time>2017-05-22T09:59:51.000Z</time>
      </trkpt>
      <trkpt lat="46.74833" lon="6.35524">
        <ele>1375.92</ele>
        <time>2017-05-22T09:59:53.000Z</time>
      </trkpt>
      <trkpt lat="46.74836" lon="6.35525">
        <ele>1368.28</ele>
        <time>2017-05-22T09:59:55.000Z</time>
      </trkpt>
      <trkpt lat="46.74838" lon="6.35526">
        <ele>1367</ele>
        <time>2017-05-22T09:59:57.000Z</time>
      </trkpt>
      <trkpt lat="46.7484" lon="6.35528">
        <ele>1366</ele>
        <time>2017-05-22T09:59:59.000Z</time>
      </trkpt>
      <trkpt lat="46.74842" lon="6.35529">
        <ele>1366</ele>
        <time>2017-05-22T10:00:01.000Z</time>
      </trkpt>
      <trkpt lat="46.74844" lon="6.35531">
        <ele>1363.28</ele>
        <time>2017-05-22T10:00:03.000Z</time>
      </trkpt>
      <trkpt lat="46.74846" lon="6.35533">
        <ele>1363.72</ele>
        <time>2017-05-22T10:00:05.000Z</time>
      </trkpt>
      <trkpt lat="46.74848" lon="6.35535">
        <ele>1364.549616978</ele>
        <time>2017-05-22T10:00:07.000Z</time>
      </trkpt>
      <trkpt lat="46.7485" lon="6.35537">
        <ele>1365</ele>
        <time>2017-05-22T10:00:09.000Z</time>
      </trkpt>
      <trkpt lat="46.74852" lon="6.3554">
        <ele>1365</ele>
        <time>2017-05-22T10:00:11.000Z</time>
      </trkpt>
      <trkpt lat="46.74853" lon="6.35542">
        <ele>1365</ele>
        <time>2017-05-22T10:00:13.000Z</time>
      </trkpt>
      <trkpt lat="46.74855" lon="6.35544">
        <ele>1365</ele>
        <time>2017-05-22T10:00:15.000Z</time>
      </trkpt>
      <trkpt lat="46.74857" lon="6.35546">
        <ele>1366</ele>
        <time>2017-05-22T10:00:17.000Z</time>
      </trkpt>
      <trkpt lat="46.74859" lon="6.35548">
        <ele>1366</ele>
        <time>2017-05-22T10:00:19.000Z</time>
      </trkpt>
      <trkpt lat="46.74861" lon="6.3555">
        <ele>1366</ele>
        <time>2017-05-22T10:00:21.000Z</time>
      </trkpt>
      <trkpt lat="46.74862" lon="6.35552">
        <ele>1365</ele>
        <time>2017-05-22T10:00:23.000Z</time>
      </trkpt>
      <trkpt lat="46.74864" lon="6.35554">
        <ele>1365</ele>
        <time>2017-05-22T10:00:25.000Z</time>
      </trkpt>
      <trkpt lat="46.74866" lon="6.35556">
        <ele>1365</ele>
        <time>2017-05-22T10:00:27.000Z</time>
      </trkpt>
      <trkpt lat="46.74868" lon="6.35559">
        <ele>1365</ele>
        <time>2017-05-22T10:00:29.000Z</time>
      </trkpt>
      <trkpt lat="46.74869" lon="6.35561">
        <ele>1365</ele>
        <time>2017-05-22T10:00:31.000Z</time>
      </trkpt>
      <trkpt lat="46.74871" lon="6.35562">
        <ele>1365</ele>
        <time>2017-05-22T10:00:33.000Z</time>
      </trkpt>
      <trkpt lat="46.74873" lon="6.35564">
        <ele>1365</ele>
        <time>2017-05-22T10:00:35.000Z</time>
      </trkpt>
      <trkpt lat="46.74875" lon="6.35566">
        <ele>1366</ele>
        <time>2017-05-22T10:00:38.000Z</time>
      </trkpt>
      <trkpt lat="46.74877" lon="6.35568">
        <ele>1366</ele>
        <time>2017-05-22T10:00:41.000Z</time>
      </trkpt>
      <trkpt lat="46.74878" lon="6.3557">
        <ele>1366</ele>
        <time>2017-05-22T10:00:44.000Z</time>
      </trkpt>
      <trkpt lat="46.7488" lon="6.35572">
        <ele>1366</ele>
        <time>2017-05-22T10:00:46.000Z</time>
      </trkpt>
      <trkpt lat="46.74882" lon="6.35574">
        <ele>1365.72</ele>
        <time>2017-05-22T10:00:49.000Z</time>
      </trkpt>
      <trkpt lat="46.74884" lon="6.35576">
        <ele>1366</ele>
        <time>2017-05-22T10:00:52.000Z</time>
      </trkpt>
      <trkpt lat="46.74887" lon="6.35577">
        <ele>1366</ele>
        <time>2017-05-22T10:00:55.000Z</time>
      </trkpt>
      <trkpt lat="46.74889" lon="6.35579">
        <ele>1367</ele>
        <time>2017-05-22T10:00:58.000Z</time>
      </trkpt>
      <trkpt lat="46.74891" lon="6.35581">
        <ele>1367</ele>
        <time>2017-05-22T10:01:01.000Z</time>
      </trkpt>
      <trkpt lat="46.74893" lon="6.35583">
        <ele>1367</ele>
        <time>2017-05-22T10:01:04.000Z</time>
      </trkpt>
      <trkpt lat="46.74895" lon="6.35583">
        <ele>1367</ele>
        <time>2017-05-22T10:01:07.000Z</time>
      </trkpt>
      <trkpt lat="46.74897" lon="6.35583">
        <ele>1367</ele>
        <time>2017-05-22T10:01:10.000Z</time>
      </trkpt>
      <trkpt lat="46.74899" lon="6.35582">
        <ele>1367</ele>
        <time>2017-05-22T10:01:13.000Z</time>
      </trkpt>
      <trkpt lat="46.74901" lon="6.35581">
        <ele>1368</ele>
        <time>2017-05-22T10:01:16.000Z</time>
      </trkpt>
      <trkpt lat="46.74902" lon="6.35582">
        <ele>1369</ele>
        <time>2017-05-22T10:01:18.000Z</time>
      </trkpt>
      <trkpt lat="46.74904" lon="6.35585">
        <ele>1369</ele>
        <time>2017-05-22T10:01:21.000Z</time>
      </trkpt>
      <trkpt lat="46.74906" lon="6.35587">
        <ele>1369</ele>
        <time>2017-05-22T10:01:23.000Z</time>
      </trkpt>
      <trkpt lat="46.74908" lon="6.35588">
        <ele>1369</ele>
        <time>2017-05-22T10:01:25.000Z</time>
      </trkpt>
      <trkpt lat="46.7491" lon="6.35589">
        <ele>1369</ele>
        <time>2017-05-22T10:01:28.000Z</time>
      </trkpt>
      <trkpt lat="46.74912" lon="6.35589">
        <ele>1368</ele>
        <time>2017-05-22T10:01:46.000Z</time>
      </trkpt>
      <trkpt lat="46.74915" lon="6.35589">
        <ele>1368</ele>
        <time>2017-05-22T10:01:48.000Z</time>
      </trkpt>
      <trkpt lat="46.74917" lon="6.35589">
        <ele>1368</ele>
        <time>2017-05-22T10:01:50.000Z</time>
      </trkpt>
      <trkpt lat="46.74919" lon="6.35588">
        <ele>1368</ele>
        <time>2017-05-22T10:01:52.000Z</time>
      </trkpt>
      <trkpt lat="46.74921" lon="6.35588">
        <ele>1368</ele>
        <time>2017-05-22T10:01:55.000Z</time>
      </trkpt>
      <trkpt lat="46.74924" lon="6.35588">
        <ele>1368.72</ele>
        <time>2017-05-22T10:01:58.000Z</time>
      </trkpt>
      <trkpt lat="46.74927" lon="6.35589">
        <ele>1369</ele>
        <time>2017-05-22T10:02:01.000Z</time>
      </trkpt>
      <trkpt lat="46.74929" lon="6.35589">
        <ele>1370</ele>
        <time>2017-05-22T10:02:04.000Z</time>
      </trkpt>
      <trkpt lat="46.74932" lon="6.35588">
        <ele>1369</ele>
        <time>2017-05-22T10:02:07.000Z</time>
      </trkpt>
      <trkpt lat="46.74934" lon="6.35587">
        <ele>1369</ele>
        <time>2017-05-22T10:02:10.000Z</time>
      </trkpt>
      <trkpt lat="46.74937" lon="6.35587">
        <ele>1370</ele>
        <time>2017-05-22T10:02:13.000Z</time>
      </trkpt>
      <trkpt lat="46.74939" lon="6.35587">
        <ele>1370</ele>
        <time>2017-05-22T10:02:16.000Z</time>
      </trkpt>
      <trkpt lat="46.74942" lon="6.35587">
        <ele>1371</ele>
        <time>2017-05-22T10:02:19.000Z</time>
      </trkpt>
      <trkpt lat="46.74944" lon="6.35587">
        <ele>1371</ele>
        <time>2017-05-22T10:02:22.000Z</time>
      </trkpt>
      <trkpt lat="46.74946" lon="6.35587">
        <ele>1373</ele>
        <time>2017-05-22T10:02:25.000Z</time>
      </trkpt>
      <trkpt lat="46.74948" lon="6.35584">
        <ele>1373</ele>
        <time>2017-05-22T10:02:29.000Z</time>
      </trkpt>
      <trkpt lat="46.7495" lon="6.35583">
        <ele>1373</ele>
        <time>2017-05-22T10:02:33.000Z</time>
      </trkpt>
      <trkpt lat="46.74952" lon="6.35581">
        <ele>1373</ele>
        <time>2017-05-22T10:02:36.000Z</time>
      </trkpt>
      <trkpt lat="46.74953" lon="6.35578">
        <ele>1373</ele>
        <time>2017-05-22T10:02:39.000Z</time>
      </trkpt>
      <trkpt lat="46.74955" lon="6.35575">
        <ele>1373.72</ele>
        <time>2017-05-22T10:02:41.000Z</time>
      </trkpt>
      <trkpt lat="46.74956" lon="6.35573">
        <ele>1374.72</ele>
        <time>2017-05-22T10:02:43.000Z</time>
      </trkpt>
      <trkpt lat="46.74957" lon="6.3557">
        <ele>1375</ele>
        <time>2017-05-22T10:02:46.000Z</time>
      </trkpt>
      <trkpt lat="46.74959" lon="6.35568">
        <ele>1375.72</ele>
        <time>2017-05-22T10:02:48.000Z</time>
      </trkpt>
      <trkpt lat="46.7496" lon="6.35566">
        <ele>1376</ele>
        <time>2017-05-22T10:02:50.000Z</time>
      </trkpt>
      <trkpt lat="46.74962" lon="6.35564">
        <ele>1377</ele>
        <time>2017-05-22T10:02:53.000Z</time>
      </trkpt>
      <trkpt lat="46.74964" lon="6.35562">
        <ele>1378</ele>
        <time>2017-05-22T10:02:55.000Z</time>
      </trkpt>
      <trkpt lat="46.74966" lon="6.35562">
        <ele>1376.56</ele>
        <time>2017-05-22T10:02:57.000Z</time>
      </trkpt>
      <trkpt lat="46.74968" lon="6.35561">
        <ele>1372.28</ele>
        <time>2017-05-22T10:02:59.000Z</time>
      </trkpt>
      <trkpt lat="46.7497" lon="6.35559">
        <ele>1371</ele>
        <time>2017-05-22T10:03:02.000Z</time>
      </trkpt>
      <trkpt lat="46.74971" lon="6.35557">
        <ele>1372</ele>
        <time>2017-05-22T10:03:04.000Z</time>
      </trkpt>
      <trkpt lat="46.74973" lon="6.35555">
        <ele>1373</ele>
        <time>2017-05-22T10:03:07.000Z</time>
      </trkpt>
      <trkpt lat="46.74975" lon="6.35553">
        <ele>1373.4337332675</ele>
        <time>2017-05-22T10:03:10.000Z</time>
      </trkpt>
      <trkpt lat="46.74976" lon="6.35551">
        <ele>1374</ele>
        <time>2017-05-22T10:03:13.000Z</time>
      </trkpt>
      <trkpt lat="46.74978" lon="6.35548">
        <ele>1375.72</ele>
        <time>2017-05-22T10:03:15.000Z</time>
      </trkpt>
      <trkpt lat="46.74979" lon="6.35546">
        <ele>1376.72</ele>
        <time>2017-05-22T10:03:17.000Z</time>
      </trkpt>
      <trkpt lat="46.7498" lon="6.35544">
        <ele>1377</ele>
        <time>2017-05-22T10:03:19.000Z</time>
      </trkpt>
      <trkpt lat="46.74981" lon="6.35542">
        <ele>1378</ele>
        <time>2017-05-22T10:03:21.000Z</time>
      </trkpt>
      <trkpt lat="46.74981" lon="6.35539">
        <ele>1379</ele>
        <time>2017-05-22T10:03:23.000Z</time>
      </trkpt>
      <trkpt lat="46.74983" lon="6.35537">
        <ele>1379.72</ele>
        <time>2017-05-22T10:03:25.000Z</time>
      </trkpt>
      <trkpt lat="46.74984" lon="6.35535">
        <ele>1380</ele>
        <time>2017-05-22T10:03:27.000Z</time>
      </trkpt>
      <trkpt lat="46.74985" lon="6.35532">
        <ele>1380</ele>
        <time>2017-05-22T10:03:29.000Z</time>
      </trkpt>
      <trkpt lat="46.74986" lon="6.3553">
        <ele>1380</ele>
        <time>2017-05-22T10:03:31.000Z</time>
      </trkpt>
      <trkpt lat="46.74988" lon="6.35528">
        <ele>1381</ele>
        <time>2017-05-22T10:03:34.000Z</time>
      </trkpt>
      <trkpt lat="46.7499" lon="6.35526">
        <ele>1381</ele>
        <time>2017-05-22T10:03:36.000Z</time>
      </trkpt>
      <trkpt lat="46.7499" lon="6.35523">
        <ele>1381</ele>
        <time>2017-05-22T10:03:39.000Z</time>
      </trkpt>
      <trkpt lat="46.74992" lon="6.3552">
        <ele>1381.72</ele>
        <time>2017-05-22T10:03:42.000Z</time>
      </trkpt>
      <trkpt lat="46.74993" lon="6.35517">
        <ele>1383</ele>
        <time>2017-05-22T10:03:45.000Z</time>
      </trkpt>
      <trkpt lat="46.74993" lon="6.35514">
        <ele>1384</ele>
        <time>2017-05-22T10:03:48.000Z</time>
      </trkpt>
      <trkpt lat="46.74994" lon="6.35511">
        <ele>1385</ele>
        <time>2017-05-22T10:03:51.000Z</time>
      </trkpt>
      <trkpt lat="46.74995" lon="6.35508">
        <ele>1386</ele>
        <time>2017-05-22T10:03:54.000Z</time>
      </trkpt>
      <trkpt lat="46.74996" lon="6.35505">
        <ele>1386</ele>
        <time>2017-05-22T10:03:57.000Z</time>
      </trkpt>
      <trkpt lat="46.74997" lon="6.35503">
        <ele>1387</ele>
        <time>2017-05-22T10:04:01.000Z</time>
      </trkpt>
      <trkpt lat="46.74998" lon="6.355">
        <ele>1389</ele>
        <time>2017-05-22T10:04:06.000Z</time>
      </trkpt>
      <trkpt lat="46.74998" lon="6.35498">
        <ele>1380.2871264543</ele>
        <time>2017-05-22T10:04:33.000Z</time>
      </trkpt>
      <trkpt lat="46.75" lon="6.35496">
        <ele>1379</ele>
        <time>2017-05-22T10:04:39.000Z</time>
      </trkpt>
      <trkpt lat="46.75002" lon="6.35496">
        <ele>1380</ele>
        <time>2017-05-22T10:04:45.000Z</time>
      </trkpt>
      <trkpt lat="46.75003" lon="6.35496">
        <ele>1380</ele>
        <time>2017-05-22T10:04:48.000Z</time>
      </trkpt>
      <trkpt lat="46.75006" lon="6.35495">
        <ele>1379</ele>
        <time>2017-05-22T10:04:51.000Z</time>
      </trkpt>
      <trkpt lat="46.75007" lon="6.35494">
        <ele>1378</ele>
        <time>2017-05-22T10:04:54.000Z</time>
      </trkpt>
      <trkpt lat="46.75008" lon="6.35492">
        <ele>1377.28</ele>
        <time>2017-05-22T10:04:57.000Z</time>
      </trkpt>
      <trkpt lat="46.7501" lon="6.3549">
        <ele>1375.28</ele>
        <time>2017-05-22T10:04:59.000Z</time>
      </trkpt>
      <trkpt lat="46.75011" lon="6.35487">
        <ele>1374.28</ele>
        <time>2017-05-22T10:05:03.000Z</time>
      </trkpt>
      <trkpt lat="46.75013" lon="6.35484">
        <ele>1373.28</ele>
        <time>2017-05-22T10:05:06.000Z</time>
      </trkpt>
      <trkpt lat="46.75015" lon="6.35483">
        <ele>1372</ele>
        <time>2017-05-22T10:05:10.000Z</time>
      </trkpt>
      <trkpt lat="46.75016" lon="6.35481">
        <ele>1372</ele>
        <time>2017-05-22T10:05:13.000Z</time>
      </trkpt>
      <trkpt lat="46.75017" lon="6.35478">
        <ele>1369.28</ele>
        <time>2017-05-22T10:05:17.000Z</time>
      </trkpt>
      <trkpt lat="46.75016" lon="6.35476">
        <ele>1369</ele>
        <time>2017-05-22T10:05:20.000Z</time>
      </trkpt>
      <trkpt lat="46.75015" lon="6.35473">
        <ele>1368</ele>
        <time>2017-05-22T10:05:35.000Z</time>
      </trkpt>
      <trkpt lat="46.75015" lon="6.35469">
        <ele>1369</ele>
        <time>2017-05-22T10:05:39.000Z</time>
      </trkpt>
      <trkpt lat="46.75015" lon="6.35466">
        <ele>1368</ele>
        <time>2017-05-22T10:05:42.000Z</time>
      </trkpt>
      <trkpt lat="46.75016" lon="6.35463">
        <ele>1365.28</ele>
        <time>2017-05-22T10:05:45.000Z</time>
      </trkpt>
      <trkpt lat="46.75018" lon="6.35461">
        <ele>1364.3009730455</ele>
        <time>2017-05-22T10:05:49.000Z</time>
      </trkpt>
      <trkpt lat="46.75019" lon="6.35458">
        <ele>1364.72</ele>
        <time>2017-05-22T10:05:54.000Z</time>
      </trkpt>
      <trkpt lat="46.75019" lon="6.35456">
        <ele>1366</ele>
        <time>2017-05-22T10:05:57.000Z</time>
      </trkpt>
      <trkpt lat="46.75019" lon="6.35453">
        <ele>1367.72</ele>
        <time>2017-05-22T10:06:00.000Z</time>
      </trkpt>
      <trkpt lat="46.75021" lon="6.3545">
        <ele>1368.72</ele>
        <time>2017-05-22T10:06:03.000Z</time>
      </trkpt>
      <trkpt lat="46.75022" lon="6.35449">
        <ele>1371</ele>
        <time>2017-05-22T10:06:06.000Z</time>
      </trkpt>
      <trkpt lat="46.75024" lon="6.35449">
        <ele>1372</ele>
        <time>2017-05-22T10:06:09.000Z</time>
      </trkpt>
      <trkpt lat="46.75026" lon="6.3545">
        <ele>1375</ele>
        <time>2017-05-22T10:06:13.000Z</time>
      </trkpt>
      <trkpt lat="46.75027" lon="6.35452">
        <ele>1376</ele>
        <time>2017-05-22T10:06:17.000Z</time>
      </trkpt>
      <trkpt lat="46.75028" lon="6.35455">
        <ele>1375</ele>
        <time>2017-05-22T10:06:21.000Z</time>
      </trkpt>
      <trkpt lat="46.75029" lon="6.35458">
        <ele>1375</ele>
        <time>2017-05-22T10:06:24.000Z</time>
      </trkpt>
      <trkpt lat="46.75031" lon="6.3546">
        <ele>1375</ele>
        <time>2017-05-22T10:06:27.000Z</time>
      </trkpt>
      <trkpt lat="46.75032" lon="6.35462">
        <ele>1374</ele>
        <time>2017-05-22T10:06:30.000Z</time>
      </trkpt>
      <trkpt lat="46.75033" lon="6.35465">
        <ele>1373</ele>
        <time>2017-05-22T10:06:33.000Z</time>
      </trkpt>
      <trkpt lat="46.75035" lon="6.35467">
        <ele>1371</ele>
        <time>2017-05-22T10:06:37.000Z</time>
      </trkpt>
      <trkpt lat="46.75037" lon="6.35467">
        <ele>1387</ele>
        <time>2017-05-22T10:07:32.000Z</time>
      </trkpt>
      <trkpt lat="46.75039" lon="6.35465">
        <ele>1387.72</ele>
        <time>2017-05-22T10:07:35.000Z</time>
      </trkpt>
      <trkpt lat="46.7504" lon="6.35463">
        <ele>1388</ele>
        <time>2017-05-22T10:07:38.000Z</time>
      </trkpt>
      <trkpt lat="46.75042" lon="6.35461">
        <ele>1388</ele>
        <time>2017-05-22T10:07:40.000Z</time>
      </trkpt>
      <trkpt lat="46.75043" lon="6.35458">
        <ele>1388</ele>
        <time>2017-05-22T10:07:43.000Z</time>
      </trkpt>
      <trkpt lat="46.75045" lon="6.35456">
        <ele>1388</ele>
        <time>2017-05-22T10:07:46.000Z</time>
      </trkpt>
      <trkpt lat="46.75047" lon="6.35454">
        <ele>1388</ele>
        <time>2017-05-22T10:07:49.000Z</time>
      </trkpt>
      <trkpt lat="46.75048" lon="6.35451">
        <ele>1388</ele>
        <time>2017-05-22T10:07:52.000Z</time>
      </trkpt>
      <trkpt lat="46.7505" lon="6.35449">
        <ele>1387</ele>
        <time>2017-05-22T10:07:55.000Z</time>
      </trkpt>
      <trkpt lat="46.75051" lon="6.35447">
        <ele>1386.28</ele>
        <time>2017-05-22T10:07:58.000Z</time>
      </trkpt>
      <trkpt lat="46.75053" lon="6.35445">
        <ele>1383.28</ele>
        <time>2017-05-22T10:08:01.000Z</time>
      </trkpt>
      <trkpt lat="46.75054" lon="6.35443">
        <ele>1382.28</ele>
        <time>2017-05-22T10:08:04.000Z</time>
      </trkpt>
      <trkpt lat="46.75056" lon="6.35441">
        <ele>1381</ele>
        <time>2017-05-22T10:08:07.000Z</time>
      </trkpt>
      <trkpt lat="46.75057" lon="6.35439">
        <ele>1379</ele>
        <time>2017-05-22T10:08:11.000Z</time>
      </trkpt>
      <trkpt lat="46.75059" lon="6.35436">
        <ele>1377</ele>
        <time>2017-05-22T10:08:15.000Z</time>
      </trkpt>
      <trkpt lat="46.7506" lon="6.35434">
        <ele>1376.28</ele>
        <time>2017-05-22T10:08:18.000Z</time>
      </trkpt>
      <trkpt lat="46.75062" lon="6.35432">
        <ele>1375</ele>
        <time>2017-05-22T10:08:21.000Z</time>
      </trkpt>
      <trkpt lat="46.75062" lon="6.35429">
        <ele>1374.4496085572</ele>
        <time>2017-05-22T10:08:24.000Z</time>
      </trkpt>
      <trkpt lat="46.75064" lon="6.35427">
        <ele>1373</ele>
        <time>2017-05-22T10:08:28.000Z</time>
      </trkpt>
      <trkpt lat="46.75065" lon="6.35424">
        <ele>1373.7058779239</ele>
        <time>2017-05-22T10:08:32.000Z</time>
      </trkpt>
      <trkpt lat="46.75067" lon="6.35421">
        <ele>1374</ele>
        <time>2017-05-22T10:08:35.000Z</time>
      </trkpt>
      <trkpt lat="46.75068" lon="6.35419">
        <ele>1373</ele>
        <time>2017-05-22T10:08:39.000Z</time>
      </trkpt>
      <trkpt lat="46.7507" lon="6.35418">
        <ele>1373</ele>
        <time>2017-05-22T10:08:42.000Z</time>
      </trkpt>
      <trkpt lat="46.75071" lon="6.35415">
        <ele>1374</ele>
        <time>2017-05-22T10:08:46.000Z</time>
      </trkpt>
      <trkpt lat="46.75074" lon="6.35415">
        <ele>1374.72</ele>
        <time>2017-05-22T10:08:50.000Z</time>
      </trkpt>
      <trkpt lat="46.75076" lon="6.35415">
        <ele>1375</ele>
        <time>2017-05-22T10:08:54.000Z</time>
      </trkpt>
      <trkpt lat="46.75078" lon="6.35416">
        <ele>1376</ele>
        <time>2017-05-22T10:08:56.000Z</time>
      </trkpt>
      <trkpt lat="46.7508" lon="6.35417">
        <ele>1376</ele>
        <time>2017-05-22T10:08:58.000Z</time>
      </trkpt>
      <trkpt lat="46.75082" lon="6.35418">
        <ele>1376</ele>
        <time>2017-05-22T10:09:00.000Z</time>
      </trkpt>
      <trkpt lat="46.75084" lon="6.35419">
        <ele>1376</ele>
        <time>2017-05-22T10:09:02.000Z</time>
      </trkpt>
      <trkpt lat="46.75086" lon="6.35419">
        <ele>1376</ele>
        <time>2017-05-22T10:09:04.000Z</time>
      </trkpt>
      <trkpt lat="46.75089" lon="6.3542">
        <ele>1395.72</ele>
        <time>2017-05-22T10:09:06.000Z</time>
      </trkpt>
      <trkpt lat="46.75091" lon="6.35421">
        <ele>1420.44</ele>
        <time>2017-05-22T10:09:08.000Z</time>
      </trkpt>
      <trkpt lat="46.75093" lon="6.35422">
        <ele>1423.72</ele>
        <time>2017-05-22T10:09:10.000Z</time>
      </trkpt>
      <trkpt lat="46.75095" lon="6.35424">
        <ele>1424</ele>
        <time>2017-05-22T10:09:12.000Z</time>
      </trkpt>
      <trkpt lat="46.75097" lon="6.35426">
        <ele>1424</ele>
        <time>2017-05-22T10:09:14.000Z</time>
      </trkpt>
      <trkpt lat="46.75099" lon="6.35427">
        <ele>1424.72</ele>
        <time>2017-05-22T10:09:16.000Z</time>
      </trkpt>
      <trkpt lat="46.75101" lon="6.3543">
        <ele>1425</ele>
        <time>2017-05-22T10:09:18.000Z</time>
      </trkpt>
      <trkpt lat="46.75104" lon="6.35431">
        <ele>1424.28</ele>
        <time>2017-05-22T10:09:20.000Z</time>
      </trkpt>
      <trkpt lat="46.75106" lon="6.35433">
        <ele>1424</ele>
        <time>2017-05-22T10:09:22.000Z</time>
      </trkpt>
      <trkpt lat="46.75107" lon="6.35435">
        <ele>1424</ele>
        <time>2017-05-22T10:09:24.000Z</time>
      </trkpt>
      <trkpt lat="46.75109" lon="6.35436">
        <ele>1423</ele>
        <time>2017-05-22T10:09:26.000Z</time>
      </trkpt>
      <trkpt lat="46.75111" lon="6.35437">
        <ele>1422</ele>
        <time>2017-05-22T10:09:28.000Z</time>
      </trkpt>
      <trkpt lat="46.75113" lon="6.35439">
        <ele>1421.4375</ele>
        <time>2017-05-22T10:09:30.000Z</time>
      </trkpt>
      <trkpt lat="46.75114" lon="6.35441">
        <ele>1421</ele>
        <time>2017-05-22T10:09:32.000Z</time>
      </trkpt>
      <trkpt lat="46.75117" lon="6.35443">
        <ele>1421</ele>
        <time>2017-05-22T10:09:35.000Z</time>
      </trkpt>
      <trkpt lat="46.75119" lon="6.35444">
        <ele>1420</ele>
        <time>2017-05-22T10:09:37.000Z</time>
      </trkpt>
      <trkpt lat="46.75121" lon="6.35446">
        <ele>1419.28</ele>
        <time>2017-05-22T10:09:39.000Z</time>
      </trkpt>
      <trkpt lat="46.75122" lon="6.35448">
        <ele>1419</ele>
        <time>2017-05-22T10:09:41.000Z</time>
      </trkpt>
      <trkpt lat="46.75124" lon="6.35449">
        <ele>1418</ele>
        <time>2017-05-22T10:09:43.000Z</time>
      </trkpt>
      <trkpt lat="46.75126" lon="6.35451">
        <ele>1418</ele>
        <time>2017-05-22T10:09:45.000Z</time>
      </trkpt>
      <trkpt lat="46.75128" lon="6.35453">
        <ele>1417.28</ele>
        <time>2017-05-22T10:09:47.000Z</time>
      </trkpt>
      <trkpt lat="46.7513" lon="6.35454">
        <ele>1417</ele>
        <time>2017-05-22T10:09:49.000Z</time>
      </trkpt>
      <trkpt lat="46.75132" lon="6.35455">
        <ele>1415</ele>
        <time>2017-05-22T10:10:17.000Z</time>
      </trkpt>
      <trkpt lat="46.75133" lon="6.35457">
        <ele>1414</ele>
        <time>2017-05-22T10:10:19.000Z</time>
      </trkpt>
      <trkpt lat="46.75135" lon="6.35459">
        <ele>1413.28</ele>
        <time>2017-05-22T10:10:21.000Z</time>
      </trkpt>
      <trkpt lat="46.75137" lon="6.35461">
        <ele>1413</ele>
        <time>2017-05-22T10:10:23.000Z</time>
      </trkpt>
      <trkpt lat="46.75138" lon="6.35463">
        <ele>1413</ele>
        <time>2017-05-22T10:10:25.000Z</time>
      </trkpt>
      <trkpt lat="46.75141" lon="6.35463">
        <ele>1411.3943644198</ele>
        <time>2017-05-22T10:10:28.000Z</time>
      </trkpt>
      <trkpt lat="46.75142" lon="6.35466">
        <ele>1411</ele>
        <time>2017-05-22T10:10:32.000Z</time>
      </trkpt>
      <trkpt lat="46.75144" lon="6.35467">
        <ele>1411</ele>
        <time>2017-05-22T10:10:35.000Z</time>
      </trkpt>
      <trkpt lat="46.75146" lon="6.35469">
        <ele>1408.28</ele>
        <time>2017-05-22T10:10:38.000Z</time>
      </trkpt>
      <trkpt lat="46.75149" lon="6.35471">
        <ele>1408</ele>
        <time>2017-05-22T10:10:41.000Z</time>
      </trkpt>
      <trkpt lat="46.7515" lon="6.35472">
        <ele>1407.28</ele>
        <time>2017-05-22T10:10:43.000Z</time>
      </trkpt>
      <trkpt lat="46.75152" lon="6.35475">
        <ele>1407</ele>
        <time>2017-05-22T10:10:46.000Z</time>
      </trkpt>
      <trkpt lat="46.75154" lon="6.35477">
        <ele>1406</ele>
        <time>2017-05-22T10:10:48.000Z</time>
      </trkpt>
      <trkpt lat="46.75156" lon="6.35478">
        <ele>1405.28</ele>
        <time>2017-05-22T10:10:50.000Z</time>
      </trkpt>
      <trkpt lat="46.75157" lon="6.35479">
        <ele>1405</ele>
        <time>2017-05-22T10:10:52.000Z</time>
      </trkpt>
      <trkpt lat="46.7516" lon="6.35481">
        <ele>1404</ele>
        <time>2017-05-22T10:10:54.000Z</time>
      </trkpt>
      <trkpt lat="46.75161" lon="6.35482">
        <ele>1404</ele>
        <time>2017-05-22T10:10:56.000Z</time>
      </trkpt>
      <trkpt lat="46.75164" lon="6.35483">
        <ele>1403.28</ele>
        <time>2017-05-22T10:10:59.000Z</time>
      </trkpt>
      <trkpt lat="46.75165" lon="6.35485">
        <ele>1402.28</ele>
        <time>2017-05-22T10:11:01.000Z</time>
      </trkpt>
      <trkpt lat="46.75167" lon="6.35487">
        <ele>1402</ele>
        <time>2017-05-22T10:11:03.000Z</time>
      </trkpt>
      <trkpt lat="46.75169" lon="6.35488">
        <ele>1401</ele>
        <time>2017-05-22T10:11:05.000Z</time>
      </trkpt>
      <trkpt lat="46.75171" lon="6.3549">
        <ele>1401</ele>
        <time>2017-05-22T10:11:07.000Z</time>
      </trkpt>
      <trkpt lat="46.75173" lon="6.35491">
        <ele>1401</ele>
        <time>2017-05-22T10:11:09.000Z</time>
      </trkpt>
      <trkpt lat="46.75175" lon="6.35492">
        <ele>1400.28</ele>
        <time>2017-05-22T10:11:11.000Z</time>
      </trkpt>
      <trkpt lat="46.75178" lon="6.35494">
        <ele>1399.2857161516</ele>
        <time>2017-05-22T10:11:13.000Z</time>
      </trkpt>
      <trkpt lat="46.75179" lon="6.35496">
        <ele>1399</ele>
        <time>2017-05-22T10:11:15.000Z</time>
      </trkpt>
      <trkpt lat="46.75181" lon="6.35498">
        <ele>1398.28</ele>
        <time>2017-05-22T10:11:17.000Z</time>
      </trkpt>
      <trkpt lat="46.75183" lon="6.35498">
        <ele>1398</ele>
        <time>2017-05-22T10:11:19.000Z</time>
      </trkpt>
      <trkpt lat="46.75185" lon="6.35499">
        <ele>1397.28</ele>
        <time>2017-05-22T10:11:21.000Z</time>
      </trkpt>
      <trkpt lat="46.75187" lon="6.35501">
        <ele>1397</ele>
        <time>2017-05-22T10:11:23.000Z</time>
      </trkpt>
      <trkpt lat="46.7519" lon="6.35503">
        <ele>1396</ele>
        <time>2017-05-22T10:11:25.000Z</time>
      </trkpt>
      <trkpt lat="46.75192" lon="6.35505">
        <ele>1394.4461565728</ele>
        <time>2017-05-22T10:11:27.000Z</time>
      </trkpt>
      <trkpt lat="46.75194" lon="6.35508">
        <ele>1393.28</ele>
        <time>2017-05-22T10:11:29.000Z</time>
      </trkpt>
      <trkpt lat="46.75196" lon="6.3551">
        <ele>1392.28</ele>
        <time>2017-05-22T10:11:31.000Z</time>
      </trkpt>
      <trkpt lat="46.75198" lon="6.35511">
        <ele>1392</ele>
        <time>2017-05-22T10:11:33.000Z</time>
      </trkpt>
      <trkpt lat="46.752" lon="6.35513">
        <ele>1391.2828273686</ele>
        <time>2017-05-22T10:11:36.000Z</time>
      </trkpt>
      <trkpt lat="46.75203" lon="6.35515">
        <ele>1389.28</ele>
        <time>2017-05-22T10:11:41.000Z</time>
      </trkpt>
      <trkpt lat="46.75205" lon="6.35516">
        <ele>1389</ele>
        <time>2017-05-22T10:11:43.000Z</time>
      </trkpt>
      <trkpt lat="46.75207" lon="6.35517">
        <ele>1389</ele>
        <time>2017-05-22T10:11:45.000Z</time>
      </trkpt>
      <trkpt lat="46.75209" lon="6.35518">
        <ele>1389</ele>
        <time>2017-05-22T10:11:47.000Z</time>
      </trkpt>
      <trkpt lat="46.75212" lon="6.35518">
        <ele>1389</ele>
        <time>2017-05-22T10:11:49.000Z</time>
      </trkpt>
      <trkpt lat="46.75215" lon="6.35519">
        <ele>1389</ele>
        <time>2017-05-22T10:11:51.000Z</time>
      </trkpt>
      <trkpt lat="46.75217" lon="6.3552">
        <ele>1388.28</ele>
        <time>2017-05-22T10:11:53.000Z</time>
      </trkpt>
      <trkpt lat="46.7522" lon="6.35522">
        <ele>1388</ele>
        <time>2017-05-22T10:11:55.000Z</time>
      </trkpt>
      <trkpt lat="46.75222" lon="6.35524">
        <ele>1388</ele>
        <time>2017-05-22T10:11:57.000Z</time>
      </trkpt>
      <trkpt lat="46.75225" lon="6.35526">
        <ele>1388</ele>
        <time>2017-05-22T10:11:59.000Z</time>
      </trkpt>
      <trkpt lat="46.75228" lon="6.35528">
        <ele>1388</ele>
        <time>2017-05-22T10:12:01.000Z</time>
      </trkpt>
      <trkpt lat="46.7523" lon="6.3553">
        <ele>1388</ele>
        <time>2017-05-22T10:12:03.000Z</time>
      </trkpt>
      <trkpt lat="46.75232" lon="6.35532">
        <ele>1388</ele>
        <time>2017-05-22T10:12:05.000Z</time>
      </trkpt>
      <trkpt lat="46.75234" lon="6.35534">
        <ele>1388</ele>
        <time>2017-05-22T10:12:07.000Z</time>
      </trkpt>
      <trkpt lat="46.75237" lon="6.35535">
        <ele>1387.4545454546</ele>
        <time>2017-05-22T10:12:09.000Z</time>
      </trkpt>
      <trkpt lat="46.7524" lon="6.35536">
        <ele>1387</ele>
        <time>2017-05-22T10:12:11.000Z</time>
      </trkpt>
      <trkpt lat="46.75242" lon="6.35538">
        <ele>1387</ele>
        <time>2017-05-22T10:12:13.000Z</time>
      </trkpt>
      <trkpt lat="46.75244" lon="6.35539">
        <ele>1388</ele>
        <time>2017-05-22T10:12:15.000Z</time>
      </trkpt>
      <trkpt lat="46.75247" lon="6.3554">
        <ele>1387.28</ele>
        <time>2017-05-22T10:12:17.000Z</time>
      </trkpt>
      <trkpt lat="46.75249" lon="6.35542">
        <ele>1387</ele>
        <time>2017-05-22T10:12:19.000Z</time>
      </trkpt>
      <trkpt lat="46.75252" lon="6.35543">
        <ele>1387</ele>
        <time>2017-05-22T10:12:21.000Z</time>
      </trkpt>
      <trkpt lat="46.75255" lon="6.35545">
        <ele>1387</ele>
        <time>2017-05-22T10:12:23.000Z</time>
      </trkpt>
      <trkpt lat="46.75258" lon="6.35546">
        <ele>1387</ele>
        <time>2017-05-22T10:12:25.000Z</time>
      </trkpt>
      <trkpt lat="46.75259" lon="6.35547">
        <ele>1387</ele>
        <time>2017-05-22T10:12:27.000Z</time>
      </trkpt>
      <trkpt lat="46.75262" lon="6.35549">
        <ele>1387</ele>
        <time>2017-05-22T10:12:30.000Z</time>
      </trkpt>
      <trkpt lat="46.75264" lon="6.35551">
        <ele>1387</ele>
        <time>2017-05-22T10:12:32.000Z</time>
      </trkpt>
      <trkpt lat="46.75267" lon="6.35552">
        <ele>1386.28</ele>
        <time>2017-05-22T10:12:34.000Z</time>
      </trkpt>
      <trkpt lat="46.7527" lon="6.35554">
        <ele>1386</ele>
        <time>2017-05-22T10:12:36.000Z</time>
      </trkpt>
      <trkpt lat="46.75272" lon="6.35555">
        <ele>1386</ele>
        <time>2017-05-22T10:12:38.000Z</time>
      </trkpt>
      <trkpt lat="46.75274" lon="6.35556">
        <ele>1386</ele>
        <time>2017-05-22T10:12:40.000Z</time>
      </trkpt>
      <trkpt lat="46.75276" lon="6.35557">
        <ele>1385.28</ele>
        <time>2017-05-22T10:12:42.000Z</time>
      </trkpt>
      <trkpt lat="46.75279" lon="6.35558">
        <ele>1385</ele>
        <time>2017-05-22T10:12:44.000Z</time>
      </trkpt>
      <trkpt lat="46.75281" lon="6.35559">
        <ele>1385</ele>
        <time>2017-05-22T10:12:46.000Z</time>
      </trkpt>
      <trkpt lat="46.75284" lon="6.3556">
        <ele>1385</ele>
        <time>2017-05-22T10:12:48.000Z</time>
      </trkpt>
      <trkpt lat="46.75286" lon="6.3556">
        <ele>1384</ele>
        <time>2017-05-22T10:12:50.000Z</time>
      </trkpt>
      <trkpt lat="46.75289" lon="6.35561">
        <ele>1384</ele>
        <time>2017-05-22T10:12:52.000Z</time>
      </trkpt>
      <trkpt lat="46.75291" lon="6.35561">
        <ele>1384</ele>
        <time>2017-05-22T10:12:54.000Z</time>
      </trkpt>
      <trkpt lat="46.75293" lon="6.35561">
        <ele>1384</ele>
        <time>2017-05-22T10:12:56.000Z</time>
      </trkpt>
      <trkpt lat="46.75295" lon="6.35561">
        <ele>1384</ele>
        <time>2017-05-22T10:12:58.000Z</time>
      </trkpt>
      <trkpt lat="46.75298" lon="6.35562">
        <ele>1383</ele>
        <time>2017-05-22T10:13:00.000Z</time>
      </trkpt>
      <trkpt lat="46.753" lon="6.35562">
        <ele>1383</ele>
        <time>2017-05-22T10:13:02.000Z</time>
      </trkpt>
      <trkpt lat="46.75302" lon="6.35562">
        <ele>1382</ele>
        <time>2017-05-22T10:13:04.000Z</time>
      </trkpt>
      <trkpt lat="46.75304" lon="6.35563">
        <ele>1382</ele>
        <time>2017-05-22T10:13:06.000Z</time>
      </trkpt>
      <trkpt lat="46.75306" lon="6.35564">
        <ele>1382</ele>
        <time>2017-05-22T10:13:08.000Z</time>
      </trkpt>
      <trkpt lat="46.75308" lon="6.35565">
        <ele>1382</ele>
        <time>2017-05-22T10:13:10.000Z</time>
      </trkpt>
      <trkpt lat="46.7531" lon="6.35566">
        <ele>1381</ele>
        <time>2017-05-22T10:13:12.000Z</time>
      </trkpt>
      <trkpt lat="46.75313" lon="6.35566">
        <ele>1380.28</ele>
        <time>2017-05-22T10:13:14.000Z</time>
      </trkpt>
      <trkpt lat="46.75316" lon="6.35567">
        <ele>1380</ele>
        <time>2017-05-22T10:13:16.000Z</time>
      </trkpt>
      <trkpt lat="46.75318" lon="6.35568">
        <ele>1380</ele>
        <time>2017-05-22T10:13:18.000Z</time>
      </trkpt>
      <trkpt lat="46.75321" lon="6.3557">
        <ele>1379</ele>
        <time>2017-05-22T10:13:20.000Z</time>
      </trkpt>
      <trkpt lat="46.75323" lon="6.35571">
        <ele>1378</ele>
        <time>2017-05-22T10:13:22.000Z</time>
      </trkpt>
      <trkpt lat="46.75326" lon="6.35573">
        <ele>1377</ele>
        <time>2017-05-22T10:13:24.000Z</time>
      </trkpt>
      <trkpt lat="46.75328" lon="6.35574">
        <ele>1377</ele>
        <time>2017-05-22T10:13:26.000Z</time>
      </trkpt>
      <trkpt lat="46.75331" lon="6.35575">
        <ele>1376</ele>
        <time>2017-05-22T10:13:28.000Z</time>
      </trkpt>
      <trkpt lat="46.75334" lon="6.35576">
        <ele>1374.28</ele>
        <time>2017-05-22T10:13:30.000Z</time>
      </trkpt>
      <trkpt lat="46.75337" lon="6.35577">
        <ele>1373.28</ele>
        <time>2017-05-22T10:13:32.000Z</time>
      </trkpt>
      <trkpt lat="46.75339" lon="6.35578">
        <ele>1372.28</ele>
        <time>2017-05-22T10:13:34.000Z</time>
      </trkpt>
      <trkpt lat="46.75342" lon="6.35579">
        <ele>1371</ele>
        <time>2017-05-22T10:13:36.000Z</time>
      </trkpt>
      <trkpt lat="46.75344" lon="6.3558">
        <ele>1370</ele>
        <time>2017-05-22T10:13:38.000Z</time>
      </trkpt>
      <trkpt lat="46.75347" lon="6.35581">
        <ele>1370</ele>
        <time>2017-05-22T10:13:40.000Z</time>
      </trkpt>
      <trkpt lat="46.75349" lon="6.35583">
        <ele>1368.28</ele>
        <time>2017-05-22T10:13:42.000Z</time>
      </trkpt>
      <trkpt lat="46.7535" lon="6.35585">
        <ele>1368</ele>
        <time>2017-05-22T10:13:44.000Z</time>
      </trkpt>
      <trkpt lat="46.75352" lon="6.35586">
        <ele>1367</ele>
        <time>2017-05-22T10:13:46.000Z</time>
      </trkpt>
      <trkpt lat="46.75354" lon="6.35586">
        <ele>1367</ele>
        <time>2017-05-22T10:13:48.000Z</time>
      </trkpt>
      <trkpt lat="46.75356" lon="6.35587">
        <ele>1366</ele>
        <time>2017-05-22T10:13:50.000Z</time>
      </trkpt>
      <trkpt lat="46.75358" lon="6.35587">
        <ele>1366</ele>
        <time>2017-05-22T10:13:52.000Z</time>
      </trkpt>
      <trkpt lat="46.7536" lon="6.35587">
        <ele>1365.28</ele>
        <time>2017-05-22T10:13:54.000Z</time>
      </trkpt>
      <trkpt lat="46.75362" lon="6.35588">
        <ele>1364</ele>
        <time>2017-05-22T10:13:56.000Z</time>
      </trkpt>
      <trkpt lat="46.75365" lon="6.35588">
        <ele>1362.28</ele>
        <time>2017-05-22T10:13:58.000Z</time>
      </trkpt>
      <trkpt lat="46.75367" lon="6.35588">
        <ele>1362</ele>
        <time>2017-05-22T10:14:00.000Z</time>
      </trkpt>
      <trkpt lat="46.75369" lon="6.35589">
        <ele>1361</ele>
        <time>2017-05-22T10:14:02.000Z</time>
      </trkpt>
      <trkpt lat="46.75371" lon="6.3559">
        <ele>1360.28</ele>
        <time>2017-05-22T10:14:05.000Z</time>
      </trkpt>
      <trkpt lat="46.75373" lon="6.35591">
        <ele>1360</ele>
        <time>2017-05-22T10:14:07.000Z</time>
      </trkpt>
      <trkpt lat="46.75375" lon="6.35592">
        <ele>1360</ele>
        <time>2017-05-22T10:14:09.000Z</time>
      </trkpt>
      <trkpt lat="46.75377" lon="6.35592">
        <ele>1359</ele>
        <time>2017-05-22T10:14:11.000Z</time>
      </trkpt>
      <trkpt lat="46.75379" lon="6.35593">
        <ele>1358</ele>
        <time>2017-05-22T10:14:14.000Z</time>
      </trkpt>
      <trkpt lat="46.75382" lon="6.35593">
        <ele>1357</ele>
        <time>2017-05-22T10:14:17.000Z</time>
      </trkpt>
      <trkpt lat="46.75384" lon="6.35592">
        <ele>1356</ele>
        <time>2017-05-22T10:14:20.000Z</time>
      </trkpt>
      <trkpt lat="46.75386" lon="6.35591">
        <ele>1355</ele>
        <time>2017-05-22T10:14:23.000Z</time>
      </trkpt>
      <trkpt lat="46.75388" lon="6.35591">
        <ele>1354</ele>
        <time>2017-05-22T10:14:26.000Z</time>
      </trkpt>
      <trkpt lat="46.75391" lon="6.3559">
        <ele>1353</ele>
        <time>2017-05-22T10:14:29.000Z</time>
      </trkpt>
      <trkpt lat="46.75393" lon="6.35589">
        <ele>1353</ele>
        <time>2017-05-22T10:14:31.000Z</time>
      </trkpt>
      <trkpt lat="46.75395" lon="6.35589">
        <ele>1352</ele>
        <time>2017-05-22T10:14:33.000Z</time>
      </trkpt>
      <trkpt lat="46.75397" lon="6.3559">
        <ele>1352</ele>
        <time>2017-05-22T10:14:35.000Z</time>
      </trkpt>
      <trkpt lat="46.75399" lon="6.3559">
        <ele>1352</ele>
        <time>2017-05-22T10:14:37.000Z</time>
      </trkpt>
      <trkpt lat="46.75401" lon="6.35589">
        <ele>1352</ele>
        <time>2017-05-22T10:14:39.000Z</time>
      </trkpt>
      <trkpt lat="46.75403" lon="6.35589">
        <ele>1351</ele>
        <time>2017-05-22T10:14:41.000Z</time>
      </trkpt>
      <trkpt lat="46.75405" lon="6.35589">
        <ele>1351</ele>
        <time>2017-05-22T10:14:43.000Z</time>
      </trkpt>
      <trkpt lat="46.75407" lon="6.35588">
        <ele>1349.28</ele>
        <time>2017-05-22T10:14:45.000Z</time>
      </trkpt>
      <trkpt lat="46.75409" lon="6.35588">
        <ele>1349</ele>
        <time>2017-05-22T10:14:47.000Z</time>
      </trkpt>
      <trkpt lat="46.75411" lon="6.35586">
        <ele>1349</ele>
        <time>2017-05-22T10:14:49.000Z</time>
      </trkpt>
      <trkpt lat="46.75414" lon="6.35585">
        <ele>1349</ele>
        <time>2017-05-22T10:14:51.000Z</time>
      </trkpt>
      <trkpt lat="46.75416" lon="6.35584">
        <ele>1348</ele>
        <time>2017-05-22T10:14:53.000Z</time>
      </trkpt>
      <trkpt lat="46.75418" lon="6.35583">
        <ele>1347</ele>
        <time>2017-05-22T10:14:56.000Z</time>
      </trkpt>
      <trkpt lat="46.7542" lon="6.35582">
        <ele>1347</ele>
        <time>2017-05-22T10:14:58.000Z</time>
      </trkpt>
      <trkpt lat="46.75422" lon="6.35581">
        <ele>1347</ele>
        <time>2017-05-22T10:15:00.000Z</time>
      </trkpt>
      <trkpt lat="46.75425" lon="6.3558">
        <ele>1347</ele>
        <time>2017-05-22T10:15:02.000Z</time>
      </trkpt>
      <trkpt lat="46.75428" lon="6.3558">
        <ele>1346</ele>
        <time>2017-05-22T10:15:04.000Z</time>
      </trkpt>
      <trkpt lat="46.7543" lon="6.35581">
        <ele>1346</ele>
        <time>2017-05-22T10:15:06.000Z</time>
      </trkpt>
      <trkpt lat="46.75433" lon="6.3558">
        <ele>1346</ele>
        <time>2017-05-22T10:15:08.000Z</time>
      </trkpt>
      <trkpt lat="46.75436" lon="6.3558">
        <ele>1346</ele>
        <time>2017-05-22T10:15:10.000Z</time>
      </trkpt>
      <trkpt lat="46.75438" lon="6.3558">
        <ele>1346</ele>
        <time>2017-05-22T10:15:12.000Z</time>
      </trkpt>
      <trkpt lat="46.75441" lon="6.35579">
        <ele>1345</ele>
        <time>2017-05-22T10:15:14.000Z</time>
      </trkpt>
      <trkpt lat="46.75443" lon="6.35578">
        <ele>1345</ele>
        <time>2017-05-22T10:15:16.000Z</time>
      </trkpt>
      <trkpt lat="46.75446" lon="6.35578">
        <ele>1345</ele>
        <time>2017-05-22T10:15:18.000Z</time>
      </trkpt>
      <trkpt lat="46.75448" lon="6.35577">
        <ele>1344</ele>
        <time>2017-05-22T10:15:20.000Z</time>
      </trkpt>
      <trkpt lat="46.75451" lon="6.35576">
        <ele>1344</ele>
        <time>2017-05-22T10:15:22.000Z</time>
      </trkpt>
      <trkpt lat="46.75454" lon="6.35576">
        <ele>1344</ele>
        <time>2017-05-22T10:15:24.000Z</time>
      </trkpt>
      <trkpt lat="46.75456" lon="6.35576">
        <ele>1344</ele>
        <time>2017-05-22T10:15:26.000Z</time>
      </trkpt>
      <trkpt lat="46.75458" lon="6.35574">
        <ele>1344</ele>
        <time>2017-05-22T10:15:28.000Z</time>
      </trkpt>
      <trkpt lat="46.7546" lon="6.35573">
        <ele>1344</ele>
        <time>2017-05-22T10:15:30.000Z</time>
      </trkpt>
      <trkpt lat="46.75463" lon="6.35571">
        <ele>1344</ele>
        <time>2017-05-22T10:15:32.000Z</time>
      </trkpt>
      <trkpt lat="46.75466" lon="6.3557">
        <ele>1344</ele>
        <time>2017-05-22T10:15:34.000Z</time>
      </trkpt>
      <trkpt lat="46.75468" lon="6.35569">
        <ele>1344</ele>
        <time>2017-05-22T10:15:36.000Z</time>
      </trkpt>
      <trkpt lat="46.7547" lon="6.35568">
        <ele>1343.28</ele>
        <time>2017-05-22T10:15:38.000Z</time>
      </trkpt>
      <trkpt lat="46.75472" lon="6.35567">
        <ele>1343</ele>
        <time>2017-05-22T10:15:40.000Z</time>
      </trkpt>
      <trkpt lat="46.75475" lon="6.35566">
        <ele>1343</ele>
        <time>2017-05-22T10:15:42.000Z</time>
      </trkpt>
      <trkpt lat="46.75478" lon="6.35565">
        <ele>1343</ele>
        <time>2017-05-22T10:15:44.000Z</time>
      </trkpt>
      <trkpt lat="46.7548" lon="6.35565">
        <ele>1343</ele>
        <time>2017-05-22T10:15:46.000Z</time>
      </trkpt>
      <trkpt lat="46.75483" lon="6.35565">
        <ele>1343</ele>
        <time>2017-05-22T10:15:48.000Z</time>
      </trkpt>
      <trkpt lat="46.75485" lon="6.35564">
        <ele>1342</ele>
        <time>2017-05-22T10:15:50.000Z</time>
      </trkpt>
      <trkpt lat="46.75487" lon="6.35563">
        <ele>1342</ele>
        <time>2017-05-22T10:15:52.000Z</time>
      </trkpt>
      <trkpt lat="46.75489" lon="6.35562">
        <ele>1342</ele>
        <time>2017-05-22T10:15:54.000Z</time>
      </trkpt>
      <trkpt lat="46.75491" lon="6.35561">
        <ele>1342</ele>
        <time>2017-05-22T10:15:56.000Z</time>
      </trkpt>
      <trkpt lat="46.75494" lon="6.3556">
        <ele>1342</ele>
        <time>2017-05-22T10:15:58.000Z</time>
      </trkpt>
      <trkpt lat="46.75496" lon="6.35559">
        <ele>1342</ele>
        <time>2017-05-22T10:16:00.000Z</time>
      </trkpt>
      <trkpt lat="46.75498" lon="6.35559">
        <ele>1342</ele>
        <time>2017-05-22T10:16:02.000Z</time>
      </trkpt>
      <trkpt lat="46.75501" lon="6.35558">
        <ele>1342</ele>
        <time>2017-05-22T10:16:04.000Z</time>
      </trkpt>
      <trkpt lat="46.75504" lon="6.35557">
        <ele>1342</ele>
        <time>2017-05-22T10:16:06.000Z</time>
      </trkpt>
      <trkpt lat="46.75506" lon="6.35556">
        <ele>1342</ele>
        <time>2017-05-22T10:16:08.000Z</time>
      </trkpt>
      <trkpt lat="46.75509" lon="6.35555">
        <ele>1342</ele>
        <time>2017-05-22T10:16:10.000Z</time>
      </trkpt>
      <trkpt lat="46.75512" lon="6.35554">
        <ele>1342</ele>
        <time>2017-05-22T10:16:12.000Z</time>
      </trkpt>
      <trkpt lat="46.75515" lon="6.35553">
        <ele>1341</ele>
        <time>2017-05-22T10:16:14.000Z</time>
      </trkpt>
      <trkpt lat="46.75518" lon="6.35552">
        <ele>1341</ele>
        <time>2017-05-22T10:16:16.000Z</time>
      </trkpt>
      <trkpt lat="46.7552" lon="6.35551">
        <ele>1341</ele>
        <time>2017-05-22T10:16:18.000Z</time>
      </trkpt>
      <trkpt lat="46.75522" lon="6.3555">
        <ele>1341</ele>
        <time>2017-05-22T10:16:20.000Z</time>
      </trkpt>
      <trkpt lat="46.75525" lon="6.3555">
        <ele>1341</ele>
        <time>2017-05-22T10:16:22.000Z</time>
      </trkpt>
      <trkpt lat="46.75528" lon="6.3555">
        <ele>1341</ele>
        <time>2017-05-22T10:16:24.000Z</time>
      </trkpt>
      <trkpt lat="46.7553" lon="6.35549">
        <ele>1341</ele>
        <time>2017-05-22T10:16:26.000Z</time>
      </trkpt>
      <trkpt lat="46.75533" lon="6.35549">
        <ele>1341</ele>
        <time>2017-05-22T10:16:28.000Z</time>
      </trkpt>
      <trkpt lat="46.75535" lon="6.35547">
        <ele>1341</ele>
        <time>2017-05-22T10:16:30.000Z</time>
      </trkpt>
      <trkpt lat="46.75537" lon="6.35545">
        <ele>1339.28</ele>
        <time>2017-05-22T10:16:32.000Z</time>
      </trkpt>
      <trkpt lat="46.75539" lon="6.35544">
        <ele>1339</ele>
        <time>2017-05-22T10:16:34.000Z</time>
      </trkpt>
      <trkpt lat="46.75542" lon="6.35544">
        <ele>1339</ele>
        <time>2017-05-22T10:16:36.000Z</time>
      </trkpt>
      <trkpt lat="46.75545" lon="6.35543">
        <ele>1338</ele>
        <time>2017-05-22T10:16:38.000Z</time>
      </trkpt>
      <trkpt lat="46.75547" lon="6.35542">
        <ele>1338</ele>
        <time>2017-05-22T10:16:40.000Z</time>
      </trkpt>
      <trkpt lat="46.75549" lon="6.35542">
        <ele>1338</ele>
        <time>2017-05-22T10:16:42.000Z</time>
      </trkpt>
      <trkpt lat="46.75551" lon="6.35542">
        <ele>1338</ele>
        <time>2017-05-22T10:16:44.000Z</time>
      </trkpt>
      <trkpt lat="46.75554" lon="6.35542">
        <ele>1337</ele>
        <time>2017-05-22T10:16:46.000Z</time>
      </trkpt>
      <trkpt lat="46.75556" lon="6.35542">
        <ele>1337</ele>
        <time>2017-05-22T10:16:48.000Z</time>
      </trkpt>
      <trkpt lat="46.75558" lon="6.35542">
        <ele>1337</ele>
        <time>2017-05-22T10:16:50.000Z</time>
      </trkpt>
      <trkpt lat="46.7556" lon="6.35542">
        <ele>1336.28</ele>
        <time>2017-05-22T10:16:52.000Z</time>
      </trkpt>
      <trkpt lat="46.75562" lon="6.35542">
        <ele>1335.28</ele>
        <time>2017-05-22T10:16:54.000Z</time>
      </trkpt>
      <trkpt lat="46.75564" lon="6.35541">
        <ele>1335</ele>
        <time>2017-05-22T10:16:56.000Z</time>
      </trkpt>
      <trkpt lat="46.75566" lon="6.35541">
        <ele>1334</ele>
        <time>2017-05-22T10:16:58.000Z</time>
      </trkpt>
      <trkpt lat="46.75569" lon="6.3554">
        <ele>1334</ele>
        <time>2017-05-22T10:17:00.000Z</time>
      </trkpt>
      <trkpt lat="46.75571" lon="6.35541">
        <ele>1334</ele>
        <time>2017-05-22T10:17:02.000Z</time>
      </trkpt>
      <trkpt lat="46.75573" lon="6.3554">
        <ele>1333</ele>
        <time>2017-05-22T10:17:04.000Z</time>
      </trkpt>
      <trkpt lat="46.75576" lon="6.35541">
        <ele>1333</ele>
        <time>2017-05-22T10:17:06.000Z</time>
      </trkpt>
      <trkpt lat="46.75578" lon="6.35541">
        <ele>1333</ele>
        <time>2017-05-22T10:17:08.000Z</time>
      </trkpt>
      <trkpt lat="46.7558" lon="6.3554">
        <ele>1332.28</ele>
        <time>2017-05-22T10:17:10.000Z</time>
      </trkpt>
      <trkpt lat="46.75582" lon="6.3554">
        <ele>1332</ele>
        <time>2017-05-22T10:17:12.000Z</time>
      </trkpt>
      <trkpt lat="46.75584" lon="6.3554">
        <ele>1332</ele>
        <time>2017-05-22T10:17:14.000Z</time>
      </trkpt>
      <trkpt lat="46.75587" lon="6.35539">
        <ele>1331</ele>
        <time>2017-05-22T10:17:16.000Z</time>
      </trkpt>
      <trkpt lat="46.7559" lon="6.35539">
        <ele>1331</ele>
        <time>2017-05-22T10:17:18.000Z</time>
      </trkpt>
      <trkpt lat="46.75592" lon="6.35539">
        <ele>1331</ele>
        <time>2017-05-22T10:17:20.000Z</time>
      </trkpt>
      <trkpt lat="46.75595" lon="6.35538">
        <ele>1330</ele>
        <time>2017-05-22T10:17:22.000Z</time>
      </trkpt>
      <trkpt lat="46.75597" lon="6.35537">
        <ele>1330</ele>
        <time>2017-05-22T10:17:24.000Z</time>
      </trkpt>
      <trkpt lat="46.75599" lon="6.35537">
        <ele>1330</ele>
        <time>2017-05-22T10:17:26.000Z</time>
      </trkpt>
      <trkpt lat="46.75601" lon="6.35537">
        <ele>1329.28</ele>
        <time>2017-05-22T10:17:28.000Z</time>
      </trkpt>
      <trkpt lat="46.75604" lon="6.35537">
        <ele>1329</ele>
        <time>2017-05-22T10:17:30.000Z</time>
      </trkpt>
      <trkpt lat="46.75606" lon="6.35537">
        <ele>1327.28</ele>
        <time>2017-05-22T10:17:32.000Z</time>
      </trkpt>
      <trkpt lat="46.75609" lon="6.35537">
        <ele>1327</ele>
        <time>2017-05-22T10:17:34.000Z</time>
      </trkpt>
      <trkpt lat="46.75611" lon="6.35537">
        <ele>1327</ele>
        <time>2017-05-22T10:17:36.000Z</time>
      </trkpt>
      <trkpt lat="46.75614" lon="6.35536">
        <ele>1327</ele>
        <time>2017-05-22T10:17:38.000Z</time>
      </trkpt>
      <trkpt lat="46.75616" lon="6.35535">
        <ele>1327</ele>
        <time>2017-05-22T10:17:40.000Z</time>
      </trkpt>
      <trkpt lat="46.75618" lon="6.35535">
        <ele>1327</ele>
        <time>2017-05-22T10:17:42.000Z</time>
      </trkpt>
      <trkpt lat="46.75621" lon="6.35535">
        <ele>1327</ele>
        <time>2017-05-22T10:17:44.000Z</time>
      </trkpt>
      <trkpt lat="46.75623" lon="6.35536">
        <ele>1326</ele>
        <time>2017-05-22T10:17:46.000Z</time>
      </trkpt>
      <trkpt lat="46.75625" lon="6.35535">
        <ele>1326</ele>
        <time>2017-05-22T10:17:48.000Z</time>
      </trkpt>
      <trkpt lat="46.75628" lon="6.35534">
        <ele>1325.28</ele>
        <time>2017-05-22T10:17:50.000Z</time>
      </trkpt>
      <trkpt lat="46.75631" lon="6.35533">
        <ele>1325</ele>
        <time>2017-05-22T10:17:52.000Z</time>
      </trkpt>
      <trkpt lat="46.75634" lon="6.35533">
        <ele>1325</ele>
        <time>2017-05-22T10:17:54.000Z</time>
      </trkpt>
      <trkpt lat="46.75636" lon="6.35533">
        <ele>1325</ele>
        <time>2017-05-22T10:17:56.000Z</time>
      </trkpt>
      <trkpt lat="46.75639" lon="6.35532">
        <ele>1324</ele>
        <time>2017-05-22T10:17:58.000Z</time>
      </trkpt>
      <trkpt lat="46.75642" lon="6.35532">
        <ele>1323</ele>
        <time>2017-05-22T10:18:00.000Z</time>
      </trkpt>
      <trkpt lat="46.75644" lon="6.35532">
        <ele>1323</ele>
        <time>2017-05-22T10:18:02.000Z</time>
      </trkpt>
      <trkpt lat="46.75646" lon="6.35532">
        <ele>1322</ele>
        <time>2017-05-22T10:18:04.000Z</time>
      </trkpt>
      <trkpt lat="46.75649" lon="6.35532">
        <ele>1322</ele>
        <time>2017-05-22T10:18:06.000Z</time>
      </trkpt>
      <trkpt lat="46.75652" lon="6.35532">
        <ele>1321.28</ele>
        <time>2017-05-22T10:18:08.000Z</time>
      </trkpt>
      <trkpt lat="46.75654" lon="6.35532">
        <ele>1321</ele>
        <time>2017-05-22T10:18:10.000Z</time>
      </trkpt>
      <trkpt lat="46.75656" lon="6.35531">
        <ele>1321</ele>
        <time>2017-05-22T10:18:12.000Z</time>
      </trkpt>
      <trkpt lat="46.75659" lon="6.35531">
        <ele>1320</ele>
        <time>2017-05-22T10:18:14.000Z</time>
      </trkpt>
      <trkpt lat="46.75662" lon="6.35531">
        <ele>1320</ele>
        <time>2017-05-22T10:18:16.000Z</time>
      </trkpt>
      <trkpt lat="46.75664" lon="6.35531">
        <ele>1320</ele>
        <time>2017-05-22T10:18:18.000Z</time>
      </trkpt>
      <trkpt lat="46.75666" lon="6.3553">
        <ele>1319</ele>
        <time>2017-05-22T10:18:20.000Z</time>
      </trkpt>
      <trkpt lat="46.75669" lon="6.35529">
        <ele>1319</ele>
        <time>2017-05-22T10:18:22.000Z</time>
      </trkpt>
      <trkpt lat="46.75672" lon="6.35529">
        <ele>1319</ele>
        <time>2017-05-22T10:18:24.000Z</time>
      </trkpt>
      <trkpt lat="46.75674" lon="6.35529">
        <ele>1317.4545454546</ele>
        <time>2017-05-22T10:18:26.000Z</time>
      </trkpt>
      <trkpt lat="46.75677" lon="6.35529">
        <ele>1317</ele>
        <time>2017-05-22T10:18:28.000Z</time>
      </trkpt>
      <trkpt lat="46.7568" lon="6.35528">
        <ele>1317</ele>
        <time>2017-05-22T10:18:30.000Z</time>
      </trkpt>
      <trkpt lat="46.75683" lon="6.35527">
        <ele>1316.28</ele>
        <time>2017-05-22T10:18:32.000Z</time>
      </trkpt>
      <trkpt lat="46.75685" lon="6.35527">
        <ele>1316</ele>
        <time>2017-05-22T10:18:34.000Z</time>
      </trkpt>
      <trkpt lat="46.75687" lon="6.35527">
        <ele>1316</ele>
        <time>2017-05-22T10:18:36.000Z</time>
      </trkpt>
      <trkpt lat="46.75689" lon="6.35527">
        <ele>1316</ele>
        <time>2017-05-22T10:18:38.000Z</time>
      </trkpt>
      <trkpt lat="46.75692" lon="6.35527">
        <ele>1315</ele>
        <time>2017-05-22T10:18:40.000Z</time>
      </trkpt>
      <trkpt lat="46.75694" lon="6.35528">
        <ele>1315</ele>
        <time>2017-05-22T10:18:42.000Z</time>
      </trkpt>
      <trkpt lat="46.75696" lon="6.35529">
        <ele>1315</ele>
        <time>2017-05-22T10:18:44.000Z</time>
      </trkpt>
      <trkpt lat="46.75698" lon="6.3553">
        <ele>1315</ele>
        <time>2017-05-22T10:18:46.000Z</time>
      </trkpt>
      <trkpt lat="46.75701" lon="6.3553">
        <ele>1314.28</ele>
        <time>2017-05-22T10:18:48.000Z</time>
      </trkpt>
      <trkpt lat="46.75704" lon="6.35531">
        <ele>1314</ele>
        <time>2017-05-22T10:18:50.000Z</time>
      </trkpt>
      <trkpt lat="46.75707" lon="6.35531">
        <ele>1314</ele>
        <time>2017-05-22T10:18:52.000Z</time>
      </trkpt>
      <trkpt lat="46.7571" lon="6.35532">
        <ele>1313.2941220761</ele>
        <time>2017-05-22T10:18:54.000Z</time>
      </trkpt>
      <trkpt lat="46.75713" lon="6.35532">
        <ele>1313</ele>
        <time>2017-05-22T10:18:56.000Z</time>
      </trkpt>
      <trkpt lat="46.75716" lon="6.35532">
        <ele>1313</ele>
        <time>2017-05-22T10:18:58.000Z</time>
      </trkpt>
      <trkpt lat="46.75719" lon="6.35533">
        <ele>1313</ele>
        <time>2017-05-22T10:19:00.000Z</time>
      </trkpt>
      <trkpt lat="46.75721" lon="6.35534">
        <ele>1313</ele>
        <time>2017-05-22T10:19:02.000Z</time>
      </trkpt>
      <trkpt lat="46.75724" lon="6.35534">
        <ele>1313</ele>
        <time>2017-05-22T10:19:04.000Z</time>
      </trkpt>
      <trkpt lat="46.75727" lon="6.35535">
        <ele>1313</ele>
        <time>2017-05-22T10:19:06.000Z</time>
      </trkpt>
      <trkpt lat="46.75731" lon="6.35536">
        <ele>1313</ele>
        <time>2017-05-22T10:19:08.000Z</time>
      </trkpt>
      <trkpt lat="46.75732" lon="6.35537">
        <ele>1313</ele>
        <time>2017-05-22T10:19:09.000Z</time>
      </trkpt>
      <trkpt lat="46.75735" lon="6.35538">
        <ele>1313</ele>
        <time>2017-05-22T10:19:11.000Z</time>
      </trkpt>
      <trkpt lat="46.75738" lon="6.35539">
        <ele>1313</ele>
        <time>2017-05-22T10:19:15.000Z</time>
      </trkpt>
      <trkpt lat="46.75741" lon="6.3554">
        <ele>1313</ele>
        <time>2017-05-22T10:19:17.000Z</time>
      </trkpt>
      <trkpt lat="46.75744" lon="6.35541">
        <ele>1313</ele>
        <time>2017-05-22T10:19:19.000Z</time>
      </trkpt>
      <trkpt lat="46.75747" lon="6.35542">
        <ele>1313</ele>
        <time>2017-05-22T10:19:21.000Z</time>
      </trkpt>
      <trkpt lat="46.7575" lon="6.35543">
        <ele>1313</ele>
        <time>2017-05-22T10:19:23.000Z</time>
      </trkpt>
      <trkpt lat="46.75753" lon="6.35543">
        <ele>1313</ele>
        <time>2017-05-22T10:19:25.000Z</time>
      </trkpt>
      <trkpt lat="46.75755" lon="6.35545">
        <ele>1312</ele>
        <time>2017-05-22T10:19:27.000Z</time>
      </trkpt>
      <trkpt lat="46.75759" lon="6.35546">
        <ele>1312</ele>
        <time>2017-05-22T10:19:29.000Z</time>
      </trkpt>
      <trkpt lat="46.75762" lon="6.35547">
        <ele>1312</ele>
        <time>2017-05-22T10:19:31.000Z</time>
      </trkpt>
      <trkpt lat="46.75764" lon="6.35548">
        <ele>1312</ele>
        <time>2017-05-22T10:19:33.000Z</time>
      </trkpt>
      <trkpt lat="46.75767" lon="6.35548">
        <ele>1312</ele>
        <time>2017-05-22T10:19:35.000Z</time>
      </trkpt>
      <trkpt lat="46.7577" lon="6.35549">
        <ele>1312</ele>
        <time>2017-05-22T10:19:37.000Z</time>
      </trkpt>
      <trkpt lat="46.75773" lon="6.3555">
        <ele>1312</ele>
        <time>2017-05-22T10:19:39.000Z</time>
      </trkpt>
      <trkpt lat="46.75776" lon="6.3555">
        <ele>1312</ele>
        <time>2017-05-22T10:19:41.000Z</time>
      </trkpt>
      <trkpt lat="46.75778" lon="6.35551">
        <ele>1311</ele>
        <time>2017-05-22T10:19:43.000Z</time>
      </trkpt>
      <trkpt lat="46.75781" lon="6.35551">
        <ele>1310</ele>
        <time>2017-05-22T10:19:45.000Z</time>
      </trkpt>
      <trkpt lat="46.75784" lon="6.35552">
        <ele>1310</ele>
        <time>2017-05-22T10:19:47.000Z</time>
      </trkpt>
      <trkpt lat="46.75786" lon="6.35552">
        <ele>1310</ele>
        <time>2017-05-22T10:19:49.000Z</time>
      </trkpt>
      <trkpt lat="46.75788" lon="6.35553">
        <ele>1310</ele>
        <time>2017-05-22T10:19:51.000Z</time>
      </trkpt>
      <trkpt lat="46.75791" lon="6.35554">
        <ele>1309</ele>
        <time>2017-05-22T10:19:53.000Z</time>
      </trkpt>
      <trkpt lat="46.75793" lon="6.35555">
        <ele>1309</ele>
        <time>2017-05-22T10:19:55.000Z</time>
      </trkpt>
      <trkpt lat="46.75795" lon="6.35555">
        <ele>1309</ele>
        <time>2017-05-22T10:19:57.000Z</time>
      </trkpt>
      <trkpt lat="46.75798" lon="6.35557">
        <ele>1309</ele>
        <time>2017-05-22T10:19:59.000Z</time>
      </trkpt>
      <trkpt lat="46.758" lon="6.35558">
        <ele>1308.28</ele>
        <time>2017-05-22T10:20:01.000Z</time>
      </trkpt>
      <trkpt lat="46.75803" lon="6.35559">
        <ele>1308</ele>
        <time>2017-05-22T10:20:03.000Z</time>
      </trkpt>
      <trkpt lat="46.75805" lon="6.3556">
        <ele>1307.28</ele>
        <time>2017-05-22T10:20:05.000Z</time>
      </trkpt>
      <trkpt lat="46.75807" lon="6.35561">
        <ele>1307</ele>
        <time>2017-05-22T10:20:07.000Z</time>
      </trkpt>
      <trkpt lat="46.7581" lon="6.35564">
        <ele>1306</ele>
        <time>2017-05-22T10:20:09.000Z</time>
      </trkpt>
      <trkpt lat="46.75812" lon="6.35566">
        <ele>1306</ele>
        <time>2017-05-22T10:20:11.000Z</time>
      </trkpt>
      <trkpt lat="46.75814" lon="6.35568">
        <ele>1306</ele>
        <time>2017-05-22T10:20:13.000Z</time>
      </trkpt>
      <trkpt lat="46.75816" lon="6.35569">
        <ele>1306</ele>
        <time>2017-05-22T10:20:15.000Z</time>
      </trkpt>
      <trkpt lat="46.75818" lon="6.3557">
        <ele>1305</ele>
        <time>2017-05-22T10:20:17.000Z</time>
      </trkpt>
      <trkpt lat="46.7582" lon="6.35571">
        <ele>1305</ele>
        <time>2017-05-22T10:20:19.000Z</time>
      </trkpt>
      <trkpt lat="46.75822" lon="6.35573">
        <ele>1304</ele>
        <time>2017-05-22T10:20:21.000Z</time>
      </trkpt>
      <trkpt lat="46.75825" lon="6.35575">
        <ele>1304</ele>
        <time>2017-05-22T10:20:23.000Z</time>
      </trkpt>
      <trkpt lat="46.75827" lon="6.35576">
        <ele>1304</ele>
        <time>2017-05-22T10:20:25.000Z</time>
      </trkpt>
      <trkpt lat="46.75829" lon="6.35578">
        <ele>1304</ele>
        <time>2017-05-22T10:20:27.000Z</time>
      </trkpt>
      <trkpt lat="46.75832" lon="6.35579">
        <ele>1303</ele>
        <time>2017-05-22T10:20:29.000Z</time>
      </trkpt>
      <trkpt lat="46.75834" lon="6.35581">
        <ele>1302</ele>
        <time>2017-05-22T10:20:31.000Z</time>
      </trkpt>
      <trkpt lat="46.75837" lon="6.35582">
        <ele>1302</ele>
        <time>2017-05-22T10:20:33.000Z</time>
      </trkpt>
      <trkpt lat="46.75839" lon="6.35584">
        <ele>1301.450383022</ele>
        <time>2017-05-22T10:20:35.000Z</time>
      </trkpt>
      <trkpt lat="46.7584" lon="6.35585">
        <ele>1301</ele>
        <time>2017-05-22T10:20:37.000Z</time>
      </trkpt>
      <trkpt lat="46.75842" lon="6.35587">
        <ele>1300.28</ele>
        <time>2017-05-22T10:20:39.000Z</time>
      </trkpt>
      <trkpt lat="46.75844" lon="6.35588">
        <ele>1299</ele>
        <time>2017-05-22T10:20:41.000Z</time>
      </trkpt>
      <trkpt lat="46.75847" lon="6.35589">
        <ele>1299</ele>
        <time>2017-05-22T10:20:43.000Z</time>
      </trkpt>
      <trkpt lat="46.75849" lon="6.35591">
        <ele>1299</ele>
        <time>2017-05-22T10:20:45.000Z</time>
      </trkpt>
      <trkpt lat="46.75852" lon="6.35592">
        <ele>1299</ele>
        <time>2017-05-22T10:20:47.000Z</time>
      </trkpt>
      <trkpt lat="46.75854" lon="6.35594">
        <ele>1299</ele>
        <time>2017-05-22T10:20:49.000Z</time>
      </trkpt>
      <trkpt lat="46.75856" lon="6.35596">
        <ele>1298.28</ele>
        <time>2017-05-22T10:20:51.000Z</time>
      </trkpt>
      <trkpt lat="46.75858" lon="6.35598">
        <ele>1298</ele>
        <time>2017-05-22T10:20:53.000Z</time>
      </trkpt>
      <trkpt lat="46.7586" lon="6.356">
        <ele>1297.4057989834</ele>
        <time>2017-05-22T10:20:55.000Z</time>
      </trkpt>
      <trkpt lat="46.75862" lon="6.35602">
        <ele>1296.450383022</ele>
        <time>2017-05-22T10:20:57.000Z</time>
      </trkpt>
      <trkpt lat="46.75864" lon="6.35603">
        <ele>1296</ele>
        <time>2017-05-22T10:20:59.000Z</time>
      </trkpt>
      <trkpt lat="46.75866" lon="6.35605">
        <ele>1295.28</ele>
        <time>2017-05-22T10:21:01.000Z</time>
      </trkpt>
      <trkpt lat="46.75868" lon="6.35606">
        <ele>1294.28</ele>
        <time>2017-05-22T10:21:03.000Z</time>
      </trkpt>
      <trkpt lat="46.7587" lon="6.35608">
        <ele>1294</ele>
        <time>2017-05-22T10:21:05.000Z</time>
      </trkpt>
      <trkpt lat="46.75872" lon="6.35609">
        <ele>1294</ele>
        <time>2017-05-22T10:21:07.000Z</time>
      </trkpt>
      <trkpt lat="46.75875" lon="6.3561">
        <ele>1294</ele>
        <time>2017-05-22T10:21:09.000Z</time>
      </trkpt>
      <trkpt lat="46.75877" lon="6.35611">
        <ele>1294</ele>
        <time>2017-05-22T10:21:11.000Z</time>
      </trkpt>
      <trkpt lat="46.7588" lon="6.35611">
        <ele>1293</ele>
        <time>2017-05-22T10:21:13.000Z</time>
      </trkpt>
      <trkpt lat="46.75882" lon="6.35613">
        <ele>1292</ele>
        <time>2017-05-22T10:21:15.000Z</time>
      </trkpt>
      <trkpt lat="46.75884" lon="6.35615">
        <ele>1291.28</ele>
        <time>2017-05-22T10:21:17.000Z</time>
      </trkpt>
      <trkpt lat="46.75887" lon="6.35617">
        <ele>1291</ele>
        <time>2017-05-22T10:21:19.000Z</time>
      </trkpt>
      <trkpt lat="46.7589" lon="6.35618">
        <ele>1289.28</ele>
        <time>2017-05-22T10:21:21.000Z</time>
      </trkpt>
      <trkpt lat="46.75892" lon="6.35619">
        <ele>1289</ele>
        <time>2017-05-22T10:21:22.000Z</time>
      </trkpt>
      <trkpt lat="46.75894" lon="6.35619">
        <ele>1289</ele>
        <time>2017-05-22T10:21:23.000Z</time>
      </trkpt>
      <trkpt lat="46.75897" lon="6.35621">
        <ele>1289</ele>
        <time>2017-05-22T10:21:25.000Z</time>
      </trkpt>
      <trkpt lat="46.75899" lon="6.35622">
        <ele>1289</ele>
        <time>2017-05-22T10:21:27.000Z</time>
      </trkpt>
      <trkpt lat="46.75901" lon="6.35624">
        <ele>1288.28</ele>
        <time>2017-05-22T10:21:29.000Z</time>
      </trkpt>
      <trkpt lat="46.75903" lon="6.35626">
        <ele>1288</ele>
        <time>2017-05-22T10:21:31.000Z</time>
      </trkpt>
      <trkpt lat="46.75905" lon="6.35628">
        <ele>1287</ele>
        <time>2017-05-22T10:21:33.000Z</time>
      </trkpt>
      <trkpt lat="46.75907" lon="6.3563">
        <ele>1287</ele>
        <time>2017-05-22T10:21:35.000Z</time>
      </trkpt>
      <trkpt lat="46.7591" lon="6.35632">
        <ele>1286</ele>
        <time>2017-05-22T10:21:37.000Z</time>
      </trkpt>
      <trkpt lat="46.75912" lon="6.35634">
        <ele>1285.28</ele>
        <time>2017-05-22T10:21:39.000Z</time>
      </trkpt>
      <trkpt lat="46.75915" lon="6.35636">
        <ele>1285</ele>
        <time>2017-05-22T10:21:41.000Z</time>
      </trkpt>
      <trkpt lat="46.75917" lon="6.35639">
        <ele>1285</ele>
        <time>2017-05-22T10:21:43.000Z</time>
      </trkpt>
      <trkpt lat="46.75921" lon="6.35641">
        <ele>1284</ele>
        <time>2017-05-22T10:21:45.000Z</time>
      </trkpt>
      <trkpt lat="46.75922" lon="6.35642">
        <ele>1284</ele>
        <time>2017-05-22T10:21:46.000Z</time>
      </trkpt>
      <trkpt lat="46.75925" lon="6.35644">
        <ele>1284</ele>
        <time>2017-05-22T10:21:48.000Z</time>
      </trkpt>
      <trkpt lat="46.75927" lon="6.35646">
        <ele>1284</ele>
        <time>2017-05-22T10:21:50.000Z</time>
      </trkpt>
      <trkpt lat="46.75928" lon="6.35648">
        <ele>1284</ele>
        <time>2017-05-22T10:21:52.000Z</time>
      </trkpt>
      <trkpt lat="46.7593" lon="6.35651">
        <ele>1283.28</ele>
        <time>2017-05-22T10:21:54.000Z</time>
      </trkpt>
      <trkpt lat="46.75931" lon="6.35653">
        <ele>1283</ele>
        <time>2017-05-22T10:21:56.000Z</time>
      </trkpt>
      <trkpt lat="46.75933" lon="6.35655">
        <ele>1282.28</ele>
        <time>2017-05-22T10:21:58.000Z</time>
      </trkpt>
      <trkpt lat="46.75935" lon="6.35658">
        <ele>1282</ele>
        <time>2017-05-22T10:22:00.000Z</time>
      </trkpt>
      <trkpt lat="46.75937" lon="6.3566">
        <ele>1282</ele>
        <time>2017-05-22T10:22:02.000Z</time>
      </trkpt>
      <trkpt lat="46.7594" lon="6.35662">
        <ele>1282</ele>
        <time>2017-05-22T10:22:04.000Z</time>
      </trkpt>
      <trkpt lat="46.75939" lon="6.35664">
        <ele>1281</ele>
        <time>2017-05-22T10:22:08.000Z</time>
      </trkpt>
      <trkpt lat="46.75941" lon="6.35668">
        <ele>1281</ele>
        <time>2017-05-22T10:22:12.000Z</time>
      </trkpt>
      <trkpt lat="46.75943" lon="6.3567">
        <ele>1281</ele>
        <time>2017-05-22T10:22:14.000Z</time>
      </trkpt>
      <trkpt lat="46.75946" lon="6.35673">
        <ele>1280</ele>
        <time>2017-05-22T10:22:16.000Z</time>
      </trkpt>
      <trkpt lat="46.75948" lon="6.35676">
        <ele>1280</ele>
        <time>2017-05-22T10:22:18.000Z</time>
      </trkpt>
      <trkpt lat="46.7595" lon="6.3568">
        <ele>1280</ele>
        <time>2017-05-22T10:22:20.000Z</time>
      </trkpt>
      <trkpt lat="46.75953" lon="6.35683">
        <ele>1279</ele>
        <time>2017-05-22T10:22:22.000Z</time>
      </trkpt>
      <trkpt lat="46.75956" lon="6.35686">
        <ele>1279</ele>
        <time>2017-05-22T10:22:24.000Z</time>
      </trkpt>
      <trkpt lat="46.75958" lon="6.35687">
        <ele>1279</ele>
        <time>2017-05-22T10:22:25.000Z</time>
      </trkpt>
      <trkpt lat="46.7596" lon="6.3569">
        <ele>1278</ele>
        <time>2017-05-22T10:22:27.000Z</time>
      </trkpt>
      <trkpt lat="46.75962" lon="6.35693">
        <ele>1278</ele>
        <time>2017-05-22T10:22:29.000Z</time>
      </trkpt>
      <trkpt lat="46.75965" lon="6.35696">
        <ele>1277</ele>
        <time>2017-05-22T10:22:31.000Z</time>
      </trkpt>
      <trkpt lat="46.75966" lon="6.35698">
        <ele>1277</ele>
        <time>2017-05-22T10:22:32.000Z</time>
      </trkpt>
      <trkpt lat="46.75968" lon="6.35699">
        <ele>1276.28</ele>
        <time>2017-05-22T10:22:33.000Z</time>
      </trkpt>
      <trkpt lat="46.75969" lon="6.35701">
        <ele>1276</ele>
        <time>2017-05-22T10:22:34.000Z</time>
      </trkpt>
      <trkpt lat="46.75971" lon="6.35704">
        <ele>1276</ele>
        <time>2017-05-22T10:22:36.000Z</time>
      </trkpt>
      <trkpt lat="46.75974" lon="6.35707">
        <ele>1275</ele>
        <time>2017-05-22T10:22:38.000Z</time>
      </trkpt>
      <trkpt lat="46.75975" lon="6.35709">
        <ele>1275</ele>
        <time>2017-05-22T10:22:39.000Z</time>
      </trkpt>
      <trkpt lat="46.75977" lon="6.3571">
        <ele>1275</ele>
        <time>2017-05-22T10:22:40.000Z</time>
      </trkpt>
      <trkpt lat="46.75979" lon="6.35713">
        <ele>1275</ele>
        <time>2017-05-22T10:22:42.000Z</time>
      </trkpt>
      <trkpt lat="46.75982" lon="6.35716">
        <ele>1275</ele>
        <time>2017-05-22T10:22:44.000Z</time>
      </trkpt>
      <trkpt lat="46.75983" lon="6.35719">
        <ele>1275</ele>
        <time>2017-05-22T10:22:46.000Z</time>
      </trkpt>
      <trkpt lat="46.75985" lon="6.35721">
        <ele>1274</ele>
        <time>2017-05-22T10:22:48.000Z</time>
      </trkpt>
      <trkpt lat="46.75988" lon="6.35725">
        <ele>1274</ele>
        <time>2017-05-22T10:22:50.000Z</time>
      </trkpt>
      <trkpt lat="46.7599" lon="6.35728">
        <ele>1273.28</ele>
        <time>2017-05-22T10:22:52.000Z</time>
      </trkpt>
      <trkpt lat="46.75993" lon="6.3573">
        <ele>1273</ele>
        <time>2017-05-22T10:22:54.000Z</time>
      </trkpt>
      <trkpt lat="46.75995" lon="6.35733">
        <ele>1272</ele>
        <time>2017-05-22T10:22:56.000Z</time>
      </trkpt>
      <trkpt lat="46.75997" lon="6.35736">
        <ele>1272</ele>
        <time>2017-05-22T10:22:58.000Z</time>
      </trkpt>
      <trkpt lat="46.76" lon="6.35739">
        <ele>1271</ele>
        <time>2017-05-22T10:23:00.000Z</time>
      </trkpt>
      <trkpt lat="46.76002" lon="6.35742">
        <ele>1271</ele>
        <time>2017-05-22T10:23:02.000Z</time>
      </trkpt>
      <trkpt lat="46.76004" lon="6.35745">
        <ele>1271</ele>
        <time>2017-05-22T10:23:04.000Z</time>
      </trkpt>
      <trkpt lat="46.76006" lon="6.35747">
        <ele>1270.28</ele>
        <time>2017-05-22T10:23:06.000Z</time>
      </trkpt>
      <trkpt lat="46.76007" lon="6.35751">
        <ele>1270</ele>
        <time>2017-05-22T10:23:08.000Z</time>
      </trkpt>
      <trkpt lat="46.76009" lon="6.35754">
        <ele>1270</ele>
        <time>2017-05-22T10:23:10.000Z</time>
      </trkpt>
      <trkpt lat="46.76011" lon="6.35757">
        <ele>1270</ele>
        <time>2017-05-22T10:23:12.000Z</time>
      </trkpt>
      <trkpt lat="46.76012" lon="6.3576">
        <ele>1270</ele>
        <time>2017-05-22T10:23:14.000Z</time>
      </trkpt>
      <trkpt lat="46.76014" lon="6.35764">
        <ele>1269</ele>
        <time>2017-05-22T10:23:16.000Z</time>
      </trkpt>
      <trkpt lat="46.76016" lon="6.35767">
        <ele>1268.28</ele>
        <time>2017-05-22T10:23:18.000Z</time>
      </trkpt>
      <trkpt lat="46.76018" lon="6.35769">
        <ele>1268</ele>
        <time>2017-05-22T10:23:20.000Z</time>
      </trkpt>
      <trkpt lat="46.76019" lon="6.35772">
        <ele>1267.450383022</ele>
        <time>2017-05-22T10:23:22.000Z</time>
      </trkpt>
      <trkpt lat="46.76021" lon="6.35776">
        <ele>1267</ele>
        <time>2017-05-22T10:23:24.000Z</time>
      </trkpt>
      <trkpt lat="46.76023" lon="6.35779">
        <ele>1267</ele>
        <time>2017-05-22T10:23:26.000Z</time>
      </trkpt>
      <trkpt lat="46.76025" lon="6.35783">
        <ele>1267</ele>
        <time>2017-05-22T10:23:28.000Z</time>
      </trkpt>
      <trkpt lat="46.76027" lon="6.35786">
        <ele>1267</ele>
        <time>2017-05-22T10:23:30.000Z</time>
      </trkpt>
      <trkpt lat="46.76029" lon="6.35789">
        <ele>1266.28</ele>
        <time>2017-05-22T10:23:32.000Z</time>
      </trkpt>
      <trkpt lat="46.76031" lon="6.35792">
        <ele>1266</ele>
        <time>2017-05-22T10:23:34.000Z</time>
      </trkpt>
      <trkpt lat="46.76032" lon="6.35795">
        <ele>1266</ele>
        <time>2017-05-22T10:23:36.000Z</time>
      </trkpt>
      <trkpt lat="46.76034" lon="6.35798">
        <ele>1266</ele>
        <time>2017-05-22T10:23:38.000Z</time>
      </trkpt>
      <trkpt lat="46.76036" lon="6.35802">
        <ele>1265.28</ele>
        <time>2017-05-22T10:23:40.000Z</time>
      </trkpt>
      <trkpt lat="46.76037" lon="6.35805">
        <ele>1265</ele>
        <time>2017-05-22T10:23:42.000Z</time>
      </trkpt>
      <trkpt lat="46.76039" lon="6.35808">
        <ele>1264.28</ele>
        <time>2017-05-22T10:23:44.000Z</time>
      </trkpt>
      <trkpt lat="46.76041" lon="6.35811">
        <ele>1264</ele>
        <time>2017-05-22T10:23:46.000Z</time>
      </trkpt>
      <trkpt lat="46.76042" lon="6.35813">
        <ele>1263.28</ele>
        <time>2017-05-22T10:23:48.000Z</time>
      </trkpt>
      <trkpt lat="46.76044" lon="6.35816">
        <ele>1262.28</ele>
        <time>2017-05-22T10:23:50.000Z</time>
      </trkpt>
      <trkpt lat="46.76046" lon="6.3582">
        <ele>1262</ele>
        <time>2017-05-22T10:23:52.000Z</time>
      </trkpt>
      <trkpt lat="46.76047" lon="6.35823">
        <ele>1261</ele>
        <time>2017-05-22T10:23:54.000Z</time>
      </trkpt>
      <trkpt lat="46.76049" lon="6.35826">
        <ele>1261</ele>
        <time>2017-05-22T10:23:56.000Z</time>
      </trkpt>
      <trkpt lat="46.76051" lon="6.35829">
        <ele>1261</ele>
        <time>2017-05-22T10:23:58.000Z</time>
      </trkpt>
      <trkpt lat="46.76053" lon="6.35831">
        <ele>1259.28</ele>
        <time>2017-05-22T10:24:00.000Z</time>
      </trkpt>
      <trkpt lat="46.76054" lon="6.35834">
        <ele>1258</ele>
        <time>2017-05-22T10:24:02.000Z</time>
      </trkpt>
      <trkpt lat="46.76056" lon="6.35836">
        <ele>1258</ele>
        <time>2017-05-22T10:24:04.000Z</time>
      </trkpt>
      <trkpt lat="46.76057" lon="6.35839">
        <ele>1258</ele>
        <time>2017-05-22T10:24:06.000Z</time>
      </trkpt>
      <trkpt lat="46.76058" lon="6.35842">
        <ele>1258</ele>
        <time>2017-05-22T10:24:08.000Z</time>
      </trkpt>
      <trkpt lat="46.7606" lon="6.35845">
        <ele>1256.28</ele>
        <time>2017-05-22T10:24:10.000Z</time>
      </trkpt>
      <trkpt lat="46.76061" lon="6.35848">
        <ele>1255.28</ele>
        <time>2017-05-22T10:24:12.000Z</time>
      </trkpt>
      <trkpt lat="46.76063" lon="6.3585">
        <ele>1256</ele>
        <time>2017-05-22T10:24:14.000Z</time>
      </trkpt>
      <trkpt lat="46.76065" lon="6.35854">
        <ele>1255.28</ele>
        <time>2017-05-22T10:24:16.000Z</time>
      </trkpt>
      <trkpt lat="46.76066" lon="6.35857">
        <ele>1255</ele>
        <time>2017-05-22T10:24:18.000Z</time>
      </trkpt>
      <trkpt lat="46.76067" lon="6.3586">
        <ele>1254.2941220761</ele>
        <time>2017-05-22T10:24:20.000Z</time>
      </trkpt>
      <trkpt lat="46.76069" lon="6.35864">
        <ele>1253.28</ele>
        <time>2017-05-22T10:24:22.000Z</time>
      </trkpt>
      <trkpt lat="46.7607" lon="6.35867">
        <ele>1253</ele>
        <time>2017-05-22T10:24:24.000Z</time>
      </trkpt>
      <trkpt lat="46.76071" lon="6.3587">
        <ele>1252</ele>
        <time>2017-05-22T10:24:26.000Z</time>
      </trkpt>
      <trkpt lat="46.76072" lon="6.35873">
        <ele>1252</ele>
        <time>2017-05-22T10:24:28.000Z</time>
      </trkpt>
      <trkpt lat="46.76074" lon="6.35876">
        <ele>1252</ele>
        <time>2017-05-22T10:24:30.000Z</time>
      </trkpt>
      <trkpt lat="46.76075" lon="6.35879">
        <ele>1251.28</ele>
        <time>2017-05-22T10:24:32.000Z</time>
      </trkpt>
      <trkpt lat="46.76077" lon="6.35883">
        <ele>1251</ele>
        <time>2017-05-22T10:24:34.000Z</time>
      </trkpt>
      <trkpt lat="46.76078" lon="6.35886">
        <ele>1251</ele>
        <time>2017-05-22T10:24:36.000Z</time>
      </trkpt>
      <trkpt lat="46.76078" lon="6.3589">
        <ele>1251</ele>
        <time>2017-05-22T10:24:38.000Z</time>
      </trkpt>
      <trkpt lat="46.76078" lon="6.35894">
        <ele>1250</ele>
        <time>2017-05-22T10:24:40.000Z</time>
      </trkpt>
      <trkpt lat="46.76078" lon="6.35898">
        <ele>1249.450383022</ele>
        <time>2017-05-22T10:24:42.000Z</time>
      </trkpt>
      <trkpt lat="46.76078" lon="6.35902">
        <ele>1249</ele>
        <time>2017-05-22T10:24:44.000Z</time>
      </trkpt>
      <trkpt lat="46.76078" lon="6.35905">
        <ele>1249</ele>
        <time>2017-05-22T10:24:46.000Z</time>
      </trkpt>
      <trkpt lat="46.76079" lon="6.35908">
        <ele>1249</ele>
        <time>2017-05-22T10:24:48.000Z</time>
      </trkpt>
      <trkpt lat="46.7608" lon="6.35913">
        <ele>1248.28</ele>
        <time>2017-05-22T10:24:50.000Z</time>
      </trkpt>
      <trkpt lat="46.7608" lon="6.35916">
        <ele>1248</ele>
        <time>2017-05-22T10:24:52.000Z</time>
      </trkpt>
      <trkpt lat="46.76081" lon="6.3592">
        <ele>1247.28</ele>
        <time>2017-05-22T10:24:54.000Z</time>
      </trkpt>
      <trkpt lat="46.76081" lon="6.35923">
        <ele>1247</ele>
        <time>2017-05-22T10:24:56.000Z</time>
      </trkpt>
      <trkpt lat="46.76082" lon="6.35927">
        <ele>1247</ele>
        <time>2017-05-22T10:24:58.000Z</time>
      </trkpt>
      <trkpt lat="46.76084" lon="6.3593">
        <ele>1246.28</ele>
        <time>2017-05-22T10:25:00.000Z</time>
      </trkpt>
      <trkpt lat="46.76084" lon="6.35933">
        <ele>1246</ele>
        <time>2017-05-22T10:25:02.000Z</time>
      </trkpt>
      <trkpt lat="46.76086" lon="6.35936">
        <ele>1246</ele>
        <time>2017-05-22T10:25:04.000Z</time>
      </trkpt>
      <trkpt lat="46.76086" lon="6.3594">
        <ele>1246</ele>
        <time>2017-05-22T10:25:06.000Z</time>
      </trkpt>
      <trkpt lat="46.76086" lon="6.35943">
        <ele>1245</ele>
        <time>2017-05-22T10:25:08.000Z</time>
      </trkpt>
      <trkpt lat="46.76087" lon="6.35946">
        <ele>1245</ele>
        <time>2017-05-22T10:25:10.000Z</time>
      </trkpt>
      <trkpt lat="46.76088" lon="6.35949">
        <ele>1244.28</ele>
        <time>2017-05-22T10:25:12.000Z</time>
      </trkpt>
      <trkpt lat="46.76088" lon="6.35953">
        <ele>1244</ele>
        <time>2017-05-22T10:25:14.000Z</time>
      </trkpt>
      <trkpt lat="46.76089" lon="6.35956">
        <ele>1244</ele>
        <time>2017-05-22T10:25:16.000Z</time>
      </trkpt>
      <trkpt lat="46.7609" lon="6.35958">
        <ele>1243.450383022</ele>
        <time>2017-05-22T10:25:19.000Z</time>
      </trkpt>
      <trkpt lat="46.76092" lon="6.35959">
        <ele>1243</ele>
        <time>2017-05-22T10:25:23.000Z</time>
      </trkpt>
      <trkpt lat="46.76093" lon="6.35963">
        <ele>1241.28</ele>
        <time>2017-05-22T10:25:25.000Z</time>
      </trkpt>
      <trkpt lat="46.76094" lon="6.35966">
        <ele>1241</ele>
        <time>2017-05-22T10:25:27.000Z</time>
      </trkpt>
      <trkpt lat="46.76094" lon="6.3597">
        <ele>1241</ele>
        <time>2017-05-22T10:25:29.000Z</time>
      </trkpt>
      <trkpt lat="46.76095" lon="6.35973">
        <ele>1240</ele>
        <time>2017-05-22T10:25:31.000Z</time>
      </trkpt>
      <trkpt lat="46.76096" lon="6.35977">
        <ele>1239</ele>
        <time>2017-05-22T10:25:33.000Z</time>
      </trkpt>
      <trkpt lat="46.76097" lon="6.35981">
        <ele>1238.28</ele>
        <time>2017-05-22T10:25:35.000Z</time>
      </trkpt>
      <trkpt lat="46.76097" lon="6.35984">
        <ele>1238</ele>
        <time>2017-05-22T10:25:37.000Z</time>
      </trkpt>
      <trkpt lat="46.76097" lon="6.35987">
        <ele>1238</ele>
        <time>2017-05-22T10:25:39.000Z</time>
      </trkpt>
      <trkpt lat="46.76097" lon="6.3599">
        <ele>1238</ele>
        <time>2017-05-22T10:25:41.000Z</time>
      </trkpt>
      <trkpt lat="46.76098" lon="6.35993">
        <ele>1237.28</ele>
        <time>2017-05-22T10:25:43.000Z</time>
      </trkpt>
      <trkpt lat="46.76098" lon="6.35996">
        <ele>1236</ele>
        <time>2017-05-22T10:25:45.000Z</time>
      </trkpt>
      <trkpt lat="46.76098" lon="6.36">
        <ele>1235.28</ele>
        <time>2017-05-22T10:25:48.000Z</time>
      </trkpt>
      <trkpt lat="46.76098" lon="6.36004">
        <ele>1235</ele>
        <time>2017-05-22T10:25:50.000Z</time>
      </trkpt>
      <trkpt lat="46.76098" lon="6.36007">
        <ele>1234.28</ele>
        <time>2017-05-22T10:25:52.000Z</time>
      </trkpt>
      <trkpt lat="46.76098" lon="6.3601">
        <ele>1233.28</ele>
        <time>2017-05-22T10:25:54.000Z</time>
      </trkpt>
      <trkpt lat="46.76099" lon="6.36013">
        <ele>1233</ele>
        <time>2017-05-22T10:25:56.000Z</time>
      </trkpt>
      <trkpt lat="46.761" lon="6.36017">
        <ele>1233</ele>
        <time>2017-05-22T10:25:58.000Z</time>
      </trkpt>
      <trkpt lat="46.76101" lon="6.3602">
        <ele>1232</ele>
        <time>2017-05-22T10:26:00.000Z</time>
      </trkpt>
      <trkpt lat="46.76101" lon="6.36024">
        <ele>1231</ele>
        <time>2017-05-22T10:26:02.000Z</time>
      </trkpt>
      <trkpt lat="46.76102" lon="6.36028">
        <ele>1230</ele>
        <time>2017-05-22T10:26:04.000Z</time>
      </trkpt>
      <trkpt lat="46.76103" lon="6.36031">
        <ele>1229</ele>
        <time>2017-05-22T10:26:06.000Z</time>
      </trkpt>
      <trkpt lat="46.76103" lon="6.36034">
        <ele>1228</ele>
        <time>2017-05-22T10:26:08.000Z</time>
      </trkpt>
      <trkpt lat="46.76104" lon="6.36037">
        <ele>1227</ele>
        <time>2017-05-22T10:26:10.000Z</time>
      </trkpt>
      <trkpt lat="46.76106" lon="6.3604">
        <ele>1226.28</ele>
        <time>2017-05-22T10:26:12.000Z</time>
      </trkpt>
      <trkpt lat="46.76107" lon="6.36043">
        <ele>1225</ele>
        <time>2017-05-22T10:26:14.000Z</time>
      </trkpt>
      <trkpt lat="46.76109" lon="6.36045">
        <ele>1224</ele>
        <time>2017-05-22T10:26:16.000Z</time>
      </trkpt>
      <trkpt lat="46.76111" lon="6.36046">
        <ele>1224</ele>
        <time>2017-05-22T10:26:18.000Z</time>
      </trkpt>
      <trkpt lat="46.76113" lon="6.36049">
        <ele>1223</ele>
        <time>2017-05-22T10:26:20.000Z</time>
      </trkpt>
      <trkpt lat="46.76116" lon="6.36052">
        <ele>1223</ele>
        <time>2017-05-22T10:26:22.000Z</time>
      </trkpt>
      <trkpt lat="46.76118" lon="6.36054">
        <ele>1223</ele>
        <time>2017-05-22T10:26:24.000Z</time>
      </trkpt>
      <trkpt lat="46.7612" lon="6.36056">
        <ele>1222.28</ele>
        <time>2017-05-22T10:26:26.000Z</time>
      </trkpt>
      <trkpt lat="46.76122" lon="6.36058">
        <ele>1222</ele>
        <time>2017-05-22T10:26:28.000Z</time>
      </trkpt>
      <trkpt lat="46.76124" lon="6.3606">
        <ele>1222</ele>
        <time>2017-05-22T10:26:30.000Z</time>
      </trkpt>
      <trkpt lat="46.76126" lon="6.36063">
        <ele>1221</ele>
        <time>2017-05-22T10:26:32.000Z</time>
      </trkpt>
      <trkpt lat="46.76127" lon="6.36065">
        <ele>1221</ele>
        <time>2017-05-22T10:26:34.000Z</time>
      </trkpt>
      <trkpt lat="46.76127" lon="6.36069">
        <ele>1221</ele>
        <time>2017-05-22T10:26:36.000Z</time>
      </trkpt>
      <trkpt lat="46.76129" lon="6.36072">
        <ele>1220</ele>
        <time>2017-05-22T10:26:38.000Z</time>
      </trkpt>
      <trkpt lat="46.76129" lon="6.36075">
        <ele>1219.28</ele>
        <time>2017-05-22T10:26:40.000Z</time>
      </trkpt>
      <trkpt lat="46.76131" lon="6.36077">
        <ele>1219</ele>
        <time>2017-05-22T10:26:42.000Z</time>
      </trkpt>
      <trkpt lat="46.76131" lon="6.3608">
        <ele>1219</ele>
        <time>2017-05-22T10:26:44.000Z</time>
      </trkpt>
      <trkpt lat="46.76132" lon="6.36084">
        <ele>1218</ele>
        <time>2017-05-22T10:26:46.000Z</time>
      </trkpt>
      <trkpt lat="46.76132" lon="6.36087">
        <ele>1217.28</ele>
        <time>2017-05-22T10:26:48.000Z</time>
      </trkpt>
      <trkpt lat="46.76132" lon="6.36091">
        <ele>1217</ele>
        <time>2017-05-22T10:26:50.000Z</time>
      </trkpt>
      <trkpt lat="46.76132" lon="6.36095">
        <ele>1217</ele>
        <time>2017-05-22T10:26:52.000Z</time>
      </trkpt>
      <trkpt lat="46.7613" lon="6.36098">
        <ele>1217</ele>
        <time>2017-05-22T10:26:54.000Z</time>
      </trkpt>
      <trkpt lat="46.76129" lon="6.36102">
        <ele>1216</ele>
        <time>2017-05-22T10:26:56.000Z</time>
      </trkpt>
      <trkpt lat="46.76128" lon="6.36104">
        <ele>1216</ele>
        <time>2017-05-22T10:26:58.000Z</time>
      </trkpt>
      <trkpt lat="46.76127" lon="6.36107">
        <ele>1215.28</ele>
        <time>2017-05-22T10:27:00.000Z</time>
      </trkpt>
      <trkpt lat="46.76126" lon="6.36111">
        <ele>1215</ele>
        <time>2017-05-22T10:27:02.000Z</time>
      </trkpt>
      <trkpt lat="46.76125" lon="6.36115">
        <ele>1215</ele>
        <time>2017-05-22T10:27:04.000Z</time>
      </trkpt>
      <trkpt lat="46.76124" lon="6.36118">
        <ele>1214</ele>
        <time>2017-05-22T10:27:06.000Z</time>
      </trkpt>
      <trkpt lat="46.76123" lon="6.36121">
        <ele>1214</ele>
        <time>2017-05-22T10:27:08.000Z</time>
      </trkpt>
      <trkpt lat="46.76122" lon="6.36124">
        <ele>1214</ele>
        <time>2017-05-22T10:27:10.000Z</time>
      </trkpt>
      <trkpt lat="46.76122" lon="6.36128">
        <ele>1213</ele>
        <time>2017-05-22T10:27:13.000Z</time>
      </trkpt>
      <trkpt lat="46.76123" lon="6.3613">
        <ele>1212.4057989834</ele>
        <time>2017-05-22T10:27:15.000Z</time>
      </trkpt>
      <trkpt lat="46.76125" lon="6.36132">
        <ele>1212</ele>
        <time>2017-05-22T10:27:18.000Z</time>
      </trkpt>
      <trkpt lat="46.76127" lon="6.36134">
        <ele>1211</ele>
        <time>2017-05-22T10:27:20.000Z</time>
      </trkpt>
      <trkpt lat="46.76129" lon="6.36135">
        <ele>1210.28</ele>
        <time>2017-05-22T10:27:22.000Z</time>
      </trkpt>
      <trkpt lat="46.76131" lon="6.36135">
        <ele>1210</ele>
        <time>2017-05-22T10:27:24.000Z</time>
      </trkpt>
      <trkpt lat="46.76134" lon="6.36135">
        <ele>1209</ele>
        <time>2017-05-22T10:27:26.000Z</time>
      </trkpt>
      <trkpt lat="46.76136" lon="6.36134">
        <ele>1209</ele>
        <time>2017-05-22T10:27:28.000Z</time>
      </trkpt>
      <trkpt lat="46.76138" lon="6.36133">
        <ele>1208</ele>
        <time>2017-05-22T10:27:30.000Z</time>
      </trkpt>
      <trkpt lat="46.7614" lon="6.36133">
        <ele>1208</ele>
        <time>2017-05-22T10:27:32.000Z</time>
      </trkpt>
      <trkpt lat="46.76142" lon="6.36134">
        <ele>1208</ele>
        <time>2017-05-22T10:27:35.000Z</time>
      </trkpt>
      <trkpt lat="46.76145" lon="6.36134">
        <ele>1207</ele>
        <time>2017-05-22T10:27:38.000Z</time>
      </trkpt>
      <trkpt lat="46.76147" lon="6.36134">
        <ele>1207</ele>
        <time>2017-05-22T10:27:40.000Z</time>
      </trkpt>
      <trkpt lat="46.76149" lon="6.36135">
        <ele>1206</ele>
        <time>2017-05-22T10:27:42.000Z</time>
      </trkpt>
      <trkpt lat="46.76151" lon="6.36137">
        <ele>1205</ele>
        <time>2017-05-22T10:27:44.000Z</time>
      </trkpt>
      <trkpt lat="46.76151" lon="6.3614">
        <ele>1205</ele>
        <time>2017-05-22T10:27:46.000Z</time>
      </trkpt>
      <trkpt lat="46.76152" lon="6.36143">
        <ele>1205</ele>
        <time>2017-05-22T10:27:48.000Z</time>
      </trkpt>
      <trkpt lat="46.76154" lon="6.36145">
        <ele>1204</ele>
        <time>2017-05-22T10:27:50.000Z</time>
      </trkpt>
      <trkpt lat="46.76155" lon="6.36148">
        <ele>1204</ele>
        <time>2017-05-22T10:27:52.000Z</time>
      </trkpt>
      <trkpt lat="46.76156" lon="6.36151">
        <ele>1203</ele>
        <time>2017-05-22T10:27:54.000Z</time>
      </trkpt>
      <trkpt lat="46.76158" lon="6.36154">
        <ele>1202.28</ele>
        <time>2017-05-22T10:27:56.000Z</time>
      </trkpt>
      <trkpt lat="46.76158" lon="6.36157">
        <ele>1201.28</ele>
        <time>2017-05-22T10:27:58.000Z</time>
      </trkpt>
      <trkpt lat="46.76159" lon="6.36159">
        <ele>1201</ele>
        <time>2017-05-22T10:28:00.000Z</time>
      </trkpt>
      <trkpt lat="46.76161" lon="6.36162">
        <ele>1200</ele>
        <time>2017-05-22T10:28:02.000Z</time>
      </trkpt>
      <trkpt lat="46.76162" lon="6.36164">
        <ele>1200</ele>
        <time>2017-05-22T10:28:04.000Z</time>
      </trkpt>
      <trkpt lat="46.76164" lon="6.36167">
        <ele>1199</ele>
        <time>2017-05-22T10:28:06.000Z</time>
      </trkpt>
      <trkpt lat="46.76165" lon="6.3617">
        <ele>1199</ele>
        <time>2017-05-22T10:28:08.000Z</time>
      </trkpt>
      <trkpt lat="46.76167" lon="6.36173">
        <ele>1198</ele>
        <time>2017-05-22T10:28:10.000Z</time>
      </trkpt>
      <trkpt lat="46.76168" lon="6.36176">
        <ele>1197.5900032</ele>
        <time>2017-05-22T10:28:12.000Z</time>
      </trkpt>
      <trkpt lat="46.76169" lon="6.36179">
        <ele>1197</ele>
        <time>2017-05-22T10:28:14.000Z</time>
      </trkpt>
      <trkpt lat="46.76171" lon="6.36181">
        <ele>1196</ele>
        <time>2017-05-22T10:28:16.000Z</time>
      </trkpt>
      <trkpt lat="46.76172" lon="6.36183">
        <ele>1196</ele>
        <time>2017-05-22T10:28:18.000Z</time>
      </trkpt>
      <trkpt lat="46.76174" lon="6.36186">
        <ele>1195</ele>
        <time>2017-05-22T10:28:21.000Z</time>
      </trkpt>
      <trkpt lat="46.76175" lon="6.36189">
        <ele>1194</ele>
        <time>2017-05-22T10:28:24.000Z</time>
      </trkpt>
      <trkpt lat="46.76177" lon="6.36191">
        <ele>1193</ele>
        <time>2017-05-22T10:28:27.000Z</time>
      </trkpt>
      <trkpt lat="46.76178" lon="6.36193">
        <ele>1193</ele>
        <time>2017-05-22T10:28:29.000Z</time>
      </trkpt>
      <trkpt lat="46.7618" lon="6.36194">
        <ele>1192.4057989834</ele>
        <time>2017-05-22T10:28:31.000Z</time>
      </trkpt>
      <trkpt lat="46.76182" lon="6.36196">
        <ele>1191.28</ele>
        <time>2017-05-22T10:28:34.000Z</time>
      </trkpt>
      <trkpt lat="46.76184" lon="6.36198">
        <ele>1191</ele>
        <time>2017-05-22T10:28:36.000Z</time>
      </trkpt>
      <trkpt lat="46.76185" lon="6.362">
        <ele>1190.28</ele>
        <time>2017-05-22T10:28:38.000Z</time>
      </trkpt>
      <trkpt lat="46.76187" lon="6.36203">
        <ele>1189</ele>
        <time>2017-05-22T10:28:40.000Z</time>
      </trkpt>
      <trkpt lat="46.76189" lon="6.36205">
        <ele>1189</ele>
        <time>2017-05-22T10:28:42.000Z</time>
      </trkpt>
      <trkpt lat="46.76191" lon="6.36206">
        <ele>1189</ele>
        <time>2017-05-22T10:28:44.000Z</time>
      </trkpt>
      <trkpt lat="46.76193" lon="6.36207">
        <ele>1188.28</ele>
        <time>2017-05-22T10:28:46.000Z</time>
      </trkpt>
      <trkpt lat="46.76196" lon="6.3621">
        <ele>1186.450383022</ele>
        <time>2017-05-22T10:28:49.000Z</time>
      </trkpt>
      <trkpt lat="46.76198" lon="6.36212">
        <ele>1186</ele>
        <time>2017-05-22T10:28:51.000Z</time>
      </trkpt>
      <trkpt lat="46.762" lon="6.36213">
        <ele>1186</ele>
        <time>2017-05-22T10:28:53.000Z</time>
      </trkpt>
      <trkpt lat="46.76203" lon="6.36214">
        <ele>1185</ele>
        <time>2017-05-22T10:28:55.000Z</time>
      </trkpt>
      <trkpt lat="46.76205" lon="6.36217">
        <ele>1184</ele>
        <time>2017-05-22T10:28:57.000Z</time>
      </trkpt>
      <trkpt lat="46.76206" lon="6.36219">
        <ele>1184</ele>
        <time>2017-05-22T10:28:59.000Z</time>
      </trkpt>
      <trkpt lat="46.76208" lon="6.36221">
        <ele>1184</ele>
        <time>2017-05-22T10:29:01.000Z</time>
      </trkpt>
      <trkpt lat="46.7621" lon="6.36222">
        <ele>1183</ele>
        <time>2017-05-22T10:29:05.000Z</time>
      </trkpt>
      <trkpt lat="46.76212" lon="6.36224">
        <ele>1182</ele>
        <time>2017-05-22T10:29:10.000Z</time>
      </trkpt>
      <trkpt lat="46.76214" lon="6.36227">
        <ele>1182</ele>
        <time>2017-05-22T10:29:13.000Z</time>
      </trkpt>
      <trkpt lat="46.76216" lon="6.36226">
        <ele>1181</ele>
        <time>2017-05-22T10:29:20.000Z</time>
      </trkpt>
      <trkpt lat="46.76218" lon="6.36224">
        <ele>1180</ele>
        <time>2017-05-22T10:29:24.000Z</time>
      </trkpt>
      <trkpt lat="46.76219" lon="6.36222">
        <ele>1179</ele>
        <time>2017-05-22T10:29:27.000Z</time>
      </trkpt>
      <trkpt lat="46.76218" lon="6.36219">
        <ele>1178</ele>
        <time>2017-05-22T10:29:36.000Z</time>
      </trkpt>
      <trkpt lat="46.76217" lon="6.36215">
        <ele>1178</ele>
        <time>2017-05-22T10:29:39.000Z</time>
      </trkpt>
      <trkpt lat="46.76216" lon="6.36213">
        <ele>1178</ele>
        <time>2017-05-22T10:29:41.000Z</time>
      </trkpt>
      <trkpt lat="46.76216" lon="6.36209">
        <ele>1177</ele>
        <time>2017-05-22T10:29:44.000Z</time>
      </trkpt>
      <trkpt lat="46.76217" lon="6.36206">
        <ele>1176.450383022</ele>
        <time>2017-05-22T10:29:46.000Z</time>
      </trkpt>
      <trkpt lat="46.76219" lon="6.36206">
        <ele>1176</ele>
        <time>2017-05-22T10:29:48.000Z</time>
      </trkpt>
      <trkpt lat="46.76221" lon="6.36207">
        <ele>1175.28</ele>
        <time>2017-05-22T10:29:50.000Z</time>
      </trkpt>
      <trkpt lat="46.76222" lon="6.3621">
        <ele>1175</ele>
        <time>2017-05-22T10:29:53.000Z</time>
      </trkpt>
      <trkpt lat="46.76224" lon="6.36209">
        <ele>1174</ele>
        <time>2017-05-22T10:30:00.000Z</time>
      </trkpt>
      <trkpt lat="46.76226" lon="6.36207">
        <ele>1173.28</ele>
        <time>2017-05-22T10:30:04.000Z</time>
      </trkpt>
      <trkpt lat="46.76227" lon="6.36205">
        <ele>1173</ele>
        <time>2017-05-22T10:30:06.000Z</time>
      </trkpt>
      <trkpt lat="46.76229" lon="6.36203">
        <ele>1172.28</ele>
        <time>2017-05-22T10:30:08.000Z</time>
      </trkpt>
      <trkpt lat="46.76231" lon="6.36201">
        <ele>1171.28</ele>
        <time>2017-05-22T10:30:11.000Z</time>
      </trkpt>
      <trkpt lat="46.76232" lon="6.36199">
        <ele>1171</ele>
        <time>2017-05-22T10:30:13.000Z</time>
      </trkpt>
      <trkpt lat="46.76234" lon="6.36197">
        <ele>1169.3009730455</ele>
        <time>2017-05-22T10:30:15.000Z</time>
      </trkpt>
      <trkpt lat="46.76235" lon="6.36195">
        <ele>1169</ele>
        <time>2017-05-22T10:30:17.000Z</time>
      </trkpt>
      <trkpt lat="46.76237" lon="6.36193">
        <ele>1168.28</ele>
        <time>2017-05-22T10:30:19.000Z</time>
      </trkpt>
      <trkpt lat="46.76239" lon="6.36191">
        <ele>1167</ele>
        <time>2017-05-22T10:30:21.000Z</time>
      </trkpt>
      <trkpt lat="46.76241" lon="6.36189">
        <ele>1166</ele>
        <time>2017-05-22T10:30:23.000Z</time>
      </trkpt>
      <trkpt lat="46.76242" lon="6.36187">
        <ele>1166</ele>
        <time>2017-05-22T10:30:25.000Z</time>
      </trkpt>
      <trkpt lat="46.76245" lon="6.36185">
        <ele>1166</ele>
        <time>2017-05-22T10:30:27.000Z</time>
      </trkpt>
      <trkpt lat="46.76247" lon="6.36182">
        <ele>1165</ele>
        <time>2017-05-22T10:30:29.000Z</time>
      </trkpt>
      <trkpt lat="46.76249" lon="6.3618">
        <ele>1164</ele>
        <time>2017-05-22T10:30:31.000Z</time>
      </trkpt>
      <trkpt lat="46.76251" lon="6.36178">
        <ele>1164</ele>
        <time>2017-05-22T10:30:33.000Z</time>
      </trkpt>
      <trkpt lat="46.76253" lon="6.36176">
        <ele>1164</ele>
        <time>2017-05-22T10:30:35.000Z</time>
      </trkpt>
      <trkpt lat="46.76255" lon="6.36174">
        <ele>1163</ele>
        <time>2017-05-22T10:30:37.000Z</time>
      </trkpt>
      <trkpt lat="46.76258" lon="6.36172">
        <ele>1162.28</ele>
        <time>2017-05-22T10:30:39.000Z</time>
      </trkpt>
      <trkpt lat="46.7626" lon="6.36171">
        <ele>1162</ele>
        <time>2017-05-22T10:30:41.000Z</time>
      </trkpt>
      <trkpt lat="46.76262" lon="6.36169">
        <ele>1161</ele>
        <time>2017-05-22T10:30:43.000Z</time>
      </trkpt>
      <trkpt lat="46.76263" lon="6.36168">
        <ele>1161</ele>
        <time>2017-05-22T10:30:45.000Z</time>
      </trkpt>
      <trkpt lat="46.76265" lon="6.36166">
        <ele>1159.28</ele>
        <time>2017-05-22T10:30:47.000Z</time>
      </trkpt>
      <trkpt lat="46.76267" lon="6.36164">
        <ele>1159</ele>
        <time>2017-05-22T10:30:49.000Z</time>
      </trkpt>
      <trkpt lat="46.7627" lon="6.36162">
        <ele>1158</ele>
        <time>2017-05-22T10:30:51.000Z</time>
      </trkpt>
      <trkpt lat="46.76271" lon="6.3616">
        <ele>1158</ele>
        <time>2017-05-22T10:30:53.000Z</time>
      </trkpt>
      <trkpt lat="46.76273" lon="6.36157">
        <ele>1157.28</ele>
        <time>2017-05-22T10:30:55.000Z</time>
      </trkpt>
      <trkpt lat="46.76275" lon="6.36155">
        <ele>1157</ele>
        <time>2017-05-22T10:30:57.000Z</time>
      </trkpt>
      <trkpt lat="46.76277" lon="6.36153">
        <ele>1156.4545454546</ele>
        <time>2017-05-22T10:30:59.000Z</time>
      </trkpt>
      <trkpt lat="46.76279" lon="6.3615">
        <ele>1155</ele>
        <time>2017-05-22T10:31:01.000Z</time>
      </trkpt>
      <trkpt lat="46.7628" lon="6.36149">
        <ele>1154</ele>
        <time>2017-05-22T10:31:04.000Z</time>
      </trkpt>
      <trkpt lat="46.76282" lon="6.36147">
        <ele>1154</ele>
        <time>2017-05-22T10:31:06.000Z</time>
      </trkpt>
      <trkpt lat="46.76283" lon="6.36144">
        <ele>1153</ele>
        <time>2017-05-22T10:31:08.000Z</time>
      </trkpt>
      <trkpt lat="46.76284" lon="6.36141">
        <ele>1152.28</ele>
        <time>2017-05-22T10:31:10.000Z</time>
      </trkpt>
      <trkpt lat="46.76286" lon="6.3614">
        <ele>1152</ele>
        <time>2017-05-22T10:31:12.000Z</time>
      </trkpt>
      <trkpt lat="46.76288" lon="6.36138">
        <ele>1151</ele>
        <time>2017-05-22T10:31:14.000Z</time>
      </trkpt>
      <trkpt lat="46.7629" lon="6.36137">
        <ele>1150.28</ele>
        <time>2017-05-22T10:31:16.000Z</time>
      </trkpt>
      <trkpt lat="46.76292" lon="6.36135">
        <ele>1149.28</ele>
        <time>2017-05-22T10:31:18.000Z</time>
      </trkpt>
      <trkpt lat="46.76295" lon="6.36133">
        <ele>1149</ele>
        <time>2017-05-22T10:31:20.000Z</time>
      </trkpt>
      <trkpt lat="46.76297" lon="6.36131">
        <ele>1149</ele>
        <time>2017-05-22T10:31:22.000Z</time>
      </trkpt>
      <trkpt lat="46.76299" lon="6.36129">
        <ele>1148.28</ele>
        <time>2017-05-22T10:31:24.000Z</time>
      </trkpt>
      <trkpt lat="46.76301" lon="6.36127">
        <ele>1148</ele>
        <time>2017-05-22T10:31:26.000Z</time>
      </trkpt>
      <trkpt lat="46.76303" lon="6.36125">
        <ele>1148</ele>
        <time>2017-05-22T10:31:28.000Z</time>
      </trkpt>
      <trkpt lat="46.76305" lon="6.36123">
        <ele>1148</ele>
        <time>2017-05-22T10:31:30.000Z</time>
      </trkpt>
      <trkpt lat="46.76308" lon="6.36123">
        <ele>1147</ele>
        <time>2017-05-22T10:31:34.000Z</time>
      </trkpt>
      <trkpt lat="46.76309" lon="6.36123">
        <ele>1146.28</ele>
        <time>2017-05-22T10:31:36.000Z</time>
      </trkpt>
      <trkpt lat="46.76312" lon="6.36122">
        <ele>1146</ele>
        <time>2017-05-22T10:31:38.000Z</time>
      </trkpt>
      <trkpt lat="46.76314" lon="6.36122">
        <ele>1146</ele>
        <time>2017-05-22T10:31:40.000Z</time>
      </trkpt>
      <trkpt lat="46.76316" lon="6.36121">
        <ele>1146</ele>
        <time>2017-05-22T10:31:42.000Z</time>
      </trkpt>
      <trkpt lat="46.76318" lon="6.36124">
        <ele>1145.28</ele>
        <time>2017-05-22T10:31:44.000Z</time>
      </trkpt>
      <trkpt lat="46.76319" lon="6.36127">
        <ele>1145</ele>
        <time>2017-05-22T10:31:46.000Z</time>
      </trkpt>
      <trkpt lat="46.7632" lon="6.3613">
        <ele>1145</ele>
        <time>2017-05-22T10:31:47.000Z</time>
      </trkpt>
      <trkpt lat="46.7632" lon="6.36133">
        <ele>1145</ele>
        <time>2017-05-22T10:31:48.000Z</time>
      </trkpt>
      <trkpt lat="46.7632" lon="6.36136">
        <ele>1145</ele>
        <time>2017-05-22T10:31:49.000Z</time>
      </trkpt>
      <trkpt lat="46.7632" lon="6.36141">
        <ele>1145</ele>
        <time>2017-05-22T10:31:51.000Z</time>
      </trkpt>
      <trkpt lat="46.76319" lon="6.36146">
        <ele>1144</ele>
        <time>2017-05-22T10:31:53.000Z</time>
      </trkpt>
      <trkpt lat="46.76319" lon="6.3615">
        <ele>1144</ele>
        <time>2017-05-22T10:31:55.000Z</time>
      </trkpt>
      <trkpt lat="46.76318" lon="6.36154">
        <ele>1143</ele>
        <time>2017-05-22T10:31:57.000Z</time>
      </trkpt>
      <trkpt lat="46.76317" lon="6.36158">
        <ele>1143</ele>
        <time>2017-05-22T10:31:59.000Z</time>
      </trkpt>
      <trkpt lat="46.76316" lon="6.36163">
        <ele>1143</ele>
        <time>2017-05-22T10:32:01.000Z</time>
      </trkpt>
      <trkpt lat="46.76315" lon="6.36167">
        <ele>1143</ele>
        <time>2017-05-22T10:32:03.000Z</time>
      </trkpt>
      <trkpt lat="46.76313" lon="6.36171">
        <ele>1143</ele>
        <time>2017-05-22T10:32:05.000Z</time>
      </trkpt>
      <trkpt lat="46.76312" lon="6.36175">
        <ele>1143</ele>
        <time>2017-05-22T10:32:07.000Z</time>
      </trkpt>
      <trkpt lat="46.76311" lon="6.36179">
        <ele>1142.28</ele>
        <time>2017-05-22T10:32:09.000Z</time>
      </trkpt>
      <trkpt lat="46.7631" lon="6.36183">
        <ele>1142</ele>
        <time>2017-05-22T10:32:11.000Z</time>
      </trkpt>
      <trkpt lat="46.76309" lon="6.36186">
        <ele>1142</ele>
        <time>2017-05-22T10:32:13.000Z</time>
      </trkpt>
      <trkpt lat="46.76308" lon="6.3619">
        <ele>1142</ele>
        <time>2017-05-22T10:32:15.000Z</time>
      </trkpt>
      <trkpt lat="46.76308" lon="6.36194">
        <ele>1142</ele>
        <time>2017-05-22T10:32:17.000Z</time>
      </trkpt>
      <trkpt lat="46.76308" lon="6.36198">
        <ele>1142</ele>
        <time>2017-05-22T10:32:19.000Z</time>
      </trkpt>
      <trkpt lat="46.76308" lon="6.36203">
        <ele>1142</ele>
        <time>2017-05-22T10:32:21.000Z</time>
      </trkpt>
      <trkpt lat="46.76308" lon="6.36207">
        <ele>1142</ele>
        <time>2017-05-22T10:32:23.000Z</time>
      </trkpt>
      <trkpt lat="46.7631" lon="6.36211">
        <ele>1142</ele>
        <time>2017-05-22T10:32:25.000Z</time>
      </trkpt>
      <trkpt lat="46.76311" lon="6.36214">
        <ele>1142</ele>
        <time>2017-05-22T10:32:27.000Z</time>
      </trkpt>
      <trkpt lat="46.76313" lon="6.36216">
        <ele>1142</ele>
        <time>2017-05-22T10:32:29.000Z</time>
      </trkpt>
      <trkpt lat="46.76315" lon="6.36219">
        <ele>1142</ele>
        <time>2017-05-22T10:32:31.000Z</time>
      </trkpt>
      <trkpt lat="46.76316" lon="6.36222">
        <ele>1142</ele>
        <time>2017-05-22T10:32:33.000Z</time>
      </trkpt>
      <trkpt lat="46.76318" lon="6.36224">
        <ele>1141</ele>
        <time>2017-05-22T10:32:35.000Z</time>
      </trkpt>
      <trkpt lat="46.76319" lon="6.36227">
        <ele>1141</ele>
        <time>2017-05-22T10:32:37.000Z</time>
      </trkpt>
      <trkpt lat="46.76321" lon="6.3623">
        <ele>1141</ele>
        <time>2017-05-22T10:32:39.000Z</time>
      </trkpt>
      <trkpt lat="46.76322" lon="6.36233">
        <ele>1140.28</ele>
        <time>2017-05-22T10:32:41.000Z</time>
      </trkpt>
      <trkpt lat="46.76323" lon="6.36235">
        <ele>1140</ele>
        <time>2017-05-22T10:32:43.000Z</time>
      </trkpt>
      <trkpt lat="46.76325" lon="6.36238">
        <ele>1140</ele>
        <time>2017-05-22T10:32:45.000Z</time>
      </trkpt>
      <trkpt lat="46.76326" lon="6.36241">
        <ele>1139</ele>
        <time>2017-05-22T10:32:47.000Z</time>
      </trkpt>
      <trkpt lat="46.76327" lon="6.36244">
        <ele>1138.28</ele>
        <time>2017-05-22T10:32:49.000Z</time>
      </trkpt>
      <trkpt lat="46.76328" lon="6.36246">
        <ele>1138</ele>
        <time>2017-05-22T10:32:51.000Z</time>
      </trkpt>
      <trkpt lat="46.76328" lon="6.3625">
        <ele>1137</ele>
        <time>2017-05-22T10:32:54.000Z</time>
      </trkpt>
      <trkpt lat="46.7633" lon="6.36252">
        <ele>1136</ele>
        <time>2017-05-22T10:32:56.000Z</time>
      </trkpt>
      <trkpt lat="46.76331" lon="6.36255">
        <ele>1136</ele>
        <time>2017-05-22T10:32:58.000Z</time>
      </trkpt>
      <trkpt lat="46.76333" lon="6.36259">
        <ele>1135.28</ele>
        <time>2017-05-22T10:33:01.000Z</time>
      </trkpt>
      <trkpt lat="46.76335" lon="6.36262">
        <ele>1135</ele>
        <time>2017-05-22T10:33:03.000Z</time>
      </trkpt>
      <trkpt lat="46.76337" lon="6.36265">
        <ele>1134</ele>
        <time>2017-05-22T10:33:05.000Z</time>
      </trkpt>
      <trkpt lat="46.76339" lon="6.36268">
        <ele>1134</ele>
        <time>2017-05-22T10:33:07.000Z</time>
      </trkpt>
      <trkpt lat="46.7634" lon="6.36271">
        <ele>1133.3009730455</ele>
        <time>2017-05-22T10:33:09.000Z</time>
      </trkpt>
      <trkpt lat="46.7634" lon="6.36275">
        <ele>1133</ele>
        <time>2017-05-22T10:33:11.000Z</time>
      </trkpt>
      <trkpt lat="46.76341" lon="6.36279">
        <ele>1133</ele>
        <time>2017-05-22T10:33:13.000Z</time>
      </trkpt>
      <trkpt lat="46.76342" lon="6.36283">
        <ele>1132</ele>
        <time>2017-05-22T10:33:15.000Z</time>
      </trkpt>
      <trkpt lat="46.76344" lon="6.36286">
        <ele>1132</ele>
        <time>2017-05-22T10:33:17.000Z</time>
      </trkpt>
      <trkpt lat="46.76347" lon="6.36289">
        <ele>1131.28</ele>
        <time>2017-05-22T10:33:19.000Z</time>
      </trkpt>
      <trkpt lat="46.7635" lon="6.36292">
        <ele>1130</ele>
        <time>2017-05-22T10:33:21.000Z</time>
      </trkpt>
      <trkpt lat="46.7635" lon="6.36295">
        <ele>1130</ele>
        <time>2017-05-22T10:33:23.000Z</time>
      </trkpt>
      <trkpt lat="46.76351" lon="6.36299">
        <ele>1130</ele>
        <time>2017-05-22T10:33:25.000Z</time>
      </trkpt>
      <trkpt lat="46.76352" lon="6.36302">
        <ele>1129.28</ele>
        <time>2017-05-22T10:33:27.000Z</time>
      </trkpt>
      <trkpt lat="46.76353" lon="6.36305">
        <ele>1129</ele>
        <time>2017-05-22T10:33:29.000Z</time>
      </trkpt>
      <trkpt lat="46.76354" lon="6.36307">
        <ele>1128</ele>
        <time>2017-05-22T10:33:31.000Z</time>
      </trkpt>
      <trkpt lat="46.76355" lon="6.3631">
        <ele>1127.28</ele>
        <time>2017-05-22T10:33:33.000Z</time>
      </trkpt>
      <trkpt lat="46.76355" lon="6.36312">
        <ele>1127</ele>
        <time>2017-05-22T10:33:35.000Z</time>
      </trkpt>
      <trkpt lat="46.76356" lon="6.36315">
        <ele>1127</ele>
        <time>2017-05-22T10:33:37.000Z</time>
      </trkpt>
      <trkpt lat="46.76357" lon="6.36319">
        <ele>1126.4545454546</ele>
        <time>2017-05-22T10:33:39.000Z</time>
      </trkpt>
      <trkpt lat="46.76358" lon="6.36322">
        <ele>1125</ele>
        <time>2017-05-22T10:33:41.000Z</time>
      </trkpt>
      <trkpt lat="46.76358" lon="6.36327">
        <ele>1125</ele>
        <time>2017-05-22T10:33:43.000Z</time>
      </trkpt>
      <trkpt lat="46.76359" lon="6.36331">
        <ele>1125</ele>
        <time>2017-05-22T10:33:45.000Z</time>
      </trkpt>
      <trkpt lat="46.76361" lon="6.36335">
        <ele>1125</ele>
        <time>2017-05-22T10:33:47.000Z</time>
      </trkpt>
      <trkpt lat="46.76363" lon="6.36338">
        <ele>1125</ele>
        <time>2017-05-22T10:33:49.000Z</time>
      </trkpt>
      <trkpt lat="46.76364" lon="6.3634">
        <ele>1125</ele>
        <time>2017-05-22T10:33:50.000Z</time>
      </trkpt>
      <trkpt lat="46.76366" lon="6.36344">
        <ele>1125</ele>
        <time>2017-05-22T10:33:52.000Z</time>
      </trkpt>
      <trkpt lat="46.76367" lon="6.36346">
        <ele>1125</ele>
        <time>2017-05-22T10:33:53.000Z</time>
      </trkpt>
      <trkpt lat="46.76369" lon="6.36347">
        <ele>1124.4117647059</ele>
        <time>2017-05-22T10:33:54.000Z</time>
      </trkpt>
      <trkpt lat="46.7637" lon="6.3635">
        <ele>1123.28</ele>
        <time>2017-05-22T10:33:56.000Z</time>
      </trkpt>
      <trkpt lat="46.76372" lon="6.36352">
        <ele>1122</ele>
        <time>2017-05-22T10:33:58.000Z</time>
      </trkpt>
      <trkpt lat="46.76374" lon="6.36355">
        <ele>1122</ele>
        <time>2017-05-22T10:34:00.000Z</time>
      </trkpt>
      <trkpt lat="46.76375" lon="6.36358">
        <ele>1122</ele>
        <time>2017-05-22T10:34:02.000Z</time>
      </trkpt>
      <trkpt lat="46.76376" lon="6.36362">
        <ele>1121</ele>
        <time>2017-05-22T10:34:04.000Z</time>
      </trkpt>
      <trkpt lat="46.76377" lon="6.36365">
        <ele>1120.28</ele>
        <time>2017-05-22T10:34:06.000Z</time>
      </trkpt>
      <trkpt lat="46.76378" lon="6.36368">
        <ele>1120</ele>
        <time>2017-05-22T10:34:08.000Z</time>
      </trkpt>
      <trkpt lat="46.76378" lon="6.36371">
        <ele>1120</ele>
        <time>2017-05-22T10:34:10.000Z</time>
      </trkpt>
      <trkpt lat="46.76379" lon="6.36374">
        <ele>1119.450383022</ele>
        <time>2017-05-22T10:34:12.000Z</time>
      </trkpt>
      <trkpt lat="46.76379" lon="6.36378">
        <ele>1119</ele>
        <time>2017-05-22T10:34:14.000Z</time>
      </trkpt>
      <trkpt lat="46.7638" lon="6.3638">
        <ele>1119</ele>
        <time>2017-05-22T10:34:16.000Z</time>
      </trkpt>
      <trkpt lat="46.76381" lon="6.36383">
        <ele>1118</ele>
        <time>2017-05-22T10:34:18.000Z</time>
      </trkpt>
      <trkpt lat="46.76381" lon="6.36386">
        <ele>1117.28</ele>
        <time>2017-05-22T10:34:20.000Z</time>
      </trkpt>
      <trkpt lat="46.76382" lon="6.36389">
        <ele>1117</ele>
        <time>2017-05-22T10:34:22.000Z</time>
      </trkpt>
      <trkpt lat="46.76382" lon="6.36392">
        <ele>1117</ele>
        <time>2017-05-22T10:34:24.000Z</time>
      </trkpt>
      <trkpt lat="46.76383" lon="6.36395">
        <ele>1117</ele>
        <time>2017-05-22T10:34:26.000Z</time>
      </trkpt>
      <trkpt lat="46.76384" lon="6.36398">
        <ele>1116</ele>
        <time>2017-05-22T10:34:28.000Z</time>
      </trkpt>
      <trkpt lat="46.76385" lon="6.36401">
        <ele>1116</ele>
        <time>2017-05-22T10:34:30.000Z</time>
      </trkpt>
      <trkpt lat="46.76387" lon="6.36403">
        <ele>1116</ele>
        <time>2017-05-22T10:34:32.000Z</time>
      </trkpt>
      <trkpt lat="46.76389" lon="6.36407">
        <ele>1116</ele>
        <time>2017-05-22T10:34:34.000Z</time>
      </trkpt>
      <trkpt lat="46.7639" lon="6.3641">
        <ele>1115.28</ele>
        <time>2017-05-22T10:34:37.000Z</time>
      </trkpt>
      <trkpt lat="46.7639" lon="6.36413">
        <ele>1115</ele>
        <time>2017-05-22T10:34:39.000Z</time>
      </trkpt>
      <trkpt lat="46.7639" lon="6.36416">
        <ele>1114.28</ele>
        <time>2017-05-22T10:34:41.000Z</time>
      </trkpt>
      <trkpt lat="46.76391" lon="6.36418">
        <ele>1113</ele>
        <time>2017-05-22T10:34:44.000Z</time>
      </trkpt>
      <trkpt lat="46.76391" lon="6.36421">
        <ele>1113</ele>
        <time>2017-05-22T10:34:46.000Z</time>
      </trkpt>
      <trkpt lat="46.76393" lon="6.36423">
        <ele>1113</ele>
        <time>2017-05-22T10:34:48.000Z</time>
      </trkpt>
      <trkpt lat="46.76395" lon="6.36421">
        <ele>1112</ele>
        <time>2017-05-22T10:34:51.000Z</time>
      </trkpt>
      <trkpt lat="46.76395" lon="6.36418">
        <ele>1112</ele>
        <time>2017-05-22T10:34:53.000Z</time>
      </trkpt>
      <trkpt lat="46.76395" lon="6.36416">
        <ele>1111</ele>
        <time>2017-05-22T10:34:55.000Z</time>
      </trkpt>
      <trkpt lat="46.76396" lon="6.36412">
        <ele>1111</ele>
        <time>2017-05-22T10:34:58.000Z</time>
      </trkpt>
      <trkpt lat="46.76397" lon="6.36409">
        <ele>1110</ele>
        <time>2017-05-22T10:35:00.000Z</time>
      </trkpt>
      <trkpt lat="46.76398" lon="6.36407">
        <ele>1110</ele>
        <time>2017-05-22T10:35:01.000Z</time>
      </trkpt>
      <trkpt lat="46.764" lon="6.36403">
        <ele>1110</ele>
        <time>2017-05-22T10:35:03.000Z</time>
      </trkpt>
      <trkpt lat="46.76402" lon="6.36399">
        <ele>1110</ele>
        <time>2017-05-22T10:35:05.000Z</time>
      </trkpt>
      <trkpt lat="46.76403" lon="6.36397">
        <ele>1109</ele>
        <time>2017-05-22T10:35:07.000Z</time>
      </trkpt>
      <trkpt lat="46.76405" lon="6.36394">
        <ele>1109</ele>
        <time>2017-05-22T10:35:09.000Z</time>
      </trkpt>
      <trkpt lat="46.76407" lon="6.36393">
        <ele>1109</ele>
        <time>2017-05-22T10:35:10.000Z</time>
      </trkpt>
      <trkpt lat="46.76409" lon="6.36391">
        <ele>1109</ele>
        <time>2017-05-22T10:35:12.000Z</time>
      </trkpt>
      <trkpt lat="46.76411" lon="6.36388">
        <ele>1108.28</ele>
        <time>2017-05-22T10:35:14.000Z</time>
      </trkpt>
      <trkpt lat="46.76412" lon="6.36386">
        <ele>1108</ele>
        <time>2017-05-22T10:35:15.000Z</time>
      </trkpt>
      <trkpt lat="46.76414" lon="6.36383">
        <ele>1107.28</ele>
        <time>2017-05-22T10:35:16.000Z</time>
      </trkpt>
      <trkpt lat="46.76415" lon="6.36381">
        <ele>1107</ele>
        <time>2017-05-22T10:35:17.000Z</time>
      </trkpt>
      <trkpt lat="46.76417" lon="6.36378">
        <ele>1107</ele>
        <time>2017-05-22T10:35:19.000Z</time>
      </trkpt>
      <trkpt lat="46.76418" lon="6.36375">
        <ele>1106</ele>
        <time>2017-05-22T10:35:21.000Z</time>
      </trkpt>
      <trkpt lat="46.76418" lon="6.36372">
        <ele>1106</ele>
        <time>2017-05-22T10:35:23.000Z</time>
      </trkpt>
      <trkpt lat="46.76417" lon="6.36368">
        <ele>1105</ele>
        <time>2017-05-22T10:35:25.000Z</time>
      </trkpt>
      <trkpt lat="46.76418" lon="6.36364">
        <ele>1105</ele>
        <time>2017-05-22T10:35:27.000Z</time>
      </trkpt>
      <trkpt lat="46.7642" lon="6.36361">
        <ele>1105</ele>
        <time>2017-05-22T10:35:29.000Z</time>
      </trkpt>
      <trkpt lat="46.76422" lon="6.36359">
        <ele>1105</ele>
        <time>2017-05-22T10:35:31.000Z</time>
      </trkpt>
      <trkpt lat="46.76424" lon="6.36358">
        <ele>1105</ele>
        <time>2017-05-22T10:35:32.000Z</time>
      </trkpt>
      <trkpt lat="46.76427" lon="6.36356">
        <ele>1105</ele>
        <time>2017-05-22T10:35:34.000Z</time>
      </trkpt>
      <trkpt lat="46.7643" lon="6.36357">
        <ele>1105</ele>
        <time>2017-05-22T10:35:37.000Z</time>
      </trkpt>
      <trkpt lat="46.76433" lon="6.36357">
        <ele>1104.4615407337</ele>
        <time>2017-05-22T10:35:39.000Z</time>
      </trkpt>
      <trkpt lat="46.76436" lon="6.36358">
        <ele>1104</ele>
        <time>2017-05-22T10:35:41.000Z</time>
      </trkpt>
      <trkpt lat="46.76438" lon="6.36355">
        <ele>1103.28</ele>
        <time>2017-05-22T10:35:43.000Z</time>
      </trkpt>
      <trkpt lat="46.7644" lon="6.36351">
        <ele>1103</ele>
        <time>2017-05-22T10:35:45.000Z</time>
      </trkpt>
      <trkpt lat="46.7644" lon="6.36348">
        <ele>1102.450383022</ele>
        <time>2017-05-22T10:35:47.000Z</time>
      </trkpt>
      <trkpt lat="46.76439" lon="6.36344">
        <ele>1102</ele>
        <time>2017-05-22T10:35:50.000Z</time>
      </trkpt>
      <trkpt lat="46.76437" lon="6.36341">
        <ele>1102</ele>
        <time>2017-05-22T10:35:52.000Z</time>
      </trkpt>
      <trkpt lat="46.76437" lon="6.36336">
        <ele>1101</ele>
        <time>2017-05-22T10:35:54.000Z</time>
      </trkpt>
      <trkpt lat="46.76437" lon="6.36332">
        <ele>1101</ele>
        <time>2017-05-22T10:35:56.000Z</time>
      </trkpt>
      <trkpt lat="46.76435" lon="6.36328">
        <ele>1101</ele>
        <time>2017-05-22T10:35:58.000Z</time>
      </trkpt>
      <trkpt lat="46.76435" lon="6.36325">
        <ele>1101</ele>
        <time>2017-05-22T10:36:00.000Z</time>
      </trkpt>
      <trkpt lat="46.76435" lon="6.36322">
        <ele>1101</ele>
        <time>2017-05-22T10:36:02.000Z</time>
      </trkpt>
      <trkpt lat="46.76435" lon="6.36319">
        <ele>1101</ele>
        <time>2017-05-22T10:36:04.000Z</time>
      </trkpt>
      <trkpt lat="46.76438" lon="6.36315">
        <ele>1101</ele>
        <time>2017-05-22T10:36:06.000Z</time>
      </trkpt>
      <trkpt lat="46.7644" lon="6.36312">
        <ele>1101</ele>
        <time>2017-05-22T10:36:08.000Z</time>
      </trkpt>
      <trkpt lat="46.7644" lon="6.36308">
        <ele>1101</ele>
        <time>2017-05-22T10:36:10.000Z</time>
      </trkpt>
      <trkpt lat="46.7644" lon="6.36305">
        <ele>1101</ele>
        <time>2017-05-22T10:36:12.000Z</time>
      </trkpt>
      <trkpt lat="46.76439" lon="6.36301">
        <ele>1101</ele>
        <time>2017-05-22T10:36:14.000Z</time>
      </trkpt>
      <trkpt lat="46.76442" lon="6.36297">
        <ele>1101</ele>
        <time>2017-05-22T10:36:16.000Z</time>
      </trkpt>
      <trkpt lat="46.76445" lon="6.36295">
        <ele>1100.28</ele>
        <time>2017-05-22T10:36:18.000Z</time>
      </trkpt>
      <trkpt lat="46.76447" lon="6.36293">
        <ele>1100</ele>
        <time>2017-05-22T10:36:20.000Z</time>
      </trkpt>
      <trkpt lat="46.76448" lon="6.36292">
        <ele>1100</ele>
        <time>2017-05-22T10:36:22.000Z</time>
      </trkpt>
      <trkpt lat="46.76451" lon="6.36293">
        <ele>1100</ele>
        <time>2017-05-22T10:36:24.000Z</time>
      </trkpt>
      <trkpt lat="46.76454" lon="6.36295">
        <ele>1100</ele>
        <time>2017-05-22T10:36:27.000Z</time>
      </trkpt>
      <trkpt lat="46.76457" lon="6.36298">
        <ele>1100</ele>
        <time>2017-05-22T10:36:29.000Z</time>
      </trkpt>
      <trkpt lat="46.76459" lon="6.363">
        <ele>1100</ele>
        <time>2017-05-22T10:36:31.000Z</time>
      </trkpt>
      <trkpt lat="46.76459" lon="6.36303">
        <ele>1100</ele>
        <time>2017-05-22T10:36:33.000Z</time>
      </trkpt>
      <trkpt lat="46.76459" lon="6.36306">
        <ele>1100</ele>
        <time>2017-05-22T10:36:35.000Z</time>
      </trkpt>
      <trkpt lat="46.7646" lon="6.36309">
        <ele>1100</ele>
        <time>2017-05-22T10:36:37.000Z</time>
      </trkpt>
      <trkpt lat="46.76463" lon="6.36309">
        <ele>1099</ele>
        <time>2017-05-22T10:36:41.000Z</time>
      </trkpt>
      <trkpt lat="46.76465" lon="6.36308">
        <ele>1098.28</ele>
        <time>2017-05-22T10:36:43.000Z</time>
      </trkpt>
      <trkpt lat="46.76468" lon="6.36306">
        <ele>1098</ele>
        <time>2017-05-22T10:36:45.000Z</time>
      </trkpt>
      <trkpt lat="46.76469" lon="6.36302">
        <ele>1097</ele>
        <time>2017-05-22T10:36:47.000Z</time>
      </trkpt>
      <trkpt lat="46.7647" lon="6.36299">
        <ele>1096</ele>
        <time>2017-05-22T10:36:49.000Z</time>
      </trkpt>
      <trkpt lat="46.76471" lon="6.36296">
        <ele>1096</ele>
        <time>2017-05-22T10:36:51.000Z</time>
      </trkpt>
      <trkpt lat="46.76472" lon="6.36292">
        <ele>1096</ele>
        <time>2017-05-22T10:36:53.000Z</time>
      </trkpt>
      <trkpt lat="46.76472" lon="6.36288">
        <ele>1096</ele>
        <time>2017-05-22T10:36:55.000Z</time>
      </trkpt>
      <trkpt lat="46.76473" lon="6.36284">
        <ele>1096</ele>
        <time>2017-05-22T10:36:57.000Z</time>
      </trkpt>
      <trkpt lat="46.76475" lon="6.3628">
        <ele>1095</ele>
        <time>2017-05-22T10:36:59.000Z</time>
      </trkpt>
      <trkpt lat="46.76478" lon="6.36279">
        <ele>1095</ele>
        <time>2017-05-22T10:37:01.000Z</time>
      </trkpt>
      <trkpt lat="46.76481" lon="6.3628">
        <ele>1095</ele>
        <time>2017-05-22T10:37:03.000Z</time>
      </trkpt>
      <trkpt lat="46.76484" lon="6.36281">
        <ele>1094</ele>
        <time>2017-05-22T10:37:05.000Z</time>
      </trkpt>
      <trkpt lat="46.76486" lon="6.3628">
        <ele>1094</ele>
        <time>2017-05-22T10:37:07.000Z</time>
      </trkpt>
      <trkpt lat="46.76487" lon="6.36277">
        <ele>1093</ele>
        <time>2017-05-22T10:37:10.000Z</time>
      </trkpt>
      <trkpt lat="46.76487" lon="6.36274">
        <ele>1092.28</ele>
        <time>2017-05-22T10:37:12.000Z</time>
      </trkpt>
      <trkpt lat="46.76487" lon="6.36271">
        <ele>1092</ele>
        <time>2017-05-22T10:37:14.000Z</time>
      </trkpt>
      <trkpt lat="46.76488" lon="6.36268">
        <ele>1092</ele>
        <time>2017-05-22T10:37:16.000Z</time>
      </trkpt>
      <trkpt lat="46.76491" lon="6.36264">
        <ele>1092</ele>
        <time>2017-05-22T10:37:18.000Z</time>
      </trkpt>
      <trkpt lat="46.76494" lon="6.36262">
        <ele>1091.28</ele>
        <time>2017-05-22T10:37:20.000Z</time>
      </trkpt>
      <trkpt lat="46.76496" lon="6.36262">
        <ele>1091</ele>
        <time>2017-05-22T10:37:21.000Z</time>
      </trkpt>
      <trkpt lat="46.76497" lon="6.36261">
        <ele>1090.450383022</ele>
        <time>2017-05-22T10:37:22.000Z</time>
      </trkpt>
      <trkpt lat="46.765" lon="6.36261">
        <ele>1090</ele>
        <time>2017-05-22T10:37:23.000Z</time>
      </trkpt>
      <trkpt lat="46.76502" lon="6.3626">
        <ele>1090</ele>
        <time>2017-05-22T10:37:25.000Z</time>
      </trkpt>
      <trkpt lat="46.76504" lon="6.36258">
        <ele>1090</ele>
        <time>2017-05-22T10:37:27.000Z</time>
      </trkpt>
      <trkpt lat="46.76506" lon="6.36256">
        <ele>1089</ele>
        <time>2017-05-22T10:37:29.000Z</time>
      </trkpt>
      <trkpt lat="46.76509" lon="6.36255">
        <ele>1088</ele>
        <time>2017-05-22T10:37:32.000Z</time>
      </trkpt>
      <trkpt lat="46.76511" lon="6.36254">
        <ele>1088</ele>
        <time>2017-05-22T10:37:34.000Z</time>
      </trkpt>
      <trkpt lat="46.76513" lon="6.36253">
        <ele>1088</ele>
        <time>2017-05-22T10:37:37.000Z</time>
      </trkpt>
      <trkpt lat="46.76515" lon="6.36249">
        <ele>1088</ele>
        <time>2017-05-22T10:37:40.000Z</time>
      </trkpt>
      <trkpt lat="46.76518" lon="6.36246">
        <ele>1088</ele>
        <time>2017-05-22T10:37:42.000Z</time>
      </trkpt>
      <trkpt lat="46.76519" lon="6.36244">
        <ele>1087.28</ele>
        <time>2017-05-22T10:37:44.000Z</time>
      </trkpt>
      <trkpt lat="46.76522" lon="6.36241">
        <ele>1087</ele>
        <time>2017-05-22T10:37:46.000Z</time>
      </trkpt>
      <trkpt lat="46.76523" lon="6.36238">
        <ele>1086</ele>
        <time>2017-05-22T10:37:49.000Z</time>
      </trkpt>
      <trkpt lat="46.76524" lon="6.36235">
        <ele>1086</ele>
        <time>2017-05-22T10:37:51.000Z</time>
      </trkpt>
      <trkpt lat="46.76526" lon="6.36231">
        <ele>1085.28</ele>
        <time>2017-05-22T10:37:53.000Z</time>
      </trkpt>
      <trkpt lat="46.76529" lon="6.36229">
        <ele>1085</ele>
        <time>2017-05-22T10:37:55.000Z</time>
      </trkpt>
      <trkpt lat="46.76531" lon="6.36229">
        <ele>1085</ele>
        <time>2017-05-22T10:37:57.000Z</time>
      </trkpt>
      <trkpt lat="46.76534" lon="6.36227">
        <ele>1085</ele>
        <time>2017-05-22T10:38:00.000Z</time>
      </trkpt>
      <trkpt lat="46.76536" lon="6.36229">
        <ele>1085</ele>
        <time>2017-05-22T10:38:02.000Z</time>
      </trkpt>
      <trkpt lat="46.76538" lon="6.36229">
        <ele>1085</ele>
        <time>2017-05-22T10:38:04.000Z</time>
      </trkpt>
      <trkpt lat="46.7654" lon="6.36227">
        <ele>1084.28</ele>
        <time>2017-05-22T10:38:06.000Z</time>
      </trkpt>
      <trkpt lat="46.76542" lon="6.36225">
        <ele>1082.28</ele>
        <time>2017-05-22T10:38:09.000Z</time>
      </trkpt>
      <trkpt lat="46.76544" lon="6.36224">
        <ele>1082</ele>
        <time>2017-05-22T10:38:11.000Z</time>
      </trkpt>
      <trkpt lat="46.76545" lon="6.36226">
        <ele>1082</ele>
        <time>2017-05-22T10:38:13.000Z</time>
      </trkpt>
      <trkpt lat="46.76548" lon="6.36228">
        <ele>1081.28</ele>
        <time>2017-05-22T10:38:15.000Z</time>
      </trkpt>
      <trkpt lat="46.76551" lon="6.36227">
        <ele>1080.450383022</ele>
        <time>2017-05-22T10:38:17.000Z</time>
      </trkpt>
      <trkpt lat="46.76553" lon="6.36228">
        <ele>1080</ele>
        <time>2017-05-22T10:38:19.000Z</time>
      </trkpt>
      <trkpt lat="46.76555" lon="6.36228">
        <ele>1080</ele>
        <time>2017-05-22T10:38:21.000Z</time>
      </trkpt>
      <trkpt lat="46.76557" lon="6.36228">
        <ele>1080</ele>
        <time>2017-05-22T10:38:23.000Z</time>
      </trkpt>
      <trkpt lat="46.7656" lon="6.36226">
        <ele>1080</ele>
        <time>2017-05-22T10:38:25.000Z</time>
      </trkpt>
      <trkpt lat="46.76563" lon="6.36223">
        <ele>1080</ele>
        <time>2017-05-22T10:38:27.000Z</time>
      </trkpt>
      <trkpt lat="46.76564" lon="6.36221">
        <ele>1080</ele>
        <time>2017-05-22T10:38:28.000Z</time>
      </trkpt>
      <trkpt lat="46.76567" lon="6.36219">
        <ele>1079.28</ele>
        <time>2017-05-22T10:38:30.000Z</time>
      </trkpt>
      <trkpt lat="46.76569" lon="6.36216">
        <ele>1079</ele>
        <time>2017-05-22T10:38:32.000Z</time>
      </trkpt>
      <trkpt lat="46.76572" lon="6.36212">
        <ele>1078</ele>
        <time>2017-05-22T10:38:34.000Z</time>
      </trkpt>
      <trkpt lat="46.76574" lon="6.36209">
        <ele>1078</ele>
        <time>2017-05-22T10:38:36.000Z</time>
      </trkpt>
      <trkpt lat="46.76575" lon="6.36207">
        <ele>1078</ele>
        <time>2017-05-22T10:38:38.000Z</time>
      </trkpt>
      <trkpt lat="46.76577" lon="6.36204">
        <ele>1078</ele>
        <time>2017-05-22T10:38:40.000Z</time>
      </trkpt>
      <trkpt lat="46.76579" lon="6.36203">
        <ele>1077</ele>
        <time>2017-05-22T10:38:42.000Z</time>
      </trkpt>
      <trkpt lat="46.76582" lon="6.362">
        <ele>1077</ele>
        <time>2017-05-22T10:38:44.000Z</time>
      </trkpt>
      <trkpt lat="46.76583" lon="6.36198">
        <ele>1077</ele>
        <time>2017-05-22T10:38:45.000Z</time>
      </trkpt>
      <trkpt lat="46.76585" lon="6.36196">
        <ele>1077</ele>
        <time>2017-05-22T10:38:46.000Z</time>
      </trkpt>
      <trkpt lat="46.76588" lon="6.36193">
        <ele>1076</ele>
        <time>2017-05-22T10:38:48.000Z</time>
      </trkpt>
      <trkpt lat="46.76589" lon="6.36191">
        <ele>1076</ele>
        <time>2017-05-22T10:38:50.000Z</time>
      </trkpt>
      <trkpt lat="46.7659" lon="6.36187">
        <ele>1075</ele>
        <time>2017-05-22T10:38:52.000Z</time>
      </trkpt>
      <trkpt lat="46.7659" lon="6.36184">
        <ele>1074.28</ele>
        <time>2017-05-22T10:38:54.000Z</time>
      </trkpt>
      <trkpt lat="46.7659" lon="6.36181">
        <ele>1074</ele>
        <time>2017-05-22T10:38:56.000Z</time>
      </trkpt>
      <trkpt lat="46.76591" lon="6.36178">
        <ele>1074</ele>
        <time>2017-05-22T10:38:58.000Z</time>
      </trkpt>
      <trkpt lat="46.7659" lon="6.36175">
        <ele>1072.56</ele>
        <time>2017-05-22T10:39:01.000Z</time>
      </trkpt>
      <trkpt lat="46.7659" lon="6.36171">
        <ele>1072</ele>
        <time>2017-05-22T10:39:03.000Z</time>
      </trkpt>
      <trkpt lat="46.76591" lon="6.36168">
        <ele>1072</ele>
        <time>2017-05-22T10:39:05.000Z</time>
      </trkpt>
      <trkpt lat="46.76591" lon="6.36164">
        <ele>1071</ele>
        <time>2017-05-22T10:39:07.000Z</time>
      </trkpt>
      <trkpt lat="46.76592" lon="6.3616">
        <ele>1071</ele>
        <time>2017-05-22T10:39:09.000Z</time>
      </trkpt>
      <trkpt lat="46.76593" lon="6.36156">
        <ele>1071</ele>
        <time>2017-05-22T10:39:11.000Z</time>
      </trkpt>
      <trkpt lat="46.76594" lon="6.36152">
        <ele>1070</ele>
        <time>2017-05-22T10:39:13.000Z</time>
      </trkpt>
      <trkpt lat="46.76595" lon="6.36149">
        <ele>1070</ele>
        <time>2017-05-22T10:39:15.000Z</time>
      </trkpt>
      <trkpt lat="46.76596" lon="6.36145">
        <ele>1070</ele>
        <time>2017-05-22T10:39:17.000Z</time>
      </trkpt>
      <trkpt lat="46.76597" lon="6.36141">
        <ele>1070</ele>
        <time>2017-05-22T10:39:19.000Z</time>
      </trkpt>
      <trkpt lat="46.76597" lon="6.36137">
        <ele>1070</ele>
        <time>2017-05-22T10:39:21.000Z</time>
      </trkpt>
      <trkpt lat="46.76598" lon="6.36134">
        <ele>1070</ele>
        <time>2017-05-22T10:39:23.000Z</time>
      </trkpt>
      <trkpt lat="46.76598" lon="6.3613">
        <ele>1069.28</ele>
        <time>2017-05-22T10:39:25.000Z</time>
      </trkpt>
      <trkpt lat="46.76599" lon="6.36127">
        <ele>1069</ele>
        <time>2017-05-22T10:39:27.000Z</time>
      </trkpt>
      <trkpt lat="46.766" lon="6.36124">
        <ele>1068</ele>
        <time>2017-05-22T10:39:29.000Z</time>
      </trkpt>
      <trkpt lat="46.76601" lon="6.36121">
        <ele>1068</ele>
        <time>2017-05-22T10:39:31.000Z</time>
      </trkpt>
      <trkpt lat="46.76602" lon="6.36118">
        <ele>1068</ele>
        <time>2017-05-22T10:39:33.000Z</time>
      </trkpt>
      <trkpt lat="46.76603" lon="6.36114">
        <ele>1067.450383022</ele>
        <time>2017-05-22T10:39:35.000Z</time>
      </trkpt>
      <trkpt lat="46.76603" lon="6.36111">
        <ele>1067</ele>
        <time>2017-05-22T10:39:37.000Z</time>
      </trkpt>
      <trkpt lat="46.76604" lon="6.36107">
        <ele>1066.28</ele>
        <time>2017-05-22T10:39:39.000Z</time>
      </trkpt>
      <trkpt lat="46.76605" lon="6.36103">
        <ele>1065.28</ele>
        <time>2017-05-22T10:39:41.000Z</time>
      </trkpt>
      <trkpt lat="46.76606" lon="6.36099">
        <ele>1065</ele>
        <time>2017-05-22T10:39:43.000Z</time>
      </trkpt>
      <trkpt lat="46.76607" lon="6.36095">
        <ele>1065</ele>
        <time>2017-05-22T10:39:45.000Z</time>
      </trkpt>
      <trkpt lat="46.76608" lon="6.36091">
        <ele>1065</ele>
        <time>2017-05-22T10:39:47.000Z</time>
      </trkpt>
      <trkpt lat="46.76609" lon="6.36087">
        <ele>1065</ele>
        <time>2017-05-22T10:39:49.000Z</time>
      </trkpt>
      <trkpt lat="46.7661" lon="6.36083">
        <ele>1065</ele>
        <time>2017-05-22T10:39:51.000Z</time>
      </trkpt>
      <trkpt lat="46.76611" lon="6.36081">
        <ele>1064</ele>
        <time>2017-05-22T10:39:53.000Z</time>
      </trkpt>
      <trkpt lat="46.76611" lon="6.36077">
        <ele>1063.4057989834</ele>
        <time>2017-05-22T10:39:55.000Z</time>
      </trkpt>
      <trkpt lat="46.76611" lon="6.36073">
        <ele>1063</ele>
        <time>2017-05-22T10:39:57.000Z</time>
      </trkpt>
      <trkpt lat="46.76611" lon="6.36068">
        <ele>1063</ele>
        <time>2017-05-22T10:39:59.000Z</time>
      </trkpt>
      <trkpt lat="46.76612" lon="6.36063">
        <ele>1062</ele>
        <time>2017-05-22T10:40:01.000Z</time>
      </trkpt>
      <trkpt lat="46.76612" lon="6.3606">
        <ele>1061.28</ele>
        <time>2017-05-22T10:40:03.000Z</time>
      </trkpt>
      <trkpt lat="46.76613" lon="6.36056">
        <ele>1061</ele>
        <time>2017-05-22T10:40:05.000Z</time>
      </trkpt>
      <trkpt lat="46.76613" lon="6.36052">
        <ele>1061</ele>
        <time>2017-05-22T10:40:07.000Z</time>
      </trkpt>
      <trkpt lat="46.76614" lon="6.36049">
        <ele>1061.72</ele>
        <time>2017-05-22T10:40:09.000Z</time>
      </trkpt>
      <trkpt lat="46.76614" lon="6.36046">
        <ele>1061.4545454546</ele>
        <time>2017-05-22T10:40:11.000Z</time>
      </trkpt>
      <trkpt lat="46.76613" lon="6.36043">
        <ele>1061</ele>
        <time>2017-05-22T10:40:13.000Z</time>
      </trkpt>
      <trkpt lat="46.76612" lon="6.36039">
        <ele>1061</ele>
        <time>2017-05-22T10:40:15.000Z</time>
      </trkpt>
      <trkpt lat="46.76611" lon="6.36036">
        <ele>1060.28</ele>
        <time>2017-05-22T10:40:17.000Z</time>
      </trkpt>
      <trkpt lat="46.7661" lon="6.36032">
        <ele>1060</ele>
        <time>2017-05-22T10:40:19.000Z</time>
      </trkpt>
      <trkpt lat="46.76609" lon="6.36029">
        <ele>1060</ele>
        <time>2017-05-22T10:40:21.000Z</time>
      </trkpt>
      <trkpt lat="46.76609" lon="6.36026">
        <ele>1059.28</ele>
        <time>2017-05-22T10:40:23.000Z</time>
      </trkpt>
      <trkpt lat="46.76609" lon="6.36022">
        <ele>1059</ele>
        <time>2017-05-22T10:40:25.000Z</time>
      </trkpt>
      <trkpt lat="46.76608" lon="6.36018">
        <ele>1059</ele>
        <time>2017-05-22T10:40:27.000Z</time>
      </trkpt>
      <trkpt lat="46.76608" lon="6.36015">
        <ele>1059</ele>
        <time>2017-05-22T10:40:29.000Z</time>
      </trkpt>
      <trkpt lat="46.76609" lon="6.36011">
        <ele>1058.28</ele>
        <time>2017-05-22T10:40:31.000Z</time>
      </trkpt>
      <trkpt lat="46.7661" lon="6.36007">
        <ele>1058</ele>
        <time>2017-05-22T10:40:33.000Z</time>
      </trkpt>
      <trkpt lat="46.76611" lon="6.36003">
        <ele>1057.28</ele>
        <time>2017-05-22T10:40:35.000Z</time>
      </trkpt>
      <trkpt lat="46.76613" lon="6.36">
        <ele>1057</ele>
        <time>2017-05-22T10:40:37.000Z</time>
      </trkpt>
      <trkpt lat="46.76615" lon="6.35997">
        <ele>1057</ele>
        <time>2017-05-22T10:40:39.000Z</time>
      </trkpt>
      <trkpt lat="46.76618" lon="6.35993">
        <ele>1057</ele>
        <time>2017-05-22T10:40:41.000Z</time>
      </trkpt>
      <trkpt lat="46.76619" lon="6.35992">
        <ele>1056.28</ele>
        <time>2017-05-22T10:40:42.000Z</time>
      </trkpt>
      <trkpt lat="46.76621" lon="6.3599">
        <ele>1056</ele>
        <time>2017-05-22T10:40:43.000Z</time>
      </trkpt>
      <trkpt lat="46.76622" lon="6.35988">
        <ele>1055.28</ele>
        <time>2017-05-22T10:40:44.000Z</time>
      </trkpt>
      <trkpt lat="46.76624" lon="6.35987">
        <ele>1055</ele>
        <time>2017-05-22T10:40:45.000Z</time>
      </trkpt>
      <trkpt lat="46.76626" lon="6.35986">
        <ele>1055</ele>
        <time>2017-05-22T10:40:46.000Z</time>
      </trkpt>
      <trkpt lat="46.76627" lon="6.35985">
        <ele>1055</ele>
        <time>2017-05-22T10:40:47.000Z</time>
      </trkpt>
      <trkpt lat="46.76629" lon="6.35984">
        <ele>1055</ele>
        <time>2017-05-22T10:40:48.000Z</time>
      </trkpt>
      <trkpt lat="46.76631" lon="6.35983">
        <ele>1054.28</ele>
        <time>2017-05-22T10:40:49.000Z</time>
      </trkpt>
      <trkpt lat="46.76634" lon="6.35982">
        <ele>1054</ele>
        <time>2017-05-22T10:40:51.000Z</time>
      </trkpt>
      <trkpt lat="46.76637" lon="6.35981">
        <ele>1054</ele>
        <time>2017-05-22T10:40:53.000Z</time>
      </trkpt>
      <trkpt lat="46.7664" lon="6.3598">
        <ele>1053.28</ele>
        <time>2017-05-22T10:40:55.000Z</time>
      </trkpt>
      <trkpt lat="46.76643" lon="6.35979">
        <ele>1053</ele>
        <time>2017-05-22T10:40:57.000Z</time>
      </trkpt>
      <trkpt lat="46.76646" lon="6.35977">
        <ele>1052.28</ele>
        <time>2017-05-22T10:40:59.000Z</time>
      </trkpt>
      <trkpt lat="46.76648" lon="6.35975">
        <ele>1051</ele>
        <time>2017-05-22T10:41:01.000Z</time>
      </trkpt>
      <trkpt lat="46.7665" lon="6.35974">
        <ele>1051</ele>
        <time>2017-05-22T10:41:03.000Z</time>
      </trkpt>
      <trkpt lat="46.76653" lon="6.35972">
        <ele>1051</ele>
        <time>2017-05-22T10:41:05.000Z</time>
      </trkpt>
      <trkpt lat="46.76656" lon="6.3597">
        <ele>1051</ele>
        <time>2017-05-22T10:41:07.000Z</time>
      </trkpt>
      <trkpt lat="46.76658" lon="6.35968">
        <ele>1050</ele>
        <time>2017-05-22T10:41:09.000Z</time>
      </trkpt>
      <trkpt lat="46.76661" lon="6.35967">
        <ele>1049</ele>
        <time>2017-05-22T10:41:11.000Z</time>
      </trkpt>
      <trkpt lat="46.76664" lon="6.35965">
        <ele>1049</ele>
        <time>2017-05-22T10:41:13.000Z</time>
      </trkpt>
      <trkpt lat="46.76667" lon="6.35964">
        <ele>1049</ele>
        <time>2017-05-22T10:41:15.000Z</time>
      </trkpt>
      <trkpt lat="46.76669" lon="6.35962">
        <ele>1049</ele>
        <time>2017-05-22T10:41:17.000Z</time>
      </trkpt>
      <trkpt lat="46.76672" lon="6.3596">
        <ele>1048</ele>
        <time>2017-05-22T10:41:19.000Z</time>
      </trkpt>
      <trkpt lat="46.76674" lon="6.35958">
        <ele>1048</ele>
        <time>2017-05-22T10:41:20.000Z</time>
      </trkpt>
      <trkpt lat="46.76675" lon="6.35957">
        <ele>1047.28</ele>
        <time>2017-05-22T10:41:21.000Z</time>
      </trkpt>
      <trkpt lat="46.76678" lon="6.35954">
        <ele>1047</ele>
        <time>2017-05-22T10:41:23.000Z</time>
      </trkpt>
      <trkpt lat="46.76681" lon="6.35952">
        <ele>1047</ele>
        <time>2017-05-22T10:41:25.000Z</time>
      </trkpt>
      <trkpt lat="46.76684" lon="6.35949">
        <ele>1047</ele>
        <time>2017-05-22T10:41:27.000Z</time>
      </trkpt>
      <trkpt lat="46.76686" lon="6.35947">
        <ele>1046</ele>
        <time>2017-05-22T10:41:29.000Z</time>
      </trkpt>
      <trkpt lat="46.76688" lon="6.35945">
        <ele>1045</ele>
        <time>2017-05-22T10:41:31.000Z</time>
      </trkpt>
      <trkpt lat="46.7669" lon="6.35943">
        <ele>1045.72</ele>
        <time>2017-05-22T10:41:33.000Z</time>
      </trkpt>
      <trkpt lat="46.76692" lon="6.35941">
        <ele>1045.450383022</ele>
        <time>2017-05-22T10:41:37.000Z</time>
      </trkpt>
      <trkpt lat="46.76695" lon="6.35938">
        <ele>1044</ele>
        <time>2017-05-22T10:41:39.000Z</time>
      </trkpt>
      <trkpt lat="46.76697" lon="6.35936">
        <ele>1044</ele>
        <time>2017-05-22T10:41:41.000Z</time>
      </trkpt>
      <trkpt lat="46.76699" lon="6.35934">
        <ele>1043</ele>
        <time>2017-05-22T10:41:43.000Z</time>
      </trkpt>
      <trkpt lat="46.767" lon="6.35932">
        <ele>1043</ele>
        <time>2017-05-22T10:41:46.000Z</time>
      </trkpt>
      <trkpt lat="46.76702" lon="6.35929">
        <ele>1042</ele>
        <time>2017-05-22T10:41:49.000Z</time>
      </trkpt>
      <trkpt lat="46.76703" lon="6.35926">
        <ele>1041.28</ele>
        <time>2017-05-22T10:41:51.000Z</time>
      </trkpt>
      <trkpt lat="46.76705" lon="6.35924">
        <ele>1041</ele>
        <time>2017-05-22T10:41:53.000Z</time>
      </trkpt>
      <trkpt lat="46.76707" lon="6.35921">
        <ele>1041</ele>
        <time>2017-05-22T10:41:55.000Z</time>
      </trkpt>
      <trkpt lat="46.76709" lon="6.35918">
        <ele>1040.28</ele>
        <time>2017-05-22T10:41:57.000Z</time>
      </trkpt>
      <trkpt lat="46.7671" lon="6.35916">
        <ele>1040</ele>
        <time>2017-05-22T10:41:59.000Z</time>
      </trkpt>
      <trkpt lat="46.76711" lon="6.35914">
        <ele>1040</ele>
        <time>2017-05-22T10:42:01.000Z</time>
      </trkpt>
      <trkpt lat="46.76713" lon="6.35911">
        <ele>1040</ele>
        <time>2017-05-22T10:42:03.000Z</time>
      </trkpt>
      <trkpt lat="46.76715" lon="6.35909">
        <ele>1040</ele>
        <time>2017-05-22T10:42:05.000Z</time>
      </trkpt>
      <trkpt lat="46.76717" lon="6.35907">
        <ele>1039</ele>
        <time>2017-05-22T10:42:07.000Z</time>
      </trkpt>
      <trkpt lat="46.76718" lon="6.35905">
        <ele>1039</ele>
        <time>2017-05-22T10:42:09.000Z</time>
      </trkpt>
      <trkpt lat="46.7672" lon="6.35903">
        <ele>1038.28</ele>
        <time>2017-05-22T10:42:11.000Z</time>
      </trkpt>
      <trkpt lat="46.76722" lon="6.35901">
        <ele>1038</ele>
        <time>2017-05-22T10:42:13.000Z</time>
      </trkpt>
      <trkpt lat="46.76724" lon="6.35899">
        <ele>1038</ele>
        <time>2017-05-22T10:42:15.000Z</time>
      </trkpt>
      <trkpt lat="46.76726" lon="6.35898">
        <ele>1038</ele>
        <time>2017-05-22T10:42:17.000Z</time>
      </trkpt>
      <trkpt lat="46.76729" lon="6.35896">
        <ele>1038</ele>
        <time>2017-05-22T10:42:19.000Z</time>
      </trkpt>
      <trkpt lat="46.76731" lon="6.35894">
        <ele>1038</ele>
        <time>2017-05-22T10:42:21.000Z</time>
      </trkpt>
      <trkpt lat="46.76733" lon="6.35892">
        <ele>1038</ele>
        <time>2017-05-22T10:42:23.000Z</time>
      </trkpt>
      <trkpt lat="46.76735" lon="6.3589">
        <ele>1038</ele>
        <time>2017-05-22T10:42:25.000Z</time>
      </trkpt>
      <trkpt lat="46.76737" lon="6.35888">
        <ele>1037</ele>
        <time>2017-05-22T10:42:27.000Z</time>
      </trkpt>
      <trkpt lat="46.76739" lon="6.35886">
        <ele>1037</ele>
        <time>2017-05-22T10:42:29.000Z</time>
      </trkpt>
      <trkpt lat="46.76741" lon="6.35884">
        <ele>1036</ele>
        <time>2017-05-22T10:42:31.000Z</time>
      </trkpt>
      <trkpt lat="46.76743" lon="6.35882">
        <ele>1036</ele>
        <time>2017-05-22T10:42:33.000Z</time>
      </trkpt>
      <trkpt lat="46.76745" lon="6.35879">
        <ele>1036</ele>
        <time>2017-05-22T10:42:35.000Z</time>
      </trkpt>
      <trkpt lat="46.76747" lon="6.35876">
        <ele>1036</ele>
        <time>2017-05-22T10:42:37.000Z</time>
      </trkpt>
      <trkpt lat="46.76749" lon="6.35874">
        <ele>1035</ele>
        <time>2017-05-22T10:42:39.000Z</time>
      </trkpt>
      <trkpt lat="46.76751" lon="6.35872">
        <ele>1035</ele>
        <time>2017-05-22T10:42:41.000Z</time>
      </trkpt>
      <trkpt lat="46.76754" lon="6.3587">
        <ele>1034.28</ele>
        <time>2017-05-22T10:42:43.000Z</time>
      </trkpt>
      <trkpt lat="46.76756" lon="6.35868">
        <ele>1034</ele>
        <time>2017-05-22T10:42:45.000Z</time>
      </trkpt>
      <trkpt lat="46.76758" lon="6.35866">
        <ele>1034</ele>
        <time>2017-05-22T10:42:47.000Z</time>
      </trkpt>
      <trkpt lat="46.7676" lon="6.35864">
        <ele>1033</ele>
        <time>2017-05-22T10:42:49.000Z</time>
      </trkpt>
      <trkpt lat="46.76762" lon="6.35862">
        <ele>1032.28</ele>
        <time>2017-05-22T10:42:51.000Z</time>
      </trkpt>
      <trkpt lat="46.76764" lon="6.3586">
        <ele>1032</ele>
        <time>2017-05-22T10:42:53.000Z</time>
      </trkpt>
      <trkpt lat="46.76766" lon="6.35858">
        <ele>1031</ele>
        <time>2017-05-22T10:42:55.000Z</time>
      </trkpt>
      <trkpt lat="46.76769" lon="6.35857">
        <ele>1031</ele>
        <time>2017-05-22T10:42:57.000Z</time>
      </trkpt>
      <trkpt lat="46.76771" lon="6.35855">
        <ele>1031</ele>
        <time>2017-05-22T10:42:59.000Z</time>
      </trkpt>
      <trkpt lat="46.76774" lon="6.35853">
        <ele>1030.28</ele>
        <time>2017-05-22T10:43:01.000Z</time>
      </trkpt>
      <trkpt lat="46.76777" lon="6.35851">
        <ele>1030</ele>
        <time>2017-05-22T10:43:03.000Z</time>
      </trkpt>
      <trkpt lat="46.76779" lon="6.35849">
        <ele>1030</ele>
        <time>2017-05-22T10:43:05.000Z</time>
      </trkpt>
      <trkpt lat="46.76781" lon="6.35847">
        <ele>1030</ele>
        <time>2017-05-22T10:43:07.000Z</time>
      </trkpt>
      <trkpt lat="46.76784" lon="6.35845">
        <ele>1029.28</ele>
        <time>2017-05-22T10:43:09.000Z</time>
      </trkpt>
      <trkpt lat="46.76786" lon="6.35843">
        <ele>1029</ele>
        <time>2017-05-22T10:43:11.000Z</time>
      </trkpt>
      <trkpt lat="46.76788" lon="6.35842">
        <ele>1028.28</ele>
        <time>2017-05-22T10:43:12.000Z</time>
      </trkpt>
      <trkpt lat="46.7679" lon="6.3584">
        <ele>1028</ele>
        <time>2017-05-22T10:43:14.000Z</time>
      </trkpt>
      <trkpt lat="46.76792" lon="6.35838">
        <ele>1027.28</ele>
        <time>2017-05-22T10:43:16.000Z</time>
      </trkpt>
      <trkpt lat="46.76794" lon="6.35836">
        <ele>1027</ele>
        <time>2017-05-22T10:43:18.000Z</time>
      </trkpt>
      <trkpt lat="46.76795" lon="6.35834">
        <ele>1027</ele>
        <time>2017-05-22T10:43:20.000Z</time>
      </trkpt>
      <trkpt lat="46.76797" lon="6.35832">
        <ele>1027</ele>
        <time>2017-05-22T10:43:22.000Z</time>
      </trkpt>
      <trkpt lat="46.76798" lon="6.3583">
        <ele>1026</ele>
        <time>2017-05-22T10:43:24.000Z</time>
      </trkpt>
      <trkpt lat="46.768" lon="6.35827">
        <ele>1026</ele>
        <time>2017-05-22T10:43:26.000Z</time>
      </trkpt>
      <trkpt lat="46.76801" lon="6.35825">
        <ele>1026</ele>
        <time>2017-05-22T10:43:28.000Z</time>
      </trkpt>
      <trkpt lat="46.76803" lon="6.35822">
        <ele>1026</ele>
        <time>2017-05-22T10:43:30.000Z</time>
      </trkpt>
      <trkpt lat="46.76804" lon="6.3582">
        <ele>1027</ele>
        <time>2017-05-22T10:43:32.000Z</time>
      </trkpt>
      <trkpt lat="46.76806" lon="6.35817">
        <ele>1026.28</ele>
        <time>2017-05-22T10:43:34.000Z</time>
      </trkpt>
      <trkpt lat="46.76808" lon="6.35814">
        <ele>1026</ele>
        <time>2017-05-22T10:43:36.000Z</time>
      </trkpt>
      <trkpt lat="46.7681" lon="6.35811">
        <ele>1025.28</ele>
        <time>2017-05-22T10:43:38.000Z</time>
      </trkpt>
      <trkpt lat="46.76813" lon="6.35808">
        <ele>1025</ele>
        <time>2017-05-22T10:43:40.000Z</time>
      </trkpt>
      <trkpt lat="46.76815" lon="6.35805">
        <ele>1025</ele>
        <time>2017-05-22T10:43:42.000Z</time>
      </trkpt>
      <trkpt lat="46.76818" lon="6.35802">
        <ele>1025</ele>
        <time>2017-05-22T10:43:44.000Z</time>
      </trkpt>
      <trkpt lat="46.7682" lon="6.358">
        <ele>1025</ele>
        <time>2017-05-22T10:43:46.000Z</time>
      </trkpt>
      <trkpt lat="46.76822" lon="6.35799">
        <ele>1025</ele>
        <time>2017-05-22T10:43:48.000Z</time>
      </trkpt>
      <trkpt lat="46.76824" lon="6.35797">
        <ele>1025</ele>
        <time>2017-05-22T10:43:50.000Z</time>
      </trkpt>
      <trkpt lat="46.76826" lon="6.35794">
        <ele>1024.3009730455</ele>
        <time>2017-05-22T10:43:52.000Z</time>
      </trkpt>
      <trkpt lat="46.76829" lon="6.35793">
        <ele>1024</ele>
        <time>2017-05-22T10:43:54.000Z</time>
      </trkpt>
      <trkpt lat="46.76831" lon="6.35792">
        <ele>1023.28</ele>
        <time>2017-05-22T10:43:56.000Z</time>
      </trkpt>
      <trkpt lat="46.76835" lon="6.35791">
        <ele>1023</ele>
        <time>2017-05-22T10:43:58.000Z</time>
      </trkpt>
      <trkpt lat="46.76838" lon="6.3579">
        <ele>1023</ele>
        <time>2017-05-22T10:44:00.000Z</time>
      </trkpt>
      <trkpt lat="46.7684" lon="6.3579">
        <ele>1022</ele>
        <time>2017-05-22T10:44:02.000Z</time>
      </trkpt>
      <trkpt lat="46.76843" lon="6.35789">
        <ele>1022</ele>
        <time>2017-05-22T10:44:04.000Z</time>
      </trkpt>
      <trkpt lat="46.76845" lon="6.35789">
        <ele>1022</ele>
        <time>2017-05-22T10:44:06.000Z</time>
      </trkpt>
      <trkpt lat="46.76848" lon="6.35788">
        <ele>1022</ele>
        <time>2017-05-22T10:44:08.000Z</time>
      </trkpt>
      <trkpt lat="46.7685" lon="6.35788">
        <ele>1022</ele>
        <time>2017-05-22T10:44:10.000Z</time>
      </trkpt>
      <trkpt lat="46.76853" lon="6.35788">
        <ele>1021</ele>
        <time>2017-05-22T10:44:12.000Z</time>
      </trkpt>
      <trkpt lat="46.76856" lon="6.35787">
        <ele>1021</ele>
        <time>2017-05-22T10:44:14.000Z</time>
      </trkpt>
      <trkpt lat="46.76859" lon="6.35787">
        <ele>1021</ele>
        <time>2017-05-22T10:44:16.000Z</time>
      </trkpt>
      <trkpt lat="46.76862" lon="6.35786">
        <ele>1021</ele>
        <time>2017-05-22T10:44:18.000Z</time>
      </trkpt>
      <trkpt lat="46.76864" lon="6.35786">
        <ele>1021</ele>
        <time>2017-05-22T10:44:20.000Z</time>
      </trkpt>
      <trkpt lat="46.76866" lon="6.35785">
        <ele>1021</ele>
        <time>2017-05-22T10:44:22.000Z</time>
      </trkpt>
      <trkpt lat="46.76869" lon="6.35784">
        <ele>1021</ele>
        <time>2017-05-22T10:44:24.000Z</time>
      </trkpt>
      <trkpt lat="46.76871" lon="6.35783">
        <ele>1020.28</ele>
        <time>2017-05-22T10:44:26.000Z</time>
      </trkpt>
      <trkpt lat="46.76874" lon="6.35783">
        <ele>1020</ele>
        <time>2017-05-22T10:44:28.000Z</time>
      </trkpt>
      <trkpt lat="46.76876" lon="6.35782">
        <ele>1020</ele>
        <time>2017-05-22T10:44:30.000Z</time>
      </trkpt>
      <trkpt lat="46.76879" lon="6.35783">
        <ele>1020</ele>
        <time>2017-05-22T10:44:32.000Z</time>
      </trkpt>
      <trkpt lat="46.76882" lon="6.35783">
        <ele>1019.4545454546</ele>
        <time>2017-05-22T10:44:34.000Z</time>
      </trkpt>
      <trkpt lat="46.76884" lon="6.35785">
        <ele>1019</ele>
        <time>2017-05-22T10:44:36.000Z</time>
      </trkpt>
      <trkpt lat="46.76887" lon="6.35787">
        <ele>1019</ele>
        <time>2017-05-22T10:44:38.000Z</time>
      </trkpt>
      <trkpt lat="46.76888" lon="6.35789">
        <ele>1019</ele>
        <time>2017-05-22T10:44:39.000Z</time>
      </trkpt>
      <trkpt lat="46.7689" lon="6.35791">
        <ele>1019</ele>
        <time>2017-05-22T10:44:40.000Z</time>
      </trkpt>
      <trkpt lat="46.76893" lon="6.35793">
        <ele>1019</ele>
        <time>2017-05-22T10:44:42.000Z</time>
      </trkpt>
      <trkpt lat="46.76895" lon="6.35795">
        <ele>1019</ele>
        <time>2017-05-22T10:44:44.000Z</time>
      </trkpt>
      <trkpt lat="46.76897" lon="6.35798">
        <ele>1019</ele>
        <time>2017-05-22T10:44:46.000Z</time>
      </trkpt>
      <trkpt lat="46.76898" lon="6.358">
        <ele>1019</ele>
        <time>2017-05-22T10:44:48.000Z</time>
      </trkpt>
    </trkseg>
  </trk>
</gpx>